<?xml version='1.0' encoding='UTF-8'?><gpx version="1.1" creator="JPX - https://github.com/jenetics/jpx" xmlns="http://www.topografix.com/GPX/1/1"><trk><trkseg><trkpt lat="45.7479716" lon="11.6604805"><ele>103.00000000000001</ele><time>2026-04-26T07:28:23.317Z</time></trkpt><trkpt lat="45.7478789" lon="11.6604877"><ele>103.0</ele><time>2026-04-26T07:28:24.311Z</time></trkpt><trkpt lat="45.7478006" lon="11.6604902"><ele>103.0</ele><time>2026-04-26T07:28:25.314Z</time></trkpt><trkpt lat="45.7477331" lon="11.6604812"><ele>103.0</ele><time>2026-04-26T07:28:26.311Z</time></trkpt><trkpt lat="45.7476703" lon="11.66047"><ele>103.00000000000001</ele><time>2026-04-26T07:28:27.318Z</time></trkpt><trkpt lat="45.7475838" lon="11.6604691"><ele>103.0</ele><time>2026-04-26T07:28:33.323Z</time></trkpt><trkpt lat="45.7475272" lon="11.6605306"><ele>103.00000000000001</ele><time>2026-04-26T07:28:36.314Z</time></trkpt><trkpt lat="45.7475622" lon="11.6606194"><ele>103.0</ele><time>2026-04-26T07:28:44.241Z</time></trkpt><trkpt lat="45.7476627" lon="11.6606326"><ele>103.0</ele><time>2026-04-26T07:28:47.235Z</time></trkpt><trkpt lat="45.7477297" lon="11.6606125"><ele>103.0</ele><time>2026-04-26T07:28:50.239Z</time></trkpt><trkpt lat="45.7478065" lon="11.6606144"><ele>103.00000000000001</ele><time>2026-04-26T07:28:53.236Z</time></trkpt><trkpt lat="45.7478927" lon="11.6606088"><ele>103.0</ele><time>2026-04-26T07:28:56.239Z</time></trkpt><trkpt lat="45.7480225" lon="11.6605702"><ele>103.00000000000001</ele><time>2026-04-26T07:30:11.256Z</time></trkpt><trkpt lat="45.7480857" lon="11.6604929"><ele>103.0</ele><time>2026-04-26T07:30:15.252Z</time></trkpt><trkpt lat="45.7481482" lon="11.6604793"><ele>103.0</ele><time>2026-04-26T07:31:11.285Z</time></trkpt><trkpt lat="45.748221" lon="11.6604957"><ele>103.0</ele><time>2026-04-26T07:31:42.268Z</time></trkpt><trkpt lat="45.748163" lon="11.6605504"><ele>103.00000000000001</ele><time>2026-04-26T07:32:02.259Z</time></trkpt><trkpt lat="45.7480822" lon="11.6605993"><ele>103.0</ele><time>2026-04-26T07:32:17.269Z</time></trkpt><trkpt lat="45.7479553" lon="11.6606328"><ele>103.00000000000001</ele><time>2026-04-26T07:32:19.284Z</time></trkpt><trkpt lat="45.7478888" lon="11.6606564"><ele>103.0</ele><time>2026-04-26T07:32:20.271Z</time></trkpt><trkpt lat="45.7478219" lon="11.6606722"><ele>103.0</ele><time>2026-04-26T07:32:21.273Z</time></trkpt><trkpt lat="45.7477176" lon="11.660702"><ele>103.0</ele><time>2026-04-26T07:32:23.277Z</time></trkpt><trkpt lat="45.7476134" lon="11.6607174"><ele>103.00000000000001</ele><time>2026-04-26T07:32:25.293Z</time></trkpt><trkpt lat="45.7475163" lon="11.6607299"><ele>103.0</ele><time>2026-04-26T07:32:27.274Z</time></trkpt><trkpt lat="45.7474666" lon="11.6606709"><ele>103.00000000000001</ele><time>2026-04-26T07:32:33.275Z</time></trkpt><trkpt lat="45.7474523" lon="11.6605327"><ele>103.0</ele><time>2026-04-26T07:32:35.272Z</time></trkpt><trkpt lat="45.7474512" lon="11.6603681"><ele>103.0</ele><time>2026-04-26T07:32:37.277Z</time></trkpt><trkpt lat="45.7474477" lon="11.6602746"><ele>103.0</ele><time>2026-04-26T07:32:38.279Z</time></trkpt><trkpt lat="45.7474472" lon="11.6601804"><ele>103.00000000000001</ele><time>2026-04-26T07:32:39.281Z</time></trkpt><trkpt lat="45.7474453" lon="11.6600835"><ele>103.0</ele><time>2026-04-26T07:32:40.281Z</time></trkpt><trkpt lat="45.747443" lon="11.6599834"><ele>103.00000000000001</ele><time>2026-04-26T07:32:41.277Z</time></trkpt><trkpt lat="45.7474344" lon="11.6598755"><ele>103.0</ele><time>2026-04-26T07:32:42.275Z</time></trkpt><trkpt lat="45.7474329" lon="11.659776"><ele>103.0</ele><time>2026-04-26T07:32:43.28Z</time></trkpt><trkpt lat="45.7474286" lon="11.6596851"><ele>103.0</ele><time>2026-04-26T07:32:44.28Z</time></trkpt><trkpt lat="45.7474217" lon="11.6595274"><ele>103.00000000000001</ele><time>2026-04-26T07:32:46.278Z</time></trkpt><trkpt lat="45.7474176" lon="11.6593645"><ele>103.0</ele><time>2026-04-26T07:32:48.284Z</time></trkpt><trkpt lat="45.7474107" lon="11.6591951"><ele>103.00000000000001</ele><time>2026-04-26T07:32:50.283Z</time></trkpt><trkpt lat="45.7474077" lon="11.6591012"><ele>103.0</ele><time>2026-04-26T07:32:51.276Z</time></trkpt><trkpt lat="45.7473999" lon="11.6589957"><ele>103.0</ele><time>2026-04-26T07:32:52.28Z</time></trkpt><trkpt lat="45.7473984" lon="11.658888"><ele>103.0</ele><time>2026-04-26T07:32:53.277Z</time></trkpt><trkpt lat="45.7473926" lon="11.658779"><ele>103.00000000000001</ele><time>2026-04-26T07:32:54.274Z</time></trkpt><trkpt lat="45.7473829" lon="11.6586584"><ele>103.0</ele><time>2026-04-26T07:32:55.273Z</time></trkpt><trkpt lat="45.7473774" lon="11.6585396"><ele>102.83333333333334</ele><time>2026-04-26T07:32:56.289Z</time></trkpt><trkpt lat="45.7473707" lon="11.6584184"><ele>102.66666666666667</ele><time>2026-04-26T07:32:57.272Z</time></trkpt><trkpt lat="45.7473639" lon="11.6583039"><ele>102.5</ele><time>2026-04-26T07:32:58.27Z</time></trkpt><trkpt lat="45.7473578" lon="11.6581952"><ele>102.33333333333334</ele><time>2026-04-26T07:32:59.273Z</time></trkpt><trkpt lat="45.7473487" lon="11.6580948"><ele>102.16666666666667</ele><time>2026-04-26T07:33:00.271Z</time></trkpt><trkpt lat="45.7473398" lon="11.657925"><ele>102.0</ele><time>2026-04-26T07:33:02.277Z</time></trkpt><trkpt lat="45.7473392" lon="11.6577577"><ele>102.0</ele><time>2026-04-26T07:33:04.262Z</time></trkpt><trkpt lat="45.7473222" lon="11.6576185"><ele>102.0</ele><time>2026-04-26T07:33:06.27Z</time></trkpt><trkpt lat="45.7472399" lon="11.657579"><ele>102.0</ele><time>2026-04-26T07:33:08.273Z</time></trkpt><trkpt lat="45.7471701" lon="11.6576212"><ele>102.0</ele><time>2026-04-26T07:33:09.276Z</time></trkpt><trkpt lat="45.7470765" lon="11.6576987"><ele>102.0</ele><time>2026-04-26T07:33:10.272Z</time></trkpt><trkpt lat="45.7469907" lon="11.657793"><ele>102.0</ele><time>2026-04-26T07:33:11.276Z</time></trkpt><trkpt lat="45.7469074" lon="11.6578714"><ele>102.0</ele><time>2026-04-26T07:33:12.278Z</time></trkpt><trkpt lat="45.7468179" lon="11.6579426"><ele>102.0</ele><time>2026-04-26T07:33:13.271Z</time></trkpt><trkpt lat="45.7467327" lon="11.6580107"><ele>102.0</ele><time>2026-04-26T07:33:14.27Z</time></trkpt><trkpt lat="45.7466407" lon="11.6580768"><ele>102.0</ele><time>2026-04-26T07:33:15.269Z</time></trkpt><trkpt lat="45.7465417" lon="11.6581429"><ele>102.0</ele><time>2026-04-26T07:33:16.267Z</time></trkpt><trkpt lat="45.7464398" lon="11.6582075"><ele>102.0</ele><time>2026-04-26T07:33:17.269Z</time></trkpt><trkpt lat="45.746335" lon="11.658257"><ele>102.0</ele><time>2026-04-26T07:33:18.269Z</time></trkpt><trkpt lat="45.7462364" lon="11.6583022"><ele>102.0</ele><time>2026-04-26T07:33:19.281Z</time></trkpt><trkpt lat="45.7461534" lon="11.6583345"><ele>102.0</ele><time>2026-04-26T07:33:20.271Z</time></trkpt><trkpt lat="45.7460813" lon="11.6583504"><ele>101.83333333333333</ele><time>2026-04-26T07:33:21.276Z</time></trkpt><trkpt lat="45.7459851" lon="11.658335"><ele>101.66666666666666</ele><time>2026-04-26T07:33:23.277Z</time></trkpt><trkpt lat="45.7459023" lon="11.6583263"><ele>101.5</ele><time>2026-04-26T07:33:26.276Z</time></trkpt><trkpt lat="45.7458636" lon="11.6584148"><ele>101.33333333333333</ele><time>2026-04-26T07:33:28.279Z</time></trkpt><trkpt lat="45.7458722" lon="11.6585069"><ele>101.16666666666666</ele><time>2026-04-26T07:33:29.286Z</time></trkpt><trkpt lat="45.7458802" lon="11.6586118"><ele>101.0</ele><time>2026-04-26T07:33:30.277Z</time></trkpt><trkpt lat="45.7458789" lon="11.6587136"><ele>100.99999999999999</ele><time>2026-04-26T07:33:31.284Z</time></trkpt><trkpt lat="45.7458781" lon="11.6588085"><ele>101.0</ele><time>2026-04-26T07:33:32.273Z</time></trkpt><trkpt lat="45.7459267" lon="11.6589618"><ele>101.0</ele><time>2026-04-26T07:33:34.276Z</time></trkpt><trkpt lat="45.745991" lon="11.6590272"><ele>101.0</ele><time>2026-04-26T07:33:35.276Z</time></trkpt><trkpt lat="45.746061" lon="11.6590835"><ele>100.99999999999999</ele><time>2026-04-26T07:33:36.282Z</time></trkpt><trkpt lat="45.7461309" lon="11.6591482"><ele>101.0</ele><time>2026-04-26T07:33:37.284Z</time></trkpt><trkpt lat="45.7461977" lon="11.6592269"><ele>101.0</ele><time>2026-04-26T07:33:38.282Z</time></trkpt><trkpt lat="45.7462672" lon="11.6593176"><ele>101.0</ele><time>2026-04-26T07:33:39.284Z</time></trkpt><trkpt lat="45.7463402" lon="11.6594096"><ele>101.0</ele><time>2026-04-26T07:33:40.285Z</time></trkpt><trkpt lat="45.7464171" lon="11.6595049"><ele>101.0</ele><time>2026-04-26T07:33:41.292Z</time></trkpt><trkpt lat="45.7464981" lon="11.6596112"><ele>101.0</ele><time>2026-04-26T07:33:42.288Z</time></trkpt><trkpt lat="45.7465805" lon="11.6597298"><ele>101.25</ele><time>2026-04-26T07:33:43.291Z</time></trkpt><trkpt lat="45.7466607" lon="11.6598561"><ele>101.5</ele><time>2026-04-26T07:33:44.287Z</time></trkpt><trkpt lat="45.7467386" lon="11.6599815"><ele>101.75</ele><time>2026-04-26T07:33:45.275Z</time></trkpt><trkpt lat="45.7468164" lon="11.6601031"><ele>102.0</ele><time>2026-04-26T07:33:46.27Z</time></trkpt><trkpt lat="45.7468805" lon="11.6602319"><ele>102.0</ele><time>2026-04-26T07:33:47.278Z</time></trkpt><trkpt lat="45.7469402" lon="11.6603707"><ele>102.0</ele><time>2026-04-26T07:33:48.282Z</time></trkpt><trkpt lat="45.7469948" lon="11.6605136"><ele>102.0</ele><time>2026-04-26T07:33:49.298Z</time></trkpt><trkpt lat="45.7470442" lon="11.6606441"><ele>102.0</ele><time>2026-04-26T07:33:50.286Z</time></trkpt><trkpt lat="45.7470935" lon="11.6607746"><ele>102.0</ele><time>2026-04-26T07:33:51.289Z</time></trkpt><trkpt lat="45.7471428" lon="11.6609046"><ele>102.0</ele><time>2026-04-26T07:33:52.289Z</time></trkpt><trkpt lat="45.7471871" lon="11.6610341"><ele>102.0</ele><time>2026-04-26T07:33:53.302Z</time></trkpt><trkpt lat="45.7472278" lon="11.6611608"><ele>102.0</ele><time>2026-04-26T07:33:54.294Z</time></trkpt><trkpt lat="45.7472618" lon="11.6612789"><ele>102.0</ele><time>2026-04-26T07:33:55.282Z</time></trkpt><trkpt lat="45.7472885" lon="11.6613821"><ele>102.0</ele><time>2026-04-26T07:33:56.29Z</time></trkpt><trkpt lat="45.7473138" lon="11.6615191"><ele>102.19999999999999</ele><time>2026-04-26T07:33:58.304Z</time></trkpt><trkpt lat="45.7473346" lon="11.6616338"><ele>102.4</ele><time>2026-04-26T07:34:00.29Z</time></trkpt><trkpt lat="45.7473567" lon="11.6617331"><ele>102.6</ele><time>2026-04-26T07:34:03.299Z</time></trkpt><trkpt lat="45.747375" lon="11.6618337"><ele>102.80000000000001</ele><time>2026-04-26T07:34:07.302Z</time></trkpt><trkpt lat="45.7473977" lon="11.661954"><ele>103.0</ele><time>2026-04-26T07:34:09.304Z</time></trkpt><trkpt lat="45.7474373" lon="11.6621445"><ele>103.2</ele><time>2026-04-26T07:34:11.291Z</time></trkpt><trkpt lat="45.7474675" lon="11.6622625"><ele>103.4</ele><time>2026-04-26T07:34:12.294Z</time></trkpt><trkpt lat="45.747505" lon="11.6623945"><ele>103.60000000000001</ele><time>2026-04-26T07:34:13.292Z</time></trkpt><trkpt lat="45.7475341" lon="11.6625288"><ele>103.80000000000001</ele><time>2026-04-26T07:34:14.297Z</time></trkpt><trkpt lat="45.747554" lon="11.6626578"><ele>104.0</ele><time>2026-04-26T07:34:15.303Z</time></trkpt><trkpt lat="45.7475699" lon="11.6627805"><ele>103.99999999999999</ele><time>2026-04-26T07:34:16.292Z</time></trkpt><trkpt lat="45.7475926" lon="11.6628969"><ele>104.0</ele><time>2026-04-26T07:34:17.295Z</time></trkpt><trkpt lat="45.7476081" lon="11.6630115"><ele>104.0</ele><time>2026-04-26T07:34:18.287Z</time></trkpt><trkpt lat="45.747624" lon="11.6631304"><ele>104.0</ele><time>2026-04-26T07:34:19.295Z</time></trkpt><trkpt lat="45.7476421" lon="11.6632554"><ele>103.99999999999999</ele><time>2026-04-26T07:34:20.287Z</time></trkpt><trkpt lat="45.7476662" lon="11.663395"><ele>104.0</ele><time>2026-04-26T07:34:21.286Z</time></trkpt><trkpt lat="45.7476955" lon="11.6635478"><ele>103.5</ele><time>2026-04-26T07:34:22.287Z</time></trkpt><trkpt lat="45.7477315" lon="11.6637101"><ele>103.0</ele><time>2026-04-26T07:34:23.294Z</time></trkpt><trkpt lat="45.7477704" lon="11.6638769"><ele>102.5</ele><time>2026-04-26T07:34:24.294Z</time></trkpt><trkpt lat="45.7478089" lon="11.6640398"><ele>102.0</ele><time>2026-04-26T07:34:25.287Z</time></trkpt><trkpt lat="45.7478476" lon="11.6642021"><ele>102.0</ele><time>2026-04-26T07:34:26.291Z</time></trkpt><trkpt lat="45.7478897" lon="11.6643567"><ele>102.0</ele><time>2026-04-26T07:34:27.296Z</time></trkpt><trkpt lat="45.7479252" lon="11.6645005"><ele>102.0</ele><time>2026-04-26T07:34:28.291Z</time></trkpt><trkpt lat="45.7479544" lon="11.6646429"><ele>102.0</ele><time>2026-04-26T07:34:29.305Z</time></trkpt><trkpt lat="45.7479899" lon="11.6647847"><ele>102.0</ele><time>2026-04-26T07:34:30.278Z</time></trkpt><trkpt lat="45.7480252" lon="11.6649267"><ele>102.5</ele><time>2026-04-26T07:34:31.29Z</time></trkpt><trkpt lat="45.7480617" lon="11.6650597"><ele>103.0</ele><time>2026-04-26T07:34:32.292Z</time></trkpt><trkpt lat="45.7480927" lon="11.6651816"><ele>103.5</ele><time>2026-04-26T07:34:33.292Z</time></trkpt><trkpt lat="45.7481214" lon="11.6652982"><ele>104.0</ele><time>2026-04-26T07:34:34.294Z</time></trkpt><trkpt lat="45.7481445" lon="11.6654077"><ele>104.5</ele><time>2026-04-26T07:34:35.292Z</time></trkpt><trkpt lat="45.7481658" lon="11.6655101"><ele>105.0</ele><time>2026-04-26T07:34:36.291Z</time></trkpt><trkpt lat="45.7481904" lon="11.6656139"><ele>105.0</ele><time>2026-04-26T07:34:37.289Z</time></trkpt><trkpt lat="45.7482107" lon="11.6657121"><ele>105.0</ele><time>2026-04-26T07:34:38.292Z</time></trkpt><trkpt lat="45.7482312" lon="11.6658057"><ele>105.0</ele><time>2026-04-26T07:34:39.3Z</time></trkpt><trkpt lat="45.7482509" lon="11.6658925"><ele>105.0</ele><time>2026-04-26T07:34:40.288Z</time></trkpt><trkpt lat="45.7482755" lon="11.6660677"><ele>105.0</ele><time>2026-04-26T07:34:42.291Z</time></trkpt><trkpt lat="45.7482761" lon="11.6661671"><ele>105.0</ele><time>2026-04-26T07:34:43.295Z</time></trkpt><trkpt lat="45.7482693" lon="11.6662837"><ele>105.0</ele><time>2026-04-26T07:34:44.285Z</time></trkpt><trkpt lat="45.7482837" lon="11.6663965"><ele>105.0</ele><time>2026-04-26T07:34:45.29Z</time></trkpt><trkpt lat="45.7483259" lon="11.6665208"><ele>105.0</ele><time>2026-04-26T07:34:46.286Z</time></trkpt><trkpt lat="45.7483768" lon="11.6666456"><ele>105.0</ele><time>2026-04-26T07:34:47.292Z</time></trkpt><trkpt lat="45.7484369" lon="11.6667983"><ele>105.0</ele><time>2026-04-26T07:34:48.288Z</time></trkpt><trkpt lat="45.7485008" lon="11.6670063"><ele>104.66666666666666</ele><time>2026-04-26T07:34:49.298Z</time></trkpt><trkpt lat="45.7485662" lon="11.6672868"><ele>104.33333333333333</ele><time>2026-04-26T07:34:50.273Z</time></trkpt><trkpt lat="45.7486281" lon="11.6675661"><ele>104.0</ele><time>2026-04-26T07:34:51.275Z</time></trkpt><trkpt lat="45.7486868" lon="11.6678001"><ele>104.0</ele><time>2026-04-26T07:34:52.285Z</time></trkpt><trkpt lat="45.7487412" lon="11.6680005"><ele>104.0</ele><time>2026-04-26T07:34:53.293Z</time></trkpt><trkpt lat="45.7487982" lon="11.6681925"><ele>104.0</ele><time>2026-04-26T07:34:54.288Z</time></trkpt><trkpt lat="45.748851" lon="11.6683793"><ele>104.0</ele><time>2026-04-26T07:34:55.295Z</time></trkpt><trkpt lat="45.7489066" lon="11.6685762"><ele>104.25</ele><time>2026-04-26T07:34:56.293Z</time></trkpt><trkpt lat="45.7489552" lon="11.6687646"><ele>104.5</ele><time>2026-04-26T07:34:57.293Z</time></trkpt><trkpt lat="45.7490083" lon="11.6689387"><ele>104.75</ele><time>2026-04-26T07:34:58.292Z</time></trkpt><trkpt lat="45.7490738" lon="11.6691105"><ele>105.0</ele><time>2026-04-26T07:34:59.287Z</time></trkpt><trkpt lat="45.7491392" lon="11.669294"><ele>105.0</ele><time>2026-04-26T07:35:00.304Z</time></trkpt><trkpt lat="45.7492144" lon="11.6694684"><ele>105.0</ele><time>2026-04-26T07:35:01.283Z</time></trkpt><trkpt lat="45.7492798" lon="11.6696229"><ele>105.0</ele><time>2026-04-26T07:35:02.291Z</time></trkpt><trkpt lat="45.7493532" lon="11.6697651"><ele>105.0</ele><time>2026-04-26T07:35:03.288Z</time></trkpt><trkpt lat="45.7494221" lon="11.6699185"><ele>104.5</ele><time>2026-04-26T07:35:04.294Z</time></trkpt><trkpt lat="45.7494892" lon="11.6700565"><ele>104.0</ele><time>2026-04-26T07:35:05.289Z</time></trkpt><trkpt lat="45.7495535" lon="11.6701902"><ele>103.5</ele><time>2026-04-26T07:35:06.293Z</time></trkpt><trkpt lat="45.7496267" lon="11.6703209"><ele>103.0</ele><time>2026-04-26T07:35:07.296Z</time></trkpt><trkpt lat="45.7497037" lon="11.6704451"><ele>103.0</ele><time>2026-04-26T07:35:08.29Z</time></trkpt><trkpt lat="45.7497811" lon="11.6705654"><ele>103.0</ele><time>2026-04-26T07:35:09.292Z</time></trkpt><trkpt lat="45.7498543" lon="11.6706831"><ele>103.0</ele><time>2026-04-26T07:35:10.293Z</time></trkpt><trkpt lat="45.749925" lon="11.6707994"><ele>103.0</ele><time>2026-04-26T07:35:11.294Z</time></trkpt><trkpt lat="45.7499944" lon="11.6709119"><ele>103.0</ele><time>2026-04-26T07:35:12.295Z</time></trkpt><trkpt lat="45.7500624" lon="11.6710199"><ele>103.0</ele><time>2026-04-26T07:35:13.298Z</time></trkpt><trkpt lat="45.7501319" lon="11.6711271"><ele>103.0</ele><time>2026-04-26T07:35:14.296Z</time></trkpt><trkpt lat="45.7502039" lon="11.6712395"><ele>103.0</ele><time>2026-04-26T07:35:15.298Z</time></trkpt><trkpt lat="45.7502754" lon="11.6713612"><ele>103.0</ele><time>2026-04-26T07:35:16.298Z</time></trkpt><trkpt lat="45.7503524" lon="11.671487"><ele>103.0</ele><time>2026-04-26T07:35:17.298Z</time></trkpt><trkpt lat="45.7504285" lon="11.6716189"><ele>103.5</ele><time>2026-04-26T07:35:18.295Z</time></trkpt><trkpt lat="45.7505072" lon="11.6717519"><ele>104.0</ele><time>2026-04-26T07:35:19.307Z</time></trkpt><trkpt lat="45.7505905" lon="11.6718928"><ele>104.5</ele><time>2026-04-26T07:35:20.292Z</time></trkpt><trkpt lat="45.7506773" lon="11.6720342"><ele>105.0</ele><time>2026-04-26T07:35:21.289Z</time></trkpt><trkpt lat="45.7507642" lon="11.6721762"><ele>105.0</ele><time>2026-04-26T07:35:22.29Z</time></trkpt><trkpt lat="45.750858" lon="11.6723402"><ele>105.0</ele><time>2026-04-26T07:35:23.292Z</time></trkpt><trkpt lat="45.7509578" lon="11.6725236"><ele>105.0</ele><time>2026-04-26T07:35:24.293Z</time></trkpt><trkpt lat="45.7510546" lon="11.6726906"><ele>105.0</ele><time>2026-04-26T07:35:25.298Z</time></trkpt><trkpt lat="45.7511517" lon="11.6728492"><ele>105.0</ele><time>2026-04-26T07:35:26.29Z</time></trkpt><trkpt lat="45.7512432" lon="11.6730161"><ele>105.0</ele><time>2026-04-26T07:35:27.293Z</time></trkpt><trkpt lat="45.7513225" lon="11.6731821"><ele>105.0</ele><time>2026-04-26T07:35:28.298Z</time></trkpt><trkpt lat="45.751402" lon="11.6733654"><ele>105.0</ele><time>2026-04-26T07:35:29.3Z</time></trkpt><trkpt lat="45.7514862" lon="11.6735418"><ele>105.0</ele><time>2026-04-26T07:35:30.305Z</time></trkpt><trkpt lat="45.7515739" lon="11.673715"><ele>105.0</ele><time>2026-04-26T07:35:31.317Z</time></trkpt><trkpt lat="45.751656" lon="11.6738961"><ele>105.0</ele><time>2026-04-26T07:35:32.299Z</time></trkpt><trkpt lat="45.751739" lon="11.6740831"><ele>105.33333333333334</ele><time>2026-04-26T07:35:33.299Z</time></trkpt><trkpt lat="45.7518209" lon="11.6742609"><ele>105.66666666666667</ele><time>2026-04-26T07:35:34.3Z</time></trkpt><trkpt lat="45.7519144" lon="11.6744348"><ele>106.0</ele><time>2026-04-26T07:35:35.288Z</time></trkpt><trkpt lat="45.7520039" lon="11.6746209"><ele>105.25</ele><time>2026-04-26T07:35:36.292Z</time></trkpt><trkpt lat="45.7520961" lon="11.6747824"><ele>104.5</ele><time>2026-04-26T07:35:37.294Z</time></trkpt><trkpt lat="45.7521882" lon="11.6749579"><ele>103.75</ele><time>2026-04-26T07:35:38.293Z</time></trkpt><trkpt lat="45.7522896" lon="11.6751129"><ele>103.0</ele><time>2026-04-26T07:35:39.292Z</time></trkpt><trkpt lat="45.7523934" lon="11.6752617"><ele>102.75</ele><time>2026-04-26T07:35:40.285Z</time></trkpt><trkpt lat="45.7524844" lon="11.6754273"><ele>102.5</ele><time>2026-04-26T07:35:41.294Z</time></trkpt><trkpt lat="45.7525844" lon="11.6755881"><ele>102.25</ele><time>2026-04-26T07:35:42.29Z</time></trkpt><trkpt lat="45.7526852" lon="11.6757463"><ele>102.0</ele><time>2026-04-26T07:35:43.29Z</time></trkpt><trkpt lat="45.7527864" lon="11.6759048"><ele>102.75</ele><time>2026-04-26T07:35:44.292Z</time></trkpt><trkpt lat="45.7528835" lon="11.676042"><ele>103.5</ele><time>2026-04-26T07:35:45.293Z</time></trkpt><trkpt lat="45.7529774" lon="11.67619"><ele>104.25</ele><time>2026-04-26T07:35:46.295Z</time></trkpt><trkpt lat="45.7530655" lon="11.6763266"><ele>105.0</ele><time>2026-04-26T07:35:47.296Z</time></trkpt><trkpt lat="45.7531494" lon="11.6764682"><ele>105.0</ele><time>2026-04-26T07:35:48.297Z</time></trkpt><trkpt lat="45.7532324" lon="11.6766155"><ele>105.0</ele><time>2026-04-26T07:35:49.303Z</time></trkpt><trkpt lat="45.753321" lon="11.6767788"><ele>105.0</ele><time>2026-04-26T07:35:50.297Z</time></trkpt><trkpt lat="45.753408" lon="11.6769455"><ele>105.0</ele><time>2026-04-26T07:35:51.297Z</time></trkpt><trkpt lat="45.7534899" lon="11.6771265"><ele>106.0</ele><time>2026-04-26T07:35:52.297Z</time></trkpt><trkpt lat="45.7535521" lon="11.6773098"><ele>107.0</ele><time>2026-04-26T07:35:53.296Z</time></trkpt><trkpt lat="45.7535984" lon="11.6774924"><ele>108.0</ele><time>2026-04-26T07:35:54.302Z</time></trkpt><trkpt lat="45.7536325" lon="11.6776734"><ele>109.0</ele><time>2026-04-26T07:35:55.303Z</time></trkpt><trkpt lat="45.7536641" lon="11.6778652"><ele>109.0</ele><time>2026-04-26T07:35:56.3Z</time></trkpt><trkpt lat="45.753686" lon="11.6780484"><ele>109.0</ele><time>2026-04-26T07:35:57.302Z</time></trkpt><trkpt lat="45.7537101" lon="11.6782445"><ele>109.0</ele><time>2026-04-26T07:35:58.297Z</time></trkpt><trkpt lat="45.7537342" lon="11.6784204"><ele>109.0</ele><time>2026-04-26T07:35:59.296Z</time></trkpt><trkpt lat="45.7537619" lon="11.6785973"><ele>109.0</ele><time>2026-04-26T07:36:00.294Z</time></trkpt><trkpt lat="45.7537933" lon="11.6787772"><ele>109.0</ele><time>2026-04-26T07:36:01.294Z</time></trkpt><trkpt lat="45.7538274" lon="11.678947"><ele>109.0</ele><time>2026-04-26T07:36:02.327Z</time></trkpt><trkpt lat="45.7538686" lon="11.6791174"><ele>109.0</ele><time>2026-04-26T07:36:03.294Z</time></trkpt><trkpt lat="45.753914" lon="11.6792665"><ele>109.0</ele><time>2026-04-26T07:36:04.294Z</time></trkpt><trkpt lat="45.7539804" lon="11.6794113"><ele>109.0</ele><time>2026-04-26T07:36:05.291Z</time></trkpt><trkpt lat="45.754052" lon="11.6795524"><ele>109.0</ele><time>2026-04-26T07:36:06.289Z</time></trkpt><trkpt lat="45.7541378" lon="11.679679"><ele>109.0</ele><time>2026-04-26T07:36:07.295Z</time></trkpt><trkpt lat="45.7542311" lon="11.679805"><ele>108.5</ele><time>2026-04-26T07:36:08.29Z</time></trkpt><trkpt lat="45.7543273" lon="11.6799291"><ele>108.0</ele><time>2026-04-26T07:36:09.297Z</time></trkpt><trkpt lat="45.7544269" lon="11.6800553"><ele>107.5</ele><time>2026-04-26T07:36:10.294Z</time></trkpt><trkpt lat="45.7545237" lon="11.6801838"><ele>107.0</ele><time>2026-04-26T07:36:11.293Z</time></trkpt><trkpt lat="45.7546251" lon="11.6803092"><ele>106.5</ele><time>2026-04-26T07:36:12.293Z</time></trkpt><trkpt lat="45.754725" lon="11.6804314"><ele>106.0</ele><time>2026-04-26T07:36:13.296Z</time></trkpt><trkpt lat="45.7548255" lon="11.6805551"><ele>105.5</ele><time>2026-04-26T07:36:14.296Z</time></trkpt><trkpt lat="45.754923" lon="11.6806758"><ele>105.0</ele><time>2026-04-26T07:36:15.293Z</time></trkpt><trkpt lat="45.7550175" lon="11.6807955"><ele>105.0</ele><time>2026-04-26T07:36:16.294Z</time></trkpt><trkpt lat="45.7551098" lon="11.6809172"><ele>105.0</ele><time>2026-04-26T07:36:17.294Z</time></trkpt><trkpt lat="45.7551999" lon="11.6810422"><ele>105.0</ele><time>2026-04-26T07:36:18.293Z</time></trkpt><trkpt lat="45.7552878" lon="11.6811812"><ele>105.0</ele><time>2026-04-26T07:36:19.305Z</time></trkpt><trkpt lat="45.7553727" lon="11.681326"><ele>105.75</ele><time>2026-04-26T07:36:20.298Z</time></trkpt><trkpt lat="45.7554553" lon="11.6814756"><ele>106.5</ele><time>2026-04-26T07:36:21.296Z</time></trkpt><trkpt lat="45.7555362" lon="11.68163"><ele>107.25</ele><time>2026-04-26T07:36:22.3Z</time></trkpt><trkpt lat="45.7556096" lon="11.6817809"><ele>108.0</ele><time>2026-04-26T07:36:23.301Z</time></trkpt><trkpt lat="45.7556776" lon="11.6819446"><ele>108.25</ele><time>2026-04-26T07:36:24.297Z</time></trkpt><trkpt lat="45.7557478" lon="11.6821146"><ele>108.5</ele><time>2026-04-26T07:36:25.295Z</time></trkpt><trkpt lat="45.7558125" lon="11.6822945"><ele>108.75</ele><time>2026-04-26T07:36:26.298Z</time></trkpt><trkpt lat="45.7558864" lon="11.6824797"><ele>109.0</ele><time>2026-04-26T07:36:27.301Z</time></trkpt><trkpt lat="45.7559575" lon="11.6826666"><ele>109.5</ele><time>2026-04-26T07:36:28.296Z</time></trkpt><trkpt lat="45.7560326" lon="11.6828485"><ele>110.0</ele><time>2026-04-26T07:36:29.296Z</time></trkpt><trkpt lat="45.7560992" lon="11.6830311"><ele>110.5</ele><time>2026-04-26T07:36:30.296Z</time></trkpt><trkpt lat="45.7561754" lon="11.6832098"><ele>111.0</ele><time>2026-04-26T07:36:31.294Z</time></trkpt><trkpt lat="45.7562542" lon="11.6833796"><ele>111.0</ele><time>2026-04-26T07:36:32.305Z</time></trkpt><trkpt lat="45.7563282" lon="11.6835672"><ele>111.0</ele><time>2026-04-26T07:36:33.292Z</time></trkpt><trkpt lat="45.7564057" lon="11.6837816"><ele>111.0</ele><time>2026-04-26T07:36:34.291Z</time></trkpt><trkpt lat="45.756486" lon="11.6839698"><ele>110.33333333333334</ele><time>2026-04-26T07:36:35.284Z</time></trkpt><trkpt lat="45.7565728" lon="11.6841622"><ele>109.66666666666667</ele><time>2026-04-26T07:36:36.292Z</time></trkpt><trkpt lat="45.7566691" lon="11.6843368"><ele>109.0</ele><time>2026-04-26T07:36:37.289Z</time></trkpt><trkpt lat="45.7567498" lon="11.6845068"><ele>109.0</ele><time>2026-04-26T07:36:38.288Z</time></trkpt><trkpt lat="45.7568235" lon="11.6846863"><ele>109.0</ele><time>2026-04-26T07:36:39.297Z</time></trkpt><trkpt lat="45.756892" lon="11.6848673"><ele>109.0</ele><time>2026-04-26T07:36:40.294Z</time></trkpt><trkpt lat="45.7569808" lon="11.6850378"><ele>109.0</ele><time>2026-04-26T07:36:41.292Z</time></trkpt><trkpt lat="45.7570699" lon="11.6851942"><ele>109.0</ele><time>2026-04-26T07:36:42.298Z</time></trkpt><trkpt lat="45.7571647" lon="11.6853438"><ele>109.0</ele><time>2026-04-26T07:36:43.298Z</time></trkpt><trkpt lat="45.7572746" lon="11.6854713"><ele>109.0</ele><time>2026-04-26T07:36:44.297Z</time></trkpt><trkpt lat="45.7573962" lon="11.6855913"><ele>109.0</ele><time>2026-04-26T07:36:45.301Z</time></trkpt><trkpt lat="45.7575179" lon="11.6857097"><ele>109.0</ele><time>2026-04-26T07:36:46.298Z</time></trkpt><trkpt lat="45.7576442" lon="11.6858172"><ele>109.0</ele><time>2026-04-26T07:36:47.3Z</time></trkpt><trkpt lat="45.7577695" lon="11.6859313"><ele>109.0</ele><time>2026-04-26T07:36:48.289Z</time></trkpt><trkpt lat="45.7578906" lon="11.6860465"><ele>109.0</ele><time>2026-04-26T07:36:49.302Z</time></trkpt><trkpt lat="45.7580126" lon="11.6861578"><ele>109.25</ele><time>2026-04-26T07:36:50.293Z</time></trkpt><trkpt lat="45.7581396" lon="11.6862729"><ele>109.5</ele><time>2026-04-26T07:36:51.29Z</time></trkpt><trkpt lat="45.7582597" lon="11.6863914"><ele>109.75</ele><time>2026-04-26T07:36:52.294Z</time></trkpt><trkpt lat="45.7583728" lon="11.6865009"><ele>110.0</ele><time>2026-04-26T07:36:53.298Z</time></trkpt><trkpt lat="45.7584885" lon="11.6866176"><ele>110.0</ele><time>2026-04-26T07:36:54.293Z</time></trkpt><trkpt lat="45.7585997" lon="11.686728"><ele>110.0</ele><time>2026-04-26T07:36:55.287Z</time></trkpt><trkpt lat="45.7587096" lon="11.6868583"><ele>110.0</ele><time>2026-04-26T07:36:56.29Z</time></trkpt><trkpt lat="45.7588136" lon="11.687007"><ele>110.0</ele><time>2026-04-26T07:36:57.294Z</time></trkpt><trkpt lat="45.7589116" lon="11.6871483"><ele>110.25</ele><time>2026-04-26T07:36:58.29Z</time></trkpt><trkpt lat="45.7590076" lon="11.6872787"><ele>110.5</ele><time>2026-04-26T07:36:59.29Z</time></trkpt><trkpt lat="45.7590873" lon="11.6873953"><ele>110.75</ele><time>2026-04-26T07:37:00.294Z</time></trkpt><trkpt lat="45.7591635" lon="11.687517"><ele>111.0</ele><time>2026-04-26T07:37:01.295Z</time></trkpt><trkpt lat="45.7592441" lon="11.6876376"><ele>110.8</ele><time>2026-04-26T07:37:02.293Z</time></trkpt><trkpt lat="45.7593215" lon="11.6877639"><ele>110.6</ele><time>2026-04-26T07:37:03.311Z</time></trkpt><trkpt lat="45.7593897" lon="11.6878848"><ele>110.4</ele><time>2026-04-26T07:37:04.297Z</time></trkpt><trkpt lat="45.7594607" lon="11.6880068"><ele>110.2</ele><time>2026-04-26T07:37:05.294Z</time></trkpt><trkpt lat="45.7595314" lon="11.6881178"><ele>110.0</ele><time>2026-04-26T07:37:06.293Z</time></trkpt><trkpt lat="45.7596069" lon="11.6882402"><ele>110.0</ele><time>2026-04-26T07:37:07.293Z</time></trkpt><trkpt lat="45.7596846" lon="11.6883693"><ele>110.0</ele><time>2026-04-26T07:37:08.293Z</time></trkpt><trkpt lat="45.75977" lon="11.6884989"><ele>110.0</ele><time>2026-04-26T07:37:09.294Z</time></trkpt><trkpt lat="45.7598526" lon="11.6886391"><ele>110.0</ele><time>2026-04-26T07:37:10.296Z</time></trkpt><trkpt lat="45.7599449" lon="11.6887817"><ele>110.0</ele><time>2026-04-26T07:37:11.291Z</time></trkpt><trkpt lat="45.760032" lon="11.6889363"><ele>110.0</ele><time>2026-04-26T07:37:12.293Z</time></trkpt><trkpt lat="45.7601136" lon="11.6891094"><ele>110.0</ele><time>2026-04-26T07:37:13.292Z</time></trkpt><trkpt lat="45.7601748" lon="11.6893067"><ele>110.0</ele><time>2026-04-26T07:37:14.295Z</time></trkpt><trkpt lat="45.7602294" lon="11.6895015"><ele>110.25</ele><time>2026-04-26T07:37:15.295Z</time></trkpt><trkpt lat="45.7602768" lon="11.6896978"><ele>110.5</ele><time>2026-04-26T07:37:16.297Z</time></trkpt><trkpt lat="45.7603088" lon="11.6899113"><ele>110.75</ele><time>2026-04-26T07:37:17.299Z</time></trkpt><trkpt lat="45.7603261" lon="11.6901119"><ele>111.0</ele><time>2026-04-26T07:37:18.301Z</time></trkpt><trkpt lat="45.7603307" lon="11.6903152"><ele>111.0</ele><time>2026-04-26T07:37:19.315Z</time></trkpt><trkpt lat="45.7603286" lon="11.6905176"><ele>111.0</ele><time>2026-04-26T07:37:20.305Z</time></trkpt><trkpt lat="45.7603239" lon="11.6907236"><ele>111.0</ele><time>2026-04-26T07:37:21.307Z</time></trkpt><trkpt lat="45.7603055" lon="11.6909315"><ele>111.0</ele><time>2026-04-26T07:37:22.304Z</time></trkpt><trkpt lat="45.7602891" lon="11.6911374"><ele>110.5</ele><time>2026-04-26T07:37:23.309Z</time></trkpt><trkpt lat="45.7602708" lon="11.6913489"><ele>110.0</ele><time>2026-04-26T07:37:24.31Z</time></trkpt><trkpt lat="45.7602524" lon="11.6915628"><ele>109.5</ele><time>2026-04-26T07:37:25.301Z</time></trkpt><trkpt lat="45.7602288" lon="11.691775"><ele>109.0</ele><time>2026-04-26T07:37:26.31Z</time></trkpt><trkpt lat="45.7602095" lon="11.6919871"><ele>108.66666666666667</ele><time>2026-04-26T07:37:27.313Z</time></trkpt><trkpt lat="45.7601861" lon="11.6922039"><ele>108.33333333333334</ele><time>2026-04-26T07:37:28.316Z</time></trkpt><trkpt lat="45.7601689" lon="11.6924299"><ele>108.0</ele><time>2026-04-26T07:37:29.306Z</time></trkpt><trkpt lat="45.7601465" lon="11.6926574"><ele>108.66666666666666</ele><time>2026-04-26T07:37:30.311Z</time></trkpt><trkpt lat="45.7601118" lon="11.6928779"><ele>109.33333333333333</ele><time>2026-04-26T07:37:31.3Z</time></trkpt><trkpt lat="45.7600883" lon="11.6930894"><ele>110.0</ele><time>2026-04-26T07:37:32.296Z</time></trkpt><trkpt lat="45.7600748" lon="11.6933011"><ele>110.0</ele><time>2026-04-26T07:37:33.301Z</time></trkpt><trkpt lat="45.7600559" lon="11.6935136"><ele>110.0</ele><time>2026-04-26T07:37:34.314Z</time></trkpt><trkpt lat="45.7600353" lon="11.693737"><ele>110.0</ele><time>2026-04-26T07:37:35.295Z</time></trkpt><trkpt lat="45.7600092" lon="11.6939507"><ele>109.66666666666666</ele><time>2026-04-26T07:37:36.298Z</time></trkpt><trkpt lat="45.7599894" lon="11.6941642"><ele>109.33333333333334</ele><time>2026-04-26T07:37:37.3Z</time></trkpt><trkpt lat="45.7599805" lon="11.6943739"><ele>109.0</ele><time>2026-04-26T07:37:38.295Z</time></trkpt><trkpt lat="45.7599688" lon="11.6945962"><ele>109.0</ele><time>2026-04-26T07:37:39.298Z</time></trkpt><trkpt lat="45.7599449" lon="11.694811"><ele>109.0</ele><time>2026-04-26T07:37:40.297Z</time></trkpt><trkpt lat="45.759926" lon="11.695023"><ele>109.0</ele><time>2026-04-26T07:37:41.297Z</time></trkpt><trkpt lat="45.7599114" lon="11.6952446"><ele>109.0</ele><time>2026-04-26T07:37:42.305Z</time></trkpt><trkpt lat="45.7598888" lon="11.6954458"><ele>109.0</ele><time>2026-04-26T07:37:43.298Z</time></trkpt><trkpt lat="45.7598727" lon="11.6956694"><ele>109.0</ele><time>2026-04-26T07:37:44.301Z</time></trkpt><trkpt lat="45.7598657" lon="11.6958873"><ele>108.33333333333334</ele><time>2026-04-26T07:37:45.306Z</time></trkpt><trkpt lat="45.7598412" lon="11.6961067"><ele>107.66666666666666</ele><time>2026-04-26T07:37:46.303Z</time></trkpt><trkpt lat="45.7598038" lon="11.6963342"><ele>107.0</ele><time>2026-04-26T07:37:47.298Z</time></trkpt><trkpt lat="45.7597801" lon="11.6965786"><ele>107.0</ele><time>2026-04-26T07:37:48.297Z</time></trkpt><trkpt lat="45.7597555" lon="11.6968181"><ele>107.0</ele><time>2026-04-26T07:37:49.309Z</time></trkpt><trkpt lat="45.7597326" lon="11.6970598"><ele>107.0</ele><time>2026-04-26T07:37:50.311Z</time></trkpt><trkpt lat="45.7597101" lon="11.6973031"><ele>106.33333333333333</ele><time>2026-04-26T07:37:51.309Z</time></trkpt><trkpt lat="45.7596889" lon="11.6975549"><ele>105.66666666666666</ele><time>2026-04-26T07:37:52.312Z</time></trkpt><trkpt lat="45.7596652" lon="11.6977978"><ele>105.0</ele><time>2026-04-26T07:37:53.314Z</time></trkpt><trkpt lat="45.7596353" lon="11.6980285"><ele>104.66666666666666</ele><time>2026-04-26T07:37:54.308Z</time></trkpt><trkpt lat="45.7596176" lon="11.6982651"><ele>104.33333333333333</ele><time>2026-04-26T07:37:55.31Z</time></trkpt><trkpt lat="45.7595981" lon="11.698519"><ele>104.0</ele><time>2026-04-26T07:37:56.313Z</time></trkpt><trkpt lat="45.7595863" lon="11.6987776"><ele>104.66666666666666</ele><time>2026-04-26T07:37:57.313Z</time></trkpt><trkpt lat="45.7595617" lon="11.6990268"><ele>105.33333333333334</ele><time>2026-04-26T07:37:58.315Z</time></trkpt><trkpt lat="45.7595387" lon="11.6992732"><ele>106.0</ele><time>2026-04-26T07:37:59.312Z</time></trkpt><trkpt lat="45.7595166" lon="11.699519"><ele>106.0</ele><time>2026-04-26T07:38:00.317Z</time></trkpt><trkpt lat="45.759494" lon="11.699765"><ele>106.0</ele><time>2026-04-26T07:38:01.315Z</time></trkpt><trkpt lat="45.7594745" lon="11.7000137"><ele>106.0</ele><time>2026-04-26T07:38:02.311Z</time></trkpt><trkpt lat="45.7594564" lon="11.7002719"><ele>106.66666666666667</ele><time>2026-04-26T07:38:03.316Z</time></trkpt><trkpt lat="45.7594321" lon="11.7005221"><ele>107.33333333333334</ele><time>2026-04-26T07:38:04.309Z</time></trkpt><trkpt lat="45.7594165" lon="11.7007587"><ele>108.0</ele><time>2026-04-26T07:38:05.325Z</time></trkpt><trkpt lat="45.7593958" lon="11.7009848"><ele>108.0</ele><time>2026-04-26T07:38:06.303Z</time></trkpt><trkpt lat="45.7593807" lon="11.701215"><ele>108.0</ele><time>2026-04-26T07:38:07.304Z</time></trkpt><trkpt lat="45.7593659" lon="11.7014476"><ele>108.0</ele><time>2026-04-26T07:38:08.311Z</time></trkpt><trkpt lat="45.7593459" lon="11.7016651"><ele>108.0</ele><time>2026-04-26T07:38:09.311Z</time></trkpt><trkpt lat="45.7593264" lon="11.7018807"><ele>108.0</ele><time>2026-04-26T07:38:10.307Z</time></trkpt><trkpt lat="45.7593066" lon="11.7021103"><ele>108.0</ele><time>2026-04-26T07:38:11.315Z</time></trkpt><trkpt lat="45.7592899" lon="11.7023375"><ele>107.66666666666666</ele><time>2026-04-26T07:38:12.31Z</time></trkpt><trkpt lat="45.7592638" lon="11.7025645"><ele>107.33333333333333</ele><time>2026-04-26T07:38:13.311Z</time></trkpt><trkpt lat="45.7592359" lon="11.7027841"><ele>107.0</ele><time>2026-04-26T07:38:14.309Z</time></trkpt><trkpt lat="45.7592131" lon="11.7030047"><ele>106.75</ele><time>2026-04-26T07:38:15.311Z</time></trkpt><trkpt lat="45.7591952" lon="11.703208"><ele>106.5</ele><time>2026-04-26T07:38:16.311Z</time></trkpt><trkpt lat="45.7591794" lon="11.7033965"><ele>106.25</ele><time>2026-04-26T07:38:17.317Z</time></trkpt><trkpt lat="45.7591621" lon="11.7035737"><ele>106.0</ele><time>2026-04-26T07:38:18.312Z</time></trkpt><trkpt lat="45.7591495" lon="11.7037556"><ele>106.0</ele><time>2026-04-26T07:38:19.309Z</time></trkpt><trkpt lat="45.7591284" lon="11.7039202"><ele>106.0</ele><time>2026-04-26T07:38:20.315Z</time></trkpt><trkpt lat="45.7591156" lon="11.7040749"><ele>106.0</ele><time>2026-04-26T07:38:21.304Z</time></trkpt><trkpt lat="45.759099" lon="11.7042057"><ele>106.0</ele><time>2026-04-26T07:38:22.309Z</time></trkpt><trkpt lat="45.7590794" lon="11.7042931"><ele>106.0</ele><time>2026-04-26T07:38:23.305Z</time></trkpt><trkpt lat="45.7590645" lon="11.704467"><ele>106.19999999999999</ele><time>2026-04-26T07:38:25.301Z</time></trkpt><trkpt lat="45.7590676" lon="11.7045962"><ele>106.39999999999999</ele><time>2026-04-26T07:38:27.305Z</time></trkpt><trkpt lat="45.7590627" lon="11.7047365"><ele>106.6</ele><time>2026-04-26T07:38:29.316Z</time></trkpt><trkpt lat="45.7590193" lon="11.7048528"><ele>106.8</ele><time>2026-04-26T07:38:31.314Z</time></trkpt><trkpt lat="45.758924" lon="11.7049435"><ele>107.0</ele><time>2026-04-26T07:38:33.315Z</time></trkpt><trkpt lat="45.7588706" lon="11.7050625"><ele>107.0</ele><time>2026-04-26T07:38:35.314Z</time></trkpt><trkpt lat="45.7589522" lon="11.7051899"><ele>106.99999999999999</ele><time>2026-04-26T07:38:37.311Z</time></trkpt><trkpt lat="45.7590228" lon="11.7052428"><ele>106.99999999999999</ele><time>2026-04-26T07:38:38.309Z</time></trkpt><trkpt lat="45.7590878" lon="11.7053082"><ele>107.0</ele><time>2026-04-26T07:38:39.312Z</time></trkpt><trkpt lat="45.7591479" lon="11.7054191"><ele>107.0</ele><time>2026-04-26T07:38:40.313Z</time></trkpt><trkpt lat="45.7592058" lon="11.705566"><ele>107.0</ele><time>2026-04-26T07:38:41.307Z</time></trkpt><trkpt lat="45.759263" lon="11.7057097"><ele>106.99999999999999</ele><time>2026-04-26T07:38:42.311Z</time></trkpt><trkpt lat="45.759316" lon="11.7058381"><ele>106.99999999999999</ele><time>2026-04-26T07:38:43.311Z</time></trkpt><trkpt lat="45.7593751" lon="11.7059654"><ele>107.0</ele><time>2026-04-26T07:38:44.313Z</time></trkpt><trkpt lat="45.7594361" lon="11.7060895"><ele>107.0</ele><time>2026-04-26T07:38:45.306Z</time></trkpt><trkpt lat="45.7594954" lon="11.7062111"><ele>107.19999999999999</ele><time>2026-04-26T07:38:46.311Z</time></trkpt><trkpt lat="45.7595495" lon="11.7063402"><ele>107.39999999999999</ele><time>2026-04-26T07:38:47.309Z</time></trkpt><trkpt lat="45.7596056" lon="11.7064709"><ele>107.60000000000001</ele><time>2026-04-26T07:38:48.312Z</time></trkpt><trkpt lat="45.7596656" lon="11.7065992"><ele>107.80000000000001</ele><time>2026-04-26T07:38:49.315Z</time></trkpt><trkpt lat="45.7597267" lon="11.7067348"><ele>108.0</ele><time>2026-04-26T07:38:50.31Z</time></trkpt><trkpt lat="45.7597869" lon="11.7068786"><ele>108.25</ele><time>2026-04-26T07:38:51.309Z</time></trkpt><trkpt lat="45.7598483" lon="11.707021"><ele>108.5</ele><time>2026-04-26T07:38:52.306Z</time></trkpt><trkpt lat="45.7599057" lon="11.7071692"><ele>108.75</ele><time>2026-04-26T07:38:53.312Z</time></trkpt><trkpt lat="45.7599652" lon="11.707326"><ele>109.0</ele><time>2026-04-26T07:38:54.311Z</time></trkpt><trkpt lat="45.7600343" lon="11.7074856"><ele>109.0</ele><time>2026-04-26T07:38:55.312Z</time></trkpt><trkpt lat="45.7601029" lon="11.7076409"><ele>109.0</ele><time>2026-04-26T07:38:56.314Z</time></trkpt><trkpt lat="45.7601675" lon="11.7077986"><ele>109.0</ele><time>2026-04-26T07:38:57.312Z</time></trkpt><trkpt lat="45.7602339" lon="11.7079547"><ele>109.0</ele><time>2026-04-26T07:38:58.314Z</time></trkpt><trkpt lat="45.7603048" lon="11.7081026"><ele>109.0</ele><time>2026-04-26T07:38:59.317Z</time></trkpt><trkpt lat="45.7603715" lon="11.7082545"><ele>109.0</ele><time>2026-04-26T07:39:00.311Z</time></trkpt><trkpt lat="45.760436" lon="11.7084037"><ele>109.0</ele><time>2026-04-26T07:39:01.316Z</time></trkpt><trkpt lat="45.7604997" lon="11.7085502"><ele>109.0</ele><time>2026-04-26T07:39:02.31Z</time></trkpt><trkpt lat="45.7605676" lon="11.7086899"><ele>109.0</ele><time>2026-04-26T07:39:03.316Z</time></trkpt><trkpt lat="45.7606324" lon="11.7088301"><ele>109.0</ele><time>2026-04-26T07:39:04.314Z</time></trkpt><trkpt lat="45.7606972" lon="11.7089749"><ele>109.0</ele><time>2026-04-26T07:39:05.31Z</time></trkpt><trkpt lat="45.7607642" lon="11.7091258"><ele>109.0</ele><time>2026-04-26T07:39:06.307Z</time></trkpt><trkpt lat="45.7608322" lon="11.7092731"><ele>108.75</ele><time>2026-04-26T07:39:07.324Z</time></trkpt><trkpt lat="45.7608969" lon="11.7094269"><ele>108.5</ele><time>2026-04-26T07:39:08.309Z</time></trkpt><trkpt lat="45.7609593" lon="11.7095743"><ele>108.25</ele><time>2026-04-26T07:39:09.312Z</time></trkpt><trkpt lat="45.761027" lon="11.7097275"><ele>108.0</ele><time>2026-04-26T07:39:10.309Z</time></trkpt><trkpt lat="45.7610959" lon="11.7098783"><ele>108.75</ele><time>2026-04-26T07:39:11.316Z</time></trkpt><trkpt lat="45.761162" lon="11.7100285"><ele>109.5</ele><time>2026-04-26T07:39:12.313Z</time></trkpt><trkpt lat="45.7612298" lon="11.710175"><ele>110.25</ele><time>2026-04-26T07:39:13.309Z</time></trkpt><trkpt lat="45.7612966" lon="11.7103151"><ele>111.0</ele><time>2026-04-26T07:39:14.31Z</time></trkpt><trkpt lat="45.7613569" lon="11.7104507"><ele>111.0</ele><time>2026-04-26T07:39:15.308Z</time></trkpt><trkpt lat="45.761415" lon="11.7105918"><ele>111.0</ele><time>2026-04-26T07:39:16.309Z</time></trkpt><trkpt lat="45.7614762" lon="11.7107296"><ele>111.0</ele><time>2026-04-26T07:39:17.312Z</time></trkpt><trkpt lat="45.7615429" lon="11.7108703"><ele>111.0</ele><time>2026-04-26T07:39:18.314Z</time></trkpt><trkpt lat="45.7616084" lon="11.7110094"><ele>110.75</ele><time>2026-04-26T07:39:19.324Z</time></trkpt><trkpt lat="45.7616722" lon="11.7111546"><ele>110.5</ele><time>2026-04-26T07:39:20.322Z</time></trkpt><trkpt lat="45.761738" lon="11.7113058"><ele>110.25</ele><time>2026-04-26T07:39:21.319Z</time></trkpt><trkpt lat="45.7618038" lon="11.7114522"><ele>110.0</ele><time>2026-04-26T07:39:22.317Z</time></trkpt><trkpt lat="45.7618706" lon="11.7115931"><ele>110.0</ele><time>2026-04-26T07:39:23.316Z</time></trkpt><trkpt lat="45.7619364" lon="11.7117391"><ele>110.0</ele><time>2026-04-26T07:39:24.32Z</time></trkpt><trkpt lat="45.7619997" lon="11.7118832"><ele>110.0</ele><time>2026-04-26T07:39:25.313Z</time></trkpt><trkpt lat="45.7620632" lon="11.7120256"><ele>110.0</ele><time>2026-04-26T07:39:26.313Z</time></trkpt><trkpt lat="45.7621272" lon="11.7121611"><ele>110.0</ele><time>2026-04-26T07:39:27.312Z</time></trkpt><trkpt lat="45.7621948" lon="11.7123009"><ele>110.0</ele><time>2026-04-26T07:39:28.317Z</time></trkpt><trkpt lat="45.7622594" lon="11.7124462"><ele>110.0</ele><time>2026-04-26T07:39:29.316Z</time></trkpt><trkpt lat="45.7623258" lon="11.7125892"><ele>110.0</ele><time>2026-04-26T07:39:30.313Z</time></trkpt><trkpt lat="45.7623962" lon="11.7127416"><ele>109.8</ele><time>2026-04-26T07:39:31.316Z</time></trkpt><trkpt lat="45.7624596" lon="11.7128858"><ele>109.6</ele><time>2026-04-26T07:39:32.317Z</time></trkpt><trkpt lat="45.7625193" lon="11.7130228"><ele>109.4</ele><time>2026-04-26T07:39:33.311Z</time></trkpt><trkpt lat="45.7625742" lon="11.7131545"><ele>109.2</ele><time>2026-04-26T07:39:34.313Z</time></trkpt><trkpt lat="45.7626246" lon="11.7132765"><ele>109.0</ele><time>2026-04-26T07:39:35.313Z</time></trkpt><trkpt lat="45.7626745" lon="11.7133918"><ele>109.50000000000001</ele><time>2026-04-26T07:39:36.31Z</time></trkpt><trkpt lat="45.762722" lon="11.7134915"><ele>110.0</ele><time>2026-04-26T07:39:37.308Z</time></trkpt><trkpt lat="45.7627587" lon="11.7135727"><ele>110.5</ele><time>2026-04-26T07:39:38.33Z</time></trkpt><trkpt lat="45.7627996" lon="11.7136742"><ele>111.0</ele><time>2026-04-26T07:39:40.316Z</time></trkpt><trkpt lat="45.7628198" lon="11.7137852"><ele>111.50000000000001</ele><time>2026-04-26T07:39:45.313Z</time></trkpt><trkpt lat="45.7628202" lon="11.7139756"><ele>112.0</ele><time>2026-04-26T07:39:47.308Z</time></trkpt><trkpt lat="45.7628223" lon="11.7140849"><ele>112.00000000000001</ele><time>2026-04-26T07:39:48.306Z</time></trkpt><trkpt lat="45.7628809" lon="11.7142359"><ele>112.0</ele><time>2026-04-26T07:39:50.302Z</time></trkpt><trkpt lat="45.7629326" lon="11.7142909"><ele>112.0</ele><time>2026-04-26T07:39:51.311Z</time></trkpt><trkpt lat="45.7629963" lon="11.7143401"><ele>112.0</ele><time>2026-04-26T07:39:52.303Z</time></trkpt><trkpt lat="45.763062" lon="11.7144053"><ele>112.00000000000001</ele><time>2026-04-26T07:39:53.315Z</time></trkpt><trkpt lat="45.7631191" lon="11.7144976"><ele>112.0</ele><time>2026-04-26T07:39:54.308Z</time></trkpt><trkpt lat="45.7631657" lon="11.7145996"><ele>112.00000000000001</ele><time>2026-04-26T07:39:55.305Z</time></trkpt><trkpt lat="45.7632113" lon="11.714681"><ele>112.0</ele><time>2026-04-26T07:39:56.31Z</time></trkpt><trkpt lat="45.7632556" lon="11.714754"><ele>112.0</ele><time>2026-04-26T07:39:57.31Z</time></trkpt><trkpt lat="45.7633074" lon="11.7148791"><ele>112.0</ele><time>2026-04-26T07:39:59.307Z</time></trkpt><trkpt lat="45.7633483" lon="11.7149631"><ele>112.00000000000001</ele><time>2026-04-26T07:40:00.307Z</time></trkpt><trkpt lat="45.7633889" lon="11.7150601"><ele>112.0</ele><time>2026-04-26T07:40:01.314Z</time></trkpt><trkpt lat="45.7634337" lon="11.7151685"><ele>112.0</ele><time>2026-04-26T07:40:02.311Z</time></trkpt><trkpt lat="45.763482" lon="11.7152924"><ele>111.99999999999999</ele><time>2026-04-26T07:40:03.319Z</time></trkpt><trkpt lat="45.7635391" lon="11.7154231"><ele>111.99999999999999</ele><time>2026-04-26T07:40:04.319Z</time></trkpt><trkpt lat="45.7635963" lon="11.7155612"><ele>112.0</ele><time>2026-04-26T07:40:05.319Z</time></trkpt><trkpt lat="45.7636555" lon="11.7157007"><ele>112.0</ele><time>2026-04-26T07:40:06.314Z</time></trkpt><trkpt lat="45.7637165" lon="11.7158391"><ele>111.75</ele><time>2026-04-26T07:40:07.315Z</time></trkpt><trkpt lat="45.7637822" lon="11.7159803"><ele>111.5</ele><time>2026-04-26T07:40:08.306Z</time></trkpt><trkpt lat="45.7638528" lon="11.7161176"><ele>111.25</ele><time>2026-04-26T07:40:09.326Z</time></trkpt><trkpt lat="45.7639184" lon="11.7162665"><ele>111.0</ele><time>2026-04-26T07:40:10.311Z</time></trkpt><trkpt lat="45.7639862" lon="11.7164207"><ele>110.75</ele><time>2026-04-26T07:40:11.309Z</time></trkpt><trkpt lat="45.7640601" lon="11.7165706"><ele>110.5</ele><time>2026-04-26T07:40:12.307Z</time></trkpt><trkpt lat="45.7641384" lon="11.716732"><ele>110.25</ele><time>2026-04-26T07:40:13.312Z</time></trkpt><trkpt lat="45.7642153" lon="11.7168988"><ele>110.0</ele><time>2026-04-26T07:40:14.309Z</time></trkpt><trkpt lat="45.7642919" lon="11.7170628"><ele>110.75</ele><time>2026-04-26T07:40:15.305Z</time></trkpt><trkpt lat="45.764365" lon="11.7172198"><ele>111.5</ele><time>2026-04-26T07:40:16.305Z</time></trkpt><trkpt lat="45.7644257" lon="11.7173838"><ele>112.25</ele><time>2026-04-26T07:40:17.306Z</time></trkpt><trkpt lat="45.7644816" lon="11.7175497"><ele>113.0</ele><time>2026-04-26T07:40:18.305Z</time></trkpt><trkpt lat="45.7645309" lon="11.7177207"><ele>112.5</ele><time>2026-04-26T07:40:19.313Z</time></trkpt><trkpt lat="45.7645644" lon="11.7178884"><ele>112.0</ele><time>2026-04-26T07:40:20.299Z</time></trkpt><trkpt lat="45.7645924" lon="11.718064"><ele>111.5</ele><time>2026-04-26T07:40:21.311Z</time></trkpt><trkpt lat="45.7646134" lon="11.7182516"><ele>111.0</ele><time>2026-04-26T07:40:22.302Z</time></trkpt><trkpt lat="45.7646393" lon="11.7184354"><ele>111.0</ele><time>2026-04-26T07:40:23.299Z</time></trkpt><trkpt lat="45.7646556" lon="11.7186228"><ele>111.0</ele><time>2026-04-26T07:40:24.304Z</time></trkpt><trkpt lat="45.7646656" lon="11.7188108"><ele>111.0</ele><time>2026-04-26T07:40:25.301Z</time></trkpt><trkpt lat="45.764672" lon="11.7190042"><ele>111.0</ele><time>2026-04-26T07:40:26.304Z</time></trkpt><trkpt lat="45.7646872" lon="11.7191881"><ele>111.0</ele><time>2026-04-26T07:40:27.311Z</time></trkpt><trkpt lat="45.7646996" lon="11.7193727"><ele>111.0</ele><time>2026-04-26T07:40:28.315Z</time></trkpt><trkpt lat="45.7647285" lon="11.7195505"><ele>111.0</ele><time>2026-04-26T07:40:29.31Z</time></trkpt><trkpt lat="45.7647539" lon="11.7197154"><ele>111.0</ele><time>2026-04-26T07:40:30.31Z</time></trkpt><trkpt lat="45.7647853" lon="11.7198857"><ele>111.25</ele><time>2026-04-26T07:40:31.31Z</time></trkpt><trkpt lat="45.7648302" lon="11.7200701"><ele>111.5</ele><time>2026-04-26T07:40:32.304Z</time></trkpt><trkpt lat="45.7648596" lon="11.7202606"><ele>111.75</ele><time>2026-04-26T07:40:33.31Z</time></trkpt><trkpt lat="45.7648769" lon="11.7204455"><ele>112.0</ele><time>2026-04-26T07:40:34.308Z</time></trkpt><trkpt lat="45.7649009" lon="11.7206339"><ele>112.0</ele><time>2026-04-26T07:40:35.31Z</time></trkpt><trkpt lat="45.7649262" lon="11.7208178"><ele>112.0</ele><time>2026-04-26T07:40:36.311Z</time></trkpt><trkpt lat="45.7649426" lon="11.7210133"><ele>112.0</ele><time>2026-04-26T07:40:37.306Z</time></trkpt><trkpt lat="45.764964" lon="11.7211957"><ele>112.0</ele><time>2026-04-26T07:40:38.312Z</time></trkpt><trkpt lat="45.7649933" lon="11.7213636"><ele>112.25</ele><time>2026-04-26T07:40:39.309Z</time></trkpt><trkpt lat="45.7650149" lon="11.7215384"><ele>112.5</ele><time>2026-04-26T07:40:40.346Z</time></trkpt><trkpt lat="45.7650377" lon="11.7217115"><ele>112.75</ele><time>2026-04-26T07:40:41.313Z</time></trkpt><trkpt lat="45.7650566" lon="11.7218777"><ele>113.0</ele><time>2026-04-26T07:40:42.31Z</time></trkpt><trkpt lat="45.7650729" lon="11.7220325"><ele>113.0</ele><time>2026-04-26T07:40:43.31Z</time></trkpt><trkpt lat="45.7650927" lon="11.7221898"><ele>113.0</ele><time>2026-04-26T07:40:44.312Z</time></trkpt><trkpt lat="45.7651122" lon="11.7223484"><ele>113.0</ele><time>2026-04-26T07:40:45.312Z</time></trkpt><trkpt lat="45.7651284" lon="11.7225052"><ele>113.0</ele><time>2026-04-26T07:40:46.311Z</time></trkpt><trkpt lat="45.7651487" lon="11.7226701"><ele>112.75</ele><time>2026-04-26T07:40:47.312Z</time></trkpt><trkpt lat="45.7651707" lon="11.7228337"><ele>112.5</ele><time>2026-04-26T07:40:48.309Z</time></trkpt><trkpt lat="45.7651948" lon="11.7230007"><ele>112.25</ele><time>2026-04-26T07:40:49.315Z</time></trkpt><trkpt lat="45.7652174" lon="11.7231655"><ele>112.0</ele><time>2026-04-26T07:40:50.307Z</time></trkpt><trkpt lat="45.7652377" lon="11.723324"><ele>112.19999999999999</ele><time>2026-04-26T07:40:51.304Z</time></trkpt><trkpt lat="45.7652592" lon="11.7234817"><ele>112.39999999999999</ele><time>2026-04-26T07:40:52.305Z</time></trkpt><trkpt lat="45.7652802" lon="11.723632"><ele>112.60000000000001</ele><time>2026-04-26T07:40:53.31Z</time></trkpt><trkpt lat="45.7652963" lon="11.7237699"><ele>112.80000000000001</ele><time>2026-04-26T07:40:54.313Z</time></trkpt><trkpt lat="45.7653124" lon="11.7239081"><ele>113.0</ele><time>2026-04-26T07:40:55.311Z</time></trkpt><trkpt lat="45.7653245" lon="11.7240474"><ele>113.0</ele><time>2026-04-26T07:40:56.303Z</time></trkpt><trkpt lat="45.7653342" lon="11.7241884"><ele>113.00000000000001</ele><time>2026-04-26T07:40:57.309Z</time></trkpt><trkpt lat="45.7653407" lon="11.7243302"><ele>113.00000000000001</ele><time>2026-04-26T07:40:58.312Z</time></trkpt><trkpt lat="45.7653562" lon="11.7244747"><ele>113.0</ele><time>2026-04-26T07:40:59.303Z</time></trkpt><trkpt lat="45.7653836" lon="11.7246347"><ele>113.0</ele><time>2026-04-26T07:41:00.306Z</time></trkpt><trkpt lat="45.76541" lon="11.7247828"><ele>112.80000000000001</ele><time>2026-04-26T07:41:01.312Z</time></trkpt><trkpt lat="45.765436" lon="11.7249233"><ele>112.60000000000001</ele><time>2026-04-26T07:41:02.301Z</time></trkpt><trkpt lat="45.7654542" lon="11.7250663"><ele>112.39999999999999</ele><time>2026-04-26T07:41:03.303Z</time></trkpt><trkpt lat="45.7654739" lon="11.7252048"><ele>112.19999999999999</ele><time>2026-04-26T07:41:04.302Z</time></trkpt><trkpt lat="45.7654921" lon="11.725349"><ele>112.0</ele><time>2026-04-26T07:41:05.299Z</time></trkpt><trkpt lat="45.7655125" lon="11.7254913"><ele>112.0</ele><time>2026-04-26T07:41:06.305Z</time></trkpt><trkpt lat="45.7655336" lon="11.7256317"><ele>111.99999999999999</ele><time>2026-04-26T07:41:07.303Z</time></trkpt><trkpt lat="45.7655543" lon="11.7257701"><ele>111.99999999999999</ele><time>2026-04-26T07:41:08.303Z</time></trkpt><trkpt lat="45.7655769" lon="11.7259085"><ele>112.0</ele><time>2026-04-26T07:41:09.296Z</time></trkpt><trkpt lat="45.7655944" lon="11.7260407"><ele>112.0</ele><time>2026-04-26T07:41:10.318Z</time></trkpt><trkpt lat="45.7656043" lon="11.7261432"><ele>112.33333333333334</ele><time>2026-04-26T07:41:11.296Z</time></trkpt><trkpt lat="45.7656189" lon="11.7262395"><ele>112.66666666666667</ele><time>2026-04-26T07:41:12.301Z</time></trkpt><trkpt lat="45.7656396" lon="11.7263522"><ele>113.0</ele><time>2026-04-26T07:41:14.298Z</time></trkpt><trkpt lat="45.7656538" lon="11.7264817"><ele>113.33333333333334</ele><time>2026-04-26T07:41:17.305Z</time></trkpt><trkpt lat="45.7656585" lon="11.7265885"><ele>113.66666666666667</ele><time>2026-04-26T07:41:19.312Z</time></trkpt><trkpt lat="45.7656593" lon="11.7266952"><ele>114.0</ele><time>2026-04-26T07:41:21.305Z</time></trkpt><trkpt lat="45.7656626" lon="11.7267929"><ele>114.0</ele><time>2026-04-26T07:41:24.308Z</time></trkpt><trkpt lat="45.7656534" lon="11.7268907"><ele>114.0</ele><time>2026-04-26T07:41:26.304Z</time></trkpt><trkpt lat="45.7656583" lon="11.7270391"><ele>114.0</ele><time>2026-04-26T07:41:28.313Z</time></trkpt><trkpt lat="45.7656489" lon="11.7271466"><ele>114.0</ele><time>2026-04-26T07:41:29.313Z</time></trkpt><trkpt lat="45.7656364" lon="11.7272748"><ele>114.0</ele><time>2026-04-26T07:41:30.304Z</time></trkpt><trkpt lat="45.7656191" lon="11.7274094"><ele>114.0</ele><time>2026-04-26T07:41:31.303Z</time></trkpt><trkpt lat="45.7655833" lon="11.7275508"><ele>114.0</ele><time>2026-04-26T07:41:32.301Z</time></trkpt><trkpt lat="45.765539" lon="11.7276963"><ele>114.0</ele><time>2026-04-26T07:41:33.299Z</time></trkpt><trkpt lat="45.7655028" lon="11.7278449"><ele>114.0</ele><time>2026-04-26T07:41:34.294Z</time></trkpt><trkpt lat="45.7654567" lon="11.7279927"><ele>114.0</ele><time>2026-04-26T07:41:35.303Z</time></trkpt><trkpt lat="45.7653965" lon="11.7281435"><ele>114.0</ele><time>2026-04-26T07:41:36.307Z</time></trkpt><trkpt lat="45.7653304" lon="11.7282896"><ele>114.0</ele><time>2026-04-26T07:41:37.31Z</time></trkpt><trkpt lat="45.765263" lon="11.7284403"><ele>114.0</ele><time>2026-04-26T07:41:38.316Z</time></trkpt><trkpt lat="45.7651948" lon="11.7285883"><ele>114.0</ele><time>2026-04-26T07:41:39.309Z</time></trkpt><trkpt lat="45.7651307" lon="11.7287272"><ele>113.2</ele><time>2026-04-26T07:41:40.314Z</time></trkpt><trkpt lat="45.7650718" lon="11.7288544"><ele>112.4</ele><time>2026-04-26T07:41:41.325Z</time></trkpt><trkpt lat="45.7650101" lon="11.7289835"><ele>111.6</ele><time>2026-04-26T07:41:42.307Z</time></trkpt><trkpt lat="45.7649534" lon="11.7291175"><ele>110.8</ele><time>2026-04-26T07:41:43.304Z</time></trkpt><trkpt lat="45.7648952" lon="11.7292558"><ele>110.0</ele><time>2026-04-26T07:41:44.301Z</time></trkpt><trkpt lat="45.7648311" lon="11.7293986"><ele>108.5</ele><time>2026-04-26T07:41:45.308Z</time></trkpt><trkpt lat="45.7647639" lon="11.729553"><ele>107.0</ele><time>2026-04-26T07:41:46.311Z</time></trkpt><trkpt lat="45.7647035" lon="11.7297037"><ele>105.5</ele><time>2026-04-26T07:41:47.313Z</time></trkpt><trkpt lat="45.7646435" lon="11.7298507"><ele>104.0</ele><time>2026-04-26T07:41:48.321Z</time></trkpt><trkpt lat="45.7645801" lon="11.7299997"><ele>104.0</ele><time>2026-04-26T07:41:49.325Z</time></trkpt><trkpt lat="45.7645173" lon="11.7301475"><ele>104.0</ele><time>2026-04-26T07:41:50.316Z</time></trkpt><trkpt lat="45.7644573" lon="11.730291"><ele>104.0</ele><time>2026-04-26T07:41:51.324Z</time></trkpt><trkpt lat="45.7643982" lon="11.7304314"><ele>104.0</ele><time>2026-04-26T07:41:52.318Z</time></trkpt><trkpt lat="45.764339" lon="11.7305627"><ele>105.6</ele><time>2026-04-26T07:41:53.317Z</time></trkpt><trkpt lat="45.7642875" lon="11.7306867"><ele>107.2</ele><time>2026-04-26T07:41:54.315Z</time></trkpt><trkpt lat="45.7642339" lon="11.7308186"><ele>108.79999999999998</ele><time>2026-04-26T07:41:55.309Z</time></trkpt><trkpt lat="45.7641753" lon="11.7309417"><ele>110.39999999999999</ele><time>2026-04-26T07:41:56.317Z</time></trkpt><trkpt lat="45.7641134" lon="11.7310662"><ele>112.0</ele><time>2026-04-26T07:41:57.317Z</time></trkpt><trkpt lat="45.7640491" lon="11.7311911"><ele>112.66666666666667</ele><time>2026-04-26T07:41:58.312Z</time></trkpt><trkpt lat="45.76399" lon="11.7313089"><ele>113.33333333333334</ele><time>2026-04-26T07:41:59.314Z</time></trkpt><trkpt lat="45.7639377" lon="11.7314044"><ele>114.0</ele><time>2026-04-26T07:42:00.319Z</time></trkpt><trkpt lat="45.7638791" lon="11.7315257"><ele>114.66666666666666</ele><time>2026-04-26T07:42:02.308Z</time></trkpt><trkpt lat="45.7638367" lon="11.7316213"><ele>115.33333333333333</ele><time>2026-04-26T07:42:05.308Z</time></trkpt><trkpt lat="45.7637867" lon="11.7316946"><ele>116.0</ele><time>2026-04-26T07:42:07.306Z</time></trkpt><trkpt lat="45.7637003" lon="11.7317889"><ele>116.0</ele><time>2026-04-26T07:42:09.309Z</time></trkpt><trkpt lat="45.7636342" lon="11.73183"><ele>116.0</ele><time>2026-04-26T07:42:10.322Z</time></trkpt><trkpt lat="45.7635474" lon="11.7318454"><ele>116.0</ele><time>2026-04-26T07:42:11.321Z</time></trkpt><trkpt lat="45.7634363" lon="11.7318552"><ele>116.0</ele><time>2026-04-26T07:42:12.328Z</time></trkpt><trkpt lat="45.7633231" lon="11.731865"><ele>116.0</ele><time>2026-04-26T07:42:13.318Z</time></trkpt><trkpt lat="45.7631869" lon="11.7318867"><ele>116.33333333333333</ele><time>2026-04-26T07:42:14.315Z</time></trkpt><trkpt lat="45.7630294" lon="11.7319012"><ele>116.66666666666666</ele><time>2026-04-26T07:42:15.312Z</time></trkpt><trkpt lat="45.7628714" lon="11.7319046"><ele>117.0</ele><time>2026-04-26T07:42:16.309Z</time></trkpt><trkpt lat="45.7627097" lon="11.7318893"><ele>116.0</ele><time>2026-04-26T07:42:17.305Z</time></trkpt><trkpt lat="45.7625405" lon="11.7318855"><ele>115.0</ele><time>2026-04-26T07:42:18.311Z</time></trkpt><trkpt lat="45.7623786" lon="11.7318807"><ele>114.0</ele><time>2026-04-26T07:42:19.313Z</time></trkpt><trkpt lat="45.7621988" lon="11.7318893"><ele>114.33333333333334</ele><time>2026-04-26T07:42:20.312Z</time></trkpt><trkpt lat="45.7619922" lon="11.7318966"><ele>114.66666666666667</ele><time>2026-04-26T07:42:21.311Z</time></trkpt><trkpt lat="45.7618011" lon="11.7318915"><ele>115.0</ele><time>2026-04-26T07:42:22.311Z</time></trkpt><trkpt lat="45.7616337" lon="11.7318852"><ele>113.33333333333334</ele><time>2026-04-26T07:42:23.313Z</time></trkpt><trkpt lat="45.7614713" lon="11.7318692"><ele>111.66666666666666</ele><time>2026-04-26T07:42:24.309Z</time></trkpt><trkpt lat="45.7613115" lon="11.7318551"><ele>110.0</ele><time>2026-04-26T07:42:25.302Z</time></trkpt><trkpt lat="45.7611634" lon="11.7318504"><ele>110.0</ele><time>2026-04-26T07:42:26.304Z</time></trkpt><trkpt lat="45.7610339" lon="11.7318357"><ele>110.0</ele><time>2026-04-26T07:42:27.31Z</time></trkpt><trkpt lat="45.7609094" lon="11.7318293"><ele>110.0</ele><time>2026-04-26T07:42:28.312Z</time></trkpt><trkpt lat="45.7608291" lon="11.7318475"><ele>110.0</ele><time>2026-04-26T07:42:29.297Z</time></trkpt><trkpt lat="45.7607545" lon="11.7318485"><ele>110.0</ele><time>2026-04-26T07:42:30.298Z</time></trkpt><trkpt lat="45.7606747" lon="11.7318291"><ele>109.99999999999999</ele><time>2026-04-26T07:42:31.305Z</time></trkpt><trkpt lat="45.7606043" lon="11.7317844"><ele>110.0</ele><time>2026-04-26T07:42:32.31Z</time></trkpt><trkpt lat="45.7605235" lon="11.7317086"><ele>110.0</ele><time>2026-04-26T07:42:33.301Z</time></trkpt><trkpt lat="45.7604333" lon="11.7316367"><ele>110.0</ele><time>2026-04-26T07:42:34.311Z</time></trkpt><trkpt lat="45.7603717" lon="11.7315938"><ele>109.99999999999999</ele><time>2026-04-26T07:42:35.315Z</time></trkpt><trkpt lat="45.7602942" lon="11.7316651"><ele>110.0</ele><time>2026-04-26T07:42:37.314Z</time></trkpt><trkpt lat="45.7603013" lon="11.7317603"><ele>110.0</ele><time>2026-04-26T07:42:38.305Z</time></trkpt><trkpt lat="45.7603643" lon="11.7318749"><ele>110.0</ele><time>2026-04-26T07:42:39.314Z</time></trkpt><trkpt lat="45.7604582" lon="11.7319784"><ele>110.0</ele><time>2026-04-26T07:42:40.308Z</time></trkpt><trkpt lat="45.7605209" lon="11.7320636"><ele>110.0</ele><time>2026-04-26T07:42:41.312Z</time></trkpt><trkpt lat="45.760545" lon="11.7321686"><ele>110.0</ele><time>2026-04-26T07:42:42.313Z</time></trkpt><trkpt lat="45.7605529" lon="11.7322747"><ele>110.4</ele><time>2026-04-26T07:42:43.327Z</time></trkpt><trkpt lat="45.7605485" lon="11.7323869"><ele>110.8</ele><time>2026-04-26T07:42:44.31Z</time></trkpt><trkpt lat="45.7605301" lon="11.7325119"><ele>111.19999999999999</ele><time>2026-04-26T07:42:45.308Z</time></trkpt><trkpt lat="45.7605091" lon="11.7326592"><ele>111.6</ele><time>2026-04-26T07:42:46.304Z</time></trkpt><trkpt lat="45.7604898" lon="11.7328216"><ele>112.0</ele><time>2026-04-26T07:42:47.297Z</time></trkpt><trkpt lat="45.7604658" lon="11.7329839"><ele>112.19999999999999</ele><time>2026-04-26T07:42:48.294Z</time></trkpt><trkpt lat="45.7604378" lon="11.7331352"><ele>112.39999999999999</ele><time>2026-04-26T07:42:49.299Z</time></trkpt><trkpt lat="45.7604165" lon="11.7332794"><ele>112.60000000000001</ele><time>2026-04-26T07:42:50.301Z</time></trkpt><trkpt lat="45.7603917" lon="11.7334105"><ele>112.80000000000001</ele><time>2026-04-26T07:42:51.303Z</time></trkpt><trkpt lat="45.7603557" lon="11.7335297"><ele>113.0</ele><time>2026-04-26T07:42:52.304Z</time></trkpt><trkpt lat="45.760313" lon="11.7336152"><ele>113.4</ele><time>2026-04-26T07:42:53.311Z</time></trkpt><trkpt lat="45.76023" lon="11.7337339"><ele>113.80000000000001</ele><time>2026-04-26T07:42:55.308Z</time></trkpt><trkpt lat="45.7601788" lon="11.7338435"><ele>114.2</ele><time>2026-04-26T07:42:57.309Z</time></trkpt><trkpt lat="45.7601467" lon="11.7339476"><ele>114.6</ele><time>2026-04-26T07:42:59.303Z</time></trkpt><trkpt lat="45.7601089" lon="11.7340878"><ele>115.0</ele><time>2026-04-26T07:43:01.304Z</time></trkpt><trkpt lat="45.760059" lon="11.7342682"><ele>115.0</ele><time>2026-04-26T07:43:03.303Z</time></trkpt><trkpt lat="45.7600396" lon="11.7343719"><ele>115.0</ele><time>2026-04-26T07:43:04.298Z</time></trkpt><trkpt lat="45.7600352" lon="11.7344807"><ele>115.0</ele><time>2026-04-26T07:43:05.308Z</time></trkpt><trkpt lat="45.7600501" lon="11.7346123"><ele>115.0</ele><time>2026-04-26T07:43:06.312Z</time></trkpt><trkpt lat="45.7600995" lon="11.7347527"><ele>115.0</ele><time>2026-04-26T07:43:07.3Z</time></trkpt><trkpt lat="45.760167" lon="11.7349052"><ele>114.75</ele><time>2026-04-26T07:43:08.312Z</time></trkpt><trkpt lat="45.7602391" lon="11.7350648"><ele>114.5</ele><time>2026-04-26T07:43:09.3Z</time></trkpt><trkpt lat="45.7603109" lon="11.7352179"><ele>114.25</ele><time>2026-04-26T07:43:10.304Z</time></trkpt><trkpt lat="45.7603837" lon="11.735379"><ele>114.0</ele><time>2026-04-26T07:43:11.307Z</time></trkpt><trkpt lat="45.7604577" lon="11.7355442"><ele>114.0</ele><time>2026-04-26T07:43:12.307Z</time></trkpt><trkpt lat="45.7605323" lon="11.7357022"><ele>114.0</ele><time>2026-04-26T07:43:13.308Z</time></trkpt><trkpt lat="45.7606012" lon="11.7358616"><ele>114.0</ele><time>2026-04-26T07:43:14.323Z</time></trkpt><trkpt lat="45.7606632" lon="11.7360194"><ele>114.0</ele><time>2026-04-26T07:43:15.31Z</time></trkpt><trkpt lat="45.7607266" lon="11.736167"><ele>114.0</ele><time>2026-04-26T07:43:16.31Z</time></trkpt><trkpt lat="45.7607838" lon="11.736309"><ele>114.0</ele><time>2026-04-26T07:43:17.31Z</time></trkpt><trkpt lat="45.7608331" lon="11.7364463"><ele>114.0</ele><time>2026-04-26T07:43:18.309Z</time></trkpt><trkpt lat="45.7608802" lon="11.7365831"><ele>114.0</ele><time>2026-04-26T07:43:19.315Z</time></trkpt><trkpt lat="45.7609264" lon="11.7367035"><ele>114.0</ele><time>2026-04-26T07:43:20.306Z</time></trkpt><trkpt lat="45.7609652" lon="11.7368086"><ele>114.0</ele><time>2026-04-26T07:43:21.295Z</time></trkpt><trkpt lat="45.7609986" lon="11.7369061"><ele>114.0</ele><time>2026-04-26T07:43:22.291Z</time></trkpt><trkpt lat="45.7610339" lon="11.7369859"><ele>114.0</ele><time>2026-04-26T07:43:23.289Z</time></trkpt><trkpt lat="45.7610762" lon="11.7371333"><ele>114.0</ele><time>2026-04-26T07:43:25.297Z</time></trkpt><trkpt lat="45.7610579" lon="11.737335"><ele>114.0</ele><time>2026-04-26T07:43:27.304Z</time></trkpt><trkpt lat="45.7610163" lon="11.7374813"><ele>114.0</ele><time>2026-04-26T07:43:28.295Z</time></trkpt><trkpt lat="45.7609692" lon="11.737625"><ele>114.0</ele><time>2026-04-26T07:43:29.299Z</time></trkpt><trkpt lat="45.760924" lon="11.7377588"><ele>114.0</ele><time>2026-04-26T07:43:30.305Z</time></trkpt><trkpt lat="45.760888" lon="11.7378904"><ele>114.0</ele><time>2026-04-26T07:43:31.308Z</time></trkpt><trkpt lat="45.7608636" lon="11.7380096"><ele>114.0</ele><time>2026-04-26T07:43:32.307Z</time></trkpt><trkpt lat="45.7608492" lon="11.7381075"><ele>114.80000000000001</ele><time>2026-04-26T07:43:33.309Z</time></trkpt><trkpt lat="45.7608306" lon="11.7382694"><ele>115.60000000000001</ele><time>2026-04-26T07:43:35.307Z</time></trkpt><trkpt lat="45.7608221" lon="11.7384542"><ele>116.4</ele><time>2026-04-26T07:43:37.308Z</time></trkpt><trkpt lat="45.7608198" lon="11.7385593"><ele>117.2</ele><time>2026-04-26T07:43:38.308Z</time></trkpt><trkpt lat="45.7608224" lon="11.7386678"><ele>118.0</ele><time>2026-04-26T07:43:39.304Z</time></trkpt><trkpt lat="45.7608232" lon="11.7387699"><ele>118.80000000000001</ele><time>2026-04-26T07:43:40.3Z</time></trkpt><trkpt lat="45.7608156" lon="11.7388764"><ele>119.60000000000001</ele><time>2026-04-26T07:43:41.309Z</time></trkpt><trkpt lat="45.7608196" lon="11.7390338"><ele>120.39999999999999</ele><time>2026-04-26T07:43:43.295Z</time></trkpt><trkpt lat="45.7608158" lon="11.7391514"><ele>121.19999999999999</ele><time>2026-04-26T07:43:45.316Z</time></trkpt><trkpt lat="45.7608066" lon="11.7393151"><ele>122.0</ele><time>2026-04-26T07:43:47.303Z</time></trkpt><trkpt lat="45.7608065" lon="11.7394317"><ele>122.39999999999999</ele><time>2026-04-26T07:43:48.304Z</time></trkpt><trkpt lat="45.7608246" lon="11.7395676"><ele>122.79999999999998</ele><time>2026-04-26T07:43:49.295Z</time></trkpt><trkpt lat="45.7608329" lon="11.7397146"><ele>123.2</ele><time>2026-04-26T07:43:50.297Z</time></trkpt><trkpt lat="45.7608441" lon="11.7398764"><ele>123.6</ele><time>2026-04-26T07:43:51.294Z</time></trkpt><trkpt lat="45.7608534" lon="11.7400561"><ele>124.0</ele><time>2026-04-26T07:43:52.294Z</time></trkpt><trkpt lat="45.7608487" lon="11.7402346"><ele>124.4</ele><time>2026-04-26T07:43:53.296Z</time></trkpt><trkpt lat="45.7608299" lon="11.7404107"><ele>124.80000000000001</ele><time>2026-04-26T07:43:54.298Z</time></trkpt><trkpt lat="45.7608054" lon="11.7405824"><ele>125.19999999999999</ele><time>2026-04-26T07:43:55.295Z</time></trkpt><trkpt lat="45.7607928" lon="11.7407273"><ele>125.6</ele><time>2026-04-26T07:43:56.291Z</time></trkpt><trkpt lat="45.7607833" lon="11.7408541"><ele>126.0</ele><time>2026-04-26T07:43:57.294Z</time></trkpt><trkpt lat="45.7607877" lon="11.7409604"><ele>126.0</ele><time>2026-04-26T07:43:58.303Z</time></trkpt><trkpt lat="45.7608537" lon="11.741102"><ele>126.0</ele><time>2026-04-26T07:44:00.298Z</time></trkpt><trkpt lat="45.7609663" lon="11.7411586"><ele>126.0</ele><time>2026-04-26T07:44:02.295Z</time></trkpt><trkpt lat="45.7610944" lon="11.7411104"><ele>126.0</ele><time>2026-04-26T07:44:04.297Z</time></trkpt><trkpt lat="45.7611795" lon="11.7410403"><ele>126.25</ele><time>2026-04-26T07:44:05.301Z</time></trkpt><trkpt lat="45.7612818" lon="11.7409455"><ele>126.5</ele><time>2026-04-26T07:44:06.302Z</time></trkpt><trkpt lat="45.7613912" lon="11.7408452"><ele>126.75</ele><time>2026-04-26T07:44:07.3Z</time></trkpt><trkpt lat="45.7615397" lon="11.7407393"><ele>127.0</ele><time>2026-04-26T07:44:08.3Z</time></trkpt><trkpt lat="45.7617074" lon="11.7405975"><ele>127.0</ele><time>2026-04-26T07:44:09.298Z</time></trkpt><trkpt lat="45.761905" lon="11.7404725"><ele>127.0</ele><time>2026-04-26T07:44:10.293Z</time></trkpt><trkpt lat="45.7621039" lon="11.7403477"><ele>127.0</ele><time>2026-04-26T07:44:11.295Z</time></trkpt><trkpt lat="45.7622791" lon="11.7402372"><ele>127.33333333333334</ele><time>2026-04-26T07:44:12.296Z</time></trkpt><trkpt lat="45.7624503" lon="11.7401234"><ele>127.66666666666666</ele><time>2026-04-26T07:44:13.298Z</time></trkpt><trkpt lat="45.7626202" lon="11.7400396"><ele>128.0</ele><time>2026-04-26T07:44:14.297Z</time></trkpt><trkpt lat="45.7627871" lon="11.7399557"><ele>129.0</ele><time>2026-04-26T07:44:15.296Z</time></trkpt><trkpt lat="45.7629522" lon="11.7398832"><ele>130.0</ele><time>2026-04-26T07:44:16.32Z</time></trkpt><trkpt lat="45.7630926" lon="11.7398014"><ele>131.0</ele><time>2026-04-26T07:44:17.308Z</time></trkpt><trkpt lat="45.7632344" lon="11.7397204"><ele>131.0</ele><time>2026-04-26T07:44:18.305Z</time></trkpt><trkpt lat="45.7633877" lon="11.7396373"><ele>131.0</ele><time>2026-04-26T07:44:19.31Z</time></trkpt><trkpt lat="45.7635486" lon="11.7395594"><ele>131.0</ele><time>2026-04-26T07:44:20.305Z</time></trkpt><trkpt lat="45.7637194" lon="11.7394782"><ele>132.0</ele><time>2026-04-26T07:44:21.303Z</time></trkpt><trkpt lat="45.7638977" lon="11.7393806"><ele>133.0</ele><time>2026-04-26T07:44:22.297Z</time></trkpt><trkpt lat="45.7640731" lon="11.7392776"><ele>134.0</ele><time>2026-04-26T07:44:23.3Z</time></trkpt><trkpt lat="45.7642286" lon="11.7391809"><ele>133.5</ele><time>2026-04-26T07:44:24.295Z</time></trkpt><trkpt lat="45.7643718" lon="11.7391062"><ele>133.0</ele><time>2026-04-26T07:44:25.293Z</time></trkpt><trkpt lat="45.7645112" lon="11.7390241"><ele>132.5</ele><time>2026-04-26T07:44:26.293Z</time></trkpt><trkpt lat="45.7646441" lon="11.738947"><ele>132.0</ele><time>2026-04-26T07:44:27.298Z</time></trkpt><trkpt lat="45.7647657" lon="11.7388725"><ele>132.0</ele><time>2026-04-26T07:44:28.295Z</time></trkpt><trkpt lat="45.7648865" lon="11.7387863"><ele>132.0</ele><time>2026-04-26T07:44:29.297Z</time></trkpt><trkpt lat="45.7649978" lon="11.7387184"><ele>132.0</ele><time>2026-04-26T07:44:30.297Z</time></trkpt><trkpt lat="45.7651065" lon="11.7386575"><ele>132.0</ele><time>2026-04-26T07:44:31.3Z</time></trkpt><trkpt lat="45.7652377" lon="11.7385939"><ele>131.75</ele><time>2026-04-26T07:44:32.292Z</time></trkpt><trkpt lat="45.7653765" lon="11.7385455"><ele>131.5</ele><time>2026-04-26T07:44:33.294Z</time></trkpt><trkpt lat="45.7655205" lon="11.7385023"><ele>131.25</ele><time>2026-04-26T07:44:34.301Z</time></trkpt><trkpt lat="45.7656791" lon="11.7384853"><ele>131.0</ele><time>2026-04-26T07:44:35.307Z</time></trkpt><trkpt lat="45.7658269" lon="11.7384637"><ele>131.0</ele><time>2026-04-26T07:44:36.299Z</time></trkpt><trkpt lat="45.7659633" lon="11.7384398"><ele>131.0</ele><time>2026-04-26T07:44:37.297Z</time></trkpt><trkpt lat="45.7661043" lon="11.7384539"><ele>131.0</ele><time>2026-04-26T07:44:38.309Z</time></trkpt><trkpt lat="45.7662502" lon="11.7384561"><ele>131.0</ele><time>2026-04-26T07:44:39.293Z</time></trkpt><trkpt lat="45.766383" lon="11.7384451"><ele>131.25</ele><time>2026-04-26T07:44:40.311Z</time></trkpt><trkpt lat="45.7665008" lon="11.7384466"><ele>131.5</ele><time>2026-04-26T07:44:41.306Z</time></trkpt><trkpt lat="45.7666207" lon="11.7384463"><ele>131.75</ele><time>2026-04-26T07:44:42.308Z</time></trkpt><trkpt lat="45.7667331" lon="11.738442"><ele>132.0</ele><time>2026-04-26T07:44:43.311Z</time></trkpt><trkpt lat="45.7668393" lon="11.7384394"><ele>132.2</ele><time>2026-04-26T07:44:44.312Z</time></trkpt><trkpt lat="45.7669382" lon="11.7384337"><ele>132.39999999999998</ele><time>2026-04-26T07:44:45.31Z</time></trkpt><trkpt lat="45.7670264" lon="11.7384282"><ele>132.60000000000002</ele><time>2026-04-26T07:44:46.314Z</time></trkpt><trkpt lat="45.7671066" lon="11.7384115"><ele>132.8</ele><time>2026-04-26T07:44:47.335Z</time></trkpt><trkpt lat="45.7671754" lon="11.7383952"><ele>133.0</ele><time>2026-04-26T07:44:48.311Z</time></trkpt><trkpt lat="45.7672873" lon="11.7383757"><ele>133.0</ele><time>2026-04-26T07:44:50.308Z</time></trkpt><trkpt lat="45.7673641" lon="11.7383505"><ele>133.0</ele><time>2026-04-26T07:44:52.312Z</time></trkpt><trkpt lat="45.767446" lon="11.7383593"><ele>133.0</ele><time>2026-04-26T07:45:04.302Z</time></trkpt><trkpt lat="45.7675499" lon="11.7383647"><ele>133.0</ele><time>2026-04-26T07:45:05.294Z</time></trkpt><trkpt lat="45.7676626" lon="11.7383672"><ele>133.0</ele><time>2026-04-26T07:45:06.289Z</time></trkpt><trkpt lat="45.7677715" lon="11.7383736"><ele>133.0</ele><time>2026-04-26T07:45:07.289Z</time></trkpt><trkpt lat="45.7678731" lon="11.7383781"><ele>133.0</ele><time>2026-04-26T07:45:08.28Z</time></trkpt><trkpt lat="45.7679578" lon="11.7383695"><ele>133.0</ele><time>2026-04-26T07:45:09.282Z</time></trkpt><trkpt lat="45.7680261" lon="11.7383627"><ele>133.0</ele><time>2026-04-26T07:45:10.291Z</time></trkpt><trkpt lat="45.7681122" lon="11.7383489"><ele>133.0</ele><time>2026-04-26T07:45:12.287Z</time></trkpt><trkpt lat="45.768223" lon="11.7383727"><ele>133.0</ele><time>2026-04-26T07:45:40.298Z</time></trkpt><trkpt lat="45.7682868" lon="11.7383727"><ele>133.0</ele><time>2026-04-26T07:45:41.297Z</time></trkpt><trkpt lat="45.7683554" lon="11.7383739"><ele>133.0</ele><time>2026-04-26T07:45:42.294Z</time></trkpt><trkpt lat="45.7684284" lon="11.7383728"><ele>133.0</ele><time>2026-04-26T07:45:43.296Z</time></trkpt><trkpt lat="45.7685045" lon="11.7383711"><ele>133.0</ele><time>2026-04-26T07:45:44.298Z</time></trkpt><trkpt lat="45.7685866" lon="11.7383629"><ele>133.0</ele><time>2026-04-26T07:45:45.301Z</time></trkpt><trkpt lat="45.7686657" lon="11.738351"><ele>133.0</ele><time>2026-04-26T07:45:46.299Z</time></trkpt><trkpt lat="45.7687441" lon="11.7383423"><ele>133.5</ele><time>2026-04-26T07:45:47.305Z</time></trkpt><trkpt lat="45.7688298" lon="11.7383407"><ele>134.0</ele><time>2026-04-26T07:45:48.319Z</time></trkpt><trkpt lat="45.7689207" lon="11.7383378"><ele>134.5</ele><time>2026-04-26T07:45:49.302Z</time></trkpt><trkpt lat="45.7690016" lon="11.7383209"><ele>135.0</ele><time>2026-04-26T07:45:50.288Z</time></trkpt><trkpt lat="45.7690826" lon="11.7383207"><ele>135.5</ele><time>2026-04-26T07:45:51.292Z</time></trkpt><trkpt lat="45.7691655" lon="11.7383301"><ele>136.0</ele><time>2026-04-26T07:45:52.29Z</time></trkpt><trkpt lat="45.7692445" lon="11.7383335"><ele>136.0</ele><time>2026-04-26T07:45:53.29Z</time></trkpt><trkpt lat="45.7693283" lon="11.7383432"><ele>136.0</ele><time>2026-04-26T07:45:54.291Z</time></trkpt><trkpt lat="45.7694025" lon="11.7383569"><ele>136.0</ele><time>2026-04-26T07:45:55.294Z</time></trkpt><trkpt lat="45.7694718" lon="11.7383726"><ele>136.0</ele><time>2026-04-26T07:45:56.293Z</time></trkpt><trkpt lat="45.769533" lon="11.7383941"><ele>136.0</ele><time>2026-04-26T07:45:57.294Z</time></trkpt><trkpt lat="45.769655" lon="11.7384498"><ele>136.0</ele><time>2026-04-26T07:45:59.284Z</time></trkpt><trkpt lat="45.7697261" lon="11.7384775"><ele>135.6</ele><time>2026-04-26T07:46:00.275Z</time></trkpt><trkpt lat="45.769797" lon="11.7385146"><ele>135.2</ele><time>2026-04-26T07:46:01.276Z</time></trkpt><trkpt lat="45.7698818" lon="11.7385927"><ele>134.8</ele><time>2026-04-26T07:46:02.277Z</time></trkpt><trkpt lat="45.7699745" lon="11.7387069"><ele>134.4</ele><time>2026-04-26T07:46:03.281Z</time></trkpt><trkpt lat="45.7700712" lon="11.7388139"><ele>134.0</ele><time>2026-04-26T07:46:04.284Z</time></trkpt><trkpt lat="45.7701742" lon="11.7389279"><ele>131.75</ele><time>2026-04-26T07:46:05.292Z</time></trkpt><trkpt lat="45.7702721" lon="11.739029"><ele>129.5</ele><time>2026-04-26T07:46:06.291Z</time></trkpt><trkpt lat="45.7703774" lon="11.7391104"><ele>127.25</ele><time>2026-04-26T07:46:07.297Z</time></trkpt><trkpt lat="45.7704707" lon="11.7392071"><ele>125.0</ele><time>2026-04-26T07:46:08.295Z</time></trkpt><trkpt lat="45.7705643" lon="11.739304"><ele>127.25</ele><time>2026-04-26T07:46:09.288Z</time></trkpt><trkpt lat="45.7706653" lon="11.7394055"><ele>129.5</ele><time>2026-04-26T07:46:10.295Z</time></trkpt><trkpt lat="45.7707608" lon="11.7395059"><ele>131.75</ele><time>2026-04-26T07:46:11.294Z</time></trkpt><trkpt lat="45.7708571" lon="11.7396116"><ele>134.0</ele><time>2026-04-26T07:46:12.293Z</time></trkpt><trkpt lat="45.7709626" lon="11.7397118"><ele>132.25</ele><time>2026-04-26T07:46:13.292Z</time></trkpt><trkpt lat="45.7710721" lon="11.7398226"><ele>130.5</ele><time>2026-04-26T07:46:14.3Z</time></trkpt><trkpt lat="45.771179" lon="11.7399196"><ele>128.75</ele><time>2026-04-26T07:46:15.299Z</time></trkpt><trkpt lat="45.7712827" lon="11.7400065"><ele>127.0</ele><time>2026-04-26T07:46:16.295Z</time></trkpt><trkpt lat="45.7713885" lon="11.7400731"><ele>127.0</ele><time>2026-04-26T07:46:17.298Z</time></trkpt><trkpt lat="45.7714969" lon="11.740122"><ele>127.0</ele><time>2026-04-26T07:46:18.301Z</time></trkpt><trkpt lat="45.7716091" lon="11.7401637"><ele>127.0</ele><time>2026-04-26T07:46:19.32Z</time></trkpt><trkpt lat="45.7717272" lon="11.7402064"><ele>127.0</ele><time>2026-04-26T07:46:20.302Z</time></trkpt><trkpt lat="45.7718429" lon="11.7402498"><ele>128.25</ele><time>2026-04-26T07:46:21.302Z</time></trkpt><trkpt lat="45.7719579" lon="11.7402973"><ele>129.5</ele><time>2026-04-26T07:46:22.308Z</time></trkpt><trkpt lat="45.7720746" lon="11.740339"><ele>130.75</ele><time>2026-04-26T07:46:23.305Z</time></trkpt><trkpt lat="45.7721953" lon="11.7403784"><ele>132.0</ele><time>2026-04-26T07:46:24.305Z</time></trkpt><trkpt lat="45.772319" lon="11.7404054"><ele>132.0</ele><time>2026-04-26T07:46:25.305Z</time></trkpt><trkpt lat="45.7724446" lon="11.7404226"><ele>132.0</ele><time>2026-04-26T07:46:26.307Z</time></trkpt><trkpt lat="45.7725765" lon="11.7404361"><ele>132.0</ele><time>2026-04-26T07:46:27.306Z</time></trkpt><trkpt lat="45.772709" lon="11.7404463"><ele>132.0</ele><time>2026-04-26T07:46:28.311Z</time></trkpt><trkpt lat="45.7728401" lon="11.7404601"><ele>132.5</ele><time>2026-04-26T07:46:29.303Z</time></trkpt><trkpt lat="45.7729722" lon="11.740475"><ele>133.0</ele><time>2026-04-26T07:46:30.305Z</time></trkpt><trkpt lat="45.7731102" lon="11.7404922"><ele>133.5</ele><time>2026-04-26T07:46:31.313Z</time></trkpt><trkpt lat="45.773248" lon="11.7405075"><ele>134.0</ele><time>2026-04-26T07:46:32.303Z</time></trkpt><trkpt lat="45.7733869" lon="11.7405308"><ele>134.0</ele><time>2026-04-26T07:46:33.303Z</time></trkpt><trkpt lat="45.7735247" lon="11.7405757"><ele>134.0</ele><time>2026-04-26T07:46:34.306Z</time></trkpt><trkpt lat="45.7736594" lon="11.7406189"><ele>134.0</ele><time>2026-04-26T07:46:35.3Z</time></trkpt><trkpt lat="45.7737859" lon="11.7406766"><ele>134.0</ele><time>2026-04-26T07:46:36.3Z</time></trkpt><trkpt lat="45.7738977" lon="11.7407517"><ele>134.0</ele><time>2026-04-26T07:46:37.306Z</time></trkpt><trkpt lat="45.7740033" lon="11.7408481"><ele>134.0</ele><time>2026-04-26T07:46:38.298Z</time></trkpt><trkpt lat="45.7741069" lon="11.7409258"><ele>134.0</ele><time>2026-04-26T07:46:39.301Z</time></trkpt><trkpt lat="45.7742125" lon="11.7409999"><ele>134.0</ele><time>2026-04-26T07:46:40.3Z</time></trkpt><trkpt lat="45.7743215" lon="11.7410585"><ele>134.75</ele><time>2026-04-26T07:46:41.298Z</time></trkpt><trkpt lat="45.7744358" lon="11.7411016"><ele>135.5</ele><time>2026-04-26T07:46:42.304Z</time></trkpt><trkpt lat="45.7745524" lon="11.7411173"><ele>136.25</ele><time>2026-04-26T07:46:43.304Z</time></trkpt><trkpt lat="45.7746798" lon="11.7411305"><ele>137.0</ele><time>2026-04-26T07:46:44.303Z</time></trkpt><trkpt lat="45.7748056" lon="11.7411379"><ele>137.0</ele><time>2026-04-26T07:46:45.302Z</time></trkpt><trkpt lat="45.774932" lon="11.7411383"><ele>137.0</ele><time>2026-04-26T07:46:46.294Z</time></trkpt><trkpt lat="45.7750565" lon="11.7411468"><ele>137.0</ele><time>2026-04-26T07:46:47.294Z</time></trkpt><trkpt lat="45.7751792" lon="11.7411604"><ele>137.0</ele><time>2026-04-26T07:46:48.295Z</time></trkpt><trkpt lat="45.7752989" lon="11.7411736"><ele>136.0</ele><time>2026-04-26T07:46:49.287Z</time></trkpt><trkpt lat="45.7754188" lon="11.7411869"><ele>135.0</ele><time>2026-04-26T07:46:50.308Z</time></trkpt><trkpt lat="45.7755339" lon="11.7412189"><ele>134.0</ele><time>2026-04-26T07:46:51.301Z</time></trkpt><trkpt lat="45.7756504" lon="11.7413007"><ele>133.0</ele><time>2026-04-26T07:46:52.299Z</time></trkpt><trkpt lat="45.7757566" lon="11.7413993"><ele>133.0</ele><time>2026-04-26T07:46:53.306Z</time></trkpt><trkpt lat="45.7758613" lon="11.7414884"><ele>133.0</ele><time>2026-04-26T07:46:54.303Z</time></trkpt><trkpt lat="45.7759629" lon="11.7415447"><ele>133.0</ele><time>2026-04-26T07:46:55.298Z</time></trkpt><trkpt lat="45.7760526" lon="11.741629"><ele>133.0</ele><time>2026-04-26T07:46:56.301Z</time></trkpt><trkpt lat="45.7761513" lon="11.7417267"><ele>133.25</ele><time>2026-04-26T07:46:57.304Z</time></trkpt><trkpt lat="45.7762493" lon="11.7418278"><ele>133.5</ele><time>2026-04-26T07:46:58.308Z</time></trkpt><trkpt lat="45.7763421" lon="11.7419189"><ele>133.75</ele><time>2026-04-26T07:46:59.307Z</time></trkpt><trkpt lat="45.7764378" lon="11.7420008"><ele>134.0</ele><time>2026-04-26T07:47:00.305Z</time></trkpt><trkpt lat="45.7765418" lon="11.7420607"><ele>134.0</ele><time>2026-04-26T07:47:01.301Z</time></trkpt><trkpt lat="45.7766574" lon="11.7421019"><ele>134.0</ele><time>2026-04-26T07:47:02.301Z</time></trkpt><trkpt lat="45.7767768" lon="11.7421239"><ele>134.0</ele><time>2026-04-26T07:47:03.308Z</time></trkpt><trkpt lat="45.7769008" lon="11.742128"><ele>134.0</ele><time>2026-04-26T07:47:04.304Z</time></trkpt><trkpt lat="45.777022" lon="11.7421374"><ele>134.0</ele><time>2026-04-26T07:47:05.304Z</time></trkpt><trkpt lat="45.7771441" lon="11.7421495"><ele>134.0</ele><time>2026-04-26T07:47:06.303Z</time></trkpt><trkpt lat="45.7772785" lon="11.7421536"><ele>134.0</ele><time>2026-04-26T07:47:07.304Z</time></trkpt><trkpt lat="45.777409" lon="11.7421633"><ele>134.0</ele><time>2026-04-26T07:47:08.307Z</time></trkpt><trkpt lat="45.7775284" lon="11.7421612"><ele>134.0</ele><time>2026-04-26T07:47:09.31Z</time></trkpt><trkpt lat="45.7776439" lon="11.7421583"><ele>134.0</ele><time>2026-04-26T07:47:10.308Z</time></trkpt><trkpt lat="45.7777548" lon="11.7421505"><ele>134.0</ele><time>2026-04-26T07:47:11.302Z</time></trkpt><trkpt lat="45.7778689" lon="11.7421358"><ele>134.0</ele><time>2026-04-26T07:47:12.305Z</time></trkpt><trkpt lat="45.7779812" lon="11.7421111"><ele>134.2</ele><time>2026-04-26T07:47:13.303Z</time></trkpt><trkpt lat="45.7780939" lon="11.7420765"><ele>134.4</ele><time>2026-04-26T07:47:14.302Z</time></trkpt><trkpt lat="45.778202" lon="11.742028"><ele>134.6</ele><time>2026-04-26T07:47:15.303Z</time></trkpt><trkpt lat="45.7783027" lon="11.7419723"><ele>134.8</ele><time>2026-04-26T07:47:16.299Z</time></trkpt><trkpt lat="45.7783992" lon="11.7419131"><ele>135.0</ele><time>2026-04-26T07:47:17.301Z</time></trkpt><trkpt lat="45.7784967" lon="11.7418546"><ele>135.0</ele><time>2026-04-26T07:47:18.298Z</time></trkpt><trkpt lat="45.7785929" lon="11.7417933"><ele>135.0</ele><time>2026-04-26T07:47:19.298Z</time></trkpt><trkpt lat="45.7786858" lon="11.7417302"><ele>135.0</ele><time>2026-04-26T07:47:20.295Z</time></trkpt><trkpt lat="45.7787726" lon="11.7416725"><ele>135.0</ele><time>2026-04-26T07:47:21.314Z</time></trkpt><trkpt lat="45.7788536" lon="11.7416189"><ele>135.0</ele><time>2026-04-26T07:47:22.294Z</time></trkpt><trkpt lat="45.7789257" lon="11.7415647"><ele>135.0</ele><time>2026-04-26T07:47:23.292Z</time></trkpt><trkpt lat="45.7789929" lon="11.7415185"><ele>135.0</ele><time>2026-04-26T07:47:24.292Z</time></trkpt><trkpt lat="45.779095" lon="11.7414624"><ele>135.0</ele><time>2026-04-26T07:47:26.291Z</time></trkpt><trkpt lat="45.7791612" lon="11.7414477"><ele>135.0</ele><time>2026-04-26T07:47:28.293Z</time></trkpt><trkpt lat="45.7792398" lon="11.7414321"><ele>135.0</ele><time>2026-04-26T07:47:51.306Z</time></trkpt><trkpt lat="45.7793592" lon="11.7414366"><ele>135.4</ele><time>2026-04-26T07:47:53.298Z</time></trkpt><trkpt lat="45.7794166" lon="11.7414802"><ele>135.8</ele><time>2026-04-26T07:47:54.302Z</time></trkpt><trkpt lat="45.7794576" lon="11.7415719"><ele>136.2</ele><time>2026-04-26T07:47:55.3Z</time></trkpt><trkpt lat="45.7794735" lon="11.7417025"><ele>136.6</ele><time>2026-04-26T07:47:56.292Z</time></trkpt><trkpt lat="45.7794687" lon="11.7418374"><ele>137.0</ele><time>2026-04-26T07:47:57.302Z</time></trkpt><trkpt lat="45.7794357" lon="11.7420285"><ele>137.0</ele><time>2026-04-26T07:47:58.292Z</time></trkpt><trkpt lat="45.779425" lon="11.7422233"><ele>137.0</ele><time>2026-04-26T07:47:59.301Z</time></trkpt><trkpt lat="45.7794297" lon="11.742432"><ele>137.0</ele><time>2026-04-26T07:48:00.298Z</time></trkpt><trkpt lat="45.7794558" lon="11.7426445"><ele>137.0</ele><time>2026-04-26T07:48:01.3Z</time></trkpt><trkpt lat="45.7794907" lon="11.742859"><ele>136.66666666666666</ele><time>2026-04-26T07:48:02.299Z</time></trkpt><trkpt lat="45.7795527" lon="11.7430738"><ele>136.33333333333334</ele><time>2026-04-26T07:48:03.311Z</time></trkpt><trkpt lat="45.7796533" lon="11.743299"><ele>136.0</ele><time>2026-04-26T07:48:04.309Z</time></trkpt><trkpt lat="45.77976" lon="11.7434942"><ele>136.33333333333334</ele><time>2026-04-26T07:48:05.299Z</time></trkpt><trkpt lat="45.7798606" lon="11.7436901"><ele>136.66666666666666</ele><time>2026-04-26T07:48:06.306Z</time></trkpt><trkpt lat="45.7799877" lon="11.7439085"><ele>137.0</ele><time>2026-04-26T07:48:07.308Z</time></trkpt><trkpt lat="45.7801104" lon="11.7440912"><ele>136.66666666666666</ele><time>2026-04-26T07:48:08.307Z</time></trkpt><trkpt lat="45.780225" lon="11.7443017"><ele>136.33333333333334</ele><time>2026-04-26T07:48:09.306Z</time></trkpt><trkpt lat="45.7803368" lon="11.7445134"><ele>136.0</ele><time>2026-04-26T07:48:10.308Z</time></trkpt><trkpt lat="45.7804379" lon="11.7447235"><ele>136.0</ele><time>2026-04-26T07:48:11.31Z</time></trkpt><trkpt lat="45.7805402" lon="11.7449293"><ele>136.0</ele><time>2026-04-26T07:48:12.31Z</time></trkpt><trkpt lat="45.7806467" lon="11.7451445"><ele>136.0</ele><time>2026-04-26T07:48:13.309Z</time></trkpt><trkpt lat="45.7807439" lon="11.745359"><ele>136.0</ele><time>2026-04-26T07:48:14.307Z</time></trkpt><trkpt lat="45.7808495" lon="11.7455689"><ele>136.0</ele><time>2026-04-26T07:48:15.31Z</time></trkpt><trkpt lat="45.7809564" lon="11.7457771"><ele>136.0</ele><time>2026-04-26T07:48:16.309Z</time></trkpt><trkpt lat="45.7810583" lon="11.7459746"><ele>135.66666666666669</ele><time>2026-04-26T07:48:17.299Z</time></trkpt><trkpt lat="45.7811541" lon="11.7461661"><ele>135.33333333333334</ele><time>2026-04-26T07:48:18.305Z</time></trkpt><trkpt lat="45.7812597" lon="11.7463585"><ele>135.0</ele><time>2026-04-26T07:48:19.305Z</time></trkpt><trkpt lat="45.7813643" lon="11.7465655"><ele>135.0</ele><time>2026-04-26T07:48:20.304Z</time></trkpt><trkpt lat="45.7814657" lon="11.7467694"><ele>135.0</ele><time>2026-04-26T07:48:21.302Z</time></trkpt><trkpt lat="45.7815702" lon="11.746969"><ele>135.0</ele><time>2026-04-26T07:48:22.295Z</time></trkpt><trkpt lat="45.7816734" lon="11.7471588"><ele>135.66666666666666</ele><time>2026-04-26T07:48:23.311Z</time></trkpt><trkpt lat="45.781788" lon="11.7473311"><ele>136.33333333333331</ele><time>2026-04-26T07:48:24.293Z</time></trkpt><trkpt lat="45.7818829" lon="11.7475172"><ele>137.0</ele><time>2026-04-26T07:48:25.297Z</time></trkpt><trkpt lat="45.7819815" lon="11.7477079"><ele>138.33333333333331</ele><time>2026-04-26T07:48:26.301Z</time></trkpt><trkpt lat="45.7820848" lon="11.7478998"><ele>139.66666666666666</ele><time>2026-04-26T07:48:27.303Z</time></trkpt><trkpt lat="45.7821857" lon="11.7480725"><ele>141.0</ele><time>2026-04-26T07:48:28.3Z</time></trkpt><trkpt lat="45.782265" lon="11.7482354"><ele>141.0</ele><time>2026-04-26T07:48:29.298Z</time></trkpt><trkpt lat="45.7823366" lon="11.7483761"><ele>141.0</ele><time>2026-04-26T07:48:30.295Z</time></trkpt><trkpt lat="45.7824021" lon="11.7484932"><ele>141.0</ele><time>2026-04-26T07:48:31.292Z</time></trkpt><trkpt lat="45.7824416" lon="11.7486057"><ele>141.0</ele><time>2026-04-26T07:48:32.288Z</time></trkpt><trkpt lat="45.7824615" lon="11.7487196"><ele>141.0</ele><time>2026-04-26T07:48:33.301Z</time></trkpt><trkpt lat="45.782409" lon="11.7488629"><ele>141.0</ele><time>2026-04-26T07:48:34.299Z</time></trkpt><trkpt lat="45.7823686" lon="11.7489964"><ele>141.0</ele><time>2026-04-26T07:48:35.297Z</time></trkpt><trkpt lat="45.7823113" lon="11.7491271"><ele>141.0</ele><time>2026-04-26T07:48:36.297Z</time></trkpt><trkpt lat="45.7822295" lon="11.7492652"><ele>141.0</ele><time>2026-04-26T07:48:37.298Z</time></trkpt><trkpt lat="45.782134" lon="11.7494065"><ele>140.66666666666666</ele><time>2026-04-26T07:48:38.295Z</time></trkpt><trkpt lat="45.7820311" lon="11.7495491"><ele>140.33333333333331</ele><time>2026-04-26T07:48:39.296Z</time></trkpt><trkpt lat="45.7819253" lon="11.7497"><ele>140.0</ele><time>2026-04-26T07:48:40.293Z</time></trkpt><trkpt lat="45.7818064" lon="11.7498703"><ele>140.0</ele><time>2026-04-26T07:48:41.296Z</time></trkpt><trkpt lat="45.7816829" lon="11.7500479"><ele>140.0</ele><time>2026-04-26T07:48:42.297Z</time></trkpt><trkpt lat="45.7815629" lon="11.7502255"><ele>140.0</ele><time>2026-04-26T07:48:43.297Z</time></trkpt><trkpt lat="45.7814461" lon="11.750399"><ele>140.33333333333331</ele><time>2026-04-26T07:48:44.299Z</time></trkpt><trkpt lat="45.7813395" lon="11.7505749"><ele>140.66666666666666</ele><time>2026-04-26T07:48:45.296Z</time></trkpt><trkpt lat="45.78124" lon="11.7507486"><ele>141.0</ele><time>2026-04-26T07:48:46.294Z</time></trkpt><trkpt lat="45.7811322" lon="11.7509138"><ele>140.5</ele><time>2026-04-26T07:48:47.296Z</time></trkpt><trkpt lat="45.7810304" lon="11.7510747"><ele>140.0</ele><time>2026-04-26T07:48:48.302Z</time></trkpt><trkpt lat="45.7809311" lon="11.7512317"><ele>139.5</ele><time>2026-04-26T07:48:49.3Z</time></trkpt><trkpt lat="45.780846" lon="11.7513714"><ele>139.0</ele><time>2026-04-26T07:48:50.295Z</time></trkpt><trkpt lat="45.7807517" lon="11.7515064"><ele>139.0</ele><time>2026-04-26T07:48:51.3Z</time></trkpt><trkpt lat="45.7806571" lon="11.7516319"><ele>139.0</ele><time>2026-04-26T07:48:52.3Z</time></trkpt><trkpt lat="45.7805708" lon="11.7517535"><ele>139.0</ele><time>2026-04-26T07:48:53.302Z</time></trkpt><trkpt lat="45.780493" lon="11.7518544"><ele>139.0</ele><time>2026-04-26T07:48:54.325Z</time></trkpt><trkpt lat="45.7804163" lon="11.7519398"><ele>138.5</ele><time>2026-04-26T07:48:55.302Z</time></trkpt><trkpt lat="45.7803388" lon="11.7520101"><ele>138.0</ele><time>2026-04-26T07:48:56.301Z</time></trkpt><trkpt lat="45.7802596" lon="11.7520738"><ele>137.5</ele><time>2026-04-26T07:48:57.292Z</time></trkpt><trkpt lat="45.7801861" lon="11.7521474"><ele>137.0</ele><time>2026-04-26T07:48:58.302Z</time></trkpt><trkpt lat="45.7801203" lon="11.7522003"><ele>136.5</ele><time>2026-04-26T07:48:59.303Z</time></trkpt><trkpt lat="45.7800573" lon="11.7522043"><ele>136.0</ele><time>2026-04-26T07:49:00.295Z</time></trkpt><trkpt lat="45.7799595" lon="11.7520819"><ele>135.5</ele><time>2026-04-26T07:49:02.294Z</time></trkpt><trkpt lat="45.7798946" lon="11.7519815"><ele>135.0</ele><time>2026-04-26T07:49:03.289Z</time></trkpt><trkpt lat="45.7798372" lon="11.7518488"><ele>134.5</ele><time>2026-04-26T07:49:04.289Z</time></trkpt><trkpt lat="45.7797968" lon="11.7517015"><ele>134.0</ele><time>2026-04-26T07:49:05.297Z</time></trkpt><trkpt lat="45.7797442" lon="11.751512"><ele>134.0</ele><time>2026-04-26T07:49:06.292Z</time></trkpt><trkpt lat="45.7796843" lon="11.7513202"><ele>134.0</ele><time>2026-04-26T07:49:07.299Z</time></trkpt><trkpt lat="45.779621" lon="11.751129"><ele>134.0</ele><time>2026-04-26T07:49:08.298Z</time></trkpt><trkpt lat="45.7795493" lon="11.7509263"><ele>134.0</ele><time>2026-04-26T07:49:09.303Z</time></trkpt><trkpt lat="45.7794696" lon="11.7506944"><ele>134.0</ele><time>2026-04-26T07:49:10.296Z</time></trkpt><trkpt lat="45.7793996" lon="11.7504644"><ele>134.0</ele><time>2026-04-26T07:49:11.303Z</time></trkpt><trkpt lat="45.77933" lon="11.7502574"><ele>134.66666666666666</ele><time>2026-04-26T07:49:12.307Z</time></trkpt><trkpt lat="45.7792668" lon="11.7500631"><ele>135.33333333333334</ele><time>2026-04-26T07:49:13.307Z</time></trkpt><trkpt lat="45.7791988" lon="11.7498711"><ele>136.0</ele><time>2026-04-26T07:49:14.308Z</time></trkpt><trkpt lat="45.7791275" lon="11.7496764"><ele>136.0</ele><time>2026-04-26T07:49:15.304Z</time></trkpt><trkpt lat="45.7790682" lon="11.7494786"><ele>136.0</ele><time>2026-04-26T07:49:16.301Z</time></trkpt><trkpt lat="45.7790245" lon="11.7492921"><ele>136.0</ele><time>2026-04-26T07:49:17.309Z</time></trkpt><trkpt lat="45.778987" lon="11.7491108"><ele>136.0</ele><time>2026-04-26T07:49:18.302Z</time></trkpt><trkpt lat="45.7789461" lon="11.7489305"><ele>135.8</ele><time>2026-04-26T07:49:19.304Z</time></trkpt><trkpt lat="45.778909" lon="11.7487639"><ele>135.6</ele><time>2026-04-26T07:49:20.302Z</time></trkpt><trkpt lat="45.7788769" lon="11.7486262"><ele>135.4</ele><time>2026-04-26T07:49:21.303Z</time></trkpt><trkpt lat="45.77885" lon="11.7485113"><ele>135.2</ele><time>2026-04-26T07:49:22.302Z</time></trkpt><trkpt lat="45.7788379" lon="11.7484075"><ele>135.0</ele><time>2026-04-26T07:49:23.304Z</time></trkpt><trkpt lat="45.7788383" lon="11.7482414"><ele>135.0</ele><time>2026-04-26T07:49:25.324Z</time></trkpt><trkpt lat="45.7788073" lon="11.7481149"><ele>135.0</ele><time>2026-04-26T07:49:27.309Z</time></trkpt><trkpt lat="45.7787012" lon="11.7481569"><ele>135.0</ele><time>2026-04-26T07:49:29.308Z</time></trkpt><trkpt lat="45.778652" lon="11.7482566"><ele>135.0</ele><time>2026-04-26T07:49:30.303Z</time></trkpt><trkpt lat="45.7786066" lon="11.7483588"><ele>135.0</ele><time>2026-04-26T07:49:31.309Z</time></trkpt><trkpt lat="45.7785372" lon="11.7484596"><ele>135.0</ele><time>2026-04-26T07:49:32.299Z</time></trkpt><trkpt lat="45.7784401" lon="11.7485483"><ele>135.0</ele><time>2026-04-26T07:49:33.308Z</time></trkpt><trkpt lat="45.7783207" lon="11.7486379"><ele>135.0</ele><time>2026-04-26T07:49:34.299Z</time></trkpt><trkpt lat="45.7782" lon="11.74873"><ele>135.0</ele><time>2026-04-26T07:49:35.299Z</time></trkpt><trkpt lat="45.7780815" lon="11.7488298"><ele>135.0</ele><time>2026-04-26T07:49:36.3Z</time></trkpt><trkpt lat="45.7779598" lon="11.7489217"><ele>135.0</ele><time>2026-04-26T07:49:37.299Z</time></trkpt><trkpt lat="45.7778383" lon="11.7490165"><ele>135.0</ele><time>2026-04-26T07:49:38.297Z</time></trkpt><trkpt lat="45.777719" lon="11.7491026"><ele>135.0</ele><time>2026-04-26T07:49:39.304Z</time></trkpt><trkpt lat="45.7775999" lon="11.7491873"><ele>135.0</ele><time>2026-04-26T07:49:40.302Z</time></trkpt><trkpt lat="45.7774888" lon="11.7492789"><ele>135.0</ele><time>2026-04-26T07:49:41.303Z</time></trkpt><trkpt lat="45.7773801" lon="11.7493768"><ele>135.0</ele><time>2026-04-26T07:49:42.305Z</time></trkpt><trkpt lat="45.777279" lon="11.7494818"><ele>135.0</ele><time>2026-04-26T07:49:43.306Z</time></trkpt><trkpt lat="45.7771826" lon="11.7495826"><ele>135.0</ele><time>2026-04-26T07:49:44.304Z</time></trkpt><trkpt lat="45.7770891" lon="11.749687"><ele>135.0</ele><time>2026-04-26T07:49:45.306Z</time></trkpt><trkpt lat="45.776997" lon="11.7497873"><ele>135.0</ele><time>2026-04-26T07:49:46.304Z</time></trkpt><trkpt lat="45.7769083" lon="11.7498917"><ele>135.0</ele><time>2026-04-26T07:49:47.308Z</time></trkpt><trkpt lat="45.7768247" lon="11.7499973"><ele>135.0</ele><time>2026-04-26T07:49:48.307Z</time></trkpt><trkpt lat="45.7767406" lon="11.7501033"><ele>135.0</ele><time>2026-04-26T07:49:49.308Z</time></trkpt><trkpt lat="45.7766588" lon="11.7502084"><ele>135.0</ele><time>2026-04-26T07:49:50.301Z</time></trkpt><trkpt lat="45.77659" lon="11.7502987"><ele>135.0</ele><time>2026-04-26T07:49:51.307Z</time></trkpt><trkpt lat="45.7765402" lon="11.7503838"><ele>135.0</ele><time>2026-04-26T07:49:53.291Z</time></trkpt><trkpt lat="45.7765968" lon="11.7504397"><ele>135.0</ele><time>2026-04-26T07:50:00.311Z</time></trkpt><trkpt lat="45.7765041" lon="11.7504204"><ele>135.0</ele><time>2026-04-26T07:56:26.311Z</time></trkpt><trkpt lat="45.7763712" lon="11.7505093"><ele>135.0</ele><time>2026-04-26T07:56:28.312Z</time></trkpt><trkpt lat="45.776305" lon="11.7505701"><ele>135.0</ele><time>2026-04-26T07:56:29.307Z</time></trkpt><trkpt lat="45.7762347" lon="11.7506403"><ele>135.0</ele><time>2026-04-26T07:56:30.305Z</time></trkpt><trkpt lat="45.7761804" lon="11.7507136"><ele>135.0</ele><time>2026-04-26T07:56:31.314Z</time></trkpt><trkpt lat="45.7761308" lon="11.7507834"><ele>135.0</ele><time>2026-04-26T07:56:32.305Z</time></trkpt><trkpt lat="45.7760787" lon="11.7508477"><ele>135.0</ele><time>2026-04-26T07:56:33.31Z</time></trkpt><trkpt lat="45.776028" lon="11.7509101"><ele>135.0</ele><time>2026-04-26T07:56:34.306Z</time></trkpt><trkpt lat="45.7759822" lon="11.750977"><ele>135.0</ele><time>2026-04-26T07:56:35.317Z</time></trkpt><trkpt lat="45.7759282" lon="11.7510448"><ele>135.0</ele><time>2026-04-26T07:56:36.31Z</time></trkpt><trkpt lat="45.7758635" lon="11.7511213"><ele>135.0</ele><time>2026-04-26T07:56:37.329Z</time></trkpt><trkpt lat="45.775792" lon="11.7511929"><ele>134.66666666666666</ele><time>2026-04-26T07:56:38.306Z</time></trkpt><trkpt lat="45.7757123" lon="11.7512537"><ele>134.33333333333334</ele><time>2026-04-26T07:56:39.312Z</time></trkpt><trkpt lat="45.7756326" lon="11.7513067"><ele>134.0</ele><time>2026-04-26T07:56:40.309Z</time></trkpt><trkpt lat="45.7755554" lon="11.7513525"><ele>133.66666666666669</ele><time>2026-04-26T07:56:41.311Z</time></trkpt><trkpt lat="45.775484" lon="11.7513963"><ele>133.33333333333334</ele><time>2026-04-26T07:56:42.306Z</time></trkpt><trkpt lat="45.7754105" lon="11.7514337"><ele>133.0</ele><time>2026-04-26T07:56:43.313Z</time></trkpt><trkpt lat="45.7753351" lon="11.7514641"><ele>133.0</ele><time>2026-04-26T07:56:44.307Z</time></trkpt><trkpt lat="45.7752661" lon="11.751502"><ele>133.0</ele><time>2026-04-26T07:56:45.313Z</time></trkpt><trkpt lat="45.7751946" lon="11.7515419"><ele>133.0</ele><time>2026-04-26T07:56:46.313Z</time></trkpt><trkpt lat="45.7751278" lon="11.7515843"><ele>133.0</ele><time>2026-04-26T07:56:47.309Z</time></trkpt><trkpt lat="45.7750629" lon="11.7516216"><ele>133.0</ele><time>2026-04-26T07:56:48.317Z</time></trkpt><trkpt lat="45.7750028" lon="11.7516608"><ele>133.0</ele><time>2026-04-26T07:56:49.315Z</time></trkpt><trkpt lat="45.7749394" lon="11.7517068"><ele>133.0</ele><time>2026-04-26T07:56:50.318Z</time></trkpt><trkpt lat="45.7748811" lon="11.7517553"><ele>132.83333333333334</ele><time>2026-04-26T07:56:51.31Z</time></trkpt><trkpt lat="45.7747927" lon="11.7518465"><ele>132.66666666666669</ele><time>2026-04-26T07:56:53.316Z</time></trkpt><trkpt lat="45.7747739" lon="11.7519329"><ele>132.5</ele><time>2026-04-26T07:56:55.303Z</time></trkpt><trkpt lat="45.7748245" lon="11.7520503"><ele>132.33333333333334</ele><time>2026-04-26T07:56:57.308Z</time></trkpt><trkpt lat="45.7748656" lon="11.7521468"><ele>132.16666666666666</ele><time>2026-04-26T07:56:58.316Z</time></trkpt><trkpt lat="45.7749073" lon="11.7522582"><ele>132.0</ele><time>2026-04-26T07:56:59.312Z</time></trkpt><trkpt lat="45.7749498" lon="11.7523983"><ele>132.0</ele><time>2026-04-26T07:57:00.313Z</time></trkpt><trkpt lat="45.7750046" lon="11.7525718"><ele>132.0</ele><time>2026-04-26T07:57:01.301Z</time></trkpt><trkpt lat="45.7750518" lon="11.7527493"><ele>132.0</ele><time>2026-04-26T07:57:02.303Z</time></trkpt><trkpt lat="45.7751015" lon="11.7529335"><ele>132.0</ele><time>2026-04-26T07:57:03.3Z</time></trkpt><trkpt lat="45.7751451" lon="11.7531061"><ele>132.0</ele><time>2026-04-26T07:57:04.31Z</time></trkpt><trkpt lat="45.7751872" lon="11.7532719"><ele>132.0</ele><time>2026-04-26T07:57:05.299Z</time></trkpt><trkpt lat="45.7752276" lon="11.753433"><ele>132.0</ele><time>2026-04-26T07:57:06.311Z</time></trkpt><trkpt lat="45.7752603" lon="11.7535747"><ele>132.0</ele><time>2026-04-26T07:57:07.305Z</time></trkpt><trkpt lat="45.7752953" lon="11.7536942"><ele>132.0</ele><time>2026-04-26T07:57:08.328Z</time></trkpt><trkpt lat="45.7753236" lon="11.7537945"><ele>132.0</ele><time>2026-04-26T07:57:09.298Z</time></trkpt><trkpt lat="45.775356" lon="11.7538884"><ele>132.0</ele><time>2026-04-26T07:57:10.3Z</time></trkpt><trkpt lat="45.775365" lon="11.7540101"><ele>132.0</ele><time>2026-04-26T07:57:12.305Z</time></trkpt><trkpt lat="45.7752403" lon="11.7541119"><ele>132.0</ele><time>2026-04-26T07:57:14.309Z</time></trkpt><trkpt lat="45.7751332" lon="11.7541266"><ele>132.0</ele><time>2026-04-26T07:57:15.299Z</time></trkpt><trkpt lat="45.7750224" lon="11.7541505"><ele>132.0</ele><time>2026-04-26T07:57:16.307Z</time></trkpt><trkpt lat="45.7749205" lon="11.7541695"><ele>132.0</ele><time>2026-04-26T07:57:17.298Z</time></trkpt><trkpt lat="45.7748254" lon="11.7542077"><ele>132.0</ele><time>2026-04-26T07:57:18.31Z</time></trkpt><trkpt lat="45.774744" lon="11.7542492"><ele>132.0</ele><time>2026-04-26T07:57:19.318Z</time></trkpt><trkpt lat="45.7746637" lon="11.7542919"><ele>132.0</ele><time>2026-04-26T07:57:20.309Z</time></trkpt><trkpt lat="45.7745936" lon="11.7543314"><ele>132.0</ele><time>2026-04-26T07:57:21.309Z</time></trkpt><trkpt lat="45.774531" lon="11.7543707"><ele>131.83333333333334</ele><time>2026-04-26T07:57:22.308Z</time></trkpt><trkpt lat="45.7744717" lon="11.7544056"><ele>131.66666666666666</ele><time>2026-04-26T07:57:23.31Z</time></trkpt><trkpt lat="45.7743736" lon="11.7544566"><ele>131.5</ele><time>2026-04-26T07:57:25.297Z</time></trkpt><trkpt lat="45.7742937" lon="11.754489"><ele>131.33333333333331</ele><time>2026-04-26T07:57:27.306Z</time></trkpt><trkpt lat="45.7742299" lon="11.7544935"><ele>131.16666666666666</ele><time>2026-04-26T07:57:31.305Z</time></trkpt><trkpt lat="45.7742105" lon="11.7546464"><ele>131.0</ele><time>2026-04-26T07:57:42.305Z</time></trkpt><trkpt lat="45.7742321" lon="11.754749"><ele>131.0</ele><time>2026-04-26T07:57:43.318Z</time></trkpt><trkpt lat="45.7742767" lon="11.7548765"><ele>131.0</ele><time>2026-04-26T07:57:44.297Z</time></trkpt><trkpt lat="45.7743283" lon="11.7550318"><ele>131.0</ele><time>2026-04-26T07:57:45.309Z</time></trkpt><trkpt lat="45.7743732" lon="11.7551856"><ele>131.0</ele><time>2026-04-26T07:57:46.297Z</time></trkpt><trkpt lat="45.7744116" lon="11.7553397"><ele>131.4</ele><time>2026-04-26T07:57:47.301Z</time></trkpt><trkpt lat="45.7744332" lon="11.7554778"><ele>131.8</ele><time>2026-04-26T07:57:48.297Z</time></trkpt><trkpt lat="45.774448" lon="11.7556167"><ele>132.20000000000002</ele><time>2026-04-26T07:57:49.311Z</time></trkpt><trkpt lat="45.7744537" lon="11.7557478"><ele>132.6</ele><time>2026-04-26T07:57:50.305Z</time></trkpt><trkpt lat="45.7744543" lon="11.7558697"><ele>133.0</ele><time>2026-04-26T07:57:51.306Z</time></trkpt><trkpt lat="45.7744484" lon="11.7559818"><ele>132.83333333333334</ele><time>2026-04-26T07:57:52.302Z</time></trkpt><trkpt lat="45.7744431" lon="11.7560732"><ele>132.66666666666669</ele><time>2026-04-26T07:57:53.308Z</time></trkpt><trkpt lat="45.7744234" lon="11.7562181"><ele>132.5</ele><time>2026-04-26T07:57:55.305Z</time></trkpt><trkpt lat="45.7744019" lon="11.7563214"><ele>132.33333333333334</ele><time>2026-04-26T07:57:57.31Z</time></trkpt><trkpt lat="45.7743763" lon="11.7564095"><ele>132.16666666666666</ele><time>2026-04-26T07:58:01.308Z</time></trkpt><trkpt lat="45.7743832" lon="11.7565007"><ele>132.0</ele><time>2026-04-26T07:58:05.311Z</time></trkpt><trkpt lat="45.7745182" lon="11.7565162"><ele>132.0</ele><time>2026-04-26T07:58:07.305Z</time></trkpt><trkpt lat="45.7746064" lon="11.756506"><ele>132.0</ele><time>2026-04-26T07:58:08.298Z</time></trkpt><trkpt lat="45.7747042" lon="11.7564914"><ele>132.0</ele><time>2026-04-26T07:58:09.314Z</time></trkpt><trkpt lat="45.7748023" lon="11.7564742"><ele>132.0</ele><time>2026-04-26T07:58:10.32Z</time></trkpt><trkpt lat="45.7748981" lon="11.7564607"><ele>132.0</ele><time>2026-04-26T07:58:11.305Z</time></trkpt><trkpt lat="45.7749996" lon="11.756449"><ele>132.0</ele><time>2026-04-26T07:58:12.313Z</time></trkpt><trkpt lat="45.7751008" lon="11.7564411"><ele>132.0</ele><time>2026-04-26T07:58:13.307Z</time></trkpt><trkpt lat="45.7752034" lon="11.7564312"><ele>132.0</ele><time>2026-04-26T07:58:14.312Z</time></trkpt><trkpt lat="45.7753064" lon="11.756422"><ele>132.0</ele><time>2026-04-26T07:58:15.308Z</time></trkpt><trkpt lat="45.7754088" lon="11.7564029"><ele>132.0</ele><time>2026-04-26T07:58:16.305Z</time></trkpt><trkpt lat="45.775503" lon="11.756388"><ele>131.83333333333334</ele><time>2026-04-26T07:58:17.3Z</time></trkpt><trkpt lat="45.7756015" lon="11.756381"><ele>131.66666666666666</ele><time>2026-04-26T07:58:18.312Z</time></trkpt><trkpt lat="45.7757006" lon="11.7563813"><ele>131.5</ele><time>2026-04-26T07:58:19.3Z</time></trkpt><trkpt lat="45.7757869" lon="11.7563737"><ele>131.33333333333331</ele><time>2026-04-26T07:58:20.304Z</time></trkpt><trkpt lat="45.775867" lon="11.7563707"><ele>131.16666666666666</ele><time>2026-04-26T07:58:21.304Z</time></trkpt><trkpt lat="45.7759382" lon="11.7563832"><ele>131.0</ele><time>2026-04-26T07:58:22.301Z</time></trkpt><trkpt lat="45.7760079" lon="11.7564286"><ele>131.0</ele><time>2026-04-26T07:58:23.312Z</time></trkpt><trkpt lat="45.7760677" lon="11.7565001"><ele>131.0</ele><time>2026-04-26T07:58:24.313Z</time></trkpt><trkpt lat="45.7761144" lon="11.7565908"><ele>131.0</ele><time>2026-04-26T07:58:25.306Z</time></trkpt><trkpt lat="45.7761643" lon="11.7567589"><ele>131.0</ele><time>2026-04-26T07:58:26.316Z</time></trkpt><trkpt lat="45.7762171" lon="11.7569415"><ele>131.0</ele><time>2026-04-26T07:58:27.301Z</time></trkpt><trkpt lat="45.7762772" lon="11.7571186"><ele>131.0</ele><time>2026-04-26T07:58:28.311Z</time></trkpt><trkpt lat="45.7763298" lon="11.7573015"><ele>131.0</ele><time>2026-04-26T07:58:29.296Z</time></trkpt><trkpt lat="45.7763827" lon="11.7574802"><ele>131.0</ele><time>2026-04-26T07:58:30.309Z</time></trkpt><trkpt lat="45.7764367" lon="11.7576609"><ele>131.0</ele><time>2026-04-26T07:58:31.309Z</time></trkpt><trkpt lat="45.7764877" lon="11.757835"><ele>130.75</ele><time>2026-04-26T07:58:32.306Z</time></trkpt><trkpt lat="45.7765366" lon="11.7579994"><ele>130.5</ele><time>2026-04-26T07:58:33.309Z</time></trkpt><trkpt lat="45.7765825" lon="11.7581596"><ele>130.25</ele><time>2026-04-26T07:58:34.304Z</time></trkpt><trkpt lat="45.7766306" lon="11.7583183"><ele>130.0</ele><time>2026-04-26T07:58:35.31Z</time></trkpt><trkpt lat="45.7766789" lon="11.7584754"><ele>130.0</ele><time>2026-04-26T07:58:36.307Z</time></trkpt><trkpt lat="45.7767268" lon="11.7586116"><ele>130.0</ele><time>2026-04-26T07:58:37.31Z</time></trkpt><trkpt lat="45.7767733" lon="11.7587409"><ele>130.0</ele><time>2026-04-26T07:58:38.305Z</time></trkpt><trkpt lat="45.7768164" lon="11.7588601"><ele>130.0</ele><time>2026-04-26T07:58:39.312Z</time></trkpt><trkpt lat="45.7768602" lon="11.7589795"><ele>130.0</ele><time>2026-04-26T07:58:40.308Z</time></trkpt><trkpt lat="45.7769082" lon="11.7591077"><ele>130.0</ele><time>2026-04-26T07:58:41.323Z</time></trkpt><trkpt lat="45.7769716" lon="11.75924"><ele>130.0</ele><time>2026-04-26T07:58:42.309Z</time></trkpt><trkpt lat="45.7770414" lon="11.7593707"><ele>130.0</ele><time>2026-04-26T07:58:43.311Z</time></trkpt><trkpt lat="45.7771123" lon="11.7595069"><ele>130.0</ele><time>2026-04-26T07:58:44.308Z</time></trkpt><trkpt lat="45.7771864" lon="11.7596375"><ele>130.0</ele><time>2026-04-26T07:58:45.314Z</time></trkpt><trkpt lat="45.7772615" lon="11.7597541"><ele>130.0</ele><time>2026-04-26T07:58:46.307Z</time></trkpt><trkpt lat="45.7773384" lon="11.7598758"><ele>130.0</ele><time>2026-04-26T07:58:47.305Z</time></trkpt><trkpt lat="45.7774136" lon="11.7600083"><ele>130.0</ele><time>2026-04-26T07:58:48.315Z</time></trkpt><trkpt lat="45.7774908" lon="11.7601422"><ele>130.25</ele><time>2026-04-26T07:58:49.3Z</time></trkpt><trkpt lat="45.7775593" lon="11.7602776"><ele>130.5</ele><time>2026-04-26T07:58:50.313Z</time></trkpt><trkpt lat="45.7776261" lon="11.7604048"><ele>130.75</ele><time>2026-04-26T07:58:51.306Z</time></trkpt><trkpt lat="45.7776952" lon="11.7605262"><ele>131.0</ele><time>2026-04-26T07:58:52.307Z</time></trkpt><trkpt lat="45.7777642" lon="11.7606565"><ele>131.0</ele><time>2026-04-26T07:58:53.308Z</time></trkpt><trkpt lat="45.7778391" lon="11.7607937"><ele>131.0</ele><time>2026-04-26T07:58:54.306Z</time></trkpt><trkpt lat="45.7779222" lon="11.7609388"><ele>131.0</ele><time>2026-04-26T07:58:55.311Z</time></trkpt><trkpt lat="45.7780096" lon="11.7610895"><ele>131.0</ele><time>2026-04-26T07:58:56.312Z</time></trkpt><trkpt lat="45.7780994" lon="11.761245"><ele>131.25</ele><time>2026-04-26T07:58:57.311Z</time></trkpt><trkpt lat="45.7781949" lon="11.7614111"><ele>131.5</ele><time>2026-04-26T07:58:58.303Z</time></trkpt><trkpt lat="45.7782836" lon="11.7615594"><ele>131.75</ele><time>2026-04-26T07:58:59.311Z</time></trkpt><trkpt lat="45.7783746" lon="11.7617033"><ele>132.0</ele><time>2026-04-26T07:59:00.309Z</time></trkpt><trkpt lat="45.7784631" lon="11.761838"><ele>132.25</ele><time>2026-04-26T07:59:01.311Z</time></trkpt><trkpt lat="45.7785504" lon="11.7619806"><ele>132.5</ele><time>2026-04-26T07:59:02.313Z</time></trkpt><trkpt lat="45.7786197" lon="11.7621352"><ele>132.75</ele><time>2026-04-26T07:59:03.319Z</time></trkpt><trkpt lat="45.7787028" lon="11.7622969"><ele>133.0</ele><time>2026-04-26T07:59:04.314Z</time></trkpt><trkpt lat="45.7787985" lon="11.7624538"><ele>133.0</ele><time>2026-04-26T07:59:05.318Z</time></trkpt><trkpt lat="45.7788915" lon="11.7626255"><ele>133.0</ele><time>2026-04-26T07:59:06.31Z</time></trkpt><trkpt lat="45.7789863" lon="11.7627974"><ele>133.0</ele><time>2026-04-26T07:59:07.323Z</time></trkpt><trkpt lat="45.7790816" lon="11.762964"><ele>132.75</ele><time>2026-04-26T07:59:08.315Z</time></trkpt><trkpt lat="45.7791824" lon="11.7631209"><ele>132.5</ele><time>2026-04-26T07:59:09.323Z</time></trkpt><trkpt lat="45.7792763" lon="11.7632806"><ele>132.25</ele><time>2026-04-26T07:59:10.314Z</time></trkpt><trkpt lat="45.7793607" lon="11.7634244"><ele>132.0</ele><time>2026-04-26T07:59:11.319Z</time></trkpt><trkpt lat="45.7794409" lon="11.7635603"><ele>132.5</ele><time>2026-04-26T07:59:12.342Z</time></trkpt><trkpt lat="45.7795283" lon="11.7636985"><ele>133.0</ele><time>2026-04-26T07:59:13.312Z</time></trkpt><trkpt lat="45.7796159" lon="11.7638268"><ele>133.5</ele><time>2026-04-26T07:59:14.322Z</time></trkpt><trkpt lat="45.779694" lon="11.7639686"><ele>134.0</ele><time>2026-04-26T07:59:15.313Z</time></trkpt><trkpt lat="45.7797864" lon="11.7641037"><ele>134.0</ele><time>2026-04-26T07:59:16.321Z</time></trkpt><trkpt lat="45.7798737" lon="11.7642408"><ele>134.0</ele><time>2026-04-26T07:59:17.316Z</time></trkpt><trkpt lat="45.7799612" lon="11.7643737"><ele>134.0</ele><time>2026-04-26T07:59:18.32Z</time></trkpt><trkpt lat="45.7800509" lon="11.7645047"><ele>134.0</ele><time>2026-04-26T07:59:19.318Z</time></trkpt><trkpt lat="45.7801346" lon="11.7646253"><ele>134.0</ele><time>2026-04-26T07:59:20.32Z</time></trkpt><trkpt lat="45.7802096" lon="11.7647457"><ele>134.0</ele><time>2026-04-26T07:59:21.315Z</time></trkpt><trkpt lat="45.7802816" lon="11.7648627"><ele>134.0</ele><time>2026-04-26T07:59:22.318Z</time></trkpt><trkpt lat="45.7803459" lon="11.7649906"><ele>134.0</ele><time>2026-04-26T07:59:23.316Z</time></trkpt><trkpt lat="45.780408" lon="11.7651354"><ele>133.5</ele><time>2026-04-26T07:59:24.317Z</time></trkpt><trkpt lat="45.7804649" lon="11.7652951"><ele>133.0</ele><time>2026-04-26T07:59:25.308Z</time></trkpt><trkpt lat="45.7805057" lon="11.765469"><ele>132.5</ele><time>2026-04-26T07:59:26.325Z</time></trkpt><trkpt lat="45.7805332" lon="11.7656521"><ele>132.0</ele><time>2026-04-26T07:59:27.312Z</time></trkpt><trkpt lat="45.7805524" lon="11.765836"><ele>132.0</ele><time>2026-04-26T07:59:28.325Z</time></trkpt><trkpt lat="45.7805781" lon="11.7660186"><ele>132.0</ele><time>2026-04-26T07:59:29.313Z</time></trkpt><trkpt lat="45.7806124" lon="11.7661992"><ele>132.0</ele><time>2026-04-26T07:59:30.325Z</time></trkpt><trkpt lat="45.7806442" lon="11.7663722"><ele>132.0</ele><time>2026-04-26T07:59:31.319Z</time></trkpt><trkpt lat="45.7806783" lon="11.7665443"><ele>131.79999999999998</ele><time>2026-04-26T07:59:32.323Z</time></trkpt><trkpt lat="45.7807119" lon="11.7667063"><ele>131.6</ele><time>2026-04-26T07:59:33.312Z</time></trkpt><trkpt lat="45.7807374" lon="11.7668527"><ele>131.39999999999998</ele><time>2026-04-26T07:59:34.324Z</time></trkpt><trkpt lat="45.7807568" lon="11.7669946"><ele>131.2</ele><time>2026-04-26T07:59:35.313Z</time></trkpt><trkpt lat="45.7807717" lon="11.7671207"><ele>131.0</ele><time>2026-04-26T07:59:36.315Z</time></trkpt><trkpt lat="45.7807872" lon="11.7672275"><ele>131.0</ele><time>2026-04-26T07:59:37.308Z</time></trkpt><trkpt lat="45.7808004" lon="11.7673232"><ele>131.0</ele><time>2026-04-26T07:59:38.316Z</time></trkpt><trkpt lat="45.780828" lon="11.7674647"><ele>131.0</ele><time>2026-04-26T07:59:40.315Z</time></trkpt><trkpt lat="45.7808348" lon="11.7675634"><ele>131.0</ele><time>2026-04-26T07:59:42.339Z</time></trkpt><trkpt lat="45.7807883" lon="11.7676756"><ele>131.0</ele><time>2026-04-26T07:59:45.315Z</time></trkpt><trkpt lat="45.7807298" lon="11.7677168"><ele>131.0</ele><time>2026-04-26T07:59:46.326Z</time></trkpt><trkpt lat="45.780627" lon="11.7677516"><ele>130.75</ele><time>2026-04-26T07:59:47.32Z</time></trkpt><trkpt lat="45.7804919" lon="11.7677856"><ele>130.5</ele><time>2026-04-26T07:59:48.316Z</time></trkpt><trkpt lat="45.7803526" lon="11.7678374"><ele>130.25</ele><time>2026-04-26T07:59:49.311Z</time></trkpt><trkpt lat="45.7802126" lon="11.7679015"><ele>130.0</ele><time>2026-04-26T07:59:50.317Z</time></trkpt><trkpt lat="45.7800665" lon="11.7679673"><ele>130.0</ele><time>2026-04-26T07:59:51.311Z</time></trkpt><trkpt lat="45.7799202" lon="11.7680394"><ele>130.0</ele><time>2026-04-26T07:59:52.315Z</time></trkpt><trkpt lat="45.7797765" lon="11.7681128"><ele>130.0</ele><time>2026-04-26T07:59:53.311Z</time></trkpt><trkpt lat="45.7796348" lon="11.7681667"><ele>130.0</ele><time>2026-04-26T07:59:54.319Z</time></trkpt><trkpt lat="45.7795003" lon="11.7682317"><ele>130.0</ele><time>2026-04-26T07:59:55.311Z</time></trkpt><trkpt lat="45.7793751" lon="11.7682923"><ele>130.0</ele><time>2026-04-26T07:59:56.316Z</time></trkpt><trkpt lat="45.7792604" lon="11.7683584"><ele>130.0</ele><time>2026-04-26T07:59:57.305Z</time></trkpt><trkpt lat="45.7791507" lon="11.7684149"><ele>130.0</ele><time>2026-04-26T07:59:58.316Z</time></trkpt><trkpt lat="45.7790358" lon="11.7684811"><ele>130.0</ele><time>2026-04-26T07:59:59.31Z</time></trkpt><trkpt lat="45.7789312" lon="11.7685581"><ele>130.0</ele><time>2026-04-26T08:00:00.309Z</time></trkpt><trkpt lat="45.7788341" lon="11.7686497"><ele>130.0</ele><time>2026-04-26T08:00:01.312Z</time></trkpt><trkpt lat="45.7787409" lon="11.7687537"><ele>130.0</ele><time>2026-04-26T08:00:02.318Z</time></trkpt><trkpt lat="45.7786553" lon="11.7688593"><ele>130.0</ele><time>2026-04-26T08:00:03.316Z</time></trkpt><trkpt lat="45.7785779" lon="11.7689658"><ele>130.0</ele><time>2026-04-26T08:00:04.32Z</time></trkpt><trkpt lat="45.77851" lon="11.7690701"><ele>130.0</ele><time>2026-04-26T08:00:05.316Z</time></trkpt><trkpt lat="45.7784444" lon="11.769161"><ele>130.0</ele><time>2026-04-26T08:00:06.32Z</time></trkpt><trkpt lat="45.7783834" lon="11.7692322"><ele>130.0</ele><time>2026-04-26T08:00:07.317Z</time></trkpt><trkpt lat="45.7783374" lon="11.7692977"><ele>130.0</ele><time>2026-04-26T08:00:08.327Z</time></trkpt><trkpt lat="45.7782883" lon="11.7693713"><ele>130.0</ele><time>2026-04-26T08:00:09.314Z</time></trkpt><trkpt lat="45.7782439" lon="11.7694468"><ele>130.0</ele><time>2026-04-26T08:00:10.315Z</time></trkpt><trkpt lat="45.77817" lon="11.7695599"><ele>130.0</ele><time>2026-04-26T08:00:12.322Z</time></trkpt><trkpt lat="45.7781274" lon="11.7696277"><ele>130.0</ele><time>2026-04-26T08:00:14.314Z</time></trkpt><trkpt lat="45.7780885" lon="11.7697194"><ele>129.75</ele><time>2026-04-26T08:00:17.315Z</time></trkpt><trkpt lat="45.7780876" lon="11.7698617"><ele>129.5</ele><time>2026-04-26T08:00:19.33Z</time></trkpt><trkpt lat="45.7781166" lon="11.769984"><ele>129.25</ele><time>2026-04-26T08:00:20.324Z</time></trkpt><trkpt lat="45.7781645" lon="11.7701463"><ele>129.0</ele><time>2026-04-26T08:00:21.332Z</time></trkpt><trkpt lat="45.7782261" lon="11.7703367"><ele>129.0</ele><time>2026-04-26T08:00:22.307Z</time></trkpt><trkpt lat="45.7782887" lon="11.7705444"><ele>129.0</ele><time>2026-04-26T08:00:23.32Z</time></trkpt><trkpt lat="45.7783528" lon="11.770744"><ele>129.0</ele><time>2026-04-26T08:00:24.306Z</time></trkpt><trkpt lat="45.7784084" lon="11.7709385"><ele>129.0</ele><time>2026-04-26T08:00:25.311Z</time></trkpt><trkpt lat="45.7784657" lon="11.771148"><ele>129.0</ele><time>2026-04-26T08:00:26.315Z</time></trkpt><trkpt lat="45.7785076" lon="11.7713592"><ele>129.0</ele><time>2026-04-26T08:00:27.311Z</time></trkpt><trkpt lat="45.7785379" lon="11.7715353"><ele>129.0</ele><time>2026-04-26T08:00:28.317Z</time></trkpt><trkpt lat="45.778565" lon="11.7716975"><ele>128.5</ele><time>2026-04-26T08:00:29.309Z</time></trkpt><trkpt lat="45.7785993" lon="11.7718583"><ele>128.0</ele><time>2026-04-26T08:00:30.314Z</time></trkpt><trkpt lat="45.7786408" lon="11.7720082"><ele>127.5</ele><time>2026-04-26T08:00:31.31Z</time></trkpt><trkpt lat="45.7786727" lon="11.7721605"><ele>127.0</ele><time>2026-04-26T08:00:32.317Z</time></trkpt><trkpt lat="45.7786998" lon="11.7723166"><ele>127.0</ele><time>2026-04-26T08:00:33.303Z</time></trkpt><trkpt lat="45.7787339" lon="11.7724908"><ele>127.0</ele><time>2026-04-26T08:00:34.307Z</time></trkpt><trkpt lat="45.7787734" lon="11.7726658"><ele>127.0</ele><time>2026-04-26T08:00:35.316Z</time></trkpt><trkpt lat="45.778821" lon="11.772865"><ele>127.0</ele><time>2026-04-26T08:00:36.313Z</time></trkpt><trkpt lat="45.7788714" lon="11.77307"><ele>126.75</ele><time>2026-04-26T08:00:37.32Z</time></trkpt><trkpt lat="45.7789369" lon="11.7732732"><ele>126.5</ele><time>2026-04-26T08:00:38.317Z</time></trkpt><trkpt lat="45.7789939" lon="11.773455"><ele>126.25</ele><time>2026-04-26T08:00:39.324Z</time></trkpt><trkpt lat="45.779042" lon="11.7736486"><ele>126.0</ele><time>2026-04-26T08:00:40.316Z</time></trkpt><trkpt lat="45.7791082" lon="11.7738473"><ele>126.0</ele><time>2026-04-26T08:00:41.332Z</time></trkpt><trkpt lat="45.7791694" lon="11.774051"><ele>126.0</ele><time>2026-04-26T08:00:42.319Z</time></trkpt><trkpt lat="45.7792193" lon="11.7742415"><ele>126.0</ele><time>2026-04-26T08:00:43.323Z</time></trkpt><trkpt lat="45.7792728" lon="11.7744219"><ele>126.0</ele><time>2026-04-26T08:00:44.334Z</time></trkpt><trkpt lat="45.779321" lon="11.7745893"><ele>126.0</ele><time>2026-04-26T08:00:45.311Z</time></trkpt><trkpt lat="45.7793752" lon="11.7747553"><ele>126.0</ele><time>2026-04-26T08:00:46.325Z</time></trkpt><trkpt lat="45.779436" lon="11.7749198"><ele>126.0</ele><time>2026-04-26T08:00:47.324Z</time></trkpt><trkpt lat="45.7795009" lon="11.7750937"><ele>126.0</ele><time>2026-04-26T08:00:48.324Z</time></trkpt><trkpt lat="45.7795752" lon="11.7752581"><ele>126.25</ele><time>2026-04-26T08:00:49.322Z</time></trkpt><trkpt lat="45.779653" lon="11.7754264"><ele>126.5</ele><time>2026-04-26T08:00:50.318Z</time></trkpt><trkpt lat="45.7797228" lon="11.775584"><ele>126.75</ele><time>2026-04-26T08:00:51.33Z</time></trkpt><trkpt lat="45.7797961" lon="11.7757329"><ele>127.0</ele><time>2026-04-26T08:00:52.315Z</time></trkpt><trkpt lat="45.779867" lon="11.7758655"><ele>127.0</ele><time>2026-04-26T08:00:53.323Z</time></trkpt><trkpt lat="45.7799381" lon="11.7759994"><ele>126.99999999999999</ele><time>2026-04-26T08:00:54.315Z</time></trkpt><trkpt lat="45.7800115" lon="11.7761066"><ele>126.99999999999999</ele><time>2026-04-26T08:00:55.331Z</time></trkpt><trkpt lat="45.7800885" lon="11.7761791"><ele>127.0</ele><time>2026-04-26T08:00:56.311Z</time></trkpt><trkpt lat="45.7801828" lon="11.7762341"><ele>127.0</ele><time>2026-04-26T08:00:57.323Z</time></trkpt><trkpt lat="45.7802918" lon="11.7762636"><ele>127.25</ele><time>2026-04-26T08:00:58.309Z</time></trkpt><trkpt lat="45.7804141" lon="11.776261"><ele>127.5</ele><time>2026-04-26T08:00:59.326Z</time></trkpt><trkpt lat="45.7805465" lon="11.776219"><ele>127.75</ele><time>2026-04-26T08:01:00.311Z</time></trkpt><trkpt lat="45.7806687" lon="11.7761855"><ele>128.0</ele><time>2026-04-26T08:01:01.317Z</time></trkpt><trkpt lat="45.780775" lon="11.7761669"><ele>128.0</ele><time>2026-04-26T08:01:02.31Z</time></trkpt><trkpt lat="45.7808678" lon="11.7761644"><ele>128.0</ele><time>2026-04-26T08:01:03.315Z</time></trkpt><trkpt lat="45.7809517" lon="11.776177"><ele>128.0</ele><time>2026-04-26T08:01:04.324Z</time></trkpt><trkpt lat="45.7810177" lon="11.7762448"><ele>128.0</ele><time>2026-04-26T08:01:05.313Z</time></trkpt><trkpt lat="45.7810694" lon="11.7763797"><ele>128.0</ele><time>2026-04-26T08:01:06.331Z</time></trkpt><trkpt lat="45.7811063" lon="11.7765769"><ele>128.0</ele><time>2026-04-26T08:01:07.32Z</time></trkpt><trkpt lat="45.7811505" lon="11.776814"><ele>128.0</ele><time>2026-04-26T08:01:08.318Z</time></trkpt><trkpt lat="45.7812106" lon="11.7770651"><ele>128.0</ele><time>2026-04-26T08:01:09.302Z</time></trkpt><trkpt lat="45.7812824" lon="11.7772915"><ele>127.66666666666666</ele><time>2026-04-26T08:01:10.304Z</time></trkpt><trkpt lat="45.7813456" lon="11.7775132"><ele>127.33333333333334</ele><time>2026-04-26T08:01:11.303Z</time></trkpt><trkpt lat="45.7814154" lon="11.7777243"><ele>127.0</ele><time>2026-04-26T08:01:12.325Z</time></trkpt><trkpt lat="45.7814827" lon="11.7779202"><ele>127.0</ele><time>2026-04-26T08:01:13.314Z</time></trkpt><trkpt lat="45.7815414" lon="11.7781041"><ele>127.0</ele><time>2026-04-26T08:01:14.312Z</time></trkpt><trkpt lat="45.7815904" lon="11.7782853"><ele>127.0</ele><time>2026-04-26T08:01:15.325Z</time></trkpt><trkpt lat="45.7816367" lon="11.7784719"><ele>127.0</ele><time>2026-04-26T08:01:16.311Z</time></trkpt><trkpt lat="45.7816803" lon="11.7786577"><ele>127.25</ele><time>2026-04-26T08:01:17.306Z</time></trkpt><trkpt lat="45.7817037" lon="11.7788232"><ele>127.5</ele><time>2026-04-26T08:01:18.309Z</time></trkpt><trkpt lat="45.781722" lon="11.7789933"><ele>127.75</ele><time>2026-04-26T08:01:19.309Z</time></trkpt><trkpt lat="45.7817379" lon="11.7791915"><ele>128.0</ele><time>2026-04-26T08:01:20.313Z</time></trkpt><trkpt lat="45.7817375" lon="11.779377"><ele>127.5</ele><time>2026-04-26T08:01:21.308Z</time></trkpt><trkpt lat="45.7817362" lon="11.7795704"><ele>127.0</ele><time>2026-04-26T08:01:22.32Z</time></trkpt><trkpt lat="45.7817251" lon="11.7797429"><ele>126.5</ele><time>2026-04-26T08:01:23.318Z</time></trkpt><trkpt lat="45.7817129" lon="11.7799039"><ele>126.0</ele><time>2026-04-26T08:01:24.325Z</time></trkpt><trkpt lat="45.7817115" lon="11.7800576"><ele>126.0</ele><time>2026-04-26T08:01:25.327Z</time></trkpt><trkpt lat="45.7817185" lon="11.7801973"><ele>126.0</ele><time>2026-04-26T08:01:26.322Z</time></trkpt><trkpt lat="45.7817477" lon="11.7803258"><ele>126.0</ele><time>2026-04-26T08:01:27.322Z</time></trkpt><trkpt lat="45.781812" lon="11.7804237"><ele>126.0</ele><time>2026-04-26T08:01:28.325Z</time></trkpt><trkpt lat="45.7819098" lon="11.780511"><ele>126.0</ele><time>2026-04-26T08:01:29.317Z</time></trkpt><trkpt lat="45.7820373" lon="11.7805813"><ele>126.0</ele><time>2026-04-26T08:01:30.316Z</time></trkpt><trkpt lat="45.7821746" lon="11.7806448"><ele>126.0</ele><time>2026-04-26T08:01:31.309Z</time></trkpt><trkpt lat="45.7823084" lon="11.7807103"><ele>126.0</ele><time>2026-04-26T08:01:32.311Z</time></trkpt><trkpt lat="45.7824361" lon="11.7807734"><ele>126.0</ele><time>2026-04-26T08:01:33.303Z</time></trkpt><trkpt lat="45.782547" lon="11.7808393"><ele>126.0</ele><time>2026-04-26T08:01:34.303Z</time></trkpt><trkpt lat="45.7826351" lon="11.7809164"><ele>126.0</ele><time>2026-04-26T08:01:35.304Z</time></trkpt><trkpt lat="45.7827083" lon="11.7810125"><ele>126.0</ele><time>2026-04-26T08:01:36.315Z</time></trkpt><trkpt lat="45.7827644" lon="11.7811618"><ele>126.0</ele><time>2026-04-26T08:01:37.305Z</time></trkpt><trkpt lat="45.7828113" lon="11.7813404"><ele>126.75</ele><time>2026-04-26T08:01:38.313Z</time></trkpt><trkpt lat="45.7828493" lon="11.7815342"><ele>127.5</ele><time>2026-04-26T08:01:39.307Z</time></trkpt><trkpt lat="45.7828931" lon="11.7817096"><ele>128.25</ele><time>2026-04-26T08:01:40.322Z</time></trkpt><trkpt lat="45.7829425" lon="11.7818805"><ele>129.0</ele><time>2026-04-26T08:01:41.303Z</time></trkpt><trkpt lat="45.7829874" lon="11.7820358"><ele>129.0</ele><time>2026-04-26T08:01:42.324Z</time></trkpt><trkpt lat="45.7830411" lon="11.7821865"><ele>129.0</ele><time>2026-04-26T08:01:43.314Z</time></trkpt><trkpt lat="45.7830935" lon="11.7823391"><ele>129.0</ele><time>2026-04-26T08:01:44.32Z</time></trkpt><trkpt lat="45.7831448" lon="11.7824972"><ele>129.0</ele><time>2026-04-26T08:01:45.309Z</time></trkpt><trkpt lat="45.7831948" lon="11.7826602"><ele>129.75</ele><time>2026-04-26T08:01:46.339Z</time></trkpt><trkpt lat="45.7832484" lon="11.7828271"><ele>130.5</ele><time>2026-04-26T08:01:47.322Z</time></trkpt><trkpt lat="45.783305" lon="11.7830071"><ele>131.25</ele><time>2026-04-26T08:01:48.324Z</time></trkpt><trkpt lat="45.7833656" lon="11.7831962"><ele>132.0</ele><time>2026-04-26T08:01:49.32Z</time></trkpt><trkpt lat="45.783427" lon="11.7833965"><ele>133.0</ele><time>2026-04-26T08:01:50.319Z</time></trkpt><trkpt lat="45.7834878" lon="11.7836151"><ele>134.0</ele><time>2026-04-26T08:01:51.317Z</time></trkpt><trkpt lat="45.7835424" lon="11.783841"><ele>135.0</ele><time>2026-04-26T08:01:52.32Z</time></trkpt><trkpt lat="45.7836019" lon="11.7840707"><ele>135.33333333333334</ele><time>2026-04-26T08:01:53.31Z</time></trkpt><trkpt lat="45.7836634" lon="11.7842944"><ele>135.66666666666669</ele><time>2026-04-26T08:01:54.33Z</time></trkpt><trkpt lat="45.7837337" lon="11.7845259"><ele>136.0</ele><time>2026-04-26T08:01:55.321Z</time></trkpt><trkpt lat="45.7838038" lon="11.7847484"><ele>136.0</ele><time>2026-04-26T08:01:56.33Z</time></trkpt><trkpt lat="45.7838649" lon="11.7849625"><ele>136.0</ele><time>2026-04-26T08:01:57.319Z</time></trkpt><trkpt lat="45.7839165" lon="11.7851608"><ele>136.0</ele><time>2026-04-26T08:01:58.332Z</time></trkpt><trkpt lat="45.7839745" lon="11.7853479"><ele>135.5</ele><time>2026-04-26T08:01:59.317Z</time></trkpt><trkpt lat="45.7840292" lon="11.7855205"><ele>135.0</ele><time>2026-04-26T08:02:00.316Z</time></trkpt><trkpt lat="45.7840775" lon="11.7856878"><ele>134.5</ele><time>2026-04-26T08:02:01.312Z</time></trkpt><trkpt lat="45.7841323" lon="11.785838"><ele>134.0</ele><time>2026-04-26T08:02:02.314Z</time></trkpt><trkpt lat="45.7841942" lon="11.785979"><ele>133.8</ele><time>2026-04-26T08:02:03.307Z</time></trkpt><trkpt lat="45.7842667" lon="11.7860756"><ele>133.60000000000002</ele><time>2026-04-26T08:02:04.309Z</time></trkpt><trkpt lat="45.7843512" lon="11.7861595"><ele>133.4</ele><time>2026-04-26T08:02:05.304Z</time></trkpt><trkpt lat="45.7844459" lon="11.7862175"><ele>133.20000000000002</ele><time>2026-04-26T08:02:06.32Z</time></trkpt><trkpt lat="45.7845559" lon="11.7862489"><ele>133.0</ele><time>2026-04-26T08:02:07.302Z</time></trkpt><trkpt lat="45.7846914" lon="11.7862775"><ele>133.0</ele><time>2026-04-26T08:02:08.309Z</time></trkpt><trkpt lat="45.7848315" lon="11.7863177"><ele>133.0</ele><time>2026-04-26T08:02:09.301Z</time></trkpt><trkpt lat="45.7849602" lon="11.786393"><ele>133.0</ele><time>2026-04-26T08:02:10.308Z</time></trkpt><trkpt lat="45.7850874" lon="11.7864906"><ele>133.0</ele><time>2026-04-26T08:02:11.299Z</time></trkpt><trkpt lat="45.785219" lon="11.7866126"><ele>132.66666666666669</ele><time>2026-04-26T08:02:12.307Z</time></trkpt><trkpt lat="45.7853646" lon="11.7867783"><ele>132.33333333333334</ele><time>2026-04-26T08:02:13.308Z</time></trkpt><trkpt lat="45.7854975" lon="11.786937"><ele>132.0</ele><time>2026-04-26T08:02:14.307Z</time></trkpt><trkpt lat="45.7856271" lon="11.787079"><ele>132.0</ele><time>2026-04-26T08:02:15.312Z</time></trkpt><trkpt lat="45.7857503" lon="11.7872182"><ele>132.0</ele><time>2026-04-26T08:02:16.313Z</time></trkpt><trkpt lat="45.785865" lon="11.7873429"><ele>132.0</ele><time>2026-04-26T08:02:17.317Z</time></trkpt><trkpt lat="45.7859594" lon="11.7874536"><ele>132.0</ele><time>2026-04-26T08:02:18.312Z</time></trkpt><trkpt lat="45.786052" lon="11.7875576"><ele>132.4</ele><time>2026-04-26T08:02:19.32Z</time></trkpt><trkpt lat="45.7861369" lon="11.7876577"><ele>132.79999999999998</ele><time>2026-04-26T08:02:20.303Z</time></trkpt><trkpt lat="45.7862212" lon="11.7877399"><ele>133.2</ele><time>2026-04-26T08:02:21.31Z</time></trkpt><trkpt lat="45.78629" lon="11.7878134"><ele>133.6</ele><time>2026-04-26T08:02:22.301Z</time></trkpt><trkpt lat="45.7863647" lon="11.7878888"><ele>134.0</ele><time>2026-04-26T08:02:23.309Z</time></trkpt><trkpt lat="45.7864413" lon="11.7879677"><ele>134.0</ele><time>2026-04-26T08:02:24.297Z</time></trkpt><trkpt lat="45.7865187" lon="11.7880541"><ele>134.0</ele><time>2026-04-26T08:02:25.309Z</time></trkpt><trkpt lat="45.7865998" lon="11.7881302"><ele>134.0</ele><time>2026-04-26T08:02:26.303Z</time></trkpt><trkpt lat="45.786685" lon="11.788181"><ele>134.0</ele><time>2026-04-26T08:02:27.304Z</time></trkpt><trkpt lat="45.7867672" lon="11.7882337"><ele>134.0</ele><time>2026-04-26T08:02:28.306Z</time></trkpt><trkpt lat="45.7868358" lon="11.7882663"><ele>134.75</ele><time>2026-04-26T08:02:29.312Z</time></trkpt><trkpt lat="45.7869496" lon="11.7882763"><ele>135.5</ele><time>2026-04-26T08:02:31.307Z</time></trkpt><trkpt lat="45.7870682" lon="11.7882028"><ele>136.25</ele><time>2026-04-26T08:02:33.312Z</time></trkpt><trkpt lat="45.7871164" lon="11.7880826"><ele>137.0</ele><time>2026-04-26T08:02:34.304Z</time></trkpt><trkpt lat="45.7871771" lon="11.7879483"><ele>137.0</ele><time>2026-04-26T08:02:35.304Z</time></trkpt><trkpt lat="45.7872609" lon="11.7878517"><ele>137.0</ele><time>2026-04-26T08:02:36.296Z</time></trkpt><trkpt lat="45.7873654" lon="11.7877802"><ele>137.0</ele><time>2026-04-26T08:02:37.297Z</time></trkpt><trkpt lat="45.7874942" lon="11.787748"><ele>137.0</ele><time>2026-04-26T08:02:38.286Z</time></trkpt><trkpt lat="45.7876608" lon="11.7877726"><ele>137.66666666666666</ele><time>2026-04-26T08:02:39.297Z</time></trkpt><trkpt lat="45.7878521" lon="11.7877884"><ele>138.33333333333334</ele><time>2026-04-26T08:02:40.286Z</time></trkpt><trkpt lat="45.7880456" lon="11.7877738"><ele>139.0</ele><time>2026-04-26T08:02:41.278Z</time></trkpt><trkpt lat="45.7881984" lon="11.7877356"><ele>139.0</ele><time>2026-04-26T08:02:42.287Z</time></trkpt><trkpt lat="45.7883246" lon="11.7877126"><ele>139.0</ele><time>2026-04-26T08:02:43.286Z</time></trkpt><trkpt lat="45.7884422" lon="11.7876907"><ele>139.0</ele><time>2026-04-26T08:02:44.288Z</time></trkpt><trkpt lat="45.788539" lon="11.7877228"><ele>139.0</ele><time>2026-04-26T08:02:45.286Z</time></trkpt><trkpt lat="45.7886495" lon="11.7877816"><ele>139.0</ele><time>2026-04-26T08:02:46.298Z</time></trkpt><trkpt lat="45.7887527" lon="11.7878795"><ele>139.0</ele><time>2026-04-26T08:02:47.286Z</time></trkpt><trkpt lat="45.7888377" lon="11.7880227"><ele>139.0</ele><time>2026-04-26T08:02:48.31Z</time></trkpt><trkpt lat="45.788908" lon="11.7881367"><ele>139.0</ele><time>2026-04-26T08:02:49.295Z</time></trkpt><trkpt lat="45.7889723" lon="11.7882148"><ele>139.0</ele><time>2026-04-26T08:02:50.3Z</time></trkpt><trkpt lat="45.789042" lon="11.7882612"><ele>139.0</ele><time>2026-04-26T08:02:51.301Z</time></trkpt><trkpt lat="45.7891644" lon="11.7882312"><ele>139.0</ele><time>2026-04-26T08:02:53.305Z</time></trkpt><trkpt lat="45.7892242" lon="11.7881224"><ele>139.0</ele><time>2026-04-26T08:02:54.3Z</time></trkpt><trkpt lat="45.7893011" lon="11.7879944"><ele>139.0</ele><time>2026-04-26T08:02:55.303Z</time></trkpt><trkpt lat="45.7893951" lon="11.7878766"><ele>139.0</ele><time>2026-04-26T08:02:56.299Z</time></trkpt><trkpt lat="45.7894964" lon="11.7877455"><ele>139.0</ele><time>2026-04-26T08:02:57.307Z</time></trkpt><trkpt lat="45.7895779" lon="11.7876018"><ele>139.0</ele><time>2026-04-26T08:02:58.316Z</time></trkpt><trkpt lat="45.789613" lon="11.7874272"><ele>139.0</ele><time>2026-04-26T08:02:59.304Z</time></trkpt><trkpt lat="45.7896403" lon="11.7872578"><ele>139.0</ele><time>2026-04-26T08:03:00.307Z</time></trkpt><trkpt lat="45.7896706" lon="11.7870951"><ele>139.0</ele><time>2026-04-26T08:03:01.31Z</time></trkpt><trkpt lat="45.7897125" lon="11.7869865"><ele>139.0</ele><time>2026-04-26T08:03:02.306Z</time></trkpt><trkpt lat="45.7897761" lon="11.7869279"><ele>139.0</ele><time>2026-04-26T08:03:03.321Z</time></trkpt><trkpt lat="45.7898886" lon="11.7869118"><ele>139.0</ele><time>2026-04-26T08:03:04.306Z</time></trkpt><trkpt lat="45.7900102" lon="11.7869064"><ele>139.0</ele><time>2026-04-26T08:03:05.306Z</time></trkpt><trkpt lat="45.7901106" lon="11.7869223"><ele>139.0</ele><time>2026-04-26T08:03:06.304Z</time></trkpt><trkpt lat="45.7902013" lon="11.7869626"><ele>139.0</ele><time>2026-04-26T08:03:07.306Z</time></trkpt><trkpt lat="45.7902818" lon="11.7870264"><ele>139.0</ele><time>2026-04-26T08:03:08.297Z</time></trkpt><trkpt lat="45.7903479" lon="11.7871122"><ele>139.0</ele><time>2026-04-26T08:03:09.309Z</time></trkpt><trkpt lat="45.7904102" lon="11.7872064"><ele>139.2</ele><time>2026-04-26T08:03:10.304Z</time></trkpt><trkpt lat="45.7904814" lon="11.7872937"><ele>139.4</ele><time>2026-04-26T08:03:11.306Z</time></trkpt><trkpt lat="45.7905682" lon="11.7873705"><ele>139.6</ele><time>2026-04-26T08:03:12.309Z</time></trkpt><trkpt lat="45.790661" lon="11.7874252"><ele>139.8</ele><time>2026-04-26T08:03:13.309Z</time></trkpt><trkpt lat="45.7907606" lon="11.7874659"><ele>140.0</ele><time>2026-04-26T08:03:14.301Z</time></trkpt><trkpt lat="45.7908759" lon="11.7875004"><ele>140.0</ele><time>2026-04-26T08:03:15.316Z</time></trkpt><trkpt lat="45.7910032" lon="11.7875268"><ele>140.0</ele><time>2026-04-26T08:03:16.307Z</time></trkpt><trkpt lat="45.7911437" lon="11.7875356"><ele>140.0</ele><time>2026-04-26T08:03:17.317Z</time></trkpt><trkpt lat="45.7912871" lon="11.7875445"><ele>140.0</ele><time>2026-04-26T08:03:18.305Z</time></trkpt><trkpt lat="45.7914222" lon="11.7875579"><ele>140.8</ele><time>2026-04-26T08:03:19.332Z</time></trkpt><trkpt lat="45.7915449" lon="11.7875616"><ele>141.6</ele><time>2026-04-26T08:03:20.303Z</time></trkpt><trkpt lat="45.791665" lon="11.7875653"><ele>142.4</ele><time>2026-04-26T08:03:21.306Z</time></trkpt><trkpt lat="45.7917685" lon="11.7875708"><ele>143.2</ele><time>2026-04-26T08:03:22.31Z</time></trkpt><trkpt lat="45.7918669" lon="11.7875642"><ele>144.0</ele><time>2026-04-26T08:03:23.311Z</time></trkpt><trkpt lat="45.7919619" lon="11.7875418"><ele>144.2</ele><time>2026-04-26T08:03:24.31Z</time></trkpt><trkpt lat="45.7920587" lon="11.7875031"><ele>144.4</ele><time>2026-04-26T08:03:25.319Z</time></trkpt><trkpt lat="45.7921607" lon="11.7874767"><ele>144.6</ele><time>2026-04-26T08:03:26.314Z</time></trkpt><trkpt lat="45.7922518" lon="11.7874562"><ele>144.8</ele><time>2026-04-26T08:03:27.317Z</time></trkpt><trkpt lat="45.7923416" lon="11.7874244"><ele>145.0</ele><time>2026-04-26T08:03:28.301Z</time></trkpt><trkpt lat="45.7924327" lon="11.7873874"><ele>145.0</ele><time>2026-04-26T08:03:29.296Z</time></trkpt><trkpt lat="45.7925167" lon="11.7873278"><ele>145.0</ele><time>2026-04-26T08:03:30.311Z</time></trkpt><trkpt lat="45.7926017" lon="11.7872029"><ele>145.0</ele><time>2026-04-26T08:03:31.31Z</time></trkpt><trkpt lat="45.7926828" lon="11.7870259"><ele>145.0</ele><time>2026-04-26T08:03:32.312Z</time></trkpt><trkpt lat="45.7927357" lon="11.7868233"><ele>144.5</ele><time>2026-04-26T08:03:33.307Z</time></trkpt><trkpt lat="45.792794" lon="11.7866291"><ele>144.0</ele><time>2026-04-26T08:03:34.31Z</time></trkpt><trkpt lat="45.7928601" lon="11.7864469"><ele>143.5</ele><time>2026-04-26T08:03:35.304Z</time></trkpt><trkpt lat="45.7929505" lon="11.7862825"><ele>143.0</ele><time>2026-04-26T08:03:36.305Z</time></trkpt><trkpt lat="45.7930515" lon="11.786126"><ele>143.5</ele><time>2026-04-26T08:03:37.3Z</time></trkpt><trkpt lat="45.7931561" lon="11.7859902"><ele>144.0</ele><time>2026-04-26T08:03:38.315Z</time></trkpt><trkpt lat="45.7932677" lon="11.7858635"><ele>144.5</ele><time>2026-04-26T08:03:39.311Z</time></trkpt><trkpt lat="45.793375" lon="11.7857396"><ele>145.0</ele><time>2026-04-26T08:03:40.307Z</time></trkpt><trkpt lat="45.7934802" lon="11.7856453"><ele>145.75</ele><time>2026-04-26T08:03:41.302Z</time></trkpt><trkpt lat="45.7935974" lon="11.785549"><ele>146.5</ele><time>2026-04-26T08:03:42.305Z</time></trkpt><trkpt lat="45.7937233" lon="11.7854698"><ele>147.25</ele><time>2026-04-26T08:03:43.303Z</time></trkpt><trkpt lat="45.7938434" lon="11.7853908"><ele>148.0</ele><time>2026-04-26T08:03:44.302Z</time></trkpt><trkpt lat="45.7939659" lon="11.7853409"><ele>148.0</ele><time>2026-04-26T08:03:45.302Z</time></trkpt><trkpt lat="45.7940692" lon="11.7852718"><ele>148.0</ele><time>2026-04-26T08:03:46.296Z</time></trkpt><trkpt lat="45.7941752" lon="11.7851921"><ele>148.0</ele><time>2026-04-26T08:03:47.312Z</time></trkpt><trkpt lat="45.7942742" lon="11.7851198"><ele>148.0</ele><time>2026-04-26T08:03:48.307Z</time></trkpt><trkpt lat="45.7943585" lon="11.7850455"><ele>148.0</ele><time>2026-04-26T08:03:49.303Z</time></trkpt><trkpt lat="45.794432" lon="11.7849797"><ele>148.16666666666669</ele><time>2026-04-26T08:03:50.332Z</time></trkpt><trkpt lat="45.7944941" lon="11.7849257"><ele>148.33333333333334</ele><time>2026-04-26T08:03:51.306Z</time></trkpt><trkpt lat="45.7945971" lon="11.7848532"><ele>148.5</ele><time>2026-04-26T08:03:53.305Z</time></trkpt><trkpt lat="45.7946613" lon="11.7847958"><ele>148.66666666666666</ele><time>2026-04-26T08:03:55.302Z</time></trkpt><trkpt lat="45.7947229" lon="11.7847473"><ele>148.83333333333331</ele><time>2026-04-26T08:03:58.314Z</time></trkpt><trkpt lat="45.7948056" lon="11.7846738"><ele>149.0</ele><time>2026-04-26T08:04:12.305Z</time></trkpt><trkpt lat="45.7949243" lon="11.7846218"><ele>149.0</ele><time>2026-04-26T08:04:14.313Z</time></trkpt><trkpt lat="45.7949929" lon="11.7845966"><ele>149.0</ele><time>2026-04-26T08:04:15.313Z</time></trkpt><trkpt lat="45.7950655" lon="11.7845818"><ele>149.0</ele><time>2026-04-26T08:04:16.31Z</time></trkpt><trkpt lat="45.7951389" lon="11.7845589"><ele>149.0</ele><time>2026-04-26T08:04:17.308Z</time></trkpt><trkpt lat="45.7952115" lon="11.7845171"><ele>149.0</ele><time>2026-04-26T08:04:18.313Z</time></trkpt><trkpt lat="45.7952805" lon="11.7844883"><ele>149.0</ele><time>2026-04-26T08:04:19.304Z</time></trkpt><trkpt lat="45.7953569" lon="11.7844466"><ele>149.0</ele><time>2026-04-26T08:04:20.319Z</time></trkpt><trkpt lat="45.795459" lon="11.7843871"><ele>149.0</ele><time>2026-04-26T08:04:21.302Z</time></trkpt><trkpt lat="45.7955462" lon="11.7843213"><ele>149.0</ele><time>2026-04-26T08:04:22.315Z</time></trkpt><trkpt lat="45.7956453" lon="11.7842613"><ele>149.0</ele><time>2026-04-26T08:04:23.304Z</time></trkpt><trkpt lat="45.795734" lon="11.7842153"><ele>149.0</ele><time>2026-04-26T08:04:24.319Z</time></trkpt><trkpt lat="45.7958252" lon="11.7841816"><ele>149.0</ele><time>2026-04-26T08:04:25.315Z</time></trkpt><trkpt lat="45.7959213" lon="11.7841458"><ele>149.0</ele><time>2026-04-26T08:04:26.32Z</time></trkpt><trkpt lat="45.7960169" lon="11.7841346"><ele>149.0</ele><time>2026-04-26T08:04:27.318Z</time></trkpt><trkpt lat="45.7961067" lon="11.7841314"><ele>149.0</ele><time>2026-04-26T08:04:28.321Z</time></trkpt><trkpt lat="45.7961866" lon="11.784129"><ele>149.0</ele><time>2026-04-26T08:04:29.323Z</time></trkpt><trkpt lat="45.7962636" lon="11.7841175"><ele>149.0</ele><time>2026-04-26T08:04:30.311Z</time></trkpt><trkpt lat="45.796346" lon="11.7840989"><ele>149.8</ele><time>2026-04-26T08:04:31.308Z</time></trkpt><trkpt lat="45.7964304" lon="11.7840668"><ele>150.60000000000002</ele><time>2026-04-26T08:04:32.307Z</time></trkpt><trkpt lat="45.7965" lon="11.7840537"><ele>151.4</ele><time>2026-04-26T08:04:33.314Z</time></trkpt><trkpt lat="45.7965961" lon="11.7840353"><ele>152.20000000000002</ele><time>2026-04-26T08:04:35.314Z</time></trkpt><trkpt lat="45.7967083" lon="11.7841231"><ele>153.0</ele><time>2026-04-26T08:04:37.305Z</time></trkpt><trkpt lat="45.7967753" lon="11.7842062"><ele>152.83333333333334</ele><time>2026-04-26T08:04:38.292Z</time></trkpt><trkpt lat="45.7968436" lon="11.7842965"><ele>152.66666666666666</ele><time>2026-04-26T08:04:39.301Z</time></trkpt><trkpt lat="45.7969123" lon="11.7843789"><ele>152.5</ele><time>2026-04-26T08:04:40.297Z</time></trkpt><trkpt lat="45.7969845" lon="11.7844626"><ele>152.33333333333331</ele><time>2026-04-26T08:04:41.3Z</time></trkpt><trkpt lat="45.7970471" lon="11.7845439"><ele>152.16666666666666</ele><time>2026-04-26T08:04:42.301Z</time></trkpt><trkpt lat="45.7971143" lon="11.7846103"><ele>152.0</ele><time>2026-04-26T08:04:43.296Z</time></trkpt><trkpt lat="45.7971988" lon="11.7846591"><ele>152.0</ele><time>2026-04-26T08:04:44.319Z</time></trkpt><trkpt lat="45.7972816" lon="11.7846878"><ele>152.0</ele><time>2026-04-26T08:04:45.306Z</time></trkpt><trkpt lat="45.797372" lon="11.784711"><ele>152.0</ele><time>2026-04-26T08:04:46.309Z</time></trkpt><trkpt lat="45.7974605" lon="11.7847253"><ele>152.0</ele><time>2026-04-26T08:04:47.308Z</time></trkpt><trkpt lat="45.7975508" lon="11.7847187"><ele>152.0</ele><time>2026-04-26T08:04:48.305Z</time></trkpt><trkpt lat="45.7976433" lon="11.7847136"><ele>152.0</ele><time>2026-04-26T08:04:49.315Z</time></trkpt><trkpt lat="45.7977364" lon="11.78471"><ele>152.5</ele><time>2026-04-26T08:04:50.307Z</time></trkpt><trkpt lat="45.7978518" lon="11.7847136"><ele>153.0</ele><time>2026-04-26T08:04:51.327Z</time></trkpt><trkpt lat="45.7979749" lon="11.7847065"><ele>153.5</ele><time>2026-04-26T08:04:52.302Z</time></trkpt><trkpt lat="45.7981049" lon="11.7846928"><ele>154.0</ele><time>2026-04-26T08:04:53.315Z</time></trkpt><trkpt lat="45.7982332" lon="11.7846872"><ele>154.0</ele><time>2026-04-26T08:04:54.3Z</time></trkpt><trkpt lat="45.7983618" lon="11.784689"><ele>154.0</ele><time>2026-04-26T08:04:55.311Z</time></trkpt><trkpt lat="45.7984849" lon="11.7846905"><ele>154.0</ele><time>2026-04-26T08:04:56.311Z</time></trkpt><trkpt lat="45.7986077" lon="11.7846967"><ele>154.0</ele><time>2026-04-26T08:04:57.315Z</time></trkpt><trkpt lat="45.7987202" lon="11.7846986"><ele>153.8</ele><time>2026-04-26T08:04:58.306Z</time></trkpt><trkpt lat="45.7988217" lon="11.7846912"><ele>153.60000000000002</ele><time>2026-04-26T08:04:59.313Z</time></trkpt><trkpt lat="45.7989219" lon="11.7846814"><ele>153.4</ele><time>2026-04-26T08:05:00.304Z</time></trkpt><trkpt lat="45.7990231" lon="11.7846602"><ele>153.20000000000002</ele><time>2026-04-26T08:05:01.312Z</time></trkpt><trkpt lat="45.7991298" lon="11.7846302"><ele>153.0</ele><time>2026-04-26T08:05:02.306Z</time></trkpt><trkpt lat="45.7992448" lon="11.784593"><ele>153.20000000000002</ele><time>2026-04-26T08:05:03.31Z</time></trkpt><trkpt lat="45.7993537" lon="11.7845586"><ele>153.4</ele><time>2026-04-26T08:05:04.305Z</time></trkpt><trkpt lat="45.7994573" lon="11.7845209"><ele>153.60000000000002</ele><time>2026-04-26T08:05:05.297Z</time></trkpt><trkpt lat="45.7995579" lon="11.7844825"><ele>153.8</ele><time>2026-04-26T08:05:06.306Z</time></trkpt><trkpt lat="45.7996586" lon="11.7844419"><ele>154.0</ele><time>2026-04-26T08:05:07.304Z</time></trkpt><trkpt lat="45.7997646" lon="11.784388"><ele>154.0</ele><time>2026-04-26T08:05:08.305Z</time></trkpt><trkpt lat="45.7998741" lon="11.7843158"><ele>154.0</ele><time>2026-04-26T08:05:09.305Z</time></trkpt><trkpt lat="45.7999802" lon="11.7842506"><ele>154.0</ele><time>2026-04-26T08:05:10.314Z</time></trkpt><trkpt lat="45.8000857" lon="11.7842036"><ele>154.0</ele><time>2026-04-26T08:05:11.299Z</time></trkpt><trkpt lat="45.8001838" lon="11.7841619"><ele>154.0</ele><time>2026-04-26T08:05:12.304Z</time></trkpt><trkpt lat="45.8002814" lon="11.7841305"><ele>154.0</ele><time>2026-04-26T08:05:13.297Z</time></trkpt><trkpt lat="45.8003702" lon="11.7841093"><ele>154.0</ele><time>2026-04-26T08:05:14.3Z</time></trkpt><trkpt lat="45.8004567" lon="11.7840654"><ele>154.0</ele><time>2026-04-26T08:05:15.299Z</time></trkpt><trkpt lat="45.8005435" lon="11.7840099"><ele>154.0</ele><time>2026-04-26T08:05:16.306Z</time></trkpt><trkpt lat="45.8006179" lon="11.7839485"><ele>154.0</ele><time>2026-04-26T08:05:17.3Z</time></trkpt><trkpt lat="45.8006854" lon="11.7838816"><ele>154.0</ele><time>2026-04-26T08:05:18.303Z</time></trkpt><trkpt lat="45.8007498" lon="11.7838021"><ele>154.0</ele><time>2026-04-26T08:05:19.308Z</time></trkpt><trkpt lat="45.8008198" lon="11.7837287"><ele>154.0</ele><time>2026-04-26T08:05:20.303Z</time></trkpt><trkpt lat="45.8008923" lon="11.7836598"><ele>154.0</ele><time>2026-04-26T08:05:21.313Z</time></trkpt><trkpt lat="45.8009721" lon="11.7835915"><ele>154.0</ele><time>2026-04-26T08:05:22.318Z</time></trkpt><trkpt lat="45.8010518" lon="11.7835267"><ele>154.0</ele><time>2026-04-26T08:05:23.302Z</time></trkpt><trkpt lat="45.8011366" lon="11.7834913"><ele>154.0</ele><time>2026-04-26T08:05:24.308Z</time></trkpt><trkpt lat="45.8012392" lon="11.7834727"><ele>154.6</ele><time>2026-04-26T08:05:25.301Z</time></trkpt><trkpt lat="45.8013457" lon="11.7834451"><ele>155.2</ele><time>2026-04-26T08:05:26.297Z</time></trkpt><trkpt lat="45.8014536" lon="11.7834208"><ele>155.79999999999998</ele><time>2026-04-26T08:05:27.297Z</time></trkpt><trkpt lat="45.8015446" lon="11.7833929"><ele>156.4</ele><time>2026-04-26T08:05:28.306Z</time></trkpt><trkpt lat="45.8016292" lon="11.7833741"><ele>157.0</ele><time>2026-04-26T08:05:29.3Z</time></trkpt><trkpt lat="45.8017049" lon="11.7833672"><ele>157.0</ele><time>2026-04-26T08:05:30.298Z</time></trkpt><trkpt lat="45.8017725" lon="11.783338"><ele>157.0</ele><time>2026-04-26T08:05:31.302Z</time></trkpt><trkpt lat="45.8018396" lon="11.7833076"><ele>157.0</ele><time>2026-04-26T08:05:32.3Z</time></trkpt><trkpt lat="45.8019136" lon="11.7832804"><ele>157.0</ele><time>2026-04-26T08:05:33.3Z</time></trkpt><trkpt lat="45.8019908" lon="11.7832444"><ele>157.0</ele><time>2026-04-26T08:05:34.298Z</time></trkpt><trkpt lat="45.802068" lon="11.7832124"><ele>157.0</ele><time>2026-04-26T08:05:35.303Z</time></trkpt><trkpt lat="45.8021464" lon="11.7831695"><ele>157.16666666666669</ele><time>2026-04-26T08:05:36.297Z</time></trkpt><trkpt lat="45.8022263" lon="11.7831138"><ele>157.33333333333334</ele><time>2026-04-26T08:05:37.312Z</time></trkpt><trkpt lat="45.8023096" lon="11.7830612"><ele>157.5</ele><time>2026-04-26T08:05:38.303Z</time></trkpt><trkpt lat="45.8023907" lon="11.7830174"><ele>157.66666666666666</ele><time>2026-04-26T08:05:39.307Z</time></trkpt><trkpt lat="45.802473" lon="11.7829956"><ele>157.83333333333331</ele><time>2026-04-26T08:05:40.303Z</time></trkpt><trkpt lat="45.8025493" lon="11.7829959"><ele>158.0</ele><time>2026-04-26T08:05:41.296Z</time></trkpt><trkpt lat="45.8026736" lon="11.7830029"><ele>158.0</ele><time>2026-04-26T08:05:43.296Z</time></trkpt><trkpt lat="45.8027287" lon="11.7830763"><ele>158.0</ele><time>2026-04-26T08:06:17.294Z</time></trkpt><trkpt lat="45.8028013" lon="11.7831141"><ele>158.0</ele><time>2026-04-26T08:06:19.308Z</time></trkpt><trkpt lat="45.8029212" lon="11.7831472"><ele>158.0</ele><time>2026-04-26T08:06:21.298Z</time></trkpt><trkpt lat="45.8029969" lon="11.7831652"><ele>158.0</ele><time>2026-04-26T08:06:22.296Z</time></trkpt><trkpt lat="45.8030828" lon="11.7831909"><ele>158.0</ele><time>2026-04-26T08:06:23.303Z</time></trkpt><trkpt lat="45.8031601" lon="11.7832085"><ele>158.0</ele><time>2026-04-26T08:06:24.314Z</time></trkpt><trkpt lat="45.8032761" lon="11.7832419"><ele>158.0</ele><time>2026-04-26T08:06:26.302Z</time></trkpt><trkpt lat="45.8033456" lon="11.7833344"><ele>158.0</ele><time>2026-04-26T08:06:28.302Z</time></trkpt><trkpt lat="45.8033471" lon="11.7834615"><ele>158.0</ele><time>2026-04-26T08:06:30.301Z</time></trkpt><trkpt lat="45.8033002" lon="11.7836024"><ele>158.0</ele><time>2026-04-26T08:06:32.297Z</time></trkpt><trkpt lat="45.8032698" lon="11.7837349"><ele>158.0</ele><time>2026-04-26T08:06:34.292Z</time></trkpt><trkpt lat="45.8032721" lon="11.7838719"><ele>158.0</ele><time>2026-04-26T08:06:36.29Z</time></trkpt><trkpt lat="45.8032957" lon="11.7840539"><ele>158.0</ele><time>2026-04-26T08:06:38.288Z</time></trkpt><trkpt lat="45.8033191" lon="11.7841521"><ele>158.0</ele><time>2026-04-26T08:06:39.296Z</time></trkpt><trkpt lat="45.8033379" lon="11.7842466"><ele>158.0</ele><time>2026-04-26T08:06:40.294Z</time></trkpt><trkpt lat="45.8033639" lon="11.7843499"><ele>158.0</ele><time>2026-04-26T08:06:41.298Z</time></trkpt><trkpt lat="45.8034076" lon="11.7844632"><ele>158.16666666666666</ele><time>2026-04-26T08:06:42.294Z</time></trkpt><trkpt lat="45.80346" lon="11.7845611"><ele>158.33333333333331</ele><time>2026-04-26T08:06:43.295Z</time></trkpt><trkpt lat="45.8035136" lon="11.7846623"><ele>158.5</ele><time>2026-04-26T08:06:44.296Z</time></trkpt><trkpt lat="45.8035666" lon="11.784756"><ele>158.66666666666666</ele><time>2026-04-26T08:06:45.302Z</time></trkpt><trkpt lat="45.8036241" lon="11.7848432"><ele>158.83333333333334</ele><time>2026-04-26T08:06:46.3Z</time></trkpt><trkpt lat="45.8036833" lon="11.7849255"><ele>159.0</ele><time>2026-04-26T08:06:47.306Z</time></trkpt><trkpt lat="45.8037235" lon="11.7849951"><ele>159.33333333333334</ele><time>2026-04-26T08:06:48.29Z</time></trkpt><trkpt lat="45.8037642" lon="11.7850731"><ele>159.66666666666666</ele><time>2026-04-26T08:06:49.303Z</time></trkpt><trkpt lat="45.8038126" lon="11.7851517"><ele>160.0</ele><time>2026-04-26T08:06:50.293Z</time></trkpt><trkpt lat="45.8038629" lon="11.7852189"><ele>160.33333333333331</ele><time>2026-04-26T08:06:51.297Z</time></trkpt><trkpt lat="45.8039712" lon="11.7853511"><ele>160.66666666666666</ele><time>2026-04-26T08:06:53.294Z</time></trkpt><trkpt lat="45.8040185" lon="11.7854152"><ele>161.0</ele><time>2026-04-26T08:06:54.296Z</time></trkpt><trkpt lat="45.8040712" lon="11.785471"><ele>161.0</ele><time>2026-04-26T08:06:55.308Z</time></trkpt><trkpt lat="45.8041691" lon="11.7855934"><ele>161.0</ele><time>2026-04-26T08:06:57.294Z</time></trkpt><trkpt lat="45.8042233" lon="11.7856658"><ele>161.0</ele><time>2026-04-26T08:06:58.292Z</time></trkpt><trkpt lat="45.8042749" lon="11.7857418"><ele>161.0</ele><time>2026-04-26T08:06:59.292Z</time></trkpt><trkpt lat="45.8043282" lon="11.7858217"><ele>161.0</ele><time>2026-04-26T08:07:00.287Z</time></trkpt><trkpt lat="45.804375" lon="11.785892"><ele>161.0</ele><time>2026-04-26T08:07:01.3Z</time></trkpt><trkpt lat="45.8044591" lon="11.7860027"><ele>160.20000000000002</ele><time>2026-04-26T08:07:03.295Z</time></trkpt><trkpt lat="45.8045086" lon="11.7861281"><ele>159.4</ele><time>2026-04-26T08:07:05.296Z</time></trkpt><trkpt lat="45.8045253" lon="11.7862776"><ele>158.6</ele><time>2026-04-26T08:07:07.3Z</time></trkpt><trkpt lat="45.8045388" lon="11.7864188"><ele>157.8</ele><time>2026-04-26T08:07:09.299Z</time></trkpt><trkpt lat="45.8045534" lon="11.7865782"><ele>157.0</ele><time>2026-04-26T08:07:11.312Z</time></trkpt><trkpt lat="45.8045608" lon="11.7866881"><ele>157.0</ele><time>2026-04-26T08:07:12.307Z</time></trkpt><trkpt lat="45.8045551" lon="11.7867825"><ele>157.0</ele><time>2026-04-26T08:07:13.31Z</time></trkpt><trkpt lat="45.8045296" lon="11.7869407"><ele>157.0</ele><time>2026-04-26T08:07:15.306Z</time></trkpt><trkpt lat="45.8045378" lon="11.7870701"><ele>157.0</ele><time>2026-04-26T08:07:16.297Z</time></trkpt><trkpt lat="45.804551" lon="11.7871921"><ele>157.0</ele><time>2026-04-26T08:07:17.309Z</time></trkpt><trkpt lat="45.8045541" lon="11.7873042"><ele>157.0</ele><time>2026-04-26T08:07:18.299Z</time></trkpt><trkpt lat="45.8045438" lon="11.7874343"><ele>156.4</ele><time>2026-04-26T08:07:19.306Z</time></trkpt><trkpt lat="45.8045486" lon="11.787573"><ele>155.79999999999998</ele><time>2026-04-26T08:07:20.309Z</time></trkpt><trkpt lat="45.8045607" lon="11.7876865"><ele>155.2</ele><time>2026-04-26T08:07:21.307Z</time></trkpt><trkpt lat="45.8045851" lon="11.7878057"><ele>154.6</ele><time>2026-04-26T08:07:22.313Z</time></trkpt><trkpt lat="45.8046215" lon="11.7879457"><ele>154.0</ele><time>2026-04-26T08:07:23.31Z</time></trkpt><trkpt lat="45.804668" lon="11.7880716"><ele>153.75</ele><time>2026-04-26T08:07:24.308Z</time></trkpt><trkpt lat="45.8047315" lon="11.7881994"><ele>153.5</ele><time>2026-04-26T08:07:25.306Z</time></trkpt><trkpt lat="45.8048045" lon="11.7883397"><ele>153.25</ele><time>2026-04-26T08:07:26.321Z</time></trkpt><trkpt lat="45.8048769" lon="11.788474"><ele>153.0</ele><time>2026-04-26T08:07:27.305Z</time></trkpt><trkpt lat="45.8049444" lon="11.7886115"><ele>153.0</ele><time>2026-04-26T08:07:28.311Z</time></trkpt><trkpt lat="45.8050066" lon="11.7887527"><ele>153.0</ele><time>2026-04-26T08:07:29.302Z</time></trkpt><trkpt lat="45.8050593" lon="11.7888982"><ele>153.0</ele><time>2026-04-26T08:07:30.308Z</time></trkpt><trkpt lat="45.8051098" lon="11.7890318"><ele>153.0</ele><time>2026-04-26T08:07:31.305Z</time></trkpt><trkpt lat="45.8051591" lon="11.7891686"><ele>153.0</ele><time>2026-04-26T08:07:32.306Z</time></trkpt><trkpt lat="45.8051985" lon="11.7893056"><ele>152.6</ele><time>2026-04-26T08:07:33.302Z</time></trkpt><trkpt lat="45.8052403" lon="11.7894419"><ele>152.20000000000002</ele><time>2026-04-26T08:07:34.309Z</time></trkpt><trkpt lat="45.8052808" lon="11.7895782"><ele>151.8</ele><time>2026-04-26T08:07:35.304Z</time></trkpt><trkpt lat="45.8053151" lon="11.7897035"><ele>151.4</ele><time>2026-04-26T08:07:36.31Z</time></trkpt><trkpt lat="45.8053523" lon="11.7898217"><ele>151.0</ele><time>2026-04-26T08:07:37.305Z</time></trkpt><trkpt lat="45.8053879" lon="11.7899372"><ele>151.0</ele><time>2026-04-26T08:07:38.311Z</time></trkpt><trkpt lat="45.8054287" lon="11.7900447"><ele>151.0</ele><time>2026-04-26T08:07:39.309Z</time></trkpt><trkpt lat="45.8054715" lon="11.7901552"><ele>151.0</ele><time>2026-04-26T08:07:40.315Z</time></trkpt><trkpt lat="45.8055173" lon="11.7902593"><ele>151.0</ele><time>2026-04-26T08:07:41.311Z</time></trkpt><trkpt lat="45.8055614" lon="11.7903525"><ele>151.0</ele><time>2026-04-26T08:07:42.311Z</time></trkpt><trkpt lat="45.8056044" lon="11.790432"><ele>151.0</ele><time>2026-04-26T08:07:43.305Z</time></trkpt><trkpt lat="45.8056503" lon="11.7905166"><ele>150.83333333333334</ele><time>2026-04-26T08:07:44.304Z</time></trkpt><trkpt lat="45.8056956" lon="11.7905902"><ele>150.66666666666669</ele><time>2026-04-26T08:07:45.299Z</time></trkpt><trkpt lat="45.8057542" lon="11.7906511"><ele>150.5</ele><time>2026-04-26T08:07:47.295Z</time></trkpt><trkpt lat="45.8057955" lon="11.7907338"><ele>150.33333333333334</ele><time>2026-04-26T08:07:58.294Z</time></trkpt><trkpt lat="45.8058639" lon="11.7907663"><ele>150.16666666666666</ele><time>2026-04-26T08:08:00.307Z</time></trkpt><trkpt lat="45.8060074" lon="11.7907062"><ele>150.0</ele><time>2026-04-26T08:08:02.296Z</time></trkpt><trkpt lat="45.8061068" lon="11.7906666"><ele>151.0</ele><time>2026-04-26T08:08:03.302Z</time></trkpt><trkpt lat="45.8062645" lon="11.7906056"><ele>152.0</ele><time>2026-04-26T08:08:04.302Z</time></trkpt><trkpt lat="45.8064827" lon="11.7905232"><ele>153.0</ele><time>2026-04-26T08:08:05.298Z</time></trkpt><trkpt lat="45.8067563" lon="11.7904339"><ele>152.66666666666666</ele><time>2026-04-26T08:08:06.301Z</time></trkpt><trkpt lat="45.8069932" lon="11.7903535"><ele>152.33333333333331</ele><time>2026-04-26T08:08:07.298Z</time></trkpt><trkpt lat="45.807185" lon="11.7902901"><ele>152.0</ele><time>2026-04-26T08:08:08.305Z</time></trkpt><trkpt lat="45.807329" lon="11.7902462"><ele>152.0</ele><time>2026-04-26T08:08:09.3Z</time></trkpt><trkpt lat="45.8074428" lon="11.7902323"><ele>152.0</ele><time>2026-04-26T08:08:10.306Z</time></trkpt><trkpt lat="45.8075258" lon="11.7902162"><ele>152.0</ele><time>2026-04-26T08:08:11.308Z</time></trkpt><trkpt lat="45.8076274" lon="11.7902302"><ele>152.0</ele><time>2026-04-26T08:08:13.3Z</time></trkpt><trkpt lat="45.8076951" lon="11.7903461"><ele>152.0</ele><time>2026-04-26T08:08:15.305Z</time></trkpt><trkpt lat="45.8077141" lon="11.7904409"><ele>152.16666666666666</ele><time>2026-04-26T08:08:16.307Z</time></trkpt><trkpt lat="45.8077157" lon="11.7905429"><ele>152.33333333333331</ele><time>2026-04-26T08:08:17.304Z</time></trkpt><trkpt lat="45.8077121" lon="11.7906769"><ele>152.5</ele><time>2026-04-26T08:08:18.297Z</time></trkpt><trkpt lat="45.807699" lon="11.790819"><ele>152.66666666666666</ele><time>2026-04-26T08:08:19.302Z</time></trkpt><trkpt lat="45.8076897" lon="11.7909499"><ele>152.83333333333334</ele><time>2026-04-26T08:08:20.301Z</time></trkpt><trkpt lat="45.807674" lon="11.7910812"><ele>153.0</ele><time>2026-04-26T08:08:21.31Z</time></trkpt><trkpt lat="45.8076659" lon="11.7911926"><ele>153.0</ele><time>2026-04-26T08:08:22.297Z</time></trkpt><trkpt lat="45.807669" lon="11.7913563"><ele>153.0</ele><time>2026-04-26T08:08:24.293Z</time></trkpt><trkpt lat="45.8076907" lon="11.7914884"><ele>153.0</ele><time>2026-04-26T08:08:26.311Z</time></trkpt><trkpt lat="45.8076872" lon="11.7915901"><ele>153.0</ele><time>2026-04-26T08:08:28.31Z</time></trkpt><trkpt lat="45.8076371" lon="11.7917628"><ele>153.0</ele><time>2026-04-26T08:08:30.299Z</time></trkpt><trkpt lat="45.8076164" lon="11.7918856"><ele>152.8</ele><time>2026-04-26T08:08:31.291Z</time></trkpt><trkpt lat="45.8075803" lon="11.7920271"><ele>152.60000000000002</ele><time>2026-04-26T08:08:32.297Z</time></trkpt><trkpt lat="45.8075402" lon="11.792156"><ele>152.39999999999998</ele><time>2026-04-26T08:08:33.294Z</time></trkpt><trkpt lat="45.8074972" lon="11.7922691"><ele>152.2</ele><time>2026-04-26T08:08:34.295Z</time></trkpt><trkpt lat="45.8074517" lon="11.7923707"><ele>152.0</ele><time>2026-04-26T08:08:35.301Z</time></trkpt><trkpt lat="45.8073821" lon="11.7925023"><ele>152.0</ele><time>2026-04-26T08:08:37.302Z</time></trkpt><trkpt lat="45.8073293" lon="11.7926377"><ele>152.0</ele><time>2026-04-26T08:08:39.303Z</time></trkpt><trkpt lat="45.8072897" lon="11.7927745"><ele>152.0</ele><time>2026-04-26T08:08:41.298Z</time></trkpt><trkpt lat="45.8073082" lon="11.7929059"><ele>152.0</ele><time>2026-04-26T08:08:45.306Z</time></trkpt><trkpt lat="45.8073578" lon="11.7929629"><ele>152.0</ele><time>2026-04-26T08:08:46.293Z</time></trkpt><trkpt lat="45.8074757" lon="11.7930214"><ele>152.0</ele><time>2026-04-26T08:08:48.292Z</time></trkpt><trkpt lat="45.807535" lon="11.7930557"><ele>152.0</ele><time>2026-04-26T08:08:49.3Z</time></trkpt><trkpt lat="45.8076024" lon="11.7931642"><ele>152.0</ele><time>2026-04-26T08:08:51.297Z</time></trkpt><trkpt lat="45.8076499" lon="11.7933017"><ele>152.0</ele><time>2026-04-26T08:08:53.312Z</time></trkpt><trkpt lat="45.8076677" lon="11.7934272"><ele>152.0</ele><time>2026-04-26T08:08:55.305Z</time></trkpt><trkpt lat="45.8076767" lon="11.7935579"><ele>152.33333333333331</ele><time>2026-04-26T08:08:57.327Z</time></trkpt><trkpt lat="45.8076938" lon="11.7936796"><ele>152.66666666666666</ele><time>2026-04-26T08:08:59.312Z</time></trkpt><trkpt lat="45.8077413" lon="11.7938264"><ele>153.0</ele><time>2026-04-26T08:09:01.311Z</time></trkpt><trkpt lat="45.8077681" lon="11.7939109"><ele>153.33333333333334</ele><time>2026-04-26T08:09:02.298Z</time></trkpt><trkpt lat="45.807783" lon="11.7940283"><ele>153.66666666666669</ele><time>2026-04-26T08:09:04.292Z</time></trkpt><trkpt lat="45.8078343" lon="11.7941155"><ele>154.0</ele><time>2026-04-26T08:09:06.296Z</time></trkpt><trkpt lat="45.8079528" lon="11.7941805"><ele>154.0</ele><time>2026-04-26T08:09:08.294Z</time></trkpt><trkpt lat="45.808034" lon="11.7942034"><ele>154.0</ele><time>2026-04-26T08:09:09.303Z</time></trkpt><trkpt lat="45.8081222" lon="11.7942167"><ele>154.0</ele><time>2026-04-26T08:09:10.301Z</time></trkpt><trkpt lat="45.8081919" lon="11.7942269"><ele>154.0</ele><time>2026-04-26T08:09:11.305Z</time></trkpt><trkpt lat="45.8082634" lon="11.7942451"><ele>154.0</ele><time>2026-04-26T08:09:12.316Z</time></trkpt><trkpt lat="45.8083376" lon="11.7942626"><ele>154.0</ele><time>2026-04-26T08:09:13.313Z</time></trkpt><trkpt lat="45.8084062" lon="11.7942824"><ele>154.0</ele><time>2026-04-26T08:09:14.312Z</time></trkpt><trkpt lat="45.8084702" lon="11.794303"><ele>154.0</ele><time>2026-04-26T08:09:15.308Z</time></trkpt><trkpt lat="45.8085736" lon="11.79435"><ele>154.0</ele><time>2026-04-26T08:09:17.309Z</time></trkpt><trkpt lat="45.8086755" lon="11.7944055"><ele>154.0</ele><time>2026-04-26T08:09:19.308Z</time></trkpt><trkpt lat="45.8087813" lon="11.7944583"><ele>154.0</ele><time>2026-04-26T08:09:21.312Z</time></trkpt><trkpt lat="45.8088815" lon="11.7944969"><ele>154.4</ele><time>2026-04-26T08:09:23.311Z</time></trkpt><trkpt lat="45.8089813" lon="11.794528"><ele>154.8</ele><time>2026-04-26T08:09:25.307Z</time></trkpt><trkpt lat="45.809102" lon="11.7945561"><ele>155.2</ele><time>2026-04-26T08:09:27.305Z</time></trkpt><trkpt lat="45.8091814" lon="11.7945686"><ele>155.6</ele><time>2026-04-26T08:09:28.325Z</time></trkpt><trkpt lat="45.8092756" lon="11.7945787"><ele>156.0</ele><time>2026-04-26T08:09:29.311Z</time></trkpt><trkpt lat="45.8093721" lon="11.7945909"><ele>156.66666666666666</ele><time>2026-04-26T08:09:30.313Z</time></trkpt><trkpt lat="45.8094605" lon="11.7945969"><ele>157.33333333333334</ele><time>2026-04-26T08:09:31.302Z</time></trkpt><trkpt lat="45.8095454" lon="11.7946026"><ele>158.0</ele><time>2026-04-26T08:09:32.307Z</time></trkpt><trkpt lat="45.8096287" lon="11.7946128"><ele>158.66666666666669</ele><time>2026-04-26T08:09:33.306Z</time></trkpt><trkpt lat="45.8097009" lon="11.7946187"><ele>159.33333333333334</ele><time>2026-04-26T08:09:34.308Z</time></trkpt><trkpt lat="45.809779" lon="11.7946301"><ele>160.0</ele><time>2026-04-26T08:09:35.308Z</time></trkpt><trkpt lat="45.8098591" lon="11.7946368"><ele>160.0</ele><time>2026-04-26T08:09:36.316Z</time></trkpt><trkpt lat="45.8099452" lon="11.7946375"><ele>160.0</ele><time>2026-04-26T08:09:37.3Z</time></trkpt><trkpt lat="45.8100268" lon="11.7946358"><ele>160.0</ele><time>2026-04-26T08:09:38.308Z</time></trkpt><trkpt lat="45.8101025" lon="11.7946329"><ele>160.0</ele><time>2026-04-26T08:09:39.304Z</time></trkpt><trkpt lat="45.8101773" lon="11.7946348"><ele>160.0</ele><time>2026-04-26T08:09:40.312Z</time></trkpt><trkpt lat="45.8102507" lon="11.7946457"><ele>160.0</ele><time>2026-04-26T08:09:41.299Z</time></trkpt><trkpt lat="45.810327" lon="11.7946349"><ele>160.57142857142856</ele><time>2026-04-26T08:09:42.306Z</time></trkpt><trkpt lat="45.8104004" lon="11.7946288"><ele>161.14285714285714</ele><time>2026-04-26T08:09:43.298Z</time></trkpt><trkpt lat="45.8104759" lon="11.794628"><ele>161.71428571428572</ele><time>2026-04-26T08:09:44.308Z</time></trkpt><trkpt lat="45.8105459" lon="11.794627"><ele>162.28571428571428</ele><time>2026-04-26T08:09:45.301Z</time></trkpt><trkpt lat="45.8106123" lon="11.7946233"><ele>162.85714285714286</ele><time>2026-04-26T08:09:46.304Z</time></trkpt><trkpt lat="45.8106872" lon="11.794619"><ele>163.42857142857142</ele><time>2026-04-26T08:09:47.299Z</time></trkpt><trkpt lat="45.8107713" lon="11.7946157"><ele>164.0</ele><time>2026-04-26T08:09:48.305Z</time></trkpt><trkpt lat="45.8108603" lon="11.7946191"><ele>164.0</ele><time>2026-04-26T08:09:49.303Z</time></trkpt><trkpt lat="45.810953" lon="11.7946215"><ele>164.0</ele><time>2026-04-26T08:09:50.314Z</time></trkpt><trkpt lat="45.8110492" lon="11.7946242"><ele>164.0</ele><time>2026-04-26T08:09:51.29Z</time></trkpt><trkpt lat="45.8111456" lon="11.7946198"><ele>164.0</ele><time>2026-04-26T08:09:52.303Z</time></trkpt><trkpt lat="45.8112314" lon="11.7946145"><ele>164.0</ele><time>2026-04-26T08:09:53.295Z</time></trkpt><trkpt lat="45.811309" lon="11.7946032"><ele>164.0</ele><time>2026-04-26T08:09:54.292Z</time></trkpt><trkpt lat="45.8113782" lon="11.7945841"><ele>164.39999999999998</ele><time>2026-04-26T08:09:55.293Z</time></trkpt><trkpt lat="45.8114466" lon="11.7945671"><ele>164.8</ele><time>2026-04-26T08:09:56.293Z</time></trkpt><trkpt lat="45.8115607" lon="11.7945234"><ele>165.2</ele><time>2026-04-26T08:09:58.295Z</time></trkpt><trkpt lat="45.811635" lon="11.7944883"><ele>165.60000000000002</ele><time>2026-04-26T08:09:59.318Z</time></trkpt><trkpt lat="45.8117219" lon="11.7944531"><ele>166.0</ele><time>2026-04-26T08:10:00.294Z</time></trkpt><trkpt lat="45.8118158" lon="11.7944138"><ele>166.8</ele><time>2026-04-26T08:10:01.297Z</time></trkpt><trkpt lat="45.8119168" lon="11.7943753"><ele>167.60000000000002</ele><time>2026-04-26T08:10:02.288Z</time></trkpt><trkpt lat="45.8120096" lon="11.7943451"><ele>168.4</ele><time>2026-04-26T08:10:03.3Z</time></trkpt><trkpt lat="45.8121032" lon="11.794321"><ele>169.2</ele><time>2026-04-26T08:10:04.297Z</time></trkpt><trkpt lat="45.8121951" lon="11.7943007"><ele>170.0</ele><time>2026-04-26T08:10:05.298Z</time></trkpt><trkpt lat="45.8123032" lon="11.7942805"><ele>170.0</ele><time>2026-04-26T08:10:06.293Z</time></trkpt><trkpt lat="45.812417" lon="11.7942553"><ele>170.0</ele><time>2026-04-26T08:10:07.303Z</time></trkpt><trkpt lat="45.8125182" lon="11.7942417"><ele>170.0</ele><time>2026-04-26T08:10:08.296Z</time></trkpt><trkpt lat="45.8126099" lon="11.7942358"><ele>170.0</ele><time>2026-04-26T08:10:09.304Z</time></trkpt><trkpt lat="45.8126912" lon="11.7942404"><ele>170.0</ele><time>2026-04-26T08:10:10.295Z</time></trkpt><trkpt lat="45.8127665" lon="11.7942556"><ele>170.0</ele><time>2026-04-26T08:10:11.305Z</time></trkpt><trkpt lat="45.8128366" lon="11.7942772"><ele>170.0</ele><time>2026-04-26T08:10:12.299Z</time></trkpt><trkpt lat="45.8128987" lon="11.794323"><ele>170.0</ele><time>2026-04-26T08:10:14.301Z</time></trkpt><trkpt lat="45.8128505" lon="11.7944405"><ele>170.0</ele><time>2026-04-26T08:10:18.306Z</time></trkpt><trkpt lat="45.8127823" lon="11.7944782"><ele>170.0</ele><time>2026-04-26T08:10:19.314Z</time></trkpt><trkpt lat="45.812704" lon="11.7945117"><ele>170.0</ele><time>2026-04-26T08:10:20.307Z</time></trkpt><trkpt lat="45.8126142" lon="11.7945466"><ele>170.0</ele><time>2026-04-26T08:10:21.303Z</time></trkpt><trkpt lat="45.8125269" lon="11.7945683"><ele>170.0</ele><time>2026-04-26T08:10:22.3Z</time></trkpt><trkpt lat="45.8124431" lon="11.7945783"><ele>170.0</ele><time>2026-04-26T08:10:23.318Z</time></trkpt><trkpt lat="45.8123546" lon="11.7945745"><ele>170.0</ele><time>2026-04-26T08:10:24.29Z</time></trkpt><trkpt lat="45.8122643" lon="11.7945816"><ele>170.0</ele><time>2026-04-26T08:10:25.314Z</time></trkpt><trkpt lat="45.8121792" lon="11.7946012"><ele>170.0</ele><time>2026-04-26T08:10:26.299Z</time></trkpt><trkpt lat="45.8120959" lon="11.7946204"><ele>170.0</ele><time>2026-04-26T08:10:27.309Z</time></trkpt><trkpt lat="45.8120161" lon="11.7946424"><ele>170.0</ele><time>2026-04-26T08:10:28.305Z</time></trkpt><trkpt lat="45.8119319" lon="11.7946638"><ele>170.0</ele><time>2026-04-26T08:10:29.308Z</time></trkpt><trkpt lat="45.811854" lon="11.794683"><ele>170.0</ele><time>2026-04-26T08:10:30.319Z</time></trkpt><trkpt lat="45.8117772" lon="11.7947019"><ele>170.0</ele><time>2026-04-26T08:10:31.303Z</time></trkpt><trkpt lat="45.8117007" lon="11.79472"><ele>170.0</ele><time>2026-04-26T08:10:32.304Z</time></trkpt><trkpt lat="45.8116272" lon="11.7947372"><ele>169.33333333333331</ele><time>2026-04-26T08:10:33.293Z</time></trkpt><trkpt lat="45.8115581" lon="11.7947533"><ele>168.66666666666666</ele><time>2026-04-26T08:10:34.303Z</time></trkpt><trkpt lat="45.81149" lon="11.7947605"><ele>168.0</ele><time>2026-04-26T08:10:35.294Z</time></trkpt><trkpt lat="45.8114195" lon="11.7947752"><ele>167.33333333333334</ele><time>2026-04-26T08:10:36.296Z</time></trkpt><trkpt lat="45.8113507" lon="11.7947977"><ele>166.66666666666669</ele><time>2026-04-26T08:10:37.304Z</time></trkpt><trkpt lat="45.8112876" lon="11.7949107"><ele>166.0</ele><time>2026-04-26T08:10:39.305Z</time></trkpt><trkpt lat="45.8112809" lon="11.7950165"><ele>166.0</ele><time>2026-04-26T08:10:40.297Z</time></trkpt><trkpt lat="45.8112687" lon="11.7951499"><ele>166.0</ele><time>2026-04-26T08:10:41.303Z</time></trkpt><trkpt lat="45.8112382" lon="11.7953071"><ele>166.0</ele><time>2026-04-26T08:10:42.295Z</time></trkpt><trkpt lat="45.8111908" lon="11.7954533"><ele>166.0</ele><time>2026-04-26T08:10:43.307Z</time></trkpt><trkpt lat="45.8111348" lon="11.795566"><ele>166.0</ele><time>2026-04-26T08:10:44.304Z</time></trkpt><trkpt lat="45.8110623" lon="11.7956603"><ele>165.20000000000002</ele><time>2026-04-26T08:10:45.308Z</time></trkpt><trkpt lat="45.8109831" lon="11.7957112"><ele>164.4</ele><time>2026-04-26T08:10:46.31Z</time></trkpt><trkpt lat="45.8108791" lon="11.7957259"><ele>163.6</ele><time>2026-04-26T08:10:47.301Z</time></trkpt><trkpt lat="45.8107792" lon="11.7957321"><ele>162.8</ele><time>2026-04-26T08:10:48.302Z</time></trkpt><trkpt lat="45.8106642" lon="11.7957037"><ele>162.0</ele><time>2026-04-26T08:10:49.299Z</time></trkpt><trkpt lat="45.8105229" lon="11.7956746"><ele>162.0</ele><time>2026-04-26T08:10:50.302Z</time></trkpt><trkpt lat="45.8103809" lon="11.7956544"><ele>162.0</ele><time>2026-04-26T08:10:51.291Z</time></trkpt><trkpt lat="45.8102394" lon="11.7956425"><ele>162.0</ele><time>2026-04-26T08:10:52.297Z</time></trkpt><trkpt lat="45.8101096" lon="11.7956554"><ele>162.0</ele><time>2026-04-26T08:10:53.296Z</time></trkpt><trkpt lat="45.8099826" lon="11.7956704"><ele>161.8</ele><time>2026-04-26T08:10:54.297Z</time></trkpt><trkpt lat="45.8098676" lon="11.7956939"><ele>161.6</ele><time>2026-04-26T08:10:55.301Z</time></trkpt><trkpt lat="45.8097809" lon="11.7957166"><ele>161.4</ele><time>2026-04-26T08:10:56.307Z</time></trkpt><trkpt lat="45.809705" lon="11.7957533"><ele>161.20000000000002</ele><time>2026-04-26T08:10:57.303Z</time></trkpt><trkpt lat="45.8096951" lon="11.7959083"><ele>161.0</ele><time>2026-04-26T08:10:59.306Z</time></trkpt><trkpt lat="45.8097297" lon="11.7960555"><ele>161.0</ele><time>2026-04-26T08:11:00.301Z</time></trkpt><trkpt lat="45.8097586" lon="11.7962327"><ele>161.0</ele><time>2026-04-26T08:11:01.314Z</time></trkpt><trkpt lat="45.8097839" lon="11.7964054"><ele>161.0</ele><time>2026-04-26T08:11:02.298Z</time></trkpt><trkpt lat="45.8097839" lon="11.7965627"><ele>161.0</ele><time>2026-04-26T08:11:03.305Z</time></trkpt><trkpt lat="45.809763" lon="11.7966898"><ele>161.0</ele><time>2026-04-26T08:11:04.299Z</time></trkpt><trkpt lat="45.8097319" lon="11.7967964"><ele>161.0</ele><time>2026-04-26T08:11:05.309Z</time></trkpt><trkpt lat="45.8096271" lon="11.7968842"><ele>161.0</ele><time>2026-04-26T08:11:07.31Z</time></trkpt><trkpt lat="45.8095431" lon="11.7968732"><ele>161.0</ele><time>2026-04-26T08:11:08.295Z</time></trkpt><trkpt lat="45.809441" lon="11.7968491"><ele>161.0</ele><time>2026-04-26T08:11:09.297Z</time></trkpt><trkpt lat="45.809323" lon="11.7968191"><ele>160.0</ele><time>2026-04-26T08:11:10.298Z</time></trkpt><trkpt lat="45.809175" lon="11.7967894"><ele>159.0</ele><time>2026-04-26T08:11:11.301Z</time></trkpt><trkpt lat="45.8090342" lon="11.7967548"><ele>158.0</ele><time>2026-04-26T08:11:12.308Z</time></trkpt><trkpt lat="45.8088892" lon="11.7967059"><ele>157.0</ele><time>2026-04-26T08:11:13.301Z</time></trkpt><trkpt lat="45.8087394" lon="11.7966251"><ele>157.0</ele><time>2026-04-26T08:11:14.308Z</time></trkpt><trkpt lat="45.8085972" lon="11.7965614"><ele>157.0</ele><time>2026-04-26T08:11:15.301Z</time></trkpt><trkpt lat="45.8084717" lon="11.7964987"><ele>157.0</ele><time>2026-04-26T08:11:16.312Z</time></trkpt><trkpt lat="45.8083736" lon="11.7964427"><ele>157.0</ele><time>2026-04-26T08:11:17.31Z</time></trkpt><trkpt lat="45.8082784" lon="11.7963898"><ele>156.0</ele><time>2026-04-26T08:11:18.311Z</time></trkpt><trkpt lat="45.8081859" lon="11.7963316"><ele>155.0</ele><time>2026-04-26T08:11:19.309Z</time></trkpt><trkpt lat="45.8080971" lon="11.7962684"><ele>154.0</ele><time>2026-04-26T08:11:20.31Z</time></trkpt><trkpt lat="45.8080172" lon="11.7962125"><ele>153.0</ele><time>2026-04-26T08:11:21.31Z</time></trkpt><trkpt lat="45.8079277" lon="11.7961595"><ele>152.0</ele><time>2026-04-26T08:11:22.319Z</time></trkpt><trkpt lat="45.8078275" lon="11.7961139"><ele>152.0</ele><time>2026-04-26T08:11:23.311Z</time></trkpt><trkpt lat="45.8077242" lon="11.7960859"><ele>152.0</ele><time>2026-04-26T08:11:24.32Z</time></trkpt><trkpt lat="45.807625" lon="11.7960619"><ele>152.0</ele><time>2026-04-26T08:11:25.319Z</time></trkpt><trkpt lat="45.8075381" lon="11.7960355"><ele>152.0</ele><time>2026-04-26T08:11:26.315Z</time></trkpt><trkpt lat="45.807462" lon="11.7960153"><ele>152.0</ele><time>2026-04-26T08:11:27.31Z</time></trkpt><trkpt lat="45.8073639" lon="11.7959895"><ele>152.0</ele><time>2026-04-26T08:11:29.318Z</time></trkpt><trkpt lat="45.8072957" lon="11.7959703"><ele>152.0</ele><time>2026-04-26T08:11:31.319Z</time></trkpt><trkpt lat="45.8072257" lon="11.7960114"><ele>152.0</ele><time>2026-04-26T08:11:34.312Z</time></trkpt><trkpt lat="45.8071991" lon="11.796118"><ele>152.0</ele><time>2026-04-26T08:11:37.305Z</time></trkpt><trkpt lat="45.8072184" lon="11.7962289"><ele>152.0</ele><time>2026-04-26T08:11:39.299Z</time></trkpt><trkpt lat="45.8072445" lon="11.7963751"><ele>152.0</ele><time>2026-04-26T08:11:41.301Z</time></trkpt><trkpt lat="45.8072558" lon="11.7964694"><ele>152.4</ele><time>2026-04-26T08:11:42.298Z</time></trkpt><trkpt lat="45.8072815" lon="11.7966192"><ele>152.79999999999998</ele><time>2026-04-26T08:11:44.295Z</time></trkpt><trkpt lat="45.8072913" lon="11.7967431"><ele>153.2</ele><time>2026-04-26T08:11:46.297Z</time></trkpt><trkpt lat="45.8072554" lon="11.7968428"><ele>153.6</ele><time>2026-04-26T08:11:48.301Z</time></trkpt><trkpt lat="45.8072253" lon="11.7970108"><ele>154.0</ele><time>2026-04-26T08:11:50.31Z</time></trkpt><trkpt lat="45.8071995" lon="11.797147"><ele>154.75</ele><time>2026-04-26T08:11:51.3Z</time></trkpt><trkpt lat="45.8071803" lon="11.7973073"><ele>155.5</ele><time>2026-04-26T08:11:52.306Z</time></trkpt><trkpt lat="45.8071496" lon="11.797517"><ele>156.25</ele><time>2026-04-26T08:11:53.298Z</time></trkpt><trkpt lat="45.8071164" lon="11.7977283"><ele>157.0</ele><time>2026-04-26T08:11:54.31Z</time></trkpt><trkpt lat="45.8070988" lon="11.7979383"><ele>157.0</ele><time>2026-04-26T08:11:55.309Z</time></trkpt><trkpt lat="45.8070852" lon="11.7981247"><ele>157.0</ele><time>2026-04-26T08:11:56.311Z</time></trkpt><trkpt lat="45.8070724" lon="11.7983109"><ele>157.0</ele><time>2026-04-26T08:11:57.303Z</time></trkpt><trkpt lat="45.8070609" lon="11.7984984"><ele>157.0</ele><time>2026-04-26T08:11:58.311Z</time></trkpt><trkpt lat="45.8070481" lon="11.7986891"><ele>157.0</ele><time>2026-04-26T08:11:59.308Z</time></trkpt><trkpt lat="45.8070344" lon="11.798873"><ele>157.0</ele><time>2026-04-26T08:12:00.314Z</time></trkpt><trkpt lat="45.80702" lon="11.7990462"><ele>157.0</ele><time>2026-04-26T08:12:01.314Z</time></trkpt><trkpt lat="45.8070075" lon="11.7992038"><ele>157.0</ele><time>2026-04-26T08:12:02.316Z</time></trkpt><trkpt lat="45.8070011" lon="11.7993559"><ele>157.5</ele><time>2026-04-26T08:12:03.321Z</time></trkpt><trkpt lat="45.8070044" lon="11.7995175"><ele>158.0</ele><time>2026-04-26T08:12:04.308Z</time></trkpt><trkpt lat="45.8070195" lon="11.7996871"><ele>158.5</ele><time>2026-04-26T08:12:05.314Z</time></trkpt><trkpt lat="45.8070432" lon="11.7998579"><ele>159.0</ele><time>2026-04-26T08:12:06.305Z</time></trkpt><trkpt lat="45.8070675" lon="11.8000183"><ele>158.8</ele><time>2026-04-26T08:12:07.311Z</time></trkpt><trkpt lat="45.8070857" lon="11.8001706"><ele>158.60000000000002</ele><time>2026-04-26T08:12:08.304Z</time></trkpt><trkpt lat="45.8070969" lon="11.8003106"><ele>158.4</ele><time>2026-04-26T08:12:09.316Z</time></trkpt><trkpt lat="45.8071109" lon="11.8004388"><ele>158.20000000000002</ele><time>2026-04-26T08:12:10.31Z</time></trkpt><trkpt lat="45.807136" lon="11.800552"><ele>158.0</ele><time>2026-04-26T08:12:11.303Z</time></trkpt><trkpt lat="45.8071681" lon="11.8006521"><ele>158.0</ele><time>2026-04-26T08:12:12.304Z</time></trkpt><trkpt lat="45.8071963" lon="11.8007362"><ele>158.0</ele><time>2026-04-26T08:12:13.308Z</time></trkpt><trkpt lat="45.8072226" lon="11.8008229"><ele>158.0</ele><time>2026-04-26T08:12:14.309Z</time></trkpt><trkpt lat="45.8072432" lon="11.8009885"><ele>158.0</ele><time>2026-04-26T08:12:16.321Z</time></trkpt><trkpt lat="45.807224" lon="11.8010752"><ele>158.0</ele><time>2026-04-26T08:12:17.303Z</time></trkpt><trkpt lat="45.8072022" lon="11.8011869"><ele>158.0</ele><time>2026-04-26T08:12:18.313Z</time></trkpt><trkpt lat="45.8071801" lon="11.8013163"><ele>158.16666666666666</ele><time>2026-04-26T08:12:19.307Z</time></trkpt><trkpt lat="45.8071582" lon="11.801442"><ele>158.33333333333331</ele><time>2026-04-26T08:12:20.315Z</time></trkpt><trkpt lat="45.8071391" lon="11.8015583"><ele>158.5</ele><time>2026-04-26T08:12:21.302Z</time></trkpt><trkpt lat="45.8071282" lon="11.8016806"><ele>158.66666666666666</ele><time>2026-04-26T08:12:22.308Z</time></trkpt><trkpt lat="45.8071265" lon="11.8018215"><ele>158.83333333333334</ele><time>2026-04-26T08:12:23.305Z</time></trkpt><trkpt lat="45.8071339" lon="11.8019523"><ele>159.0</ele><time>2026-04-26T08:12:24.308Z</time></trkpt><trkpt lat="45.8071462" lon="11.802087"><ele>159.4</ele><time>2026-04-26T08:12:25.31Z</time></trkpt><trkpt lat="45.807156" lon="11.802218"><ele>159.8</ele><time>2026-04-26T08:12:26.309Z</time></trkpt><trkpt lat="45.8071581" lon="11.802338"><ele>160.20000000000002</ele><time>2026-04-26T08:12:27.312Z</time></trkpt><trkpt lat="45.8071537" lon="11.8024637"><ele>160.60000000000002</ele><time>2026-04-26T08:12:28.297Z</time></trkpt><trkpt lat="45.8071439" lon="11.8025941"><ele>161.0</ele><time>2026-04-26T08:12:29.298Z</time></trkpt><trkpt lat="45.8071254" lon="11.8027297"><ele>161.16666666666666</ele><time>2026-04-26T08:12:30.297Z</time></trkpt><trkpt lat="45.8071056" lon="11.8028594"><ele>161.33333333333331</ele><time>2026-04-26T08:12:31.304Z</time></trkpt><trkpt lat="45.8070814" lon="11.8029862"><ele>161.5</ele><time>2026-04-26T08:12:32.303Z</time></trkpt><trkpt lat="45.8070526" lon="11.8030977"><ele>161.66666666666666</ele><time>2026-04-26T08:12:33.306Z</time></trkpt><trkpt lat="45.8070396" lon="11.8032118"><ele>161.83333333333334</ele><time>2026-04-26T08:12:34.331Z</time></trkpt><trkpt lat="45.8070537" lon="11.8033172"><ele>162.0</ele><time>2026-04-26T08:12:35.287Z</time></trkpt><trkpt lat="45.8070844" lon="11.8034086"><ele>162.0</ele><time>2026-04-26T08:12:36.314Z</time></trkpt><trkpt lat="45.8071429" lon="11.8034775"><ele>162.0</ele><time>2026-04-26T08:12:37.302Z</time></trkpt><trkpt lat="45.8072058" lon="11.8035391"><ele>162.0</ele><time>2026-04-26T08:12:38.306Z</time></trkpt><trkpt lat="45.8072659" lon="11.8036212"><ele>162.0</ele><time>2026-04-26T08:12:39.301Z</time></trkpt><trkpt lat="45.8073104" lon="11.8037204"><ele>162.0</ele><time>2026-04-26T08:12:40.311Z</time></trkpt><trkpt lat="45.8073407" lon="11.8038541"><ele>162.0</ele><time>2026-04-26T08:12:41.306Z</time></trkpt><trkpt lat="45.8073568" lon="11.8039844"><ele>162.16666666666666</ele><time>2026-04-26T08:12:42.302Z</time></trkpt><trkpt lat="45.8073652" lon="11.8041141"><ele>162.33333333333334</ele><time>2026-04-26T08:12:43.307Z</time></trkpt><trkpt lat="45.8073643" lon="11.8042415"><ele>162.5</ele><time>2026-04-26T08:12:44.309Z</time></trkpt><trkpt lat="45.807365" lon="11.8043623"><ele>162.66666666666669</ele><time>2026-04-26T08:12:45.308Z</time></trkpt><trkpt lat="45.8073707" lon="11.8044814"><ele>162.83333333333334</ele><time>2026-04-26T08:12:46.308Z</time></trkpt><trkpt lat="45.8073853" lon="11.8046016"><ele>163.0</ele><time>2026-04-26T08:12:47.312Z</time></trkpt><trkpt lat="45.8074063" lon="11.8047165"><ele>163.60000000000002</ele><time>2026-04-26T08:12:48.304Z</time></trkpt><trkpt lat="45.807435" lon="11.8048159"><ele>164.20000000000002</ele><time>2026-04-26T08:12:49.313Z</time></trkpt><trkpt lat="45.8074579" lon="11.8049047"><ele>164.8</ele><time>2026-04-26T08:12:50.309Z</time></trkpt><trkpt lat="45.8074638" lon="11.8050776"><ele>165.4</ele><time>2026-04-26T08:12:52.301Z</time></trkpt><trkpt lat="45.8074567" lon="11.8052329"><ele>166.0</ele><time>2026-04-26T08:12:54.298Z</time></trkpt><trkpt lat="45.8074656" lon="11.8054267"><ele>166.66666666666669</ele><time>2026-04-26T08:12:56.296Z</time></trkpt><trkpt lat="45.8074864" lon="11.8055283"><ele>167.33333333333334</ele><time>2026-04-26T08:12:57.305Z</time></trkpt><trkpt lat="45.8075099" lon="11.8056268"><ele>168.0</ele><time>2026-04-26T08:12:58.298Z</time></trkpt><trkpt lat="45.80753" lon="11.8057339"><ele>168.66666666666666</ele><time>2026-04-26T08:12:59.297Z</time></trkpt><trkpt lat="45.8075445" lon="11.8058502"><ele>169.33333333333331</ele><time>2026-04-26T08:13:00.298Z</time></trkpt><trkpt lat="45.8075396" lon="11.805985"><ele>170.0</ele><time>2026-04-26T08:13:01.303Z</time></trkpt><trkpt lat="45.8075196" lon="11.8061198"><ele>170.0</ele><time>2026-04-26T08:13:02.292Z</time></trkpt><trkpt lat="45.8074902" lon="11.8062735"><ele>170.0</ele><time>2026-04-26T08:13:03.306Z</time></trkpt><trkpt lat="45.8074568" lon="11.8064374"><ele>170.0</ele><time>2026-04-26T08:13:04.321Z</time></trkpt><trkpt lat="45.8074229" lon="11.8066068"><ele>170.0</ele><time>2026-04-26T08:13:05.303Z</time></trkpt><trkpt lat="45.8073994" lon="11.8067662"><ele>170.2</ele><time>2026-04-26T08:13:06.307Z</time></trkpt><trkpt lat="45.8073885" lon="11.8069222"><ele>170.4</ele><time>2026-04-26T08:13:07.302Z</time></trkpt><trkpt lat="45.8073699" lon="11.8070839"><ele>170.60000000000002</ele><time>2026-04-26T08:13:08.3Z</time></trkpt><trkpt lat="45.8073685" lon="11.8072279"><ele>170.8</ele><time>2026-04-26T08:13:09.302Z</time></trkpt><trkpt lat="45.8073689" lon="11.8073628"><ele>171.0</ele><time>2026-04-26T08:13:10.304Z</time></trkpt><trkpt lat="45.8073593" lon="11.8074896"><ele>170.99999999999997</ele><time>2026-04-26T08:13:11.315Z</time></trkpt><trkpt lat="45.8073552" lon="11.8075903"><ele>171.0</ele><time>2026-04-26T08:13:12.314Z</time></trkpt><trkpt lat="45.8073651" lon="11.8076796"><ele>171.0</ele><time>2026-04-26T08:13:13.306Z</time></trkpt><trkpt lat="45.8073906" lon="11.8077773"><ele>171.0</ele><time>2026-04-26T08:13:14.301Z</time></trkpt><trkpt lat="45.8074196" lon="11.8078716"><ele>171.0</ele><time>2026-04-26T08:13:15.295Z</time></trkpt><trkpt lat="45.8074474" lon="11.8079658"><ele>170.99999999999997</ele><time>2026-04-26T08:13:16.304Z</time></trkpt><trkpt lat="45.8074633" lon="11.8080611"><ele>171.0</ele><time>2026-04-26T08:13:17.296Z</time></trkpt><trkpt lat="45.8074689" lon="11.8081658"><ele>171.0</ele><time>2026-04-26T08:13:18.306Z</time></trkpt><trkpt lat="45.8074554" lon="11.8082771"><ele>171.0</ele><time>2026-04-26T08:13:19.301Z</time></trkpt><trkpt lat="45.8074204" lon="11.8083868"><ele>171.0</ele><time>2026-04-26T08:13:20.307Z</time></trkpt><trkpt lat="45.8073809" lon="11.8084998"><ele>171.0</ele><time>2026-04-26T08:13:21.298Z</time></trkpt><trkpt lat="45.8073453" lon="11.8086136"><ele>171.0</ele><time>2026-04-26T08:13:22.297Z</time></trkpt><trkpt lat="45.807331" lon="11.8087456"><ele>171.0</ele><time>2026-04-26T08:13:23.302Z</time></trkpt><trkpt lat="45.8073292" lon="11.8088828"><ele>171.4</ele><time>2026-04-26T08:13:24.302Z</time></trkpt><trkpt lat="45.8073176" lon="11.8090161"><ele>171.8</ele><time>2026-04-26T08:13:25.302Z</time></trkpt><trkpt lat="45.8072988" lon="11.8091638"><ele>172.20000000000002</ele><time>2026-04-26T08:13:26.298Z</time></trkpt><trkpt lat="45.8072664" lon="11.8093058"><ele>172.60000000000002</ele><time>2026-04-26T08:13:27.3Z</time></trkpt><trkpt lat="45.8072313" lon="11.8094425"><ele>173.0</ele><time>2026-04-26T08:13:28.299Z</time></trkpt><trkpt lat="45.8071906" lon="11.8095639"><ele>173.33333333333331</ele><time>2026-04-26T08:13:29.31Z</time></trkpt><trkpt lat="45.8071488" lon="11.8096663"><ele>173.66666666666666</ele><time>2026-04-26T08:13:30.304Z</time></trkpt><trkpt lat="45.8071176" lon="11.8097713"><ele>174.0</ele><time>2026-04-26T08:13:31.315Z</time></trkpt><trkpt lat="45.8070946" lon="11.809887"><ele>174.33333333333334</ele><time>2026-04-26T08:13:32.301Z</time></trkpt><trkpt lat="45.8070829" lon="11.8100073"><ele>174.66666666666669</ele><time>2026-04-26T08:13:33.313Z</time></trkpt><trkpt lat="45.8070749" lon="11.8101533"><ele>175.0</ele><time>2026-04-26T08:13:34.303Z</time></trkpt><trkpt lat="45.8070587" lon="11.810281"><ele>175.4</ele><time>2026-04-26T08:13:35.326Z</time></trkpt><trkpt lat="45.8070566" lon="11.8103922"><ele>175.8</ele><time>2026-04-26T08:13:36.304Z</time></trkpt><trkpt lat="45.8070605" lon="11.8105109"><ele>176.2</ele><time>2026-04-26T08:13:37.313Z</time></trkpt><trkpt lat="45.8070897" lon="11.8106401"><ele>176.6</ele><time>2026-04-26T08:13:38.304Z</time></trkpt><trkpt lat="45.8071326" lon="11.8107787"><ele>177.0</ele><time>2026-04-26T08:13:39.313Z</time></trkpt><trkpt lat="45.8071726" lon="11.810919"><ele>177.0</ele><time>2026-04-26T08:13:40.308Z</time></trkpt><trkpt lat="45.8072299" lon="11.8110508"><ele>177.0</ele><time>2026-04-26T08:13:41.31Z</time></trkpt><trkpt lat="45.8072721" lon="11.8111609"><ele>177.0</ele><time>2026-04-26T08:13:42.31Z</time></trkpt><trkpt lat="45.8072993" lon="11.811247"><ele>177.0</ele><time>2026-04-26T08:13:43.297Z</time></trkpt><trkpt lat="45.8073104" lon="11.8113446"><ele>177.0</ele><time>2026-04-26T08:13:44.306Z</time></trkpt><trkpt lat="45.8073065" lon="11.8114553"><ele>177.0</ele><time>2026-04-26T08:13:45.292Z</time></trkpt><trkpt lat="45.8072973" lon="11.8115625"><ele>177.0</ele><time>2026-04-26T08:13:46.3Z</time></trkpt><trkpt lat="45.8072806" lon="11.8116519"><ele>177.0</ele><time>2026-04-26T08:13:47.295Z</time></trkpt><trkpt lat="45.8072507" lon="11.8118075"><ele>177.0</ele><time>2026-04-26T08:13:49.301Z</time></trkpt><trkpt lat="45.8072134" lon="11.8119543"><ele>177.0</ele><time>2026-04-26T08:13:51.315Z</time></trkpt><trkpt lat="45.8071902" lon="11.8120785"><ele>177.0</ele><time>2026-04-26T08:13:53.305Z</time></trkpt><trkpt lat="45.8071679" lon="11.8122034"><ele>177.16666666666666</ele><time>2026-04-26T08:13:55.305Z</time></trkpt><trkpt lat="45.8071363" lon="11.8123198"><ele>177.33333333333334</ele><time>2026-04-26T08:13:57.305Z</time></trkpt><trkpt lat="45.8070913" lon="11.8124097"><ele>177.5</ele><time>2026-04-26T08:13:59.306Z</time></trkpt><trkpt lat="45.8070404" lon="11.8124785"><ele>177.66666666666669</ele><time>2026-04-26T08:15:45.291Z</time></trkpt><trkpt lat="45.8071146" lon="11.8125243"><ele>177.83333333333334</ele><time>2026-04-26T08:22:59.287Z</time></trkpt><trkpt lat="45.807157" lon="11.8126204"><ele>178.0</ele><time>2026-04-26T08:23:01.298Z</time></trkpt><trkpt lat="45.8071596" lon="11.8127183"><ele>178.33333333333334</ele><time>2026-04-26T08:23:02.283Z</time></trkpt><trkpt lat="45.807162" lon="11.8128321"><ele>178.66666666666669</ele><time>2026-04-26T08:23:03.292Z</time></trkpt><trkpt lat="45.8071607" lon="11.8129462"><ele>179.0</ele><time>2026-04-26T08:23:04.295Z</time></trkpt><trkpt lat="45.8071561" lon="11.8130724"><ele>179.33333333333334</ele><time>2026-04-26T08:23:05.295Z</time></trkpt><trkpt lat="45.8071618" lon="11.8131917"><ele>179.66666666666666</ele><time>2026-04-26T08:23:06.291Z</time></trkpt><trkpt lat="45.8071757" lon="11.8132942"><ele>180.0</ele><time>2026-04-26T08:23:07.302Z</time></trkpt><trkpt lat="45.8071784" lon="11.8134235"><ele>180.8</ele><time>2026-04-26T08:23:09.296Z</time></trkpt><trkpt lat="45.8071253" lon="11.8135735"><ele>181.6</ele><time>2026-04-26T08:23:11.295Z</time></trkpt><trkpt lat="45.8070952" lon="11.8136944"><ele>182.39999999999998</ele><time>2026-04-26T08:23:12.289Z</time></trkpt><trkpt lat="45.8070648" lon="11.8138262"><ele>183.2</ele><time>2026-04-26T08:23:13.3Z</time></trkpt><trkpt lat="45.807036" lon="11.8139536"><ele>184.0</ele><time>2026-04-26T08:23:14.296Z</time></trkpt><trkpt lat="45.8070083" lon="11.8140712"><ele>184.0</ele><time>2026-04-26T08:23:15.306Z</time></trkpt><trkpt lat="45.8069836" lon="11.8141879"><ele>184.0</ele><time>2026-04-26T08:23:16.302Z</time></trkpt><trkpt lat="45.806953" lon="11.8142999"><ele>184.0</ele><time>2026-04-26T08:23:17.305Z</time></trkpt><trkpt lat="45.8069276" lon="11.8144186"><ele>184.0</ele><time>2026-04-26T08:23:18.3Z</time></trkpt><trkpt lat="45.8069024" lon="11.8145408"><ele>184.0</ele><time>2026-04-26T08:23:19.306Z</time></trkpt><trkpt lat="45.8068814" lon="11.8146565"><ele>184.0</ele><time>2026-04-26T08:23:20.304Z</time></trkpt><trkpt lat="45.8068563" lon="11.8147781"><ele>184.0</ele><time>2026-04-26T08:23:21.305Z</time></trkpt><trkpt lat="45.8068301" lon="11.8148993"><ele>184.0</ele><time>2026-04-26T08:23:22.322Z</time></trkpt><trkpt lat="45.8068063" lon="11.8150217"><ele>184.0</ele><time>2026-04-26T08:23:23.309Z</time></trkpt><trkpt lat="45.8067861" lon="11.8151308"><ele>184.0</ele><time>2026-04-26T08:23:24.309Z</time></trkpt><trkpt lat="45.8067674" lon="11.8152318"><ele>184.0</ele><time>2026-04-26T08:23:25.304Z</time></trkpt><trkpt lat="45.8067525" lon="11.8153205"><ele>184.0</ele><time>2026-04-26T08:23:26.294Z</time></trkpt><trkpt lat="45.8067271" lon="11.8154528"><ele>183.83333333333334</ele><time>2026-04-26T08:23:28.3Z</time></trkpt><trkpt lat="45.8067048" lon="11.8155716"><ele>183.66666666666669</ele><time>2026-04-26T08:23:31.307Z</time></trkpt><trkpt lat="45.8066572" lon="11.8156342"><ele>183.5</ele><time>2026-04-26T08:23:34.304Z</time></trkpt><trkpt lat="45.8065737" lon="11.8156811"><ele>183.33333333333334</ele><time>2026-04-26T08:23:37.301Z</time></trkpt><trkpt lat="45.8064967" lon="11.8157561"><ele>183.16666666666666</ele><time>2026-04-26T08:23:39.295Z</time></trkpt><trkpt lat="45.8064133" lon="11.8158203"><ele>183.0</ele><time>2026-04-26T08:23:41.286Z</time></trkpt><trkpt lat="45.8062855" lon="11.8158375"><ele>183.0</ele><time>2026-04-26T08:23:43.296Z</time></trkpt><trkpt lat="45.8062115" lon="11.8158466"><ele>183.0</ele><time>2026-04-26T08:23:44.293Z</time></trkpt><trkpt lat="45.8061297" lon="11.815856"><ele>183.0</ele><time>2026-04-26T08:23:45.292Z</time></trkpt><trkpt lat="45.8060419" lon="11.8158661"><ele>183.0</ele><time>2026-04-26T08:23:46.296Z</time></trkpt><trkpt lat="45.8059606" lon="11.8158682"><ele>183.0</ele><time>2026-04-26T08:23:47.304Z</time></trkpt><trkpt lat="45.8058831" lon="11.8158692"><ele>183.0</ele><time>2026-04-26T08:23:48.304Z</time></trkpt><trkpt lat="45.805813" lon="11.8158753"><ele>182.66666666666666</ele><time>2026-04-26T08:23:49.3Z</time></trkpt><trkpt lat="45.8057024" lon="11.8158992"><ele>182.33333333333334</ele><time>2026-04-26T08:23:51.303Z</time></trkpt><trkpt lat="45.8056271" lon="11.8159532"><ele>182.0</ele><time>2026-04-26T08:23:53.311Z</time></trkpt><trkpt lat="45.8055764" lon="11.8160329"><ele>181.66666666666669</ele><time>2026-04-26T08:23:55.306Z</time></trkpt><trkpt lat="45.8055536" lon="11.8161333"><ele>181.33333333333334</ele><time>2026-04-26T08:23:57.302Z</time></trkpt><trkpt lat="45.8055441" lon="11.8162742"><ele>181.0</ele><time>2026-04-26T08:23:59.302Z</time></trkpt><trkpt lat="45.805535" lon="11.8163652"><ele>181.0</ele><time>2026-04-26T08:24:00.297Z</time></trkpt><trkpt lat="45.8055236" lon="11.8164663"><ele>181.0</ele><time>2026-04-26T08:24:01.305Z</time></trkpt><trkpt lat="45.805508" lon="11.8165899"><ele>181.0</ele><time>2026-04-26T08:24:02.294Z</time></trkpt><trkpt lat="45.8054907" lon="11.816714"><ele>181.0</ele><time>2026-04-26T08:24:03.302Z</time></trkpt><trkpt lat="45.8054814" lon="11.8168286"><ele>181.0</ele><time>2026-04-26T08:24:04.302Z</time></trkpt><trkpt lat="45.8054711" lon="11.8169337"><ele>181.0</ele><time>2026-04-26T08:24:05.305Z</time></trkpt><trkpt lat="45.8054571" lon="11.8170322"><ele>181.16666666666669</ele><time>2026-04-26T08:24:06.302Z</time></trkpt><trkpt lat="45.8054426" lon="11.8171338"><ele>181.33333333333334</ele><time>2026-04-26T08:24:07.303Z</time></trkpt><trkpt lat="45.8054253" lon="11.8172459"><ele>181.5</ele><time>2026-04-26T08:24:08.296Z</time></trkpt><trkpt lat="45.8054018" lon="11.8173575"><ele>181.66666666666666</ele><time>2026-04-26T08:24:09.308Z</time></trkpt><trkpt lat="45.8053809" lon="11.8174589"><ele>181.83333333333331</ele><time>2026-04-26T08:24:10.299Z</time></trkpt><trkpt lat="45.8053637" lon="11.8175494"><ele>182.0</ele><time>2026-04-26T08:24:11.302Z</time></trkpt><trkpt lat="45.8053216" lon="11.8176643"><ele>182.0</ele><time>2026-04-26T08:24:13.301Z</time></trkpt><trkpt lat="45.8052466" lon="11.8177504"><ele>182.0</ele><time>2026-04-26T08:24:15.305Z</time></trkpt><trkpt lat="45.8051953" lon="11.8178933"><ele>182.0</ele><time>2026-04-26T08:24:17.298Z</time></trkpt><trkpt lat="45.8051812" lon="11.8179873"><ele>182.0</ele><time>2026-04-26T08:24:18.295Z</time></trkpt><trkpt lat="45.8051694" lon="11.8180861"><ele>182.0</ele><time>2026-04-26T08:24:19.305Z</time></trkpt><trkpt lat="45.8051594" lon="11.8181852"><ele>182.0</ele><time>2026-04-26T08:24:20.293Z</time></trkpt><trkpt lat="45.8051477" lon="11.8182754"><ele>182.0</ele><time>2026-04-26T08:24:21.304Z</time></trkpt><trkpt lat="45.8051337" lon="11.8183639"><ele>182.0</ele><time>2026-04-26T08:24:22.299Z</time></trkpt><trkpt lat="45.805108" lon="11.8185005"><ele>182.0</ele><time>2026-04-26T08:24:24.313Z</time></trkpt><trkpt lat="45.8050538" lon="11.8185856"><ele>182.0</ele><time>2026-04-26T08:24:26.304Z</time></trkpt><trkpt lat="45.8049596" lon="11.8185598"><ele>182.0</ele><time>2026-04-26T08:24:28.298Z</time></trkpt><trkpt lat="45.8048938" lon="11.8184987"><ele>182.0</ele><time>2026-04-26T08:24:30.298Z</time></trkpt><trkpt lat="45.8048649" lon="11.8183841"><ele>181.83333333333331</ele><time>2026-04-26T08:25:05.295Z</time></trkpt><trkpt lat="45.8048375" lon="11.818197"><ele>181.66666666666666</ele><time>2026-04-26T08:25:07.305Z</time></trkpt><trkpt lat="45.8048227" lon="11.8181025"><ele>181.5</ele><time>2026-04-26T08:25:08.302Z</time></trkpt><trkpt lat="45.8048085" lon="11.8179746"><ele>181.33333333333334</ele><time>2026-04-26T08:25:10.3Z</time></trkpt><trkpt lat="45.8047231" lon="11.8180044"><ele>181.16666666666669</ele><time>2026-04-26T08:25:14.301Z</time></trkpt><trkpt lat="45.8046926" lon="11.8180949"><ele>181.0</ele><time>2026-04-26T08:25:15.294Z</time></trkpt><trkpt lat="45.8046618" lon="11.8181865"><ele>181.0</ele><time>2026-04-26T08:25:16.291Z</time></trkpt><trkpt lat="45.8046329" lon="11.8182876"><ele>181.0</ele><time>2026-04-26T08:25:17.303Z</time></trkpt><trkpt lat="45.8045681" lon="11.8184096"><ele>181.0</ele><time>2026-04-26T08:25:19.301Z</time></trkpt><trkpt lat="45.8045379" lon="11.8182731"><ele>181.0</ele><time>2026-04-26T08:25:22.291Z</time></trkpt><trkpt lat="45.8045582" lon="11.818166"><ele>181.0</ele><time>2026-04-26T08:25:23.296Z</time></trkpt><trkpt lat="45.804599" lon="11.8180758"><ele>181.0</ele><time>2026-04-26T08:25:24.293Z</time></trkpt><trkpt lat="45.8046507" lon="11.8180004"><ele>181.0</ele><time>2026-04-26T08:25:25.293Z</time></trkpt><trkpt lat="45.8047522" lon="11.8179294"><ele>181.0</ele><time>2026-04-26T08:25:27.295Z</time></trkpt><trkpt lat="45.8048187" lon="11.8179521"><ele>181.0</ele><time>2026-04-26T08:25:28.294Z</time></trkpt><trkpt lat="45.804887" lon="11.8179891"><ele>181.0</ele><time>2026-04-26T08:25:29.289Z</time></trkpt><trkpt lat="45.8049528" lon="11.8180302"><ele>181.0</ele><time>2026-04-26T08:25:30.303Z</time></trkpt><trkpt lat="45.8050473" lon="11.8180763"><ele>181.0</ele><time>2026-04-26T08:25:32.304Z</time></trkpt><trkpt lat="45.8050982" lon="11.8179804"><ele>181.0</ele><time>2026-04-26T08:25:34.301Z</time></trkpt><trkpt lat="45.8050093" lon="11.8178341"><ele>181.0</ele><time>2026-04-26T08:25:36.29Z</time></trkpt><trkpt lat="45.8049384" lon="11.817776"><ele>181.0</ele><time>2026-04-26T08:25:37.293Z</time></trkpt><trkpt lat="45.8048604" lon="11.8177755"><ele>181.0</ele><time>2026-04-26T08:25:55.299Z</time></trkpt><trkpt lat="45.8048001" lon="11.8178934"><ele>181.0</ele><time>2026-04-26T08:25:57.312Z</time></trkpt><trkpt lat="45.8047624" lon="11.8179961"><ele>181.0</ele><time>2026-04-26T08:25:58.291Z</time></trkpt><trkpt lat="45.8047199" lon="11.8180929"><ele>181.0</ele><time>2026-04-26T08:25:59.3Z</time></trkpt><trkpt lat="45.8046789" lon="11.8181974"><ele>181.0</ele><time>2026-04-26T08:26:00.296Z</time></trkpt><trkpt lat="45.8046377" lon="11.8183047"><ele>181.0</ele><time>2026-04-26T08:26:01.3Z</time></trkpt><trkpt lat="45.8045972" lon="11.8183916"><ele>181.0</ele><time>2026-04-26T08:26:02.299Z</time></trkpt><trkpt lat="45.8045366" lon="11.8184605"><ele>181.0</ele><time>2026-04-26T08:26:05.291Z</time></trkpt><trkpt lat="45.8044595" lon="11.8184202"><ele>181.0</ele><time>2026-04-26T08:26:17.303Z</time></trkpt><trkpt lat="45.804479" lon="11.818513"><ele>181.0</ele><time>2026-04-26T08:26:21.304Z</time></trkpt><trkpt lat="45.804546" lon="11.8184952"><ele>181.0</ele><time>2026-04-26T08:26:24.303Z</time></trkpt><trkpt lat="45.8045895" lon="11.8184046"><ele>181.0</ele><time>2026-04-26T08:26:27.289Z</time></trkpt><trkpt lat="45.8045905" lon="11.8182724"><ele>181.0</ele><time>2026-04-26T08:26:29.302Z</time></trkpt><trkpt lat="45.8046223" lon="11.8180972"><ele>181.0</ele><time>2026-04-26T08:26:31.297Z</time></trkpt><trkpt lat="45.8046805" lon="11.8179729"><ele>181.0</ele><time>2026-04-26T08:26:33.294Z</time></trkpt><trkpt lat="45.8047408" lon="11.817923"><ele>181.0</ele><time>2026-04-26T08:26:35.298Z</time></trkpt><trkpt lat="45.8048441" lon="11.8179683"><ele>181.0</ele><time>2026-04-26T08:26:37.291Z</time></trkpt><trkpt lat="45.8049478" lon="11.8180648"><ele>181.0</ele><time>2026-04-26T08:26:39.301Z</time></trkpt><trkpt lat="45.8050431" lon="11.8180912"><ele>181.0</ele><time>2026-04-26T08:26:41.306Z</time></trkpt><trkpt lat="45.8050866" lon="11.81799"><ele>181.0</ele><time>2026-04-26T08:26:43.304Z</time></trkpt><trkpt lat="45.805021" lon="11.8178566"><ele>181.0</ele><time>2026-04-26T08:26:45.303Z</time></trkpt><trkpt lat="45.8049493" lon="11.817789"><ele>181.0</ele><time>2026-04-26T08:26:46.293Z</time></trkpt><trkpt lat="45.8048659" lon="11.8177231"><ele>181.0</ele><time>2026-04-26T08:26:47.306Z</time></trkpt><trkpt lat="45.8048124" lon="11.8176588"><ele>181.0</ele><time>2026-04-26T08:26:48.293Z</time></trkpt><trkpt lat="45.804802" lon="11.8175558"><ele>181.0</ele><time>2026-04-26T08:26:50.298Z</time></trkpt><trkpt lat="45.8049328" lon="11.8175728"><ele>181.0</ele><time>2026-04-26T08:26:52.295Z</time></trkpt><trkpt lat="45.8050192" lon="11.8176445"><ele>181.0</ele><time>2026-04-26T08:26:53.295Z</time></trkpt><trkpt lat="45.8050957" lon="11.8177004"><ele>181.0</ele><time>2026-04-26T08:26:54.294Z</time></trkpt><trkpt lat="45.8051561" lon="11.8177334"><ele>181.0</ele><time>2026-04-26T08:26:55.306Z</time></trkpt><trkpt lat="45.8052417" lon="11.817693"><ele>181.0</ele><time>2026-04-26T08:26:57.298Z</time></trkpt><trkpt lat="45.8052636" lon="11.817607"><ele>181.0</ele><time>2026-04-26T08:26:58.308Z</time></trkpt><trkpt lat="45.8052681" lon="11.8175167"><ele>181.0</ele><time>2026-04-26T08:26:59.298Z</time></trkpt><trkpt lat="45.8052382" lon="11.8173756"><ele>181.0</ele><time>2026-04-26T08:27:01.301Z</time></trkpt><trkpt lat="45.8051617" lon="11.8174225"><ele>181.0</ele><time>2026-04-26T08:27:03.295Z</time></trkpt><trkpt lat="45.8051488" lon="11.8175234"><ele>181.0</ele><time>2026-04-26T08:27:04.295Z</time></trkpt><trkpt lat="45.8051487" lon="11.8176157"><ele>181.0</ele><time>2026-04-26T08:27:05.289Z</time></trkpt><trkpt lat="45.8051202" lon="11.8177223"><ele>181.0</ele><time>2026-04-26T08:27:07.294Z</time></trkpt><trkpt lat="45.8050562" lon="11.8176272"><ele>180.8</ele><time>2026-04-26T08:27:09.308Z</time></trkpt><trkpt lat="45.8050076" lon="11.8175015"><ele>180.60000000000002</ele><time>2026-04-26T08:27:10.293Z</time></trkpt><trkpt lat="45.80495" lon="11.8173794"><ele>180.4</ele><time>2026-04-26T08:27:11.293Z</time></trkpt><trkpt lat="45.8049091" lon="11.8172631"><ele>180.2</ele><time>2026-04-26T08:27:12.287Z</time></trkpt><trkpt lat="45.8049017" lon="11.8171513"><ele>180.0</ele><time>2026-04-26T08:27:13.302Z</time></trkpt><trkpt lat="45.8049141" lon="11.817035"><ele>180.0</ele><time>2026-04-26T08:27:14.302Z</time></trkpt><trkpt lat="45.8049504" lon="11.8168863"><ele>180.0</ele><time>2026-04-26T08:27:15.301Z</time></trkpt><trkpt lat="45.804993" lon="11.8167101"><ele>180.0</ele><time>2026-04-26T08:27:16.29Z</time></trkpt><trkpt lat="45.8050235" lon="11.81655"><ele>180.0</ele><time>2026-04-26T08:27:17.3Z</time></trkpt><trkpt lat="45.8050426" lon="11.8164022"><ele>180.16666666666666</ele><time>2026-04-26T08:27:18.291Z</time></trkpt><trkpt lat="45.8050652" lon="11.8162757"><ele>180.33333333333334</ele><time>2026-04-26T08:27:19.287Z</time></trkpt><trkpt lat="45.8050884" lon="11.8161686"><ele>180.5</ele><time>2026-04-26T08:27:20.293Z</time></trkpt><trkpt lat="45.8051188" lon="11.816072"><ele>180.66666666666669</ele><time>2026-04-26T08:27:21.301Z</time></trkpt><trkpt lat="45.8051692" lon="11.8160002"><ele>180.83333333333334</ele><time>2026-04-26T08:27:22.294Z</time></trkpt><trkpt lat="45.8053004" lon="11.8160307"><ele>181.0</ele><time>2026-04-26T08:27:24.293Z</time></trkpt><trkpt lat="45.8053729" lon="11.8160489"><ele>181.0</ele><time>2026-04-26T08:27:25.289Z</time></trkpt><trkpt lat="45.8054713" lon="11.816088"><ele>181.0</ele><time>2026-04-26T08:27:27.297Z</time></trkpt><trkpt lat="45.8055403" lon="11.8162587"><ele>181.0</ele><time>2026-04-26T08:27:29.318Z</time></trkpt><trkpt lat="45.805569" lon="11.8163862"><ele>181.0</ele><time>2026-04-26T08:27:30.296Z</time></trkpt><trkpt lat="45.8055855" lon="11.8165096"><ele>181.0</ele><time>2026-04-26T08:27:31.299Z</time></trkpt><trkpt lat="45.8055665" lon="11.8166203"><ele>181.0</ele><time>2026-04-26T08:27:32.297Z</time></trkpt><trkpt lat="45.8055148" lon="11.8167419"><ele>181.0</ele><time>2026-04-26T08:27:33.296Z</time></trkpt><trkpt lat="45.8054474" lon="11.8168671"><ele>181.0</ele><time>2026-04-26T08:27:34.295Z</time></trkpt><trkpt lat="45.8053843" lon="11.8169766"><ele>181.0</ele><time>2026-04-26T08:27:35.302Z</time></trkpt><trkpt lat="45.8053361" lon="11.8170601"><ele>181.0</ele><time>2026-04-26T08:27:36.298Z</time></trkpt><trkpt lat="45.8052547" lon="11.8171109"><ele>181.0</ele><time>2026-04-26T08:27:38.302Z</time></trkpt><trkpt lat="45.8052236" lon="11.8169269"><ele>181.0</ele><time>2026-04-26T08:27:40.305Z</time></trkpt><trkpt lat="45.8052528" lon="11.8167839"><ele>181.0</ele><time>2026-04-26T08:27:41.3Z</time></trkpt><trkpt lat="45.805295" lon="11.8166353"><ele>181.0</ele><time>2026-04-26T08:27:42.303Z</time></trkpt><trkpt lat="45.805337" lon="11.8164955"><ele>181.0</ele><time>2026-04-26T08:27:43.3Z</time></trkpt><trkpt lat="45.8053628" lon="11.8163774"><ele>181.0</ele><time>2026-04-26T08:27:44.305Z</time></trkpt><trkpt lat="45.8053751" lon="11.8162811"><ele>181.0</ele><time>2026-04-26T08:27:45.3Z</time></trkpt><trkpt lat="45.8053458" lon="11.8161683"><ele>181.0</ele><time>2026-04-26T08:27:47.3Z</time></trkpt><trkpt lat="45.8052821" lon="11.816233"><ele>181.0</ele><time>2026-04-26T08:27:49.292Z</time></trkpt><trkpt lat="45.8052563" lon="11.8163621"><ele>181.0</ele><time>2026-04-26T08:27:50.295Z</time></trkpt><trkpt lat="45.8052328" lon="11.8165311"><ele>181.0</ele><time>2026-04-26T08:27:51.281Z</time></trkpt><trkpt lat="45.8052065" lon="11.8167085"><ele>181.0</ele><time>2026-04-26T08:27:52.292Z</time></trkpt><trkpt lat="45.8051985" lon="11.8168536"><ele>181.0</ele><time>2026-04-26T08:27:53.281Z</time></trkpt><trkpt lat="45.8051964" lon="11.8169791"><ele>181.0</ele><time>2026-04-26T08:27:54.292Z</time></trkpt><trkpt lat="45.8052042" lon="11.8170912"><ele>181.0</ele><time>2026-04-26T08:27:55.285Z</time></trkpt><trkpt lat="45.8052387" lon="11.8171868"><ele>181.16666666666669</ele><time>2026-04-26T08:27:56.302Z</time></trkpt><trkpt lat="45.8052888" lon="11.8172854"><ele>181.33333333333334</ele><time>2026-04-26T08:27:57.292Z</time></trkpt><trkpt lat="45.8053476" lon="11.8173777"><ele>181.5</ele><time>2026-04-26T08:27:58.306Z</time></trkpt><trkpt lat="45.8053919" lon="11.8174616"><ele>181.66666666666666</ele><time>2026-04-26T08:27:59.295Z</time></trkpt><trkpt lat="45.8054144" lon="11.8175871"><ele>181.83333333333331</ele><time>2026-04-26T08:28:01.298Z</time></trkpt><trkpt lat="45.805335" lon="11.8176739"><ele>182.0</ele><time>2026-04-26T08:28:03.299Z</time></trkpt><trkpt lat="45.8052795" lon="11.8177285"><ele>182.0</ele><time>2026-04-26T08:28:04.287Z</time></trkpt><trkpt lat="45.8052423" lon="11.8178016"><ele>182.0</ele><time>2026-04-26T08:28:05.296Z</time></trkpt><trkpt lat="45.8052101" lon="11.8179084"><ele>182.0</ele><time>2026-04-26T08:28:06.292Z</time></trkpt><trkpt lat="45.8051789" lon="11.8180121"><ele>182.0</ele><time>2026-04-26T08:28:07.304Z</time></trkpt><trkpt lat="45.8051535" lon="11.8181052"><ele>182.0</ele><time>2026-04-26T08:28:08.297Z</time></trkpt><trkpt lat="45.8051255" lon="11.818194"><ele>182.0</ele><time>2026-04-26T08:28:09.298Z</time></trkpt><trkpt lat="45.8050486" lon="11.818327"><ele>182.0</ele><time>2026-04-26T08:28:11.298Z</time></trkpt><trkpt lat="45.8049507" lon="11.8184327"><ele>182.0</ele><time>2026-04-26T08:28:13.301Z</time></trkpt><trkpt lat="45.8048593" lon="11.8185131"><ele>182.0</ele><time>2026-04-26T08:28:15.303Z</time></trkpt><trkpt lat="45.8048248" lon="11.818337"><ele>182.0</ele><time>2026-04-26T08:28:18.297Z</time></trkpt><trkpt lat="45.8047998" lon="11.8182358"><ele>182.0</ele><time>2026-04-26T08:28:19.289Z</time></trkpt><trkpt lat="45.8047748" lon="11.8181108"><ele>181.8</ele><time>2026-04-26T08:28:20.294Z</time></trkpt><trkpt lat="45.8047223" lon="11.8180379"><ele>181.6</ele><time>2026-04-26T08:28:22.298Z</time></trkpt><trkpt lat="45.8046632" lon="11.818215"><ele>181.4</ele><time>2026-04-26T08:28:24.285Z</time></trkpt><trkpt lat="45.8046315" lon="11.81834"><ele>181.20000000000002</ele><time>2026-04-26T08:28:25.291Z</time></trkpt><trkpt lat="45.8045901" lon="11.8184185"><ele>181.0</ele><time>2026-04-26T08:28:26.296Z</time></trkpt><trkpt lat="45.804683" lon="11.8184525"><ele>181.16666666666669</ele><time>2026-04-26T08:46:28.286Z</time></trkpt><trkpt lat="45.8047855" lon="11.8185015"><ele>181.33333333333334</ele><time>2026-04-26T08:46:30.293Z</time></trkpt><trkpt lat="45.804856" lon="11.8185283"><ele>181.5</ele><time>2026-04-26T08:46:31.294Z</time></trkpt><trkpt lat="45.804918" lon="11.8185636"><ele>181.66666666666666</ele><time>2026-04-26T08:46:32.292Z</time></trkpt><trkpt lat="45.8050197" lon="11.8185777"><ele>181.83333333333331</ele><time>2026-04-26T08:46:34.284Z</time></trkpt><trkpt lat="45.8051019" lon="11.8185191"><ele>182.0</ele><time>2026-04-26T08:46:36.287Z</time></trkpt><trkpt lat="45.8051903" lon="11.8184194"><ele>182.0</ele><time>2026-04-26T08:46:38.289Z</time></trkpt><trkpt lat="45.8052834" lon="11.8182849"><ele>182.0</ele><time>2026-04-26T08:46:40.284Z</time></trkpt><trkpt lat="45.8053244" lon="11.8182075"><ele>182.0</ele><time>2026-04-26T08:46:41.296Z</time></trkpt><trkpt lat="45.8053431" lon="11.8180984"><ele>182.0</ele><time>2026-04-26T08:46:42.291Z</time></trkpt><trkpt lat="45.80536" lon="11.8179724"><ele>182.0</ele><time>2026-04-26T08:46:43.297Z</time></trkpt><trkpt lat="45.8053699" lon="11.817854"><ele>182.0</ele><time>2026-04-26T08:46:44.294Z</time></trkpt><trkpt lat="45.8053825" lon="11.8177383"><ele>182.0</ele><time>2026-04-26T08:46:45.291Z</time></trkpt><trkpt lat="45.8053959" lon="11.8176266"><ele>182.0</ele><time>2026-04-26T08:46:46.275Z</time></trkpt><trkpt lat="45.8054112" lon="11.8175119"><ele>182.0</ele><time>2026-04-26T08:46:47.284Z</time></trkpt><trkpt lat="45.8054291" lon="11.8173973"><ele>182.0</ele><time>2026-04-26T08:46:48.287Z</time></trkpt><trkpt lat="45.8054442" lon="11.8172899"><ele>182.0</ele><time>2026-04-26T08:46:49.285Z</time></trkpt><trkpt lat="45.805458" lon="11.8171777"><ele>182.0</ele><time>2026-04-26T08:46:50.291Z</time></trkpt><trkpt lat="45.805471" lon="11.8170747"><ele>182.0</ele><time>2026-04-26T08:46:51.296Z</time></trkpt><trkpt lat="45.8054817" lon="11.8169629"><ele>182.0</ele><time>2026-04-26T08:46:52.286Z</time></trkpt><trkpt lat="45.805497" lon="11.8168533"><ele>182.0</ele><time>2026-04-26T08:46:53.298Z</time></trkpt><trkpt lat="45.8055075" lon="11.8167476"><ele>182.0</ele><time>2026-04-26T08:46:54.29Z</time></trkpt><trkpt lat="45.8055195" lon="11.8166471"><ele>182.0</ele><time>2026-04-26T08:46:55.299Z</time></trkpt><trkpt lat="45.8055302" lon="11.8165489"><ele>182.0</ele><time>2026-04-26T08:46:56.296Z</time></trkpt><trkpt lat="45.805544" lon="11.8164452"><ele>181.83333333333331</ele><time>2026-04-26T08:46:57.298Z</time></trkpt><trkpt lat="45.805556" lon="11.8163496"><ele>181.66666666666666</ele><time>2026-04-26T08:46:58.298Z</time></trkpt><trkpt lat="45.8055901" lon="11.8161875"><ele>181.5</ele><time>2026-04-26T08:47:00.296Z</time></trkpt><trkpt lat="45.805612" lon="11.8160415"><ele>181.33333333333334</ele><time>2026-04-26T08:47:02.295Z</time></trkpt><trkpt lat="45.8056129" lon="11.815936"><ele>181.16666666666669</ele><time>2026-04-26T08:47:04.31Z</time></trkpt><trkpt lat="45.8056164" lon="11.8160272"><ele>181.0</ele><time>2026-04-26T08:49:10.301Z</time></trkpt><trkpt lat="45.8055942" lon="11.8161726"><ele>181.0</ele><time>2026-04-26T08:49:12.298Z</time></trkpt><trkpt lat="45.8055763" lon="11.8162797"><ele>181.0</ele><time>2026-04-26T08:49:13.292Z</time></trkpt><trkpt lat="45.8055569" lon="11.8163983"><ele>181.0</ele><time>2026-04-26T08:49:14.294Z</time></trkpt><trkpt lat="45.8055395" lon="11.816526"><ele>181.0</ele><time>2026-04-26T08:49:15.295Z</time></trkpt><trkpt lat="45.8055217" lon="11.8166683"><ele>181.0</ele><time>2026-04-26T08:49:16.292Z</time></trkpt><trkpt lat="45.8054979" lon="11.8168246"><ele>181.20000000000002</ele><time>2026-04-26T08:49:17.3Z</time></trkpt><trkpt lat="45.8054767" lon="11.8169758"><ele>181.4</ele><time>2026-04-26T08:49:18.293Z</time></trkpt><trkpt lat="45.8054513" lon="11.8171116"><ele>181.6</ele><time>2026-04-26T08:49:19.3Z</time></trkpt><trkpt lat="45.8054301" lon="11.8172465"><ele>181.8</ele><time>2026-04-26T08:49:20.292Z</time></trkpt><trkpt lat="45.8054068" lon="11.8173716"><ele>182.0</ele><time>2026-04-26T08:49:21.297Z</time></trkpt><trkpt lat="45.8053833" lon="11.817489"><ele>182.0</ele><time>2026-04-26T08:49:22.297Z</time></trkpt><trkpt lat="45.8053584" lon="11.8175961"><ele>182.0</ele><time>2026-04-26T08:49:23.294Z</time></trkpt><trkpt lat="45.8053282" lon="11.8176844"><ele>182.0</ele><time>2026-04-26T08:49:24.294Z</time></trkpt><trkpt lat="45.8052783" lon="11.8177565"><ele>182.0</ele><time>2026-04-26T08:49:25.3Z</time></trkpt><trkpt lat="45.8052248" lon="11.8178424"><ele>182.0</ele><time>2026-04-26T08:49:26.289Z</time></trkpt><trkpt lat="45.8051872" lon="11.8179482"><ele>182.0</ele><time>2026-04-26T08:49:27.294Z</time></trkpt><trkpt lat="45.8051582" lon="11.8180666"><ele>181.85714285714286</ele><time>2026-04-26T08:49:28.288Z</time></trkpt><trkpt lat="45.8051248" lon="11.8181732"><ele>181.71428571428572</ele><time>2026-04-26T08:49:29.286Z</time></trkpt><trkpt lat="45.8050833" lon="11.8182559"><ele>181.57142857142856</ele><time>2026-04-26T08:49:30.292Z</time></trkpt><trkpt lat="45.8050362" lon="11.8183226"><ele>181.42857142857144</ele><time>2026-04-26T08:49:31.298Z</time></trkpt><trkpt lat="45.8049839" lon="11.8183773"><ele>181.28571428571428</ele><time>2026-04-26T08:49:32.292Z</time></trkpt><trkpt lat="45.8049312" lon="11.8184331"><ele>181.14285714285714</ele><time>2026-04-26T08:49:33.294Z</time></trkpt><trkpt lat="45.8048526" lon="11.8184446"><ele>181.0</ele><time>2026-04-26T08:49:35.303Z</time></trkpt><trkpt lat="45.8048328" lon="11.8183467"><ele>181.0</ele><time>2026-04-26T08:49:36.291Z</time></trkpt><trkpt lat="45.804815" lon="11.8181935"><ele>181.0</ele><time>2026-04-26T08:49:37.29Z</time></trkpt><trkpt lat="45.8047989" lon="11.8180648"><ele>181.0</ele><time>2026-04-26T08:49:38.286Z</time></trkpt><trkpt lat="45.8047384" lon="11.8179899"><ele>181.0</ele><time>2026-04-26T08:49:40.291Z</time></trkpt><trkpt lat="45.8046662" lon="11.8181583"><ele>181.0</ele><time>2026-04-26T08:49:42.297Z</time></trkpt><trkpt lat="45.8046318" lon="11.8182811"><ele>181.0</ele><time>2026-04-26T08:49:43.295Z</time></trkpt><trkpt lat="45.804597" lon="11.8183754"><ele>181.0</ele><time>2026-04-26T08:49:44.291Z</time></trkpt><trkpt lat="45.8045947" lon="11.8182189"><ele>181.0</ele><time>2026-04-26T08:49:48.293Z</time></trkpt><trkpt lat="45.8046505" lon="11.8180851"><ele>181.0</ele><time>2026-04-26T08:49:49.295Z</time></trkpt><trkpt lat="45.8046959" lon="11.8179835"><ele>181.0</ele><time>2026-04-26T08:49:50.289Z</time></trkpt><trkpt lat="45.8047488" lon="11.8179264"><ele>181.0</ele><time>2026-04-26T08:49:51.294Z</time></trkpt><trkpt lat="45.8048815" lon="11.8179713"><ele>181.0</ele><time>2026-04-26T08:49:53.298Z</time></trkpt><trkpt lat="45.8049568" lon="11.8180426"><ele>181.0</ele><time>2026-04-26T08:49:54.296Z</time></trkpt><trkpt lat="45.8050623" lon="11.8180604"><ele>181.0</ele><time>2026-04-26T08:49:56.295Z</time></trkpt><trkpt lat="45.8051049" lon="11.8179456"><ele>181.0</ele><time>2026-04-26T08:49:58.293Z</time></trkpt><trkpt lat="45.8050755" lon="11.8178593"><ele>181.0</ele><time>2026-04-26T08:49:59.299Z</time></trkpt><trkpt lat="45.8049975" lon="11.8177771"><ele>181.0</ele><time>2026-04-26T08:50:00.293Z</time></trkpt><trkpt lat="45.8049073" lon="11.8177009"><ele>181.0</ele><time>2026-04-26T08:50:01.296Z</time></trkpt><trkpt lat="45.8048576" lon="11.8176296"><ele>181.0</ele><time>2026-04-26T08:50:02.288Z</time></trkpt><trkpt lat="45.8049871" lon="11.8176488"><ele>181.0</ele><time>2026-04-26T08:50:05.293Z</time></trkpt><trkpt lat="45.8050789" lon="11.8177059"><ele>181.0</ele><time>2026-04-26T08:50:06.292Z</time></trkpt><trkpt lat="45.8051548" lon="11.8177558"><ele>181.16666666666669</ele><time>2026-04-26T08:50:07.298Z</time></trkpt><trkpt lat="45.8052201" lon="11.8177365"><ele>181.33333333333334</ele><time>2026-04-26T08:50:09.301Z</time></trkpt><trkpt lat="45.8052486" lon="11.8175398"><ele>181.5</ele><time>2026-04-26T08:50:11.281Z</time></trkpt><trkpt lat="45.8052479" lon="11.8174315"><ele>181.66666666666666</ele><time>2026-04-26T08:50:12.291Z</time></trkpt><trkpt lat="45.8052147" lon="11.817344"><ele>181.83333333333331</ele><time>2026-04-26T08:50:14.289Z</time></trkpt><trkpt lat="45.8051552" lon="11.8174491"><ele>182.0</ele><time>2026-04-26T08:50:16.292Z</time></trkpt><trkpt lat="45.8051558" lon="11.8175516"><ele>181.8</ele><time>2026-04-26T08:50:17.294Z</time></trkpt><trkpt lat="45.805116" lon="11.8176829"><ele>181.6</ele><time>2026-04-26T08:50:19.297Z</time></trkpt><trkpt lat="45.8050287" lon="11.8175959"><ele>181.4</ele><time>2026-04-26T08:50:21.299Z</time></trkpt><trkpt lat="45.8049805" lon="11.8174886"><ele>181.20000000000002</ele><time>2026-04-26T08:50:22.292Z</time></trkpt><trkpt lat="45.8049248" lon="11.8173619"><ele>181.0</ele><time>2026-04-26T08:50:23.295Z</time></trkpt><trkpt lat="45.8048958" lon="11.8172214"><ele>181.0</ele><time>2026-04-26T08:50:24.295Z</time></trkpt><trkpt lat="45.8049157" lon="11.8170801"><ele>181.0</ele><time>2026-04-26T08:50:25.295Z</time></trkpt><trkpt lat="45.8049543" lon="11.8169132"><ele>181.0</ele><time>2026-04-26T08:50:26.301Z</time></trkpt><trkpt lat="45.8050006" lon="11.8167111"><ele>181.0</ele><time>2026-04-26T08:50:27.296Z</time></trkpt><trkpt lat="45.8050367" lon="11.8165183"><ele>181.0</ele><time>2026-04-26T08:50:28.301Z</time></trkpt><trkpt lat="45.8050642" lon="11.8163523"><ele>181.0</ele><time>2026-04-26T08:50:29.287Z</time></trkpt><trkpt lat="45.805091" lon="11.8161931"><ele>181.0</ele><time>2026-04-26T08:50:30.296Z</time></trkpt><trkpt lat="45.805125" lon="11.8160741"><ele>181.0</ele><time>2026-04-26T08:50:31.296Z</time></trkpt><trkpt lat="45.8051749" lon="11.8159948"><ele>181.0</ele><time>2026-04-26T08:50:32.301Z</time></trkpt><trkpt lat="45.8052569" lon="11.8159799"><ele>181.0</ele><time>2026-04-26T08:50:33.283Z</time></trkpt><trkpt lat="45.8053419" lon="11.815981"><ele>181.0</ele><time>2026-04-26T08:50:34.291Z</time></trkpt><trkpt lat="45.805411" lon="11.8159924"><ele>181.0</ele><time>2026-04-26T08:50:35.293Z</time></trkpt><trkpt lat="45.8054709" lon="11.8160563"><ele>181.0</ele><time>2026-04-26T08:50:36.3Z</time></trkpt><trkpt lat="45.8055193" lon="11.8161749"><ele>181.0</ele><time>2026-04-26T08:50:37.291Z</time></trkpt><trkpt lat="45.8055484" lon="11.8163303"><ele>181.0</ele><time>2026-04-26T08:50:38.293Z</time></trkpt><trkpt lat="45.8055633" lon="11.816491"><ele>181.0</ele><time>2026-04-26T08:50:39.291Z</time></trkpt><trkpt lat="45.8055495" lon="11.8166343"><ele>181.0</ele><time>2026-04-26T08:50:40.305Z</time></trkpt><trkpt lat="45.8055171" lon="11.8167654"><ele>181.0</ele><time>2026-04-26T08:50:41.291Z</time></trkpt><trkpt lat="45.80545" lon="11.8168836"><ele>181.0</ele><time>2026-04-26T08:50:42.292Z</time></trkpt><trkpt lat="45.8053843" lon="11.8169962"><ele>181.0</ele><time>2026-04-26T08:50:43.289Z</time></trkpt><trkpt lat="45.8053244" lon="11.8170898"><ele>181.0</ele><time>2026-04-26T08:50:44.299Z</time></trkpt><trkpt lat="45.8052539" lon="11.817039"><ele>181.0</ele><time>2026-04-26T08:50:46.3Z</time></trkpt><trkpt lat="45.8052517" lon="11.8169277"><ele>181.0</ele><time>2026-04-26T08:50:47.289Z</time></trkpt><trkpt lat="45.8052654" lon="11.8167972"><ele>181.0</ele><time>2026-04-26T08:50:48.292Z</time></trkpt><trkpt lat="45.8053135" lon="11.8166281"><ele>181.0</ele><time>2026-04-26T08:50:49.288Z</time></trkpt><trkpt lat="45.8053489" lon="11.8164853"><ele>181.0</ele><time>2026-04-26T08:50:50.29Z</time></trkpt><trkpt lat="45.8053807" lon="11.8163672"><ele>181.0</ele><time>2026-04-26T08:50:51.287Z</time></trkpt><trkpt lat="45.8053995" lon="11.8162749"><ele>181.0</ele><time>2026-04-26T08:50:52.295Z</time></trkpt><trkpt lat="45.8053675" lon="11.8161778"><ele>181.0</ele><time>2026-04-26T08:50:54.294Z</time></trkpt><trkpt lat="45.8052809" lon="11.81627"><ele>181.0</ele><time>2026-04-26T08:50:56.295Z</time></trkpt><trkpt lat="45.8052369" lon="11.8163871"><ele>181.0</ele><time>2026-04-26T08:50:57.288Z</time></trkpt><trkpt lat="45.8051897" lon="11.8165392"><ele>181.0</ele><time>2026-04-26T08:50:58.294Z</time></trkpt><trkpt lat="45.8051545" lon="11.816737"><ele>181.0</ele><time>2026-04-26T08:50:59.29Z</time></trkpt><trkpt lat="45.8051438" lon="11.8169152"><ele>181.0</ele><time>2026-04-26T08:51:00.295Z</time></trkpt><trkpt lat="45.8051545" lon="11.81706"><ele>181.0</ele><time>2026-04-26T08:51:01.293Z</time></trkpt><trkpt lat="45.8051809" lon="11.8171847"><ele>181.20000000000002</ele><time>2026-04-26T08:51:02.299Z</time></trkpt><trkpt lat="45.8052238" lon="11.8172923"><ele>181.4</ele><time>2026-04-26T08:51:03.289Z</time></trkpt><trkpt lat="45.8053001" lon="11.8174036"><ele>181.6</ele><time>2026-04-26T08:51:04.291Z</time></trkpt><trkpt lat="45.8053635" lon="11.8175065"><ele>181.8</ele><time>2026-04-26T08:51:05.287Z</time></trkpt><trkpt lat="45.8053871" lon="11.8176286"><ele>182.0</ele><time>2026-04-26T08:51:07.29Z</time></trkpt><trkpt lat="45.8052891" lon="11.8177159"><ele>182.0</ele><time>2026-04-26T08:51:09.285Z</time></trkpt><trkpt lat="45.805232" lon="11.8177993"><ele>182.0</ele><time>2026-04-26T08:51:10.29Z</time></trkpt><trkpt lat="45.8051916" lon="11.8179023"><ele>182.0</ele><time>2026-04-26T08:51:11.303Z</time></trkpt><trkpt lat="45.8051628" lon="11.8180139"><ele>182.0</ele><time>2026-04-26T08:51:12.285Z</time></trkpt><trkpt lat="45.8051273" lon="11.8181115"><ele>182.0</ele><time>2026-04-26T08:51:13.296Z</time></trkpt><trkpt lat="45.805098" lon="11.8181978"><ele>182.0</ele><time>2026-04-26T08:51:14.29Z</time></trkpt><trkpt lat="45.8050629" lon="11.8182738"><ele>181.83333333333331</ele><time>2026-04-26T08:51:15.299Z</time></trkpt><trkpt lat="45.8050172" lon="11.8183507"><ele>181.66666666666666</ele><time>2026-04-26T08:51:16.291Z</time></trkpt><trkpt lat="45.8049599" lon="11.8184029"><ele>181.5</ele><time>2026-04-26T08:51:17.297Z</time></trkpt><trkpt lat="45.8048755" lon="11.8184611"><ele>181.33333333333334</ele><time>2026-04-26T08:51:19.301Z</time></trkpt><trkpt lat="45.8048118" lon="11.8183701"><ele>181.16666666666669</ele><time>2026-04-26T08:51:21.294Z</time></trkpt><trkpt lat="45.804786" lon="11.8182388"><ele>181.0</ele><time>2026-04-26T08:51:22.292Z</time></trkpt><trkpt lat="45.8047766" lon="11.8181204"><ele>181.0</ele><time>2026-04-26T08:51:23.274Z</time></trkpt><trkpt lat="45.8047605" lon="11.818031"><ele>181.0</ele><time>2026-04-26T08:51:24.294Z</time></trkpt><trkpt lat="45.8046883" lon="11.8179666"><ele>181.0</ele><time>2026-04-26T08:51:26.296Z</time></trkpt><trkpt lat="45.8046278" lon="11.8181204"><ele>181.0</ele><time>2026-04-26T08:51:28.289Z</time></trkpt><trkpt lat="45.8046144" lon="11.818241"><ele>181.0</ele><time>2026-04-26T08:51:29.281Z</time></trkpt><trkpt lat="45.8045931" lon="11.8183565"><ele>181.0</ele><time>2026-04-26T08:51:30.3Z</time></trkpt><trkpt lat="45.8045475" lon="11.818476"><ele>181.0</ele><time>2026-04-26T08:51:32.29Z</time></trkpt><trkpt lat="45.8045392" lon="11.8183857"><ele>181.0</ele><time>2026-04-26T08:54:37.294Z</time></trkpt><trkpt lat="45.8045981" lon="11.8183184"><ele>181.0</ele><time>2026-04-26T08:54:41.286Z</time></trkpt><trkpt lat="45.8046512" lon="11.818244"><ele>181.0</ele><time>2026-04-26T08:54:43.289Z</time></trkpt><trkpt lat="45.804679" lon="11.8181611"><ele>181.0</ele><time>2026-04-26T08:54:44.288Z</time></trkpt><trkpt lat="45.8047094" lon="11.8180753"><ele>181.0</ele><time>2026-04-26T08:54:45.286Z</time></trkpt><trkpt lat="45.8047874" lon="11.8179913"><ele>181.0</ele><time>2026-04-26T08:54:47.291Z</time></trkpt><trkpt lat="45.8048288" lon="11.8181352"><ele>181.0</ele><time>2026-04-26T08:54:49.279Z</time></trkpt><trkpt lat="45.8048486" lon="11.8182534"><ele>181.0</ele><time>2026-04-26T08:54:50.292Z</time></trkpt><trkpt lat="45.804872" lon="11.818345"><ele>181.0</ele><time>2026-04-26T08:54:51.29Z</time></trkpt><trkpt lat="45.8049556" lon="11.8183546"><ele>181.0</ele><time>2026-04-26T08:54:54.291Z</time></trkpt><trkpt lat="45.8050082" lon="11.818268"><ele>181.0</ele><time>2026-04-26T08:54:55.273Z</time></trkpt><trkpt lat="45.8050639" lon="11.8182093"><ele>181.0</ele><time>2026-04-26T08:54:56.281Z</time></trkpt><trkpt lat="45.8051031" lon="11.8181277"><ele>181.0</ele><time>2026-04-26T08:54:57.277Z</time></trkpt><trkpt lat="45.8051475" lon="11.8180342"><ele>181.0</ele><time>2026-04-26T08:54:58.28Z</time></trkpt><trkpt lat="45.8052137" lon="11.8179036"><ele>181.0</ele><time>2026-04-26T08:55:00.293Z</time></trkpt><trkpt lat="45.8052452" lon="11.8178253"><ele>181.0</ele><time>2026-04-26T08:55:01.282Z</time></trkpt><trkpt lat="45.8052677" lon="11.8177271"><ele>181.0</ele><time>2026-04-26T08:55:02.295Z</time></trkpt><trkpt lat="45.8052963" lon="11.8176424"><ele>181.0</ele><time>2026-04-26T08:55:03.287Z</time></trkpt><trkpt lat="45.8053668" lon="11.8174974"><ele>181.20000000000002</ele><time>2026-04-26T08:55:05.286Z</time></trkpt><trkpt lat="45.8054377" lon="11.817378"><ele>181.4</ele><time>2026-04-26T08:55:07.28Z</time></trkpt><trkpt lat="45.8054003" lon="11.817275"><ele>181.6</ele><time>2026-04-26T08:55:10.294Z</time></trkpt><trkpt lat="45.8053418" lon="11.8172009"><ele>181.8</ele><time>2026-04-26T08:55:12.29Z</time></trkpt><trkpt lat="45.8052507" lon="11.8170643"><ele>182.0</ele><time>2026-04-26T08:55:14.289Z</time></trkpt><trkpt lat="45.8052164" lon="11.8169702"><ele>182.0</ele><time>2026-04-26T08:55:15.302Z</time></trkpt><trkpt lat="45.8051985" lon="11.816851"><ele>182.0</ele><time>2026-04-26T08:55:16.28Z</time></trkpt><trkpt lat="45.8051833" lon="11.8167276"><ele>182.0</ele><time>2026-04-26T08:55:17.288Z</time></trkpt><trkpt lat="45.8051803" lon="11.8166066"><ele>182.0</ele><time>2026-04-26T08:55:18.299Z</time></trkpt><trkpt lat="45.8051865" lon="11.8165036"><ele>182.0</ele><time>2026-04-26T08:55:19.286Z</time></trkpt><trkpt lat="45.8051951" lon="11.8164108"><ele>182.0</ele><time>2026-04-26T08:55:20.293Z</time></trkpt><trkpt lat="45.8052358" lon="11.8163037"><ele>182.0</ele><time>2026-04-26T08:55:22.302Z</time></trkpt><trkpt lat="45.8052832" lon="11.8163906"><ele>182.0</ele><time>2026-04-26T08:57:17.305Z</time></trkpt><trkpt lat="45.8053365" lon="11.8164469"><ele>182.0</ele><time>2026-04-26T08:57:23.299Z</time></trkpt><trkpt lat="45.8053808" lon="11.8165377"><ele>182.0</ele><time>2026-04-26T08:57:25.293Z</time></trkpt><trkpt lat="45.8053798" lon="11.8166473"><ele>182.0</ele><time>2026-04-26T08:57:26.307Z</time></trkpt><trkpt lat="45.8053467" lon="11.8167913"><ele>182.0</ele><time>2026-04-26T08:57:27.295Z</time></trkpt><trkpt lat="45.8053029" lon="11.8169241"><ele>182.0</ele><time>2026-04-26T08:57:28.302Z</time></trkpt><trkpt lat="45.8052874" lon="11.8170621"><ele>182.0</ele><time>2026-04-26T08:57:30.309Z</time></trkpt><trkpt lat="45.805356" lon="11.8170257"><ele>182.0</ele><time>2026-04-26T08:57:33.311Z</time></trkpt><trkpt lat="45.8053815" lon="11.8169028"><ele>182.0</ele><time>2026-04-26T08:57:34.314Z</time></trkpt><trkpt lat="45.8054294" lon="11.8167473"><ele>182.0</ele><time>2026-04-26T08:57:35.294Z</time></trkpt><trkpt lat="45.8054762" lon="11.8165912"><ele>181.8</ele><time>2026-04-26T08:57:36.306Z</time></trkpt><trkpt lat="45.8055069" lon="11.8164417"><ele>181.6</ele><time>2026-04-26T08:57:37.304Z</time></trkpt><trkpt lat="45.8055176" lon="11.8162944"><ele>181.4</ele><time>2026-04-26T08:57:38.311Z</time></trkpt><trkpt lat="45.8054966" lon="11.8161553"><ele>181.20000000000002</ele><time>2026-04-26T08:57:39.301Z</time></trkpt><trkpt lat="45.8054441" lon="11.8160306"><ele>181.0</ele><time>2026-04-26T08:57:40.308Z</time></trkpt><trkpt lat="45.8053663" lon="11.8159793"><ele>181.0</ele><time>2026-04-26T08:57:41.305Z</time></trkpt><trkpt lat="45.8052857" lon="11.8159897"><ele>181.0</ele><time>2026-04-26T08:57:42.31Z</time></trkpt><trkpt lat="45.8051975" lon="11.8160499"><ele>181.0</ele><time>2026-04-26T08:57:43.291Z</time></trkpt><trkpt lat="45.8051253" lon="11.8160973"><ele>181.0</ele><time>2026-04-26T08:57:44.306Z</time></trkpt><trkpt lat="45.8050568" lon="11.8161758"><ele>181.0</ele><time>2026-04-26T08:57:45.303Z</time></trkpt><trkpt lat="45.8050008" lon="11.8163191"><ele>181.0</ele><time>2026-04-26T08:57:46.299Z</time></trkpt><trkpt lat="45.8049875" lon="11.8165212"><ele>181.0</ele><time>2026-04-26T08:57:47.291Z</time></trkpt><trkpt lat="45.8049844" lon="11.8167245"><ele>181.0</ele><time>2026-04-26T08:57:48.297Z</time></trkpt><trkpt lat="45.8049679" lon="11.816925"><ele>181.0</ele><time>2026-04-26T08:57:49.296Z</time></trkpt><trkpt lat="45.8049423" lon="11.8170978"><ele>181.0</ele><time>2026-04-26T08:57:50.308Z</time></trkpt><trkpt lat="45.804911" lon="11.8172316"><ele>181.0</ele><time>2026-04-26T08:57:51.301Z</time></trkpt><trkpt lat="45.8048981" lon="11.8173442"><ele>181.0</ele><time>2026-04-26T08:57:52.314Z</time></trkpt><trkpt lat="45.8049084" lon="11.8174499"><ele>181.0</ele><time>2026-04-26T08:57:53.318Z</time></trkpt><trkpt lat="45.8049354" lon="11.817546"><ele>181.0</ele><time>2026-04-26T08:57:54.304Z</time></trkpt><trkpt lat="45.8049822" lon="11.8176256"><ele>181.0</ele><time>2026-04-26T08:57:55.3Z</time></trkpt><trkpt lat="45.8050283" lon="11.8176927"><ele>181.0</ele><time>2026-04-26T08:57:56.298Z</time></trkpt><trkpt lat="45.8051228" lon="11.8177647"><ele>181.0</ele><time>2026-04-26T08:57:58.305Z</time></trkpt><trkpt lat="45.8051631" lon="11.8176321"><ele>181.0</ele><time>2026-04-26T08:58:00.305Z</time></trkpt><trkpt lat="45.8051603" lon="11.8175084"><ele>181.0</ele><time>2026-04-26T08:58:01.305Z</time></trkpt><trkpt lat="45.8052017" lon="11.8174195"><ele>181.0</ele><time>2026-04-26T08:58:03.307Z</time></trkpt><trkpt lat="45.8052409" lon="11.8175327"><ele>181.0</ele><time>2026-04-26T08:58:05.297Z</time></trkpt><trkpt lat="45.8052473" lon="11.8176265"><ele>181.0</ele><time>2026-04-26T08:58:06.303Z</time></trkpt><trkpt lat="45.8052318" lon="11.8177223"><ele>181.0</ele><time>2026-04-26T08:58:07.301Z</time></trkpt><trkpt lat="45.8051572" lon="11.8177615"><ele>181.0</ele><time>2026-04-26T08:58:09.307Z</time></trkpt><trkpt lat="45.8050487" lon="11.8177084"><ele>181.0</ele><time>2026-04-26T08:58:11.296Z</time></trkpt><trkpt lat="45.8049675" lon="11.8176512"><ele>181.0</ele><time>2026-04-26T08:58:12.298Z</time></trkpt><trkpt lat="45.804887" lon="11.8176089"><ele>181.0</ele><time>2026-04-26T08:58:13.299Z</time></trkpt><trkpt lat="45.8048042" lon="11.8176404"><ele>181.0</ele><time>2026-04-26T08:58:15.299Z</time></trkpt><trkpt lat="45.8049111" lon="11.8178041"><ele>181.0</ele><time>2026-04-26T08:58:17.298Z</time></trkpt><trkpt lat="45.8050025" lon="11.8178758"><ele>181.0</ele><time>2026-04-26T08:58:18.302Z</time></trkpt><trkpt lat="45.8050753" lon="11.8179436"><ele>181.0</ele><time>2026-04-26T08:58:19.307Z</time></trkpt><trkpt lat="45.8051009" lon="11.8180547"><ele>181.0</ele><time>2026-04-26T08:58:21.306Z</time></trkpt><trkpt lat="45.8049842" lon="11.8180633"><ele>181.0</ele><time>2026-04-26T08:58:23.306Z</time></trkpt><trkpt lat="45.8048978" lon="11.8179864"><ele>181.0</ele><time>2026-04-26T08:58:24.298Z</time></trkpt><trkpt lat="45.8047969" lon="11.8179256"><ele>181.0</ele><time>2026-04-26T08:58:25.303Z</time></trkpt><trkpt lat="45.8047174" lon="11.8179083"><ele>181.0</ele><time>2026-04-26T08:58:26.305Z</time></trkpt><trkpt lat="45.8046286" lon="11.8180252"><ele>181.0</ele><time>2026-04-26T08:58:28.313Z</time></trkpt><trkpt lat="45.8045895" lon="11.8181561"><ele>181.0</ele><time>2026-04-26T08:58:29.305Z</time></trkpt><trkpt lat="45.8045617" lon="11.818288"><ele>181.0</ele><time>2026-04-26T08:58:30.305Z</time></trkpt><trkpt lat="45.8045452" lon="11.8183805"><ele>181.0</ele><time>2026-04-26T08:58:31.304Z</time></trkpt><trkpt lat="45.8046295" lon="11.8181989"><ele>181.0</ele><time>2026-04-26T08:58:36.304Z</time></trkpt><trkpt lat="45.8046834" lon="11.8180852"><ele>181.0</ele><time>2026-04-26T08:58:37.307Z</time></trkpt><trkpt lat="45.804728" lon="11.8180109"><ele>181.0</ele><time>2026-04-26T08:58:38.312Z</time></trkpt><trkpt lat="45.8048107" lon="11.8180935"><ele>181.0</ele><time>2026-04-26T08:58:40.311Z</time></trkpt><trkpt lat="45.8048372" lon="11.8181973"><ele>181.0</ele><time>2026-04-26T08:58:41.304Z</time></trkpt><trkpt lat="45.8048623" lon="11.8183109"><ele>181.0</ele><time>2026-04-26T08:58:42.308Z</time></trkpt><trkpt lat="45.804891" lon="11.8184077"><ele>181.0</ele><time>2026-04-26T08:58:43.31Z</time></trkpt><trkpt lat="45.8049747" lon="11.818377"><ele>181.0</ele><time>2026-04-26T08:58:45.309Z</time></trkpt><trkpt lat="45.8050394" lon="11.8182842"><ele>181.0</ele><time>2026-04-26T08:58:46.307Z</time></trkpt><trkpt lat="45.8051036" lon="11.8181848"><ele>181.0</ele><time>2026-04-26T08:58:47.306Z</time></trkpt><trkpt lat="45.8051548" lon="11.818104"><ele>181.0</ele><time>2026-04-26T08:58:48.304Z</time></trkpt><trkpt lat="45.8051932" lon="11.8180204"><ele>181.0</ele><time>2026-04-26T08:58:49.311Z</time></trkpt><trkpt lat="45.805244" lon="11.8178669"><ele>181.16666666666669</ele><time>2026-04-26T08:58:51.315Z</time></trkpt><trkpt lat="45.8052678" lon="11.8177672"><ele>181.33333333333334</ele><time>2026-04-26T08:58:52.303Z</time></trkpt><trkpt lat="45.8052959" lon="11.8176612"><ele>181.5</ele><time>2026-04-26T08:58:53.314Z</time></trkpt><trkpt lat="45.805328" lon="11.8175787"><ele>181.66666666666666</ele><time>2026-04-26T08:58:54.302Z</time></trkpt><trkpt lat="45.8053695" lon="11.8175071"><ele>181.83333333333331</ele><time>2026-04-26T08:58:55.323Z</time></trkpt><trkpt lat="45.8054116" lon="11.8173484"><ele>182.0</ele><time>2026-04-26T08:58:57.316Z</time></trkpt><trkpt lat="45.8053905" lon="11.8172555"><ele>182.0</ele><time>2026-04-26T08:58:58.314Z</time></trkpt><trkpt lat="45.80533" lon="11.8171513"><ele>182.0</ele><time>2026-04-26T08:58:59.314Z</time></trkpt><trkpt lat="45.8052645" lon="11.8170242"><ele>182.0</ele><time>2026-04-26T08:59:00.312Z</time></trkpt><trkpt lat="45.8052141" lon="11.8169099"><ele>182.0</ele><time>2026-04-26T08:59:01.312Z</time></trkpt><trkpt lat="45.8051751" lon="11.8167905"><ele>182.0</ele><time>2026-04-26T08:59:02.317Z</time></trkpt><trkpt lat="45.8051738" lon="11.8166584"><ele>181.83333333333331</ele><time>2026-04-26T08:59:03.313Z</time></trkpt><trkpt lat="45.8051894" lon="11.8165202"><ele>181.66666666666666</ele><time>2026-04-26T08:59:04.319Z</time></trkpt><trkpt lat="45.8052047" lon="11.8163803"><ele>181.5</ele><time>2026-04-26T08:59:05.314Z</time></trkpt><trkpt lat="45.8052228" lon="11.8162638"><ele>181.33333333333334</ele><time>2026-04-26T08:59:06.311Z</time></trkpt><trkpt lat="45.8052436" lon="11.8161676"><ele>181.16666666666669</ele><time>2026-04-26T08:59:07.315Z</time></trkpt><trkpt lat="45.8053158" lon="11.8161005"><ele>181.0</ele><time>2026-04-26T08:59:09.312Z</time></trkpt><trkpt lat="45.8053596" lon="11.8161699"><ele>181.0</ele><time>2026-04-26T08:59:10.319Z</time></trkpt><trkpt lat="45.8053821" lon="11.8162888"><ele>181.0</ele><time>2026-04-26T08:59:11.307Z</time></trkpt><trkpt lat="45.8053802" lon="11.8164154"><ele>181.0</ele><time>2026-04-26T08:59:12.324Z</time></trkpt><trkpt lat="45.8053475" lon="11.8165588"><ele>181.0</ele><time>2026-04-26T08:59:13.306Z</time></trkpt><trkpt lat="45.8053021" lon="11.8167155"><ele>181.0</ele><time>2026-04-26T08:59:14.319Z</time></trkpt><trkpt lat="45.8052646" lon="11.8168722"><ele>181.0</ele><time>2026-04-26T08:59:15.316Z</time></trkpt><trkpt lat="45.8052408" lon="11.8169726"><ele>181.0</ele><time>2026-04-26T08:59:16.314Z</time></trkpt><trkpt lat="45.8052802" lon="11.8170526"><ele>181.0</ele><time>2026-04-26T08:59:18.312Z</time></trkpt><trkpt lat="45.8053519" lon="11.8169522"><ele>181.0</ele><time>2026-04-26T08:59:20.31Z</time></trkpt><trkpt lat="45.8053941" lon="11.8168324"><ele>181.0</ele><time>2026-04-26T08:59:21.321Z</time></trkpt><trkpt lat="45.8054505" lon="11.816695"><ele>181.0</ele><time>2026-04-26T08:59:22.319Z</time></trkpt><trkpt lat="45.8054964" lon="11.8165443"><ele>181.0</ele><time>2026-04-26T08:59:23.316Z</time></trkpt><trkpt lat="45.8055238" lon="11.8163947"><ele>181.0</ele><time>2026-04-26T08:59:24.309Z</time></trkpt><trkpt lat="45.8055177" lon="11.8162535"><ele>181.0</ele><time>2026-04-26T08:59:25.309Z</time></trkpt><trkpt lat="45.805488" lon="11.8161313"><ele>181.0</ele><time>2026-04-26T08:59:26.328Z</time></trkpt><trkpt lat="45.8054329" lon="11.8160282"><ele>181.0</ele><time>2026-04-26T08:59:27.31Z</time></trkpt><trkpt lat="45.8053535" lon="11.8159775"><ele>181.0</ele><time>2026-04-26T08:59:28.32Z</time></trkpt><trkpt lat="45.8052718" lon="11.8159908"><ele>181.0</ele><time>2026-04-26T08:59:29.312Z</time></trkpt><trkpt lat="45.8051801" lon="11.8160653"><ele>181.0</ele><time>2026-04-26T08:59:30.327Z</time></trkpt><trkpt lat="45.8050881" lon="11.816176"><ele>181.0</ele><time>2026-04-26T08:59:31.315Z</time></trkpt><trkpt lat="45.8050097" lon="11.8163101"><ele>181.0</ele><time>2026-04-26T08:59:32.324Z</time></trkpt><trkpt lat="45.8049739" lon="11.8164774"><ele>181.0</ele><time>2026-04-26T08:59:33.307Z</time></trkpt><trkpt lat="45.8049697" lon="11.8166536"><ele>181.0</ele><time>2026-04-26T08:59:34.305Z</time></trkpt><trkpt lat="45.8049693" lon="11.8168357"><ele>181.0</ele><time>2026-04-26T08:59:35.318Z</time></trkpt><trkpt lat="45.8049589" lon="11.8170067"><ele>181.0</ele><time>2026-04-26T08:59:36.313Z</time></trkpt><trkpt lat="45.8049342" lon="11.8171585"><ele>181.0</ele><time>2026-04-26T08:59:37.316Z</time></trkpt><trkpt lat="45.8049092" lon="11.8172687"><ele>181.0</ele><time>2026-04-26T08:59:38.311Z</time></trkpt><trkpt lat="45.8048935" lon="11.8173796"><ele>181.0</ele><time>2026-04-26T08:59:39.318Z</time></trkpt><trkpt lat="45.8048951" lon="11.8174875"><ele>181.0</ele><time>2026-04-26T08:59:40.325Z</time></trkpt><trkpt lat="45.8049295" lon="11.8175956"><ele>181.0</ele><time>2026-04-26T08:59:41.302Z</time></trkpt><trkpt lat="45.8049735" lon="11.8176901"><ele>181.0</ele><time>2026-04-26T08:59:42.326Z</time></trkpt><trkpt lat="45.8050863" lon="11.8177518"><ele>181.16666666666669</ele><time>2026-04-26T08:59:44.303Z</time></trkpt><trkpt lat="45.8051681" lon="11.8176548"><ele>181.33333333333334</ele><time>2026-04-26T08:59:46.316Z</time></trkpt><trkpt lat="45.8051578" lon="11.8175495"><ele>181.5</ele><time>2026-04-26T08:59:47.3Z</time></trkpt><trkpt lat="45.8051442" lon="11.8174523"><ele>181.66666666666666</ele><time>2026-04-26T08:59:48.301Z</time></trkpt><trkpt lat="45.8051823" lon="11.8173802"><ele>181.83333333333331</ele><time>2026-04-26T08:59:50.311Z</time></trkpt><trkpt lat="45.8052457" lon="11.8175177"><ele>182.0</ele><time>2026-04-26T08:59:52.309Z</time></trkpt><trkpt lat="45.8052389" lon="11.8176332"><ele>182.0</ele><time>2026-04-26T08:59:53.312Z</time></trkpt><trkpt lat="45.8052105" lon="11.817729"><ele>182.0</ele><time>2026-04-26T08:59:54.305Z</time></trkpt><trkpt lat="45.8051557" lon="11.8178094"><ele>182.0</ele><time>2026-04-26T08:59:56.321Z</time></trkpt><trkpt lat="45.8050335" lon="11.8177305"><ele>182.0</ele><time>2026-04-26T08:59:58.313Z</time></trkpt><trkpt lat="45.8049502" lon="11.817676"><ele>182.0</ele><time>2026-04-26T08:59:59.305Z</time></trkpt><trkpt lat="45.8048789" lon="11.8176353"><ele>181.8</ele><time>2026-04-26T09:00:00.304Z</time></trkpt><trkpt lat="45.8047818" lon="11.8176472"><ele>181.6</ele><time>2026-04-26T09:00:02.298Z</time></trkpt><trkpt lat="45.8048552" lon="11.8177906"><ele>181.4</ele><time>2026-04-26T09:00:04.31Z</time></trkpt><trkpt lat="45.8049411" lon="11.8178795"><ele>181.20000000000002</ele><time>2026-04-26T09:00:05.294Z</time></trkpt><trkpt lat="45.8050128" lon="11.8179411"><ele>181.0</ele><time>2026-04-26T09:00:06.295Z</time></trkpt><trkpt lat="45.80506" lon="11.8180015"><ele>181.0</ele><time>2026-04-26T09:00:07.301Z</time></trkpt><trkpt lat="45.8050573" lon="11.8180939"><ele>181.0</ele><time>2026-04-26T09:00:09.294Z</time></trkpt><trkpt lat="45.804934" lon="11.8180435"><ele>181.0</ele><time>2026-04-26T09:00:11.293Z</time></trkpt><trkpt lat="45.8048526" lon="11.8179853"><ele>181.0</ele><time>2026-04-26T09:00:12.293Z</time></trkpt><trkpt lat="45.8047744" lon="11.8179484"><ele>181.0</ele><time>2026-04-26T09:00:13.298Z</time></trkpt><trkpt lat="45.8047036" lon="11.8179445"><ele>181.0</ele><time>2026-04-26T09:00:14.298Z</time></trkpt><trkpt lat="45.804629" lon="11.817996"><ele>181.0</ele><time>2026-04-26T09:00:16.301Z</time></trkpt><trkpt lat="45.8046144" lon="11.8180896"><ele>181.0</ele><time>2026-04-26T09:00:17.291Z</time></trkpt><trkpt lat="45.804591" lon="11.8181909"><ele>181.0</ele><time>2026-04-26T09:00:18.296Z</time></trkpt><trkpt lat="45.8045686" lon="11.8182758"><ele>181.0</ele><time>2026-04-26T09:00:19.297Z</time></trkpt><trkpt lat="45.8045374" lon="11.8184125"><ele>181.0</ele><time>2026-04-26T09:00:21.302Z</time></trkpt><trkpt lat="45.8046106" lon="11.8184284"><ele>181.0</ele><time>2026-04-26T09:09:24.29Z</time></trkpt><trkpt lat="45.8046543" lon="11.8182896"><ele>181.0</ele><time>2026-04-26T09:30:25.28Z</time></trkpt><trkpt lat="45.8046732" lon="11.8181822"><ele>181.0</ele><time>2026-04-26T09:30:26.277Z</time></trkpt><trkpt lat="45.8046869" lon="11.8180879"><ele>181.0</ele><time>2026-04-26T09:30:27.283Z</time></trkpt><trkpt lat="45.8047201" lon="11.8179519"><ele>181.0</ele><time>2026-04-26T09:30:29.275Z</time></trkpt><trkpt lat="45.8048219" lon="11.8179772"><ele>181.0</ele><time>2026-04-26T09:30:31.291Z</time></trkpt><trkpt lat="45.8048836" lon="11.8180164"><ele>181.0</ele><time>2026-04-26T09:30:32.286Z</time></trkpt><trkpt lat="45.8049506" lon="11.818059"><ele>181.0</ele><time>2026-04-26T09:30:33.291Z</time></trkpt><trkpt lat="45.8050466" lon="11.818078"><ele>181.0</ele><time>2026-04-26T09:30:35.293Z</time></trkpt><trkpt lat="45.8050897" lon="11.817979"><ele>181.0</ele><time>2026-04-26T09:30:37.291Z</time></trkpt><trkpt lat="45.8050544" lon="11.8178451"><ele>181.0</ele><time>2026-04-26T09:30:39.294Z</time></trkpt><trkpt lat="45.804977" lon="11.8177905"><ele>181.0</ele><time>2026-04-26T09:30:40.292Z</time></trkpt><trkpt lat="45.804897" lon="11.8177344"><ele>181.0</ele><time>2026-04-26T09:30:41.291Z</time></trkpt><trkpt lat="45.8048404" lon="11.817656"><ele>181.0</ele><time>2026-04-26T09:30:42.299Z</time></trkpt><trkpt lat="45.8048695" lon="11.8175683"><ele>181.0</ele><time>2026-04-26T09:30:45.291Z</time></trkpt><trkpt lat="45.8049509" lon="11.8175979"><ele>181.0</ele><time>2026-04-26T09:30:46.289Z</time></trkpt><trkpt lat="45.805031" lon="11.8176583"><ele>181.0</ele><time>2026-04-26T09:30:47.283Z</time></trkpt><trkpt lat="45.8051128" lon="11.8177121"><ele>181.0</ele><time>2026-04-26T09:30:48.281Z</time></trkpt><trkpt lat="45.8051838" lon="11.8177508"><ele>181.20000000000002</ele><time>2026-04-26T09:30:49.286Z</time></trkpt><trkpt lat="45.8052647" lon="11.8177164"><ele>181.4</ele><time>2026-04-26T09:30:51.29Z</time></trkpt><trkpt lat="45.8052789" lon="11.8175551"><ele>181.6</ele><time>2026-04-26T09:30:53.289Z</time></trkpt><trkpt lat="45.8052519" lon="11.817416"><ele>181.8</ele><time>2026-04-26T09:30:55.292Z</time></trkpt><trkpt lat="45.805187" lon="11.8173572"><ele>182.0</ele><time>2026-04-26T09:30:57.291Z</time></trkpt><trkpt lat="45.8051366" lon="11.8174394"><ele>181.66666666666666</ele><time>2026-04-26T09:31:04.294Z</time></trkpt><trkpt lat="45.8051059" lon="11.8175592"><ele>181.33333333333331</ele><time>2026-04-26T09:31:08.294Z</time></trkpt><trkpt lat="45.8050272" lon="11.8175723"><ele>181.0</ele><time>2026-04-26T09:31:11.29Z</time></trkpt><trkpt lat="45.8049451" lon="11.8174539"><ele>180.66666666666666</ele><time>2026-04-26T09:31:13.287Z</time></trkpt><trkpt lat="45.8049084" lon="11.8173625"><ele>180.33333333333334</ele><time>2026-04-26T09:31:14.292Z</time></trkpt><trkpt lat="45.8048983" lon="11.8172644"><ele>180.0</ele><time>2026-04-26T09:31:15.283Z</time></trkpt><trkpt lat="45.8049003" lon="11.8171601"><ele>180.0</ele><time>2026-04-26T09:31:16.301Z</time></trkpt><trkpt lat="45.8049101" lon="11.8170643"><ele>180.0</ele><time>2026-04-26T09:31:17.289Z</time></trkpt><trkpt lat="45.8049344" lon="11.8169532"><ele>180.0</ele><time>2026-04-26T09:31:18.289Z</time></trkpt><trkpt lat="45.804966" lon="11.8168357"><ele>180.0</ele><time>2026-04-26T09:31:19.287Z</time></trkpt><trkpt lat="45.8049936" lon="11.8167221"><ele>180.0</ele><time>2026-04-26T09:31:20.29Z</time></trkpt><trkpt lat="45.8050168" lon="11.8166087"><ele>180.0</ele><time>2026-04-26T09:31:21.286Z</time></trkpt><trkpt lat="45.8050367" lon="11.8164976"><ele>180.2</ele><time>2026-04-26T09:31:22.291Z</time></trkpt><trkpt lat="45.8050624" lon="11.8163231"><ele>180.4</ele><time>2026-04-26T09:31:24.292Z</time></trkpt><trkpt lat="45.8051019" lon="11.8161716"><ele>180.60000000000002</ele><time>2026-04-26T09:31:26.283Z</time></trkpt><trkpt lat="45.8051919" lon="11.8160852"><ele>180.8</ele><time>2026-04-26T09:31:28.291Z</time></trkpt><trkpt lat="45.8052911" lon="11.8160596"><ele>181.0</ele><time>2026-04-26T09:31:30.289Z</time></trkpt><trkpt lat="45.8053737" lon="11.8160388"><ele>181.0</ele><time>2026-04-26T09:31:32.287Z</time></trkpt><trkpt lat="45.8054406" lon="11.81606"><ele>181.0</ele><time>2026-04-26T09:31:34.29Z</time></trkpt><trkpt lat="45.8054858" lon="11.8161306"><ele>181.0</ele><time>2026-04-26T09:31:36.286Z</time></trkpt><trkpt lat="45.8055252" lon="11.8162428"><ele>181.0</ele><time>2026-04-26T09:31:38.286Z</time></trkpt><trkpt lat="45.8055251" lon="11.8163634"><ele>181.0</ele><time>2026-04-26T09:31:40.285Z</time></trkpt><trkpt lat="45.8054951" lon="11.8164817"><ele>181.0</ele><time>2026-04-26T09:31:42.291Z</time></trkpt><trkpt lat="45.8054633" lon="11.8165724"><ele>181.0</ele><time>2026-04-26T09:31:44.288Z</time></trkpt><trkpt lat="45.8054162" lon="11.8166388"><ele>181.0</ele><time>2026-04-26T09:32:07.294Z</time></trkpt><trkpt lat="45.8054028" lon="11.8167443"><ele>181.0</ele><time>2026-04-26T09:32:31.287Z</time></trkpt><trkpt lat="45.8053917" lon="11.8168359"><ele>181.0</ele><time>2026-04-26T09:32:32.286Z</time></trkpt><trkpt lat="45.8053795" lon="11.8169428"><ele>181.0</ele><time>2026-04-26T09:32:33.286Z</time></trkpt><trkpt lat="45.8053624" lon="11.8170439"><ele>181.0</ele><time>2026-04-26T09:32:34.283Z</time></trkpt><trkpt lat="45.8053388" lon="11.8171413"><ele>181.0</ele><time>2026-04-26T09:32:35.292Z</time></trkpt><trkpt lat="45.8053202" lon="11.817228"><ele>181.20000000000002</ele><time>2026-04-26T09:32:36.289Z</time></trkpt><trkpt lat="45.8053045" lon="11.8173661"><ele>181.4</ele><time>2026-04-26T09:32:38.282Z</time></trkpt><trkpt lat="45.8053565" lon="11.8174842"><ele>181.6</ele><time>2026-04-26T09:32:40.286Z</time></trkpt><trkpt lat="45.8053662" lon="11.817635"><ele>181.8</ele><time>2026-04-26T09:32:42.29Z</time></trkpt><trkpt lat="45.8053414" lon="11.8177251"><ele>182.0</ele><time>2026-04-26T09:32:43.293Z</time></trkpt><trkpt lat="45.8052882" lon="11.8178903"><ele>182.0</ele><time>2026-04-26T09:32:45.296Z</time></trkpt><trkpt lat="45.805273" lon="11.8179801"><ele>182.0</ele><time>2026-04-26T09:32:46.291Z</time></trkpt><trkpt lat="45.8052544" lon="11.8180687"><ele>182.0</ele><time>2026-04-26T09:32:47.296Z</time></trkpt><trkpt lat="45.805234" lon="11.8181569"><ele>182.0</ele><time>2026-04-26T09:32:48.288Z</time></trkpt><trkpt lat="45.8052101" lon="11.8182419"><ele>182.0</ele><time>2026-04-26T09:32:49.297Z</time></trkpt><trkpt lat="45.8051735" lon="11.8183981"><ele>182.0</ele><time>2026-04-26T09:32:51.29Z</time></trkpt><trkpt lat="45.8051372" lon="11.8185174"><ele>182.0</ele><time>2026-04-26T09:32:53.289Z</time></trkpt><trkpt lat="45.8050995" lon="11.81864"><ele>182.0</ele><time>2026-04-26T09:32:55.292Z</time></trkpt><trkpt lat="45.8050737" lon="11.8187368"><ele>182.0</ele><time>2026-04-26T09:32:57.287Z</time></trkpt><trkpt lat="45.8051083" lon="11.8188502"><ele>182.0</ele><time>2026-04-26T09:33:00.299Z</time></trkpt><trkpt lat="45.8052339" lon="11.8188968"><ele>182.0</ele><time>2026-04-26T09:33:02.295Z</time></trkpt><trkpt lat="45.8053176" lon="11.8189015"><ele>182.6</ele><time>2026-04-26T09:33:03.283Z</time></trkpt><trkpt lat="45.8054107" lon="11.8189021"><ele>183.2</ele><time>2026-04-26T09:33:04.296Z</time></trkpt><trkpt lat="45.8055054" lon="11.8189063"><ele>183.8</ele><time>2026-04-26T09:33:05.286Z</time></trkpt><trkpt lat="45.8056006" lon="11.8189193"><ele>184.4</ele><time>2026-04-26T09:33:06.291Z</time></trkpt><trkpt lat="45.8056862" lon="11.8189408"><ele>185.0</ele><time>2026-04-26T09:33:07.29Z</time></trkpt><trkpt lat="45.8057678" lon="11.8189557"><ele>185.0</ele><time>2026-04-26T09:33:08.294Z</time></trkpt><trkpt lat="45.8058443" lon="11.8189764"><ele>185.0</ele><time>2026-04-26T09:33:09.292Z</time></trkpt><trkpt lat="45.8059103" lon="11.8190129"><ele>185.0</ele><time>2026-04-26T09:33:10.286Z</time></trkpt><trkpt lat="45.8059715" lon="11.8190578"><ele>185.0</ele><time>2026-04-26T09:33:11.283Z</time></trkpt><trkpt lat="45.8060319" lon="11.8191076"><ele>185.0</ele><time>2026-04-26T09:33:12.292Z</time></trkpt><trkpt lat="45.8060893" lon="11.819145"><ele>185.0</ele><time>2026-04-26T09:33:13.283Z</time></trkpt><trkpt lat="45.8061862" lon="11.8191908"><ele>185.5</ele><time>2026-04-26T09:33:15.282Z</time></trkpt><trkpt lat="45.8062397" lon="11.8192544"><ele>186.0</ele><time>2026-04-26T09:33:18.284Z</time></trkpt><trkpt lat="45.8062921" lon="11.8193421"><ele>186.5</ele><time>2026-04-26T09:33:21.297Z</time></trkpt><trkpt lat="45.8063482" lon="11.819422"><ele>187.0</ele><time>2026-04-26T09:33:23.293Z</time></trkpt><trkpt lat="45.8064354" lon="11.8195223"><ele>187.5</ele><time>2026-04-26T09:33:25.285Z</time></trkpt><trkpt lat="45.806501" lon="11.8195863"><ele>188.0</ele><time>2026-04-26T09:33:26.281Z</time></trkpt><trkpt lat="45.8065545" lon="11.8196484"><ele>188.16666666666666</ele><time>2026-04-26T09:33:27.291Z</time></trkpt><trkpt lat="45.8066311" lon="11.8197113"><ele>188.33333333333331</ele><time>2026-04-26T09:33:28.279Z</time></trkpt><trkpt lat="45.8067218" lon="11.8197693"><ele>188.5</ele><time>2026-04-26T09:33:29.284Z</time></trkpt><trkpt lat="45.8067979" lon="11.819822"><ele>188.66666666666666</ele><time>2026-04-26T09:33:30.287Z</time></trkpt><trkpt lat="45.8068617" lon="11.819879"><ele>188.83333333333334</ele><time>2026-04-26T09:33:31.288Z</time></trkpt><trkpt lat="45.8069358" lon="11.8199301"><ele>189.0</ele><time>2026-04-26T09:33:32.289Z</time></trkpt><trkpt lat="45.8069967" lon="11.8199997"><ele>189.33333333333334</ele><time>2026-04-26T09:33:33.287Z</time></trkpt><trkpt lat="45.807059" lon="11.8200687"><ele>189.66666666666666</ele><time>2026-04-26T09:33:34.286Z</time></trkpt><trkpt lat="45.8071219" lon="11.8201494"><ele>190.0</ele><time>2026-04-26T09:33:35.281Z</time></trkpt><trkpt lat="45.8071747" lon="11.8202361"><ele>190.33333333333331</ele><time>2026-04-26T09:33:36.291Z</time></trkpt><trkpt lat="45.8072371" lon="11.8203156"><ele>190.66666666666666</ele><time>2026-04-26T09:33:37.28Z</time></trkpt><trkpt lat="45.8072942" lon="11.8204059"><ele>191.0</ele><time>2026-04-26T09:33:38.287Z</time></trkpt><trkpt lat="45.8073521" lon="11.820473"><ele>191.0</ele><time>2026-04-26T09:33:39.283Z</time></trkpt><trkpt lat="45.807417" lon="11.8205268"><ele>191.0</ele><time>2026-04-26T09:33:40.288Z</time></trkpt><trkpt lat="45.8074835" lon="11.8205515"><ele>191.0</ele><time>2026-04-26T09:33:41.283Z</time></trkpt><trkpt lat="45.8075556" lon="11.8205531"><ele>191.0</ele><time>2026-04-26T09:33:42.285Z</time></trkpt><trkpt lat="45.807627" lon="11.8205476"><ele>191.0</ele><time>2026-04-26T09:33:43.278Z</time></trkpt><trkpt lat="45.8076957" lon="11.8205361"><ele>191.0</ele><time>2026-04-26T09:33:44.29Z</time></trkpt><trkpt lat="45.8077603" lon="11.8205227"><ele>191.0</ele><time>2026-04-26T09:33:45.279Z</time></trkpt><trkpt lat="45.807859" lon="11.8204975"><ele>191.33333333333331</ele><time>2026-04-26T09:33:47.288Z</time></trkpt><trkpt lat="45.8079369" lon="11.8204655"><ele>191.66666666666666</ele><time>2026-04-26T09:33:50.282Z</time></trkpt><trkpt lat="45.8080018" lon="11.8204273"><ele>192.0</ele><time>2026-04-26T09:33:53.289Z</time></trkpt><trkpt lat="45.8080675" lon="11.8203685"><ele>192.33333333333331</ele><time>2026-04-26T09:34:08.286Z</time></trkpt><trkpt lat="45.8081722" lon="11.8203378"><ele>192.66666666666666</ele><time>2026-04-26T09:34:11.291Z</time></trkpt><trkpt lat="45.8082538" lon="11.8203288"><ele>193.0</ele><time>2026-04-26T09:34:13.285Z</time></trkpt><trkpt lat="45.8083384" lon="11.8203326"><ele>192.99999999999997</ele><time>2026-04-26T09:34:15.29Z</time></trkpt><trkpt lat="45.8084306" lon="11.8203333"><ele>193.0</ele><time>2026-04-26T09:34:17.292Z</time></trkpt><trkpt lat="45.8085492" lon="11.8203101"><ele>193.0</ele><time>2026-04-26T09:34:19.293Z</time></trkpt><trkpt lat="45.8086154" lon="11.8202973"><ele>193.0</ele><time>2026-04-26T09:34:20.292Z</time></trkpt><trkpt lat="45.8086894" lon="11.8202881"><ele>192.99999999999997</ele><time>2026-04-26T09:34:21.292Z</time></trkpt><trkpt lat="45.8087695" lon="11.8202764"><ele>193.0</ele><time>2026-04-26T09:34:22.295Z</time></trkpt><trkpt lat="45.8088551" lon="11.8202741"><ele>193.60000000000002</ele><time>2026-04-26T09:34:23.283Z</time></trkpt><trkpt lat="45.8089501" lon="11.8202844"><ele>194.20000000000002</ele><time>2026-04-26T09:34:24.284Z</time></trkpt><trkpt lat="45.8090429" lon="11.82029"><ele>194.8</ele><time>2026-04-26T09:34:25.284Z</time></trkpt><trkpt lat="45.8091367" lon="11.8203004"><ele>195.4</ele><time>2026-04-26T09:34:26.285Z</time></trkpt><trkpt lat="45.8092419" lon="11.8202942"><ele>196.0</ele><time>2026-04-26T09:34:27.292Z</time></trkpt><trkpt lat="45.8093514" lon="11.8202793"><ele>196.20000000000002</ele><time>2026-04-26T09:34:28.283Z</time></trkpt><trkpt lat="45.8094591" lon="11.820254"><ele>196.4</ele><time>2026-04-26T09:34:29.292Z</time></trkpt><trkpt lat="45.809571" lon="11.82021"><ele>196.6</ele><time>2026-04-26T09:34:30.289Z</time></trkpt><trkpt lat="45.809673" lon="11.8201498"><ele>196.8</ele><time>2026-04-26T09:34:31.284Z</time></trkpt><trkpt lat="45.8097607" lon="11.8201084"><ele>197.0</ele><time>2026-04-26T09:34:32.282Z</time></trkpt><trkpt lat="45.8098522" lon="11.8200909"><ele>197.0</ele><time>2026-04-26T09:34:33.286Z</time></trkpt><trkpt lat="45.8099388" lon="11.8200963"><ele>197.0</ele><time>2026-04-26T09:34:34.285Z</time></trkpt><trkpt lat="45.8100348" lon="11.8201224"><ele>197.0</ele><time>2026-04-26T09:34:35.288Z</time></trkpt><trkpt lat="45.810146" lon="11.8201555"><ele>197.0</ele><time>2026-04-26T09:34:36.283Z</time></trkpt><trkpt lat="45.8102713" lon="11.8201928"><ele>197.0</ele><time>2026-04-26T09:34:37.288Z</time></trkpt><trkpt lat="45.8103992" lon="11.8202192"><ele>197.6</ele><time>2026-04-26T09:34:38.284Z</time></trkpt><trkpt lat="45.810516" lon="11.8202451"><ele>198.2</ele><time>2026-04-26T09:34:39.295Z</time></trkpt><trkpt lat="45.8106282" lon="11.8202693"><ele>198.8</ele><time>2026-04-26T09:34:40.284Z</time></trkpt><trkpt lat="45.8107354" lon="11.8202864"><ele>199.4</ele><time>2026-04-26T09:34:41.289Z</time></trkpt><trkpt lat="45.810839" lon="11.8202907"><ele>200.0</ele><time>2026-04-26T09:34:42.284Z</time></trkpt><trkpt lat="45.8109374" lon="11.820289"><ele>200.8</ele><time>2026-04-26T09:34:43.292Z</time></trkpt><trkpt lat="45.8110323" lon="11.8203078"><ele>201.6</ele><time>2026-04-26T09:34:44.286Z</time></trkpt><trkpt lat="45.8111323" lon="11.8203459"><ele>202.39999999999998</ele><time>2026-04-26T09:34:45.29Z</time></trkpt><trkpt lat="45.8112409" lon="11.8203805"><ele>203.2</ele><time>2026-04-26T09:34:46.281Z</time></trkpt><trkpt lat="45.8113585" lon="11.8204159"><ele>204.0</ele><time>2026-04-26T09:34:47.299Z</time></trkpt><trkpt lat="45.8114782" lon="11.8204544"><ele>204.0</ele><time>2026-04-26T09:34:48.286Z</time></trkpt><trkpt lat="45.811593" lon="11.8204894"><ele>204.0</ele><time>2026-04-26T09:34:49.289Z</time></trkpt><trkpt lat="45.8117108" lon="11.82052"><ele>204.0</ele><time>2026-04-26T09:34:50.288Z</time></trkpt><trkpt lat="45.8118408" lon="11.8205531"><ele>204.0</ele><time>2026-04-26T09:34:51.288Z</time></trkpt><trkpt lat="45.8119701" lon="11.8205925"><ele>204.5</ele><time>2026-04-26T09:34:52.286Z</time></trkpt><trkpt lat="45.8120922" lon="11.8206459"><ele>205.0</ele><time>2026-04-26T09:34:53.294Z</time></trkpt><trkpt lat="45.812208" lon="11.8206996"><ele>205.5</ele><time>2026-04-26T09:34:54.289Z</time></trkpt><trkpt lat="45.8123128" lon="11.8207646"><ele>206.0</ele><time>2026-04-26T09:34:55.289Z</time></trkpt><trkpt lat="45.8124079" lon="11.8208274"><ele>206.00000000000003</ele><time>2026-04-26T09:34:56.287Z</time></trkpt><trkpt lat="45.812494" lon="11.8208856"><ele>206.0</ele><time>2026-04-26T09:34:57.288Z</time></trkpt><trkpt lat="45.812578" lon="11.8209305"><ele>206.0</ele><time>2026-04-26T09:34:58.287Z</time></trkpt><trkpt lat="45.8126581" lon="11.8209611"><ele>206.0</ele><time>2026-04-26T09:34:59.291Z</time></trkpt><trkpt lat="45.8127397" lon="11.8209919"><ele>206.00000000000003</ele><time>2026-04-26T09:35:00.289Z</time></trkpt><trkpt lat="45.8128181" lon="11.8210164"><ele>206.0</ele><time>2026-04-26T09:35:01.294Z</time></trkpt><trkpt lat="45.8128959" lon="11.8210404"><ele>206.50000000000003</ele><time>2026-04-26T09:35:02.287Z</time></trkpt><trkpt lat="45.8129727" lon="11.8210515"><ele>207.0</ele><time>2026-04-26T09:35:03.283Z</time></trkpt><trkpt lat="45.8130512" lon="11.8210671"><ele>207.5</ele><time>2026-04-26T09:35:04.275Z</time></trkpt><trkpt lat="45.8131313" lon="11.8210722"><ele>208.0</ele><time>2026-04-26T09:35:05.292Z</time></trkpt><trkpt lat="45.8132182" lon="11.8210793"><ele>208.50000000000003</ele><time>2026-04-26T09:35:06.281Z</time></trkpt><trkpt lat="45.8133214" lon="11.8210794"><ele>209.0</ele><time>2026-04-26T09:35:07.286Z</time></trkpt><trkpt lat="45.8134427" lon="11.821088"><ele>209.25</ele><time>2026-04-26T09:35:08.281Z</time></trkpt><trkpt lat="45.8135686" lon="11.8210974"><ele>209.5</ele><time>2026-04-26T09:35:09.289Z</time></trkpt><trkpt lat="45.8136903" lon="11.8210949"><ele>209.75</ele><time>2026-04-26T09:35:10.283Z</time></trkpt><trkpt lat="45.8138029" lon="11.8210891"><ele>210.0</ele><time>2026-04-26T09:35:11.291Z</time></trkpt><trkpt lat="45.813905" lon="11.8210847"><ele>210.0</ele><time>2026-04-26T09:35:12.281Z</time></trkpt><trkpt lat="45.8139984" lon="11.8210877"><ele>210.0</ele><time>2026-04-26T09:35:13.291Z</time></trkpt><trkpt lat="45.814086" lon="11.8210947"><ele>210.0</ele><time>2026-04-26T09:35:14.287Z</time></trkpt><trkpt lat="45.8141554" lon="11.8211056"><ele>210.0</ele><time>2026-04-26T09:35:15.286Z</time></trkpt><trkpt lat="45.8142204" lon="11.8211194"><ele>210.0</ele><time>2026-04-26T09:35:16.285Z</time></trkpt><trkpt lat="45.8143158" lon="11.8211376"><ele>210.0</ele><time>2026-04-26T09:35:18.291Z</time></trkpt><trkpt lat="45.8143505" lon="11.8212159"><ele>210.0</ele><time>2026-04-26T09:35:21.298Z</time></trkpt><trkpt lat="45.8142767" lon="11.8213225"><ele>210.0</ele><time>2026-04-26T09:35:23.302Z</time></trkpt><trkpt lat="45.8142149" lon="11.8214144"><ele>210.0</ele><time>2026-04-26T09:35:24.294Z</time></trkpt><trkpt lat="45.8141639" lon="11.8215038"><ele>210.0</ele><time>2026-04-26T09:35:25.298Z</time></trkpt><trkpt lat="45.8141181" lon="11.8216003"><ele>210.0</ele><time>2026-04-26T09:35:26.296Z</time></trkpt><trkpt lat="45.814072" lon="11.8216911"><ele>210.0</ele><time>2026-04-26T09:35:27.293Z</time></trkpt><trkpt lat="45.8140156" lon="11.8217853"><ele>210.5</ele><time>2026-04-26T09:35:28.291Z</time></trkpt><trkpt lat="45.813957" lon="11.8218645"><ele>211.0</ele><time>2026-04-26T09:35:29.292Z</time></trkpt><trkpt lat="45.8138931" lon="11.8219239"><ele>211.5</ele><time>2026-04-26T09:35:30.291Z</time></trkpt><trkpt lat="45.8138093" lon="11.8219746"><ele>212.0</ele><time>2026-04-26T09:35:31.296Z</time></trkpt><trkpt lat="45.8137219" lon="11.8220276"><ele>212.5</ele><time>2026-04-26T09:35:32.291Z</time></trkpt><trkpt lat="45.8136379" lon="11.8221"><ele>213.0</ele><time>2026-04-26T09:35:33.286Z</time></trkpt><trkpt lat="45.8135574" lon="11.8221962"><ele>213.0</ele><time>2026-04-26T09:35:34.289Z</time></trkpt><trkpt lat="45.8134766" lon="11.8223246"><ele>213.0</ele><time>2026-04-26T09:35:35.286Z</time></trkpt><trkpt lat="45.8133915" lon="11.8224824"><ele>213.0</ele><time>2026-04-26T09:35:36.297Z</time></trkpt><trkpt lat="45.8133167" lon="11.8226596"><ele>213.0</ele><time>2026-04-26T09:35:37.281Z</time></trkpt><trkpt lat="45.8132462" lon="11.8228541"><ele>213.0</ele><time>2026-04-26T09:35:38.294Z</time></trkpt><trkpt lat="45.8131894" lon="11.8230749"><ele>213.0</ele><time>2026-04-26T09:35:39.285Z</time></trkpt><trkpt lat="45.813125" lon="11.8232744"><ele>213.0</ele><time>2026-04-26T09:35:40.296Z</time></trkpt><trkpt lat="45.8130644" lon="11.8234463"><ele>213.2</ele><time>2026-04-26T09:35:41.29Z</time></trkpt><trkpt lat="45.8130058" lon="11.823608"><ele>213.4</ele><time>2026-04-26T09:35:42.29Z</time></trkpt><trkpt lat="45.8129476" lon="11.8237543"><ele>213.59999999999997</ele><time>2026-04-26T09:35:43.302Z</time></trkpt><trkpt lat="45.8128863" lon="11.8238934"><ele>213.79999999999998</ele><time>2026-04-26T09:35:44.287Z</time></trkpt><trkpt lat="45.8128404" lon="11.8240003"><ele>214.0</ele><time>2026-04-26T09:35:45.292Z</time></trkpt><trkpt lat="45.8128057" lon="11.8240918"><ele>213.99999999999997</ele><time>2026-04-26T09:35:46.282Z</time></trkpt><trkpt lat="45.8127564" lon="11.8241999"><ele>214.0</ele><time>2026-04-26T09:35:48.279Z</time></trkpt><trkpt lat="45.8126997" lon="11.8243089"><ele>214.0</ele><time>2026-04-26T09:35:50.284Z</time></trkpt><trkpt lat="45.8126639" lon="11.8243852"><ele>214.0</ele><time>2026-04-26T09:35:51.29Z</time></trkpt><trkpt lat="45.8126212" lon="11.824465"><ele>213.99999999999997</ele><time>2026-04-26T09:35:52.291Z</time></trkpt><trkpt lat="45.8125594" lon="11.8245719"><ele>214.0</ele><time>2026-04-26T09:35:53.289Z</time></trkpt><trkpt lat="45.8124778" lon="11.8247229"><ele>213.75</ele><time>2026-04-26T09:35:54.292Z</time></trkpt><trkpt lat="45.8123979" lon="11.8248766"><ele>213.5</ele><time>2026-04-26T09:35:55.287Z</time></trkpt><trkpt lat="45.8123254" lon="11.8250303"><ele>213.25</ele><time>2026-04-26T09:35:56.293Z</time></trkpt><trkpt lat="45.8122595" lon="11.8251684"><ele>213.0</ele><time>2026-04-26T09:35:57.284Z</time></trkpt><trkpt lat="45.8121981" lon="11.8252921"><ele>213.0</ele><time>2026-04-26T09:35:58.295Z</time></trkpt><trkpt lat="45.8121416" lon="11.8254091"><ele>213.0</ele><time>2026-04-26T09:35:59.287Z</time></trkpt><trkpt lat="45.8120914" lon="11.8255166"><ele>213.0</ele><time>2026-04-26T09:36:00.297Z</time></trkpt><trkpt lat="45.8120429" lon="11.8256145"><ele>213.0</ele><time>2026-04-26T09:36:01.286Z</time></trkpt><trkpt lat="45.8119965" lon="11.8257007"><ele>213.0</ele><time>2026-04-26T09:36:02.295Z</time></trkpt><trkpt lat="45.811964" lon="11.8257874"><ele>213.0</ele><time>2026-04-26T09:36:03.29Z</time></trkpt><trkpt lat="45.8119334" lon="11.8258898"><ele>213.33333333333334</ele><time>2026-04-26T09:36:04.292Z</time></trkpt><trkpt lat="45.811899" lon="11.8260004"><ele>213.66666666666669</ele><time>2026-04-26T09:36:05.286Z</time></trkpt><trkpt lat="45.8118633" lon="11.8261199"><ele>214.0</ele><time>2026-04-26T09:36:06.29Z</time></trkpt><trkpt lat="45.811826" lon="11.8262497"><ele>214.33333333333334</ele><time>2026-04-26T09:36:07.285Z</time></trkpt><trkpt lat="45.8117888" lon="11.8263628"><ele>214.66666666666669</ele><time>2026-04-26T09:36:08.289Z</time></trkpt><trkpt lat="45.8117537" lon="11.826463"><ele>215.0</ele><time>2026-04-26T09:36:09.283Z</time></trkpt><trkpt lat="45.8117213" lon="11.8265472"><ele>214.33333333333334</ele><time>2026-04-26T09:36:10.286Z</time></trkpt><trkpt lat="45.8116679" lon="11.8266732"><ele>213.66666666666669</ele><time>2026-04-26T09:36:12.292Z</time></trkpt><trkpt lat="45.8115797" lon="11.8267546"><ele>213.0</ele><time>2026-04-26T09:36:14.291Z</time></trkpt><trkpt lat="45.8115289" lon="11.8268088"><ele>212.33333333333331</ele><time>2026-04-26T09:36:15.285Z</time></trkpt><trkpt lat="45.8114777" lon="11.8268826"><ele>211.66666666666666</ele><time>2026-04-26T09:36:16.289Z</time></trkpt><trkpt lat="45.811425" lon="11.8269878"><ele>211.0</ele><time>2026-04-26T09:36:17.292Z</time></trkpt><trkpt lat="45.8113809" lon="11.8271258"><ele>211.0</ele><time>2026-04-26T09:36:18.289Z</time></trkpt><trkpt lat="45.8113264" lon="11.8272909"><ele>211.0</ele><time>2026-04-26T09:36:19.286Z</time></trkpt><trkpt lat="45.8112735" lon="11.8274625"><ele>211.0</ele><time>2026-04-26T09:36:20.284Z</time></trkpt><trkpt lat="45.8112174" lon="11.8276317"><ele>211.0</ele><time>2026-04-26T09:36:21.29Z</time></trkpt><trkpt lat="45.8111613" lon="11.8277981"><ele>210.8</ele><time>2026-04-26T09:36:22.289Z</time></trkpt><trkpt lat="45.8111082" lon="11.8279566"><ele>210.60000000000002</ele><time>2026-04-26T09:36:23.294Z</time></trkpt><trkpt lat="45.8110648" lon="11.8280998"><ele>210.4</ele><time>2026-04-26T09:36:24.288Z</time></trkpt><trkpt lat="45.8110348" lon="11.8282391"><ele>210.2</ele><time>2026-04-26T09:36:25.291Z</time></trkpt><trkpt lat="45.8109972" lon="11.8283867"><ele>210.0</ele><time>2026-04-26T09:36:26.276Z</time></trkpt><trkpt lat="45.8109672" lon="11.8285447"><ele>210.0</ele><time>2026-04-26T09:36:27.28Z</time></trkpt><trkpt lat="45.8109409" lon="11.8286919"><ele>210.0</ele><time>2026-04-26T09:36:28.281Z</time></trkpt><trkpt lat="45.8109182" lon="11.8288318"><ele>210.0</ele><time>2026-04-26T09:36:29.28Z</time></trkpt><trkpt lat="45.8108747" lon="11.8289709"><ele>210.0</ele><time>2026-04-26T09:36:30.29Z</time></trkpt><trkpt lat="45.8108047" lon="11.8291167"><ele>210.0</ele><time>2026-04-26T09:36:31.281Z</time></trkpt><trkpt lat="45.8107006" lon="11.8292695"><ele>209.66666666666669</ele><time>2026-04-26T09:36:32.301Z</time></trkpt><trkpt lat="45.8105747" lon="11.8294443"><ele>209.33333333333334</ele><time>2026-04-26T09:36:33.283Z</time></trkpt><trkpt lat="45.8104502" lon="11.8296057"><ele>209.0</ele><time>2026-04-26T09:36:34.288Z</time></trkpt><trkpt lat="45.810344" lon="11.8297315"><ele>209.0</ele><time>2026-04-26T09:36:35.285Z</time></trkpt><trkpt lat="45.8102468" lon="11.8298487"><ele>209.0</ele><time>2026-04-26T09:36:36.288Z</time></trkpt><trkpt lat="45.8101387" lon="11.8299312"><ele>209.0</ele><time>2026-04-26T09:36:37.286Z</time></trkpt><trkpt lat="45.8100225" lon="11.8299895"><ele>209.0</ele><time>2026-04-26T09:36:38.285Z</time></trkpt><trkpt lat="45.8099172" lon="11.8300521"><ele>208.0</ele><time>2026-04-26T09:36:39.287Z</time></trkpt><trkpt lat="45.809835" lon="11.8301115"><ele>207.0</ele><time>2026-04-26T09:36:40.285Z</time></trkpt><trkpt lat="45.8097564" lon="11.8301942"><ele>206.0</ele><time>2026-04-26T09:36:41.293Z</time></trkpt><trkpt lat="45.8096858" lon="11.8302848"><ele>205.0</ele><time>2026-04-26T09:36:42.287Z</time></trkpt><trkpt lat="45.8096235" lon="11.8303874"><ele>204.0</ele><time>2026-04-26T09:36:43.295Z</time></trkpt><trkpt lat="45.8095662" lon="11.8305068"><ele>204.0</ele><time>2026-04-26T09:36:44.288Z</time></trkpt><trkpt lat="45.8095319" lon="11.8306656"><ele>204.0</ele><time>2026-04-26T09:36:45.291Z</time></trkpt><trkpt lat="45.8095082" lon="11.8308335"><ele>204.0</ele><time>2026-04-26T09:36:46.283Z</time></trkpt><trkpt lat="45.8094838" lon="11.8309858"><ele>204.0</ele><time>2026-04-26T09:36:47.289Z</time></trkpt><trkpt lat="45.8094624" lon="11.8311294"><ele>204.0</ele><time>2026-04-26T09:36:48.284Z</time></trkpt><trkpt lat="45.8094365" lon="11.8312543"><ele>204.33333333333334</ele><time>2026-04-26T09:36:49.288Z</time></trkpt><trkpt lat="45.8094064" lon="11.83135"><ele>204.66666666666669</ele><time>2026-04-26T09:36:50.283Z</time></trkpt><trkpt lat="45.8093597" lon="11.8314885"><ele>205.0</ele><time>2026-04-26T09:36:52.285Z</time></trkpt><trkpt lat="45.8093577" lon="11.8315857"><ele>205.33333333333334</ele><time>2026-04-26T09:37:01.294Z</time></trkpt><trkpt lat="45.8094514" lon="11.8316479"><ele>205.66666666666669</ele><time>2026-04-26T09:37:04.3Z</time></trkpt><trkpt lat="45.8095283" lon="11.8316353"><ele>206.0</ele><time>2026-04-26T09:37:05.293Z</time></trkpt><trkpt lat="45.8096495" lon="11.8316142"><ele>206.0</ele><time>2026-04-26T09:37:06.291Z</time></trkpt><trkpt lat="45.8098184" lon="11.8315925"><ele>206.0</ele><time>2026-04-26T09:37:07.291Z</time></trkpt><trkpt lat="45.8100141" lon="11.8315407"><ele>206.0</ele><time>2026-04-26T09:37:08.293Z</time></trkpt><trkpt lat="45.8102745" lon="11.8314513"><ele>207.5</ele><time>2026-04-26T09:37:09.291Z</time></trkpt><trkpt lat="45.8105294" lon="11.8313973"><ele>209.0</ele><time>2026-04-26T09:37:10.272Z</time></trkpt><trkpt lat="45.8107548" lon="11.8313634"><ele>209.0</ele><time>2026-04-26T09:37:11.285Z</time></trkpt><trkpt lat="45.8109519" lon="11.8313324"><ele>209.0</ele><time>2026-04-26T09:37:12.281Z</time></trkpt><trkpt lat="45.8111335" lon="11.8313042"><ele>209.0</ele><time>2026-04-26T09:37:13.287Z</time></trkpt><trkpt lat="45.8113048" lon="11.831272"><ele>210.33333333333334</ele><time>2026-04-26T09:37:14.286Z</time></trkpt><trkpt lat="45.8114619" lon="11.8312416"><ele>211.66666666666669</ele><time>2026-04-26T09:37:15.285Z</time></trkpt><trkpt lat="45.8116155" lon="11.8311888"><ele>213.0</ele><time>2026-04-26T09:37:16.281Z</time></trkpt><trkpt lat="45.8117568" lon="11.8311265"><ele>213.25</ele><time>2026-04-26T09:37:17.288Z</time></trkpt><trkpt lat="45.8118888" lon="11.8310768"><ele>213.5</ele><time>2026-04-26T09:37:18.285Z</time></trkpt><trkpt lat="45.812004" lon="11.8310047"><ele>213.75</ele><time>2026-04-26T09:37:19.293Z</time></trkpt><trkpt lat="45.8121283" lon="11.8309606"><ele>214.0</ele><time>2026-04-26T09:37:20.281Z</time></trkpt><trkpt lat="45.8122727" lon="11.8309242"><ele>214.0</ele><time>2026-04-26T09:37:21.293Z</time></trkpt><trkpt lat="45.8124222" lon="11.8309031"><ele>214.0</ele><time>2026-04-26T09:37:22.29Z</time></trkpt><trkpt lat="45.8125928" lon="11.8308998"><ele>214.0</ele><time>2026-04-26T09:37:23.294Z</time></trkpt><trkpt lat="45.8127603" lon="11.8309119"><ele>215.5</ele><time>2026-04-26T09:37:24.288Z</time></trkpt><trkpt lat="45.8129006" lon="11.830933"><ele>217.0</ele><time>2026-04-26T09:37:25.295Z</time></trkpt><trkpt lat="45.8130289" lon="11.830965"><ele>218.5</ele><time>2026-04-26T09:37:26.285Z</time></trkpt><trkpt lat="45.8131517" lon="11.8309973"><ele>220.0</ele><time>2026-04-26T09:37:27.294Z</time></trkpt><trkpt lat="45.8132635" lon="11.8310187"><ele>220.25</ele><time>2026-04-26T09:37:28.293Z</time></trkpt><trkpt lat="45.81338" lon="11.8310486"><ele>220.5</ele><time>2026-04-26T09:37:29.294Z</time></trkpt><trkpt lat="45.8135017" lon="11.8310701"><ele>220.75</ele><time>2026-04-26T09:37:30.297Z</time></trkpt><trkpt lat="45.8136278" lon="11.8310806"><ele>221.0</ele><time>2026-04-26T09:37:31.291Z</time></trkpt><trkpt lat="45.8137598" lon="11.8310832"><ele>221.75</ele><time>2026-04-26T09:37:32.296Z</time></trkpt><trkpt lat="45.8138908" lon="11.8310775"><ele>222.5</ele><time>2026-04-26T09:37:33.289Z</time></trkpt><trkpt lat="45.8140253" lon="11.8310704"><ele>223.25</ele><time>2026-04-26T09:37:34.299Z</time></trkpt><trkpt lat="45.8141588" lon="11.8310577"><ele>224.0</ele><time>2026-04-26T09:37:35.289Z</time></trkpt><trkpt lat="45.8142869" lon="11.8310391"><ele>225.0</ele><time>2026-04-26T09:37:36.297Z</time></trkpt><trkpt lat="45.8144064" lon="11.8310159"><ele>226.0</ele><time>2026-04-26T09:37:37.292Z</time></trkpt><trkpt lat="45.8145254" lon="11.8309848"><ele>227.0</ele><time>2026-04-26T09:37:38.292Z</time></trkpt><trkpt lat="45.814645" lon="11.8309524"><ele>228.0</ele><time>2026-04-26T09:37:39.289Z</time></trkpt><trkpt lat="45.8147619" lon="11.830918"><ele>228.0</ele><time>2026-04-26T09:37:40.294Z</time></trkpt><trkpt lat="45.8148724" lon="11.8308729"><ele>228.0</ele><time>2026-04-26T09:37:41.289Z</time></trkpt><trkpt lat="45.8149819" lon="11.8308176"><ele>228.0</ele><time>2026-04-26T09:37:42.291Z</time></trkpt><trkpt lat="45.8150924" lon="11.8307534"><ele>228.0</ele><time>2026-04-26T09:37:43.289Z</time></trkpt><trkpt lat="45.8152052" lon="11.8306743"><ele>228.0</ele><time>2026-04-26T09:37:44.296Z</time></trkpt><trkpt lat="45.8153194" lon="11.8305898"><ele>228.0</ele><time>2026-04-26T09:37:45.285Z</time></trkpt><trkpt lat="45.8154262" lon="11.8305145"><ele>228.0</ele><time>2026-04-26T09:37:46.298Z</time></trkpt><trkpt lat="45.8155256" lon="11.8304454"><ele>228.0</ele><time>2026-04-26T09:37:47.294Z</time></trkpt><trkpt lat="45.8156181" lon="11.8303937"><ele>228.0</ele><time>2026-04-26T09:37:48.293Z</time></trkpt><trkpt lat="45.8157086" lon="11.8303604"><ele>228.0</ele><time>2026-04-26T09:37:49.293Z</time></trkpt><trkpt lat="45.8158008" lon="11.8303602"><ele>228.0</ele><time>2026-04-26T09:37:50.292Z</time></trkpt><trkpt lat="45.8158917" lon="11.8303965"><ele>228.0</ele><time>2026-04-26T09:37:51.296Z</time></trkpt><trkpt lat="45.8159674" lon="11.8304758"><ele>228.0</ele><time>2026-04-26T09:37:52.298Z</time></trkpt><trkpt lat="45.8160203" lon="11.8305979"><ele>229.75</ele><time>2026-04-26T09:37:53.291Z</time></trkpt><trkpt lat="45.8160396" lon="11.8307667"><ele>231.5</ele><time>2026-04-26T09:37:54.296Z</time></trkpt><trkpt lat="45.8160335" lon="11.8309654"><ele>233.25</ele><time>2026-04-26T09:37:55.287Z</time></trkpt><trkpt lat="45.8160324" lon="11.8311979"><ele>235.0</ele><time>2026-04-26T09:37:56.292Z</time></trkpt><trkpt lat="45.8160194" lon="11.8314653"><ele>235.0</ele><time>2026-04-26T09:37:57.287Z</time></trkpt><trkpt lat="45.8160108" lon="11.8317803"><ele>235.0</ele><time>2026-04-26T09:37:58.298Z</time></trkpt><trkpt lat="45.8160163" lon="11.8320544"><ele>235.0</ele><time>2026-04-26T09:37:59.286Z</time></trkpt><trkpt lat="45.8160184" lon="11.8323076"><ele>235.0</ele><time>2026-04-26T09:38:00.29Z</time></trkpt><trkpt lat="45.8160259" lon="11.8325366"><ele>235.0</ele><time>2026-04-26T09:38:01.283Z</time></trkpt><trkpt lat="45.8160379" lon="11.8327292"><ele>235.0</ele><time>2026-04-26T09:38:02.29Z</time></trkpt><trkpt lat="45.8160456" lon="11.8329047"><ele>235.0</ele><time>2026-04-26T09:38:03.286Z</time></trkpt><trkpt lat="45.816049" lon="11.8330603"><ele>234.99999999999997</ele><time>2026-04-26T09:38:04.291Z</time></trkpt><trkpt lat="45.8160653" lon="11.8332017"><ele>235.0</ele><time>2026-04-26T09:38:05.284Z</time></trkpt><trkpt lat="45.8160874" lon="11.8333076"><ele>235.0</ele><time>2026-04-26T09:38:06.287Z</time></trkpt><trkpt lat="45.8161095" lon="11.8333969"><ele>235.0</ele><time>2026-04-26T09:38:07.287Z</time></trkpt><trkpt lat="45.8161286" lon="11.8334872"><ele>234.99999999999997</ele><time>2026-04-26T09:38:08.291Z</time></trkpt><trkpt lat="45.8161469" lon="11.8336523"><ele>235.0</ele><time>2026-04-26T09:38:10.287Z</time></trkpt><trkpt lat="45.8161587" lon="11.8338104"><ele>235.0</ele><time>2026-04-26T09:38:12.294Z</time></trkpt><trkpt lat="45.8161316" lon="11.8339263"><ele>235.0</ele><time>2026-04-26T09:38:13.272Z</time></trkpt><trkpt lat="45.8160854" lon="11.8340484"><ele>235.0</ele><time>2026-04-26T09:38:14.284Z</time></trkpt><trkpt lat="45.8160393" lon="11.834179"><ele>235.0</ele><time>2026-04-26T09:38:15.275Z</time></trkpt><trkpt lat="45.8159981" lon="11.8343288"><ele>235.0</ele><time>2026-04-26T09:38:16.269Z</time></trkpt><trkpt lat="45.8159533" lon="11.8344939"><ele>234.0</ele><time>2026-04-26T09:38:17.275Z</time></trkpt><trkpt lat="45.8159161" lon="11.8346563"><ele>233.0</ele><time>2026-04-26T09:38:18.275Z</time></trkpt><trkpt lat="45.8158825" lon="11.8348208"><ele>232.0</ele><time>2026-04-26T09:38:19.283Z</time></trkpt><trkpt lat="45.8158517" lon="11.8349619"><ele>231.0</ele><time>2026-04-26T09:38:20.279Z</time></trkpt><trkpt lat="45.8158148" lon="11.8350623"><ele>230.0</ele><time>2026-04-26T09:38:21.286Z</time></trkpt><trkpt lat="45.8157845" lon="11.8351482"><ele>230.00000000000003</ele><time>2026-04-26T09:38:22.284Z</time></trkpt><trkpt lat="45.8157816" lon="11.8352509"><ele>230.0</ele><time>2026-04-26T09:38:23.282Z</time></trkpt><trkpt lat="45.8157956" lon="11.8353563"><ele>230.0</ele><time>2026-04-26T09:38:24.276Z</time></trkpt><trkpt lat="45.8157914" lon="11.8354615"><ele>230.0</ele><time>2026-04-26T09:38:25.288Z</time></trkpt><trkpt lat="45.8157656" lon="11.8355651"><ele>230.00000000000003</ele><time>2026-04-26T09:38:26.284Z</time></trkpt><trkpt lat="45.8157044" lon="11.8356764"><ele>230.0</ele><time>2026-04-26T09:38:27.283Z</time></trkpt><trkpt lat="45.8156179" lon="11.8357857"><ele>230.0</ele><time>2026-04-26T09:38:28.281Z</time></trkpt><trkpt lat="45.8155153" lon="11.8359088"><ele>230.0</ele><time>2026-04-26T09:38:29.288Z</time></trkpt><trkpt lat="45.8154203" lon="11.8360305"><ele>230.0</ele><time>2026-04-26T09:38:30.286Z</time></trkpt><trkpt lat="45.8153302" lon="11.8361679"><ele>230.0</ele><time>2026-04-26T09:38:31.284Z</time></trkpt><trkpt lat="45.8152725" lon="11.8363048"><ele>229.83333333333334</ele><time>2026-04-26T09:38:32.287Z</time></trkpt><trkpt lat="45.8152144" lon="11.8364431"><ele>229.66666666666669</ele><time>2026-04-26T09:38:33.281Z</time></trkpt><trkpt lat="45.8151745" lon="11.8365658"><ele>229.5</ele><time>2026-04-26T09:38:34.281Z</time></trkpt><trkpt lat="45.8151339" lon="11.836672"><ele>229.33333333333331</ele><time>2026-04-26T09:38:35.27Z</time></trkpt><trkpt lat="45.8150902" lon="11.8367652"><ele>229.16666666666666</ele><time>2026-04-26T09:38:36.292Z</time></trkpt><trkpt lat="45.8150476" lon="11.8368563"><ele>229.0</ele><time>2026-04-26T09:38:37.281Z</time></trkpt><trkpt lat="45.8150069" lon="11.8369592"><ele>227.99999999999997</ele><time>2026-04-26T09:38:38.295Z</time></trkpt><trkpt lat="45.8149605" lon="11.8370632"><ele>227.0</ele><time>2026-04-26T09:38:39.284Z</time></trkpt><trkpt lat="45.8149167" lon="11.8371663"><ele>226.0</ele><time>2026-04-26T09:38:40.294Z</time></trkpt><trkpt lat="45.8148701" lon="11.8372587"><ele>225.0</ele><time>2026-04-26T09:38:41.288Z</time></trkpt><trkpt lat="45.8147996" lon="11.8373457"><ele>223.99999999999997</ele><time>2026-04-26T09:38:42.29Z</time></trkpt><trkpt lat="45.814714" lon="11.83741"><ele>223.0</ele><time>2026-04-26T09:38:43.283Z</time></trkpt><trkpt lat="45.8146338" lon="11.8374769"><ele>222.99999999999997</ele><time>2026-04-26T09:38:44.29Z</time></trkpt><trkpt lat="45.8145694" lon="11.8375548"><ele>223.0</ele><time>2026-04-26T09:38:45.287Z</time></trkpt><trkpt lat="45.814519" lon="11.8376482"><ele>223.0</ele><time>2026-04-26T09:38:46.291Z</time></trkpt><trkpt lat="45.8145033" lon="11.8377544"><ele>223.0</ele><time>2026-04-26T09:38:47.289Z</time></trkpt><trkpt lat="45.8144956" lon="11.8378613"><ele>222.99999999999997</ele><time>2026-04-26T09:38:48.286Z</time></trkpt><trkpt lat="45.8144828" lon="11.8379685"><ele>223.0</ele><time>2026-04-26T09:38:49.292Z</time></trkpt><trkpt lat="45.81446" lon="11.8380647"><ele>223.14285714285714</ele><time>2026-04-26T09:38:50.282Z</time></trkpt><trkpt lat="45.8144253" lon="11.8381528"><ele>223.28571428571428</ele><time>2026-04-26T09:38:51.291Z</time></trkpt><trkpt lat="45.8143912" lon="11.8382401"><ele>223.42857142857144</ele><time>2026-04-26T09:38:52.285Z</time></trkpt><trkpt lat="45.8143527" lon="11.8383296"><ele>223.57142857142856</ele><time>2026-04-26T09:38:53.291Z</time></trkpt><trkpt lat="45.8143085" lon="11.8384273"><ele>223.71428571428572</ele><time>2026-04-26T09:38:54.288Z</time></trkpt><trkpt lat="45.8142652" lon="11.838513"><ele>223.85714285714286</ele><time>2026-04-26T09:38:55.292Z</time></trkpt><trkpt lat="45.8142198" lon="11.8385794"><ele>224.0</ele><time>2026-04-26T09:38:56.278Z</time></trkpt><trkpt lat="45.8141621" lon="11.8386757"><ele>224.0</ele><time>2026-04-26T09:38:58.284Z</time></trkpt><trkpt lat="45.8141694" lon="11.8385388"><ele>223.99999999999997</ele><time>2026-04-26T09:39:13.283Z</time></trkpt><trkpt lat="45.814259" lon="11.8384051"><ele>223.99999999999997</ele><time>2026-04-26T09:39:15.275Z</time></trkpt><trkpt lat="45.8142836" lon="11.838288"><ele>224.0</ele><time>2026-04-26T09:39:16.288Z</time></trkpt><trkpt lat="45.8143266" lon="11.8381874"><ele>224.0</ele><time>2026-04-26T09:39:17.29Z</time></trkpt><trkpt lat="45.8143663" lon="11.8380821"><ele>224.00000000000003</ele><time>2026-04-26T09:39:18.295Z</time></trkpt><trkpt lat="45.8144056" lon="11.837994"><ele>224.0</ele><time>2026-04-26T09:39:19.288Z</time></trkpt><trkpt lat="45.8144368" lon="11.8379049"><ele>224.0</ele><time>2026-04-26T09:39:20.297Z</time></trkpt><trkpt lat="45.8144597" lon="11.8378187"><ele>224.0</ele><time>2026-04-26T09:39:21.285Z</time></trkpt><trkpt lat="45.8144814" lon="11.8376567"><ele>224.00000000000003</ele><time>2026-04-26T09:39:23.289Z</time></trkpt><trkpt lat="45.8144792" lon="11.8375116"><ele>224.0</ele><time>2026-04-26T09:39:25.287Z</time></trkpt><trkpt lat="45.8144492" lon="11.8374029"><ele>223.83333333333334</ele><time>2026-04-26T09:39:27.293Z</time></trkpt><trkpt lat="45.8143723" lon="11.8374367"><ele>223.66666666666669</ele><time>2026-04-26T09:39:35.289Z</time></trkpt><trkpt lat="45.8143047" lon="11.837457"><ele>223.5</ele><time>2026-04-26T09:39:37.282Z</time></trkpt><trkpt lat="45.8142369" lon="11.8374702"><ele>223.33333333333331</ele><time>2026-04-26T09:39:39.284Z</time></trkpt><trkpt lat="45.8141572" lon="11.8374661"><ele>223.16666666666666</ele><time>2026-04-26T09:39:41.282Z</time></trkpt><trkpt lat="45.8140676" lon="11.8374606"><ele>223.0</ele><time>2026-04-26T09:39:43.284Z</time></trkpt><trkpt lat="45.8139896" lon="11.837457"><ele>222.0</ele><time>2026-04-26T09:39:45.289Z</time></trkpt><trkpt lat="45.8139201" lon="11.8373984"><ele>221.0</ele><time>2026-04-26T09:39:47.282Z</time></trkpt><trkpt lat="45.8138375" lon="11.8373649"><ele>220.0</ele><time>2026-04-26T09:39:49.284Z</time></trkpt><trkpt lat="45.8137298" lon="11.837393"><ele>219.0</ele><time>2026-04-26T09:39:51.277Z</time></trkpt><trkpt lat="45.8136153" lon="11.8374196"><ele>218.0</ele><time>2026-04-26T09:39:53.282Z</time></trkpt><trkpt lat="45.8135301" lon="11.8374172"><ele>217.2</ele><time>2026-04-26T09:39:55.274Z</time></trkpt><trkpt lat="45.8134148" lon="11.8374254"><ele>216.4</ele><time>2026-04-26T09:39:57.28Z</time></trkpt><trkpt lat="45.8133109" lon="11.8374585"><ele>215.59999999999997</ele><time>2026-04-26T09:39:59.276Z</time></trkpt><trkpt lat="45.8131904" lon="11.8374667"><ele>214.79999999999998</ele><time>2026-04-26T09:40:01.28Z</time></trkpt><trkpt lat="45.813087" lon="11.8374532"><ele>214.0</ele><time>2026-04-26T09:40:03.268Z</time></trkpt><trkpt lat="45.8129819" lon="11.8374487"><ele>214.0</ele><time>2026-04-26T09:40:05.277Z</time></trkpt><trkpt lat="45.8129167" lon="11.8374156"><ele>213.99999999999997</ele><time>2026-04-26T09:40:06.277Z</time></trkpt><trkpt lat="45.8128086" lon="11.8373252"><ele>213.99999999999997</ele><time>2026-04-26T09:40:08.278Z</time></trkpt><trkpt lat="45.8127548" lon="11.8372277"><ele>214.0</ele><time>2026-04-26T09:40:10.285Z</time></trkpt><trkpt lat="45.8126735" lon="11.8371595"><ele>214.0</ele><time>2026-04-26T09:40:12.273Z</time></trkpt><trkpt lat="45.8125393" lon="11.837138"><ele>213.83333333333331</ele><time>2026-04-26T09:40:14.275Z</time></trkpt><trkpt lat="45.812468" lon="11.837149"><ele>213.66666666666666</ele><time>2026-04-26T09:40:15.274Z</time></trkpt><trkpt lat="45.8123441" lon="11.8371365"><ele>213.5</ele><time>2026-04-26T09:40:17.277Z</time></trkpt><trkpt lat="45.8122797" lon="11.8371108"><ele>213.33333333333331</ele><time>2026-04-26T09:40:18.274Z</time></trkpt><trkpt lat="45.8121885" lon="11.8371147"><ele>213.16666666666666</ele><time>2026-04-26T09:40:20.27Z</time></trkpt><trkpt lat="45.8121081" lon="11.8371168"><ele>213.0</ele><time>2026-04-26T09:40:22.274Z</time></trkpt><trkpt lat="45.8120352" lon="11.8371276"><ele>213.0</ele><time>2026-04-26T09:40:24.278Z</time></trkpt><trkpt lat="45.8119498" lon="11.8371399"><ele>213.0</ele><time>2026-04-26T09:40:26.28Z</time></trkpt><trkpt lat="45.8118593" lon="11.8371526"><ele>213.0</ele><time>2026-04-26T09:40:28.276Z</time></trkpt><trkpt lat="45.8117729" lon="11.8371223"><ele>213.0</ele><time>2026-04-26T09:40:30.278Z</time></trkpt><trkpt lat="45.8116805" lon="11.8370642"><ele>213.0</ele><time>2026-04-26T09:40:32.287Z</time></trkpt><trkpt lat="45.8116115" lon="11.8370007"><ele>213.0</ele><time>2026-04-26T09:40:34.292Z</time></trkpt><trkpt lat="45.8115301" lon="11.8369789"><ele>212.5</ele><time>2026-04-26T09:40:36.288Z</time></trkpt><trkpt lat="45.8114613" lon="11.8369556"><ele>212.0</ele><time>2026-04-26T09:40:38.289Z</time></trkpt><trkpt lat="45.8113691" lon="11.8369328"><ele>211.5</ele><time>2026-04-26T09:40:40.295Z</time></trkpt><trkpt lat="45.8112792" lon="11.8369332"><ele>211.0</ele><time>2026-04-26T09:40:42.292Z</time></trkpt><trkpt lat="45.8111835" lon="11.8369643"><ele>210.5</ele><time>2026-04-26T09:40:44.289Z</time></trkpt><trkpt lat="45.8111004" lon="11.8369948"><ele>210.0</ele><time>2026-04-26T09:40:46.287Z</time></trkpt><trkpt lat="45.8109766" lon="11.8369951"><ele>209.2</ele><time>2026-04-26T09:40:48.294Z</time></trkpt><trkpt lat="45.8108503" lon="11.8369564"><ele>208.4</ele><time>2026-04-26T09:40:50.292Z</time></trkpt><trkpt lat="45.8107607" lon="11.8369517"><ele>207.60000000000002</ele><time>2026-04-26T09:40:52.289Z</time></trkpt><trkpt lat="45.8106873" lon="11.8369598"><ele>206.8</ele><time>2026-04-26T09:40:53.278Z</time></trkpt><trkpt lat="45.810618" lon="11.8369674"><ele>206.0</ele><time>2026-04-26T09:40:54.293Z</time></trkpt><trkpt lat="45.8105154" lon="11.8369718"><ele>206.00000000000003</ele><time>2026-04-26T09:40:56.286Z</time></trkpt><trkpt lat="45.8104516" lon="11.836982"><ele>206.0</ele><time>2026-04-26T09:40:58.287Z</time></trkpt><trkpt lat="45.8104222" lon="11.8371283"><ele>206.0</ele><time>2026-04-26T09:41:01.283Z</time></trkpt><trkpt lat="45.8104663" lon="11.8372988"><ele>206.0</ele><time>2026-04-26T09:41:03.285Z</time></trkpt><trkpt lat="45.8105002" lon="11.8373819"><ele>206.00000000000003</ele><time>2026-04-26T09:41:04.288Z</time></trkpt><trkpt lat="45.8105213" lon="11.8374737"><ele>206.0</ele><time>2026-04-26T09:41:05.296Z</time></trkpt><trkpt lat="45.810535" lon="11.8376182"><ele>205.66666666666669</ele><time>2026-04-26T09:41:07.281Z</time></trkpt><trkpt lat="45.8104988" lon="11.8376937"><ele>205.33333333333334</ele><time>2026-04-26T09:41:09.276Z</time></trkpt><trkpt lat="45.8103956" lon="11.8376901"><ele>205.0</ele><time>2026-04-26T09:41:11.277Z</time></trkpt><trkpt lat="45.8103245" lon="11.8376808"><ele>204.66666666666669</ele><time>2026-04-26T09:41:12.284Z</time></trkpt><trkpt lat="45.8102506" lon="11.8376567"><ele>204.33333333333334</ele><time>2026-04-26T09:41:13.278Z</time></trkpt><trkpt lat="45.810141" lon="11.8376083"><ele>204.0</ele><time>2026-04-26T09:41:15.273Z</time></trkpt><trkpt lat="45.81008" lon="11.8376459"><ele>203.39999999999998</ele><time>2026-04-26T09:41:17.282Z</time></trkpt><trkpt lat="45.8099996" lon="11.8376705"><ele>202.8</ele><time>2026-04-26T09:41:19.274Z</time></trkpt><trkpt lat="45.8099132" lon="11.8377173"><ele>202.2</ele><time>2026-04-26T09:41:21.281Z</time></trkpt><trkpt lat="45.8098002" lon="11.8376821"><ele>201.60000000000002</ele><time>2026-04-26T09:41:23.272Z</time></trkpt><trkpt lat="45.8097079" lon="11.8376753"><ele>201.0</ele><time>2026-04-26T09:41:25.274Z</time></trkpt><trkpt lat="45.8096206" lon="11.8376869"><ele>201.0</ele><time>2026-04-26T09:41:27.27Z</time></trkpt><trkpt lat="45.8094996" lon="11.8377204"><ele>201.0</ele><time>2026-04-26T09:41:29.278Z</time></trkpt><trkpt lat="45.809437" lon="11.8377312"><ele>201.0</ele><time>2026-04-26T09:41:30.28Z</time></trkpt><trkpt lat="45.8093738" lon="11.8377299"><ele>201.0</ele><time>2026-04-26T09:41:31.275Z</time></trkpt><trkpt lat="45.8092615" lon="11.8377712"><ele>201.0</ele><time>2026-04-26T09:41:33.273Z</time></trkpt><trkpt lat="45.8091789" lon="11.837808"><ele>200.5</ele><time>2026-04-26T09:41:35.27Z</time></trkpt><trkpt lat="45.8090738" lon="11.8378303"><ele>200.0</ele><time>2026-04-26T09:41:37.268Z</time></trkpt><trkpt lat="45.8089941" lon="11.8378684"><ele>199.5</ele><time>2026-04-26T09:41:39.281Z</time></trkpt><trkpt lat="45.8089269" lon="11.8378585"><ele>199.0</ele><time>2026-04-26T09:41:41.28Z</time></trkpt><trkpt lat="45.8088654" lon="11.8379504"><ele>198.5</ele><time>2026-04-26T09:41:43.284Z</time></trkpt><trkpt lat="45.8088426" lon="11.8380348"><ele>198.0</ele><time>2026-04-26T09:41:44.283Z</time></trkpt><trkpt lat="45.8088276" lon="11.8381251"><ele>198.0</ele><time>2026-04-26T09:41:45.287Z</time></trkpt><trkpt lat="45.8088005" lon="11.8382938"><ele>198.0</ele><time>2026-04-26T09:41:47.286Z</time></trkpt><trkpt lat="45.8087448" lon="11.8384027"><ele>198.0</ele><time>2026-04-26T09:41:49.286Z</time></trkpt><trkpt lat="45.8086538" lon="11.8384402"><ele>198.0</ele><time>2026-04-26T09:41:51.278Z</time></trkpt><trkpt lat="45.8085648" lon="11.8385155"><ele>198.0</ele><time>2026-04-26T09:41:53.28Z</time></trkpt><trkpt lat="45.8084802" lon="11.8385544"><ele>197.0</ele><time>2026-04-26T09:41:55.284Z</time></trkpt><trkpt lat="45.8084043" lon="11.838632"><ele>196.0</ele><time>2026-04-26T09:41:57.279Z</time></trkpt><trkpt lat="45.8083392" lon="11.8386978"><ele>195.0</ele><time>2026-04-26T09:41:59.286Z</time></trkpt><trkpt lat="45.808273" lon="11.8387843"><ele>194.0</ele><time>2026-04-26T09:42:01.286Z</time></trkpt><trkpt lat="45.8081978" lon="11.8388683"><ele>193.0</ele><time>2026-04-26T09:42:03.288Z</time></trkpt><trkpt lat="45.8081" lon="11.8389621"><ele>193.0</ele><time>2026-04-26T09:42:05.286Z</time></trkpt><trkpt lat="45.8079961" lon="11.8389799"><ele>193.0</ele><time>2026-04-26T09:42:07.28Z</time></trkpt><trkpt lat="45.8078797" lon="11.838981"><ele>193.0</ele><time>2026-04-26T09:42:09.278Z</time></trkpt><trkpt lat="45.8077785" lon="11.8389616"><ele>193.0</ele><time>2026-04-26T09:42:11.289Z</time></trkpt><trkpt lat="45.8077198" lon="11.8388957"><ele>193.0</ele><time>2026-04-26T09:42:14.288Z</time></trkpt><trkpt lat="45.8076574" lon="11.8388306"><ele>192.2</ele><time>2026-04-26T09:42:15.273Z</time></trkpt><trkpt lat="45.8075699" lon="11.8387725"><ele>191.4</ele><time>2026-04-26T09:42:16.282Z</time></trkpt><trkpt lat="45.8075141" lon="11.8387246"><ele>190.6</ele><time>2026-04-26T09:42:17.267Z</time></trkpt><trkpt lat="45.8074181" lon="11.8386185"><ele>189.79999999999998</ele><time>2026-04-26T09:42:22.273Z</time></trkpt><trkpt lat="45.8073479" lon="11.8385135"><ele>189.0</ele><time>2026-04-26T09:42:24.274Z</time></trkpt><trkpt lat="45.8072508" lon="11.8384365"><ele>189.0</ele><time>2026-04-26T09:42:26.269Z</time></trkpt><trkpt lat="45.8071236" lon="11.8383987"><ele>189.0</ele><time>2026-04-26T09:42:28.276Z</time></trkpt><trkpt lat="45.8070146" lon="11.8384185"><ele>189.0</ele><time>2026-04-26T09:42:30.282Z</time></trkpt><trkpt lat="45.806943" lon="11.838497"><ele>189.0</ele><time>2026-04-26T09:42:32.283Z</time></trkpt><trkpt lat="45.8068402" lon="11.8385614"><ele>189.0</ele><time>2026-04-26T09:42:34.282Z</time></trkpt><trkpt lat="45.8067325" lon="11.8385809"><ele>188.2</ele><time>2026-04-26T09:42:36.289Z</time></trkpt><trkpt lat="45.8066519" lon="11.838609"><ele>187.39999999999998</ele><time>2026-04-26T09:42:37.28Z</time></trkpt><trkpt lat="45.8065832" lon="11.8386336"><ele>186.6</ele><time>2026-04-26T09:42:38.283Z</time></trkpt><trkpt lat="45.8064975" lon="11.8385869"><ele>185.8</ele><time>2026-04-26T09:42:40.289Z</time></trkpt><trkpt lat="45.8063891" lon="11.8385856"><ele>185.0</ele><time>2026-04-26T09:42:42.292Z</time></trkpt><trkpt lat="45.8062763" lon="11.8385912"><ele>185.0</ele><time>2026-04-26T09:42:44.288Z</time></trkpt><trkpt lat="45.8061752" lon="11.8386107"><ele>185.0</ele><time>2026-04-26T09:42:46.294Z</time></trkpt><trkpt lat="45.8060855" lon="11.8386785"><ele>185.0</ele><time>2026-04-26T09:42:48.3Z</time></trkpt><trkpt lat="45.8060154" lon="11.8387475"><ele>185.0</ele><time>2026-04-26T09:42:50.292Z</time></trkpt><trkpt lat="45.8059574" lon="11.8387937"><ele>185.0</ele><time>2026-04-26T09:42:52.294Z</time></trkpt><trkpt lat="45.8058901" lon="11.8388445"><ele>185.0</ele><time>2026-04-26T09:42:55.294Z</time></trkpt><trkpt lat="45.8058057" lon="11.8388441"><ele>184.8</ele><time>2026-04-26T09:42:58.289Z</time></trkpt><trkpt lat="45.8057222" lon="11.8388334"><ele>184.6</ele><time>2026-04-26T09:43:00.299Z</time></trkpt><trkpt lat="45.8056012" lon="11.8388387"><ele>184.39999999999998</ele><time>2026-04-26T09:43:02.297Z</time></trkpt><trkpt lat="45.8055123" lon="11.838864"><ele>184.2</ele><time>2026-04-26T09:43:04.299Z</time></trkpt><trkpt lat="45.8054294" lon="11.8388731"><ele>184.0</ele><time>2026-04-26T09:43:06.297Z</time></trkpt><trkpt lat="45.8053523" lon="11.8389059"><ele>184.0</ele><time>2026-04-26T09:43:08.294Z</time></trkpt><trkpt lat="45.805278" lon="11.838939"><ele>184.0</ele><time>2026-04-26T09:43:11.289Z</time></trkpt><trkpt lat="45.8052206" lon="11.8389877"><ele>184.0</ele><time>2026-04-26T09:44:57.276Z</time></trkpt><trkpt lat="45.8051395" lon="11.8390313"><ele>184.0</ele><time>2026-04-26T09:44:59.28Z</time></trkpt><trkpt lat="45.805034" lon="11.8390895"><ele>184.0</ele><time>2026-04-26T09:45:01.283Z</time></trkpt><trkpt lat="45.8049738" lon="11.8391171"><ele>184.0</ele><time>2026-04-26T09:45:02.291Z</time></trkpt><trkpt lat="45.804912" lon="11.839135"><ele>183.85714285714286</ele><time>2026-04-26T09:45:03.287Z</time></trkpt><trkpt lat="45.8048466" lon="11.8391543"><ele>183.7142857142857</ele><time>2026-04-26T09:45:04.293Z</time></trkpt><trkpt lat="45.8047807" lon="11.8391653"><ele>183.57142857142856</ele><time>2026-04-26T09:45:05.286Z</time></trkpt><trkpt lat="45.8047091" lon="11.8391844"><ele>183.42857142857144</ele><time>2026-04-26T09:45:06.293Z</time></trkpt><trkpt lat="45.8046404" lon="11.8391931"><ele>183.28571428571428</ele><time>2026-04-26T09:45:07.293Z</time></trkpt><trkpt lat="45.804568" lon="11.8392029"><ele>183.14285714285714</ele><time>2026-04-26T09:45:08.299Z</time></trkpt><trkpt lat="45.8044958" lon="11.8392105"><ele>183.0</ele><time>2026-04-26T09:45:09.286Z</time></trkpt><trkpt lat="45.8044248" lon="11.8392272"><ele>183.0</ele><time>2026-04-26T09:45:10.295Z</time></trkpt><trkpt lat="45.8043588" lon="11.8392447"><ele>183.0</ele><time>2026-04-26T09:45:11.296Z</time></trkpt><trkpt lat="45.8042944" lon="11.8392608"><ele>183.0</ele><time>2026-04-26T09:45:12.291Z</time></trkpt><trkpt lat="45.8041814" lon="11.8392879"><ele>183.0</ele><time>2026-04-26T09:45:14.294Z</time></trkpt><trkpt lat="45.8040869" lon="11.8393139"><ele>183.0</ele><time>2026-04-26T09:45:16.293Z</time></trkpt><trkpt lat="45.8040308" lon="11.8394008"><ele>183.0</ele><time>2026-04-26T09:45:18.291Z</time></trkpt><trkpt lat="45.8040085" lon="11.839548"><ele>182.0</ele><time>2026-04-26T09:45:20.284Z</time></trkpt><trkpt lat="45.8039233" lon="11.8396527"><ele>181.0</ele><time>2026-04-26T09:45:22.285Z</time></trkpt><trkpt lat="45.8038502" lon="11.8396556"><ele>180.0</ele><time>2026-04-26T09:45:23.298Z</time></trkpt><trkpt lat="45.8037569" lon="11.8396483"><ele>179.0</ele><time>2026-04-26T09:45:24.285Z</time></trkpt><trkpt lat="45.8036488" lon="11.83963"><ele>178.0</ele><time>2026-04-26T09:45:25.287Z</time></trkpt><trkpt lat="45.8035392" lon="11.8396153"><ele>177.2</ele><time>2026-04-26T09:45:26.281Z</time></trkpt><trkpt lat="45.8034228" lon="11.8395959"><ele>176.4</ele><time>2026-04-26T09:45:27.287Z</time></trkpt><trkpt lat="45.8033139" lon="11.8395858"><ele>175.6</ele><time>2026-04-26T09:45:28.294Z</time></trkpt><trkpt lat="45.8032107" lon="11.8395829"><ele>174.79999999999998</ele><time>2026-04-26T09:45:29.288Z</time></trkpt><trkpt lat="45.8031191" lon="11.8395755"><ele>174.0</ele><time>2026-04-26T09:45:30.302Z</time></trkpt><trkpt lat="45.8030256" lon="11.8395694"><ele>174.0</ele><time>2026-04-26T09:45:31.296Z</time></trkpt><trkpt lat="45.8029386" lon="11.8395603"><ele>174.0</ele><time>2026-04-26T09:45:32.299Z</time></trkpt><trkpt lat="45.802864" lon="11.8395547"><ele>174.0</ele><time>2026-04-26T09:45:33.303Z</time></trkpt><trkpt lat="45.8028028" lon="11.8395072"><ele>174.0</ele><time>2026-04-26T09:45:34.302Z</time></trkpt><trkpt lat="45.8027573" lon="11.839413"><ele>174.0</ele><time>2026-04-26T09:45:35.306Z</time></trkpt><trkpt lat="45.8027338" lon="11.8392821"><ele>174.0</ele><time>2026-04-26T09:45:36.285Z</time></trkpt><trkpt lat="45.8027187" lon="11.8391368"><ele>174.0</ele><time>2026-04-26T09:45:37.289Z</time></trkpt><trkpt lat="45.8027218" lon="11.8389937"><ele>174.0</ele><time>2026-04-26T09:45:38.294Z</time></trkpt><trkpt lat="45.8027185" lon="11.838862"><ele>174.0</ele><time>2026-04-26T09:45:39.291Z</time></trkpt><trkpt lat="45.8027233" lon="11.8387298"><ele>174.0</ele><time>2026-04-26T09:45:40.283Z</time></trkpt><trkpt lat="45.8027205" lon="11.8386234"><ele>174.0</ele><time>2026-04-26T09:45:41.288Z</time></trkpt><trkpt lat="45.8026745" lon="11.8384672"><ele>173.6</ele><time>2026-04-26T09:45:43.29Z</time></trkpt><trkpt lat="45.802563" lon="11.8384914"><ele>173.2</ele><time>2026-04-26T09:45:45.288Z</time></trkpt><trkpt lat="45.8024876" lon="11.8385361"><ele>172.79999999999998</ele><time>2026-04-26T09:45:46.289Z</time></trkpt><trkpt lat="45.8024216" lon="11.8385458"><ele>172.39999999999998</ele><time>2026-04-26T09:45:47.293Z</time></trkpt><trkpt lat="45.8023612" lon="11.838444"><ele>172.0</ele><time>2026-04-26T09:45:49.282Z</time></trkpt><trkpt lat="45.8023653" lon="11.8382846"><ele>172.0</ele><time>2026-04-26T09:45:51.293Z</time></trkpt><trkpt lat="45.8023741" lon="11.8381892"><ele>172.0</ele><time>2026-04-26T09:45:52.295Z</time></trkpt><trkpt lat="45.8023717" lon="11.8380769"><ele>172.0</ele><time>2026-04-26T09:45:53.295Z</time></trkpt><trkpt lat="45.8023645" lon="11.8379464"><ele>172.0</ele><time>2026-04-26T09:45:54.299Z</time></trkpt><trkpt lat="45.8023574" lon="11.8378335"><ele>172.0</ele><time>2026-04-26T09:45:55.29Z</time></trkpt><trkpt lat="45.8023396" lon="11.8377267"><ele>172.0</ele><time>2026-04-26T09:45:56.293Z</time></trkpt><trkpt lat="45.8023156" lon="11.8376301"><ele>172.0</ele><time>2026-04-26T09:45:57.289Z</time></trkpt><trkpt lat="45.8022806" lon="11.8375511"><ele>172.0</ele><time>2026-04-26T09:45:58.302Z</time></trkpt><trkpt lat="45.8022156" lon="11.8374987"><ele>172.0</ele><time>2026-04-26T09:45:59.291Z</time></trkpt><trkpt lat="45.8021253" lon="11.8374936"><ele>172.0</ele><time>2026-04-26T09:46:00.306Z</time></trkpt><trkpt lat="45.8020129" lon="11.8375316"><ele>172.0</ele><time>2026-04-26T09:46:01.29Z</time></trkpt><trkpt lat="45.8018723" lon="11.8375779"><ele>172.0</ele><time>2026-04-26T09:46:02.297Z</time></trkpt><trkpt lat="45.801727" lon="11.8376139"><ele>172.0</ele><time>2026-04-26T09:46:03.292Z</time></trkpt><trkpt lat="45.8015928" lon="11.8376509"><ele>172.0</ele><time>2026-04-26T09:46:04.292Z</time></trkpt><trkpt lat="45.8014753" lon="11.8376786"><ele>172.0</ele><time>2026-04-26T09:46:05.286Z</time></trkpt><trkpt lat="45.8013725" lon="11.8377056"><ele>171.6</ele><time>2026-04-26T09:46:06.29Z</time></trkpt><trkpt lat="45.8012716" lon="11.8377412"><ele>171.2</ele><time>2026-04-26T09:46:07.29Z</time></trkpt><trkpt lat="45.8011814" lon="11.8378061"><ele>170.8</ele><time>2026-04-26T09:46:08.292Z</time></trkpt><trkpt lat="45.8011061" lon="11.8378867"><ele>170.4</ele><time>2026-04-26T09:46:09.283Z</time></trkpt><trkpt lat="45.8010525" lon="11.8379811"><ele>170.0</ele><time>2026-04-26T09:46:10.289Z</time></trkpt><trkpt lat="45.8010201" lon="11.8380761"><ele>170.0</ele><time>2026-04-26T09:46:11.284Z</time></trkpt><trkpt lat="45.8010129" lon="11.8381859"><ele>170.0</ele><time>2026-04-26T09:46:12.293Z</time></trkpt><trkpt lat="45.8010371" lon="11.8383162"><ele>170.0</ele><time>2026-04-26T09:46:13.286Z</time></trkpt><trkpt lat="45.8010766" lon="11.8384522"><ele>170.0</ele><time>2026-04-26T09:46:14.289Z</time></trkpt><trkpt lat="45.8011016" lon="11.8385655"><ele>170.0</ele><time>2026-04-26T09:46:15.276Z</time></trkpt><trkpt lat="45.8011065" lon="11.838662"><ele>170.0</ele><time>2026-04-26T09:46:16.299Z</time></trkpt><trkpt lat="45.8010358" lon="11.8387597"><ele>169.2</ele><time>2026-04-26T09:46:18.299Z</time></trkpt><trkpt lat="45.8009637" lon="11.8387569"><ele>168.4</ele><time>2026-04-26T09:46:19.282Z</time></trkpt><trkpt lat="45.8008726" lon="11.8387514"><ele>167.60000000000002</ele><time>2026-04-26T09:46:20.293Z</time></trkpt><trkpt lat="45.8007722" lon="11.8387452"><ele>166.8</ele><time>2026-04-26T09:46:21.293Z</time></trkpt><trkpt lat="45.8006631" lon="11.8387553"><ele>166.0</ele><time>2026-04-26T09:46:22.296Z</time></trkpt><trkpt lat="45.8005531" lon="11.8387701"><ele>166.0</ele><time>2026-04-26T09:46:23.292Z</time></trkpt><trkpt lat="45.8004525" lon="11.8387896"><ele>166.0</ele><time>2026-04-26T09:46:24.294Z</time></trkpt><trkpt lat="45.8003524" lon="11.8387947"><ele>166.0</ele><time>2026-04-26T09:46:25.295Z</time></trkpt><trkpt lat="45.8002622" lon="11.838808"><ele>166.0</ele><time>2026-04-26T09:46:26.291Z</time></trkpt><trkpt lat="45.8001862" lon="11.8388169"><ele>166.0</ele><time>2026-04-26T09:46:27.29Z</time></trkpt><trkpt lat="45.8001167" lon="11.838842"><ele>166.0</ele><time>2026-04-26T09:46:28.285Z</time></trkpt><trkpt lat="45.8000069" lon="11.8388544"><ele>165.60000000000002</ele><time>2026-04-26T09:46:30.285Z</time></trkpt><trkpt lat="45.7999746" lon="11.8389821"><ele>165.2</ele><time>2026-04-26T09:46:32.287Z</time></trkpt><trkpt lat="45.7999864" lon="11.8391019"><ele>164.8</ele><time>2026-04-26T09:46:33.288Z</time></trkpt><trkpt lat="45.8000176" lon="11.8392554"><ele>164.39999999999998</ele><time>2026-04-26T09:46:34.282Z</time></trkpt><trkpt lat="45.8000478" lon="11.8393996"><ele>164.0</ele><time>2026-04-26T09:46:35.284Z</time></trkpt><trkpt lat="45.8000716" lon="11.83952"><ele>163.99999999999997</ele><time>2026-04-26T09:46:36.277Z</time></trkpt><trkpt lat="45.8000848" lon="11.8396395"><ele>164.0</ele><time>2026-04-26T09:46:37.283Z</time></trkpt><trkpt lat="45.8000978" lon="11.8397443"><ele>164.0</ele><time>2026-04-26T09:46:38.281Z</time></trkpt><trkpt lat="45.8001235" lon="11.8398376"><ele>164.0</ele><time>2026-04-26T09:46:39.281Z</time></trkpt><trkpt lat="45.8001456" lon="11.8399323"><ele>164.0</ele><time>2026-04-26T09:46:40.288Z</time></trkpt><trkpt lat="45.8001694" lon="11.8400319"><ele>163.99999999999997</ele><time>2026-04-26T09:46:41.279Z</time></trkpt><trkpt lat="45.8001864" lon="11.8401277"><ele>164.0</ele><time>2026-04-26T09:46:42.277Z</time></trkpt><trkpt lat="45.8002105" lon="11.8402217"><ele>164.83333333333331</ele><time>2026-04-26T09:46:43.287Z</time></trkpt><trkpt lat="45.8002355" lon="11.8403094"><ele>165.66666666666666</ele><time>2026-04-26T09:46:44.283Z</time></trkpt><trkpt lat="45.8002621" lon="11.8403947"><ele>166.5</ele><time>2026-04-26T09:46:45.288Z</time></trkpt><trkpt lat="45.8003169" lon="11.8405514"><ele>167.33333333333334</ele><time>2026-04-26T09:46:47.279Z</time></trkpt><trkpt lat="45.8003442" lon="11.8406439"><ele>168.16666666666669</ele><time>2026-04-26T09:46:48.273Z</time></trkpt><trkpt lat="45.8003819" lon="11.8408005"><ele>169.0</ele><time>2026-04-26T09:46:50.273Z</time></trkpt><trkpt lat="45.800404" lon="11.8409373"><ele>168.2</ele><time>2026-04-26T09:46:52.287Z</time></trkpt><trkpt lat="45.8004137" lon="11.8410733"><ele>167.39999999999998</ele><time>2026-04-26T09:46:54.29Z</time></trkpt><trkpt lat="45.8004125" lon="11.8412241"><ele>166.6</ele><time>2026-04-26T09:46:56.29Z</time></trkpt><trkpt lat="45.800419" lon="11.8413836"><ele>165.8</ele><time>2026-04-26T09:46:58.292Z</time></trkpt><trkpt lat="45.8004431" lon="11.8415425"><ele>165.0</ele><time>2026-04-26T09:47:00.289Z</time></trkpt><trkpt lat="45.8004614" lon="11.8416983"><ele>164.83333333333334</ele><time>2026-04-26T09:47:02.288Z</time></trkpt><trkpt lat="45.8004847" lon="11.8418331"><ele>164.66666666666666</ele><time>2026-04-26T09:47:04.286Z</time></trkpt><trkpt lat="45.8005235" lon="11.8419397"><ele>164.5</ele><time>2026-04-26T09:47:06.288Z</time></trkpt><trkpt lat="45.8005766" lon="11.8420244"><ele>164.33333333333331</ele><time>2026-04-26T09:47:08.282Z</time></trkpt><trkpt lat="45.800644" lon="11.8421069"><ele>164.16666666666666</ele><time>2026-04-26T09:47:10.289Z</time></trkpt><trkpt lat="45.8006923" lon="11.8422072"><ele>164.0</ele><time>2026-04-26T09:47:12.289Z</time></trkpt><trkpt lat="45.8007562" lon="11.8422878"><ele>164.0</ele><time>2026-04-26T09:47:14.297Z</time></trkpt><trkpt lat="45.8008134" lon="11.842359"><ele>164.0</ele><time>2026-04-26T09:47:16.292Z</time></trkpt><trkpt lat="45.8008817" lon="11.8423864"><ele>164.0</ele><time>2026-04-26T09:47:18.294Z</time></trkpt><trkpt lat="45.8009998" lon="11.8423722"><ele>164.0</ele><time>2026-04-26T09:47:20.282Z</time></trkpt><trkpt lat="45.8010726" lon="11.8423591"><ele>164.0</ele><time>2026-04-26T09:47:21.283Z</time></trkpt><trkpt lat="45.8011664" lon="11.8423454"><ele>164.0</ele><time>2026-04-26T09:47:22.284Z</time></trkpt><trkpt lat="45.8012592" lon="11.8423235"><ele>164.0</ele><time>2026-04-26T09:47:23.284Z</time></trkpt><trkpt lat="45.8013379" lon="11.8423431"><ele>164.0</ele><time>2026-04-26T09:47:24.276Z</time></trkpt><trkpt lat="45.8014142" lon="11.8423369"><ele>164.0</ele><time>2026-04-26T09:47:25.279Z</time></trkpt><trkpt lat="45.8015024" lon="11.842326"><ele>164.0</ele><time>2026-04-26T09:47:26.274Z</time></trkpt><trkpt lat="45.8015926" lon="11.8423069"><ele>164.0</ele><time>2026-04-26T09:47:27.282Z</time></trkpt><trkpt lat="45.8016698" lon="11.8422725"><ele>164.0</ele><time>2026-04-26T09:47:28.274Z</time></trkpt><trkpt lat="45.8017431" lon="11.8422286"><ele>164.0</ele><time>2026-04-26T09:47:29.28Z</time></trkpt><trkpt lat="45.8018075" lon="11.8421739"><ele>164.0</ele><time>2026-04-26T09:47:30.277Z</time></trkpt><trkpt lat="45.801898" lon="11.8420856"><ele>164.0</ele><time>2026-04-26T09:47:32.276Z</time></trkpt><trkpt lat="45.8019682" lon="11.8420228"><ele>164.0</ele><time>2026-04-26T09:47:34.28Z</time></trkpt><trkpt lat="45.8019851" lon="11.8419116"><ele>164.0</ele><time>2026-04-26T09:47:36.283Z</time></trkpt><trkpt lat="45.8019704" lon="11.8417532"><ele>164.79999999999998</ele><time>2026-04-26T09:47:38.287Z</time></trkpt><trkpt lat="45.802002" lon="11.8416518"><ele>165.6</ele><time>2026-04-26T09:47:40.292Z</time></trkpt><trkpt lat="45.8021112" lon="11.8416066"><ele>166.4</ele><time>2026-04-26T09:47:42.287Z</time></trkpt><trkpt lat="45.802196" lon="11.8415902"><ele>167.2</ele><time>2026-04-26T09:47:43.287Z</time></trkpt><trkpt lat="45.8022943" lon="11.8415682"><ele>168.0</ele><time>2026-04-26T09:47:44.291Z</time></trkpt><trkpt lat="45.8023934" lon="11.8415583"><ele>168.0</ele><time>2026-04-26T09:47:45.291Z</time></trkpt><trkpt lat="45.8024835" lon="11.841546"><ele>168.0</ele><time>2026-04-26T09:47:46.292Z</time></trkpt><trkpt lat="45.8025617" lon="11.8415371"><ele>168.0</ele><time>2026-04-26T09:47:47.28Z</time></trkpt><trkpt lat="45.8026318" lon="11.8415272"><ele>168.0</ele><time>2026-04-26T09:47:48.294Z</time></trkpt><trkpt lat="45.8027547" lon="11.8415302"><ele>168.0</ele><time>2026-04-26T09:47:50.293Z</time></trkpt><trkpt lat="45.8028233" lon="11.8415489"><ele>168.0</ele><time>2026-04-26T09:47:51.29Z</time></trkpt><trkpt lat="45.8029018" lon="11.8415786"><ele>168.60000000000002</ele><time>2026-04-26T09:47:52.291Z</time></trkpt><trkpt lat="45.8029917" lon="11.8416215"><ele>169.20000000000002</ele><time>2026-04-26T09:47:53.287Z</time></trkpt><trkpt lat="45.8031001" lon="11.8416804"><ele>169.8</ele><time>2026-04-26T09:47:54.294Z</time></trkpt><trkpt lat="45.8032075" lon="11.841756"><ele>170.4</ele><time>2026-04-26T09:47:55.291Z</time></trkpt><trkpt lat="45.8033153" lon="11.8418183"><ele>171.0</ele><time>2026-04-26T09:47:56.294Z</time></trkpt><trkpt lat="45.8034153" lon="11.8418756"><ele>171.33333333333334</ele><time>2026-04-26T09:47:57.291Z</time></trkpt><trkpt lat="45.8035099" lon="11.8419229"><ele>171.66666666666666</ele><time>2026-04-26T09:47:58.291Z</time></trkpt><trkpt lat="45.8035928" lon="11.8419702"><ele>172.0</ele><time>2026-04-26T09:47:59.284Z</time></trkpt><trkpt lat="45.8036706" lon="11.8420208"><ele>172.33333333333331</ele><time>2026-04-26T09:48:00.296Z</time></trkpt><trkpt lat="45.803739" lon="11.8420673"><ele>172.66666666666666</ele><time>2026-04-26T09:48:01.284Z</time></trkpt><trkpt lat="45.8038007" lon="11.8421157"><ele>173.0</ele><time>2026-04-26T09:48:02.288Z</time></trkpt><trkpt lat="45.8038996" lon="11.8421667"><ele>173.0</ele><time>2026-04-26T09:48:04.289Z</time></trkpt><trkpt lat="45.8039551" lon="11.8422286"><ele>173.0</ele><time>2026-04-26T09:48:07.295Z</time></trkpt><trkpt lat="45.8040068" lon="11.842359"><ele>173.0</ele><time>2026-04-26T09:48:09.294Z</time></trkpt><trkpt lat="45.8040693" lon="11.8425132"><ele>173.0</ele><time>2026-04-26T09:48:11.292Z</time></trkpt><trkpt lat="45.8040951" lon="11.8425994"><ele>173.0</ele><time>2026-04-26T09:48:12.287Z</time></trkpt><trkpt lat="45.8041184" lon="11.8427511"><ele>172.8</ele><time>2026-04-26T09:48:14.284Z</time></trkpt><trkpt lat="45.8040905" lon="11.8429023"><ele>172.60000000000002</ele><time>2026-04-26T09:48:16.29Z</time></trkpt><trkpt lat="45.8039905" lon="11.8430285"><ele>172.39999999999998</ele><time>2026-04-26T09:48:18.3Z</time></trkpt><trkpt lat="45.8039171" lon="11.8430494"><ele>172.2</ele><time>2026-04-26T09:48:19.285Z</time></trkpt><trkpt lat="45.8038463" lon="11.8430583"><ele>172.0</ele><time>2026-04-26T09:48:20.287Z</time></trkpt><trkpt lat="45.8037678" lon="11.8430751"><ele>172.0</ele><time>2026-04-26T09:48:21.29Z</time></trkpt><trkpt lat="45.8036756" lon="11.8431074"><ele>172.0</ele><time>2026-04-26T09:48:22.291Z</time></trkpt><trkpt lat="45.8035879" lon="11.8431447"><ele>172.0</ele><time>2026-04-26T09:48:23.291Z</time></trkpt><trkpt lat="45.8035021" lon="11.8431752"><ele>172.0</ele><time>2026-04-26T09:48:24.291Z</time></trkpt><trkpt lat="45.8034122" lon="11.8432108"><ele>172.0</ele><time>2026-04-26T09:48:25.297Z</time></trkpt><trkpt lat="45.8033294" lon="11.843241"><ele>171.6</ele><time>2026-04-26T09:48:26.28Z</time></trkpt><trkpt lat="45.8032647" lon="11.8432615"><ele>171.2</ele><time>2026-04-26T09:48:27.291Z</time></trkpt><trkpt lat="45.803158" lon="11.8432846"><ele>170.8</ele><time>2026-04-26T09:48:29.291Z</time></trkpt><trkpt lat="45.8030903" lon="11.8432373"><ele>170.4</ele><time>2026-04-26T09:48:33.287Z</time></trkpt><trkpt lat="45.8029874" lon="11.8432562"><ele>170.0</ele><time>2026-04-26T09:48:36.287Z</time></trkpt><trkpt lat="45.8028783" lon="11.8432699"><ele>170.0</ele><time>2026-04-26T09:48:38.285Z</time></trkpt><trkpt lat="45.8027762" lon="11.8433002"><ele>170.0</ele><time>2026-04-26T09:48:40.287Z</time></trkpt><trkpt lat="45.8026949" lon="11.8433194"><ele>170.0</ele><time>2026-04-26T09:48:42.289Z</time></trkpt><trkpt lat="45.8026276" lon="11.8433085"><ele>170.0</ele><time>2026-04-26T09:48:44.287Z</time></trkpt><trkpt lat="45.8025548" lon="11.8433082"><ele>170.0</ele><time>2026-04-26T09:48:46.281Z</time></trkpt><trkpt lat="45.802485" lon="11.8433364"><ele>170.0</ele><time>2026-04-26T09:48:49.285Z</time></trkpt><trkpt lat="45.8024288" lon="11.8433983"><ele>169.16666666666666</ele><time>2026-04-26T09:48:52.283Z</time></trkpt><trkpt lat="45.8023564" lon="11.8434675"><ele>168.33333333333331</ele><time>2026-04-26T09:48:54.293Z</time></trkpt><trkpt lat="45.8022933" lon="11.8435137"><ele>167.5</ele><time>2026-04-26T09:48:55.286Z</time></trkpt><trkpt lat="45.8022275" lon="11.8435803"><ele>166.66666666666666</ele><time>2026-04-26T09:48:56.29Z</time></trkpt><trkpt lat="45.8021682" lon="11.8436549"><ele>165.83333333333334</ele><time>2026-04-26T09:48:57.282Z</time></trkpt><trkpt lat="45.8021135" lon="11.8437385"><ele>165.0</ele><time>2026-04-26T09:48:58.285Z</time></trkpt><trkpt lat="45.802064" lon="11.8438292"><ele>165.0</ele><time>2026-04-26T09:48:59.281Z</time></trkpt><trkpt lat="45.802022" lon="11.8439246"><ele>165.0</ele><time>2026-04-26T09:49:00.288Z</time></trkpt><trkpt lat="45.8019793" lon="11.8440185"><ele>165.0</ele><time>2026-04-26T09:49:01.277Z</time></trkpt><trkpt lat="45.801939" lon="11.8441081"><ele>165.0</ele><time>2026-04-26T09:49:02.283Z</time></trkpt><trkpt lat="45.8019051" lon="11.8441999"><ele>165.0</ele><time>2026-04-26T09:49:03.282Z</time></trkpt><trkpt lat="45.8018486" lon="11.844333"><ele>165.0</ele><time>2026-04-26T09:49:05.282Z</time></trkpt><trkpt lat="45.8018033" lon="11.8444123"><ele>164.83333333333334</ele><time>2026-04-26T09:49:07.281Z</time></trkpt><trkpt lat="45.801759" lon="11.8444942"><ele>164.66666666666666</ele><time>2026-04-26T09:49:09.279Z</time></trkpt><trkpt lat="45.8016825" lon="11.8445629"><ele>164.5</ele><time>2026-04-26T09:49:32.27Z</time></trkpt><trkpt lat="45.8016018" lon="11.8446479"><ele>164.33333333333331</ele><time>2026-04-26T09:49:34.28Z</time></trkpt><trkpt lat="45.8015317" lon="11.8447022"><ele>164.16666666666666</ele><time>2026-04-26T09:49:36.273Z</time></trkpt><trkpt lat="45.8014931" lon="11.8447899"><ele>164.0</ele><time>2026-04-26T09:49:38.271Z</time></trkpt><trkpt lat="45.8015343" lon="11.8449078"><ele>164.0</ele><time>2026-04-26T09:49:40.271Z</time></trkpt><trkpt lat="45.801603" lon="11.8450465"><ele>164.0</ele><time>2026-04-26T09:49:42.277Z</time></trkpt><trkpt lat="45.801652" lon="11.8451345"><ele>164.0</ele><time>2026-04-26T09:49:43.27Z</time></trkpt><trkpt lat="45.8017093" lon="11.8452173"><ele>164.0</ele><time>2026-04-26T09:49:44.27Z</time></trkpt><trkpt lat="45.8017632" lon="11.8452918"><ele>164.0</ele><time>2026-04-26T09:49:45.27Z</time></trkpt><trkpt lat="45.8018237" lon="11.8453635"><ele>164.0</ele><time>2026-04-26T09:49:46.267Z</time></trkpt><trkpt lat="45.8018779" lon="11.8454444"><ele>164.57142857142856</ele><time>2026-04-26T09:49:47.273Z</time></trkpt><trkpt lat="45.801928" lon="11.8455315"><ele>165.14285714285714</ele><time>2026-04-26T09:49:48.275Z</time></trkpt><trkpt lat="45.8019695" lon="11.8456122"><ele>165.71428571428572</ele><time>2026-04-26T09:49:49.274Z</time></trkpt><trkpt lat="45.802008" lon="11.8456896"><ele>166.28571428571428</ele><time>2026-04-26T09:49:50.27Z</time></trkpt><trkpt lat="45.8020503" lon="11.8457935"><ele>166.85714285714286</ele><time>2026-04-26T09:49:52.277Z</time></trkpt><trkpt lat="45.8020936" lon="11.8458677"><ele>167.42857142857142</ele><time>2026-04-26T09:49:54.268Z</time></trkpt><trkpt lat="45.8021646" lon="11.845824"><ele>168.0</ele><time>2026-04-26T09:49:56.263Z</time></trkpt><trkpt lat="45.8022207" lon="11.845775"><ele>168.0</ele><time>2026-04-26T09:49:58.278Z</time></trkpt><trkpt lat="45.8022789" lon="11.8457346"><ele>168.0</ele><time>2026-04-26T09:49:59.268Z</time></trkpt><trkpt lat="45.8023494" lon="11.8456959"><ele>168.0</ele><time>2026-04-26T09:50:00.281Z</time></trkpt><trkpt lat="45.8024122" lon="11.8456669"><ele>168.0</ele><time>2026-04-26T09:50:01.271Z</time></trkpt><trkpt lat="45.8024889" lon="11.8456645"><ele>168.0</ele><time>2026-04-26T09:50:02.278Z</time></trkpt><trkpt lat="45.8025704" lon="11.8456599"><ele>168.0</ele><time>2026-04-26T09:50:03.282Z</time></trkpt><trkpt lat="45.8026548" lon="11.8456592"><ele>168.0</ele><time>2026-04-26T09:50:04.275Z</time></trkpt><trkpt lat="45.8027375" lon="11.8456623"><ele>168.5</ele><time>2026-04-26T09:50:05.279Z</time></trkpt><trkpt lat="45.8028154" lon="11.8456703"><ele>169.0</ele><time>2026-04-26T09:50:06.276Z</time></trkpt><trkpt lat="45.8028858" lon="11.8456783"><ele>169.5</ele><time>2026-04-26T09:50:07.283Z</time></trkpt><trkpt lat="45.802954" lon="11.8456854"><ele>170.0</ele><time>2026-04-26T09:50:08.277Z</time></trkpt><trkpt lat="45.803019" lon="11.845691"><ele>170.5</ele><time>2026-04-26T09:50:09.282Z</time></trkpt><trkpt lat="45.8031295" lon="11.8457216"><ele>171.0</ele><time>2026-04-26T09:50:11.287Z</time></trkpt><trkpt lat="45.8032331" lon="11.8457956"><ele>171.0</ele><time>2026-04-26T09:50:13.28Z</time></trkpt><trkpt lat="45.8033231" lon="11.8459322"><ele>171.0</ele><time>2026-04-26T09:50:15.286Z</time></trkpt><trkpt lat="45.8033798" lon="11.845988"><ele>171.0</ele><time>2026-04-26T09:50:16.282Z</time></trkpt><trkpt lat="45.803442" lon="11.8460353"><ele>171.0</ele><time>2026-04-26T09:50:17.276Z</time></trkpt><trkpt lat="45.8035305" lon="11.8460919"><ele>171.0</ele><time>2026-04-26T09:50:19.273Z</time></trkpt><trkpt lat="45.8036462" lon="11.8460498"><ele>171.8</ele><time>2026-04-26T09:50:21.284Z</time></trkpt><trkpt lat="45.8037334" lon="11.8459771"><ele>172.60000000000002</ele><time>2026-04-26T09:50:22.289Z</time></trkpt><trkpt lat="45.8038293" lon="11.8458999"><ele>173.4</ele><time>2026-04-26T09:50:23.281Z</time></trkpt><trkpt lat="45.8039263" lon="11.8458211"><ele>174.2</ele><time>2026-04-26T09:50:24.288Z</time></trkpt><trkpt lat="45.8040238" lon="11.8457522"><ele>175.0</ele><time>2026-04-26T09:50:25.283Z</time></trkpt><trkpt lat="45.8041279" lon="11.8457007"><ele>175.0</ele><time>2026-04-26T09:50:26.288Z</time></trkpt><trkpt lat="45.8042396" lon="11.8456633"><ele>175.0</ele><time>2026-04-26T09:50:27.281Z</time></trkpt><trkpt lat="45.8043573" lon="11.8456439"><ele>175.0</ele><time>2026-04-26T09:50:28.289Z</time></trkpt><trkpt lat="45.8044751" lon="11.8456266"><ele>175.0</ele><time>2026-04-26T09:50:29.286Z</time></trkpt><trkpt lat="45.8045895" lon="11.8456143"><ele>177.5</ele><time>2026-04-26T09:50:30.289Z</time></trkpt><trkpt lat="45.8047023" lon="11.8455982"><ele>180.0</ele><time>2026-04-26T09:50:31.278Z</time></trkpt><trkpt lat="45.8048157" lon="11.8455739"><ele>182.5</ele><time>2026-04-26T09:50:32.288Z</time></trkpt><trkpt lat="45.8049303" lon="11.8455478"><ele>185.0</ele><time>2026-04-26T09:50:33.284Z</time></trkpt><trkpt lat="45.8050431" lon="11.8455224"><ele>185.0</ele><time>2026-04-26T09:50:34.284Z</time></trkpt><trkpt lat="45.805142" lon="11.8454931"><ele>185.0</ele><time>2026-04-26T09:50:35.282Z</time></trkpt><trkpt lat="45.8052354" lon="11.8454684"><ele>185.0</ele><time>2026-04-26T09:50:36.282Z</time></trkpt><trkpt lat="45.8053275" lon="11.8454425"><ele>185.0</ele><time>2026-04-26T09:50:37.287Z</time></trkpt><trkpt lat="45.8054171" lon="11.8454314"><ele>185.0</ele><time>2026-04-26T09:50:38.281Z</time></trkpt><trkpt lat="45.8054992" lon="11.8454215"><ele>184.6</ele><time>2026-04-26T09:50:39.288Z</time></trkpt><trkpt lat="45.8055829" lon="11.8453992"><ele>184.2</ele><time>2026-04-26T09:50:40.276Z</time></trkpt><trkpt lat="45.8056569" lon="11.8453873"><ele>183.8</ele><time>2026-04-26T09:50:41.287Z</time></trkpt><trkpt lat="45.8057619" lon="11.8453687"><ele>183.4</ele><time>2026-04-26T09:50:43.287Z</time></trkpt><trkpt lat="45.8058435" lon="11.8454291"><ele>183.0</ele><time>2026-04-26T09:50:45.281Z</time></trkpt><trkpt lat="45.8059481" lon="11.845554"><ele>183.0</ele><time>2026-04-26T09:50:47.287Z</time></trkpt><trkpt lat="45.8059779" lon="11.8456634"><ele>183.0</ele><time>2026-04-26T09:50:48.277Z</time></trkpt><trkpt lat="45.8059982" lon="11.8457839"><ele>183.0</ele><time>2026-04-26T09:50:49.276Z</time></trkpt><trkpt lat="45.8060119" lon="11.8458955"><ele>183.0</ele><time>2026-04-26T09:50:50.276Z</time></trkpt><trkpt lat="45.8060392" lon="11.8459958"><ele>183.0</ele><time>2026-04-26T09:50:51.286Z</time></trkpt><trkpt lat="45.8061092" lon="11.846107"><ele>183.0</ele><time>2026-04-26T09:50:53.281Z</time></trkpt><trkpt lat="45.8062345" lon="11.8461303"><ele>183.16666666666666</ele><time>2026-04-26T09:50:55.278Z</time></trkpt><trkpt lat="45.806312" lon="11.8461375"><ele>183.33333333333334</ele><time>2026-04-26T09:50:56.28Z</time></trkpt><trkpt lat="45.806397" lon="11.846128"><ele>183.5</ele><time>2026-04-26T09:50:57.276Z</time></trkpt><trkpt lat="45.8064816" lon="11.84609"><ele>183.66666666666669</ele><time>2026-04-26T09:50:58.278Z</time></trkpt><trkpt lat="45.8065689" lon="11.8460565"><ele>183.83333333333334</ele><time>2026-04-26T09:50:59.275Z</time></trkpt><trkpt lat="45.806653" lon="11.8460177"><ele>184.0</ele><time>2026-04-26T09:51:00.284Z</time></trkpt><trkpt lat="45.8067253" lon="11.8459836"><ele>184.2857142857143</ele><time>2026-04-26T09:51:01.279Z</time></trkpt><trkpt lat="45.8067887" lon="11.8459584"><ele>184.57142857142856</ele><time>2026-04-26T09:51:02.287Z</time></trkpt><trkpt lat="45.806862" lon="11.8459297"><ele>184.85714285714286</ele><time>2026-04-26T09:51:04.287Z</time></trkpt><trkpt lat="45.8069359" lon="11.8458952"><ele>185.14285714285717</ele><time>2026-04-26T09:51:07.279Z</time></trkpt><trkpt lat="45.8069491" lon="11.8457987"><ele>185.42857142857144</ele><time>2026-04-26T09:51:09.286Z</time></trkpt><trkpt lat="45.8069355" lon="11.8457"><ele>185.71428571428572</ele><time>2026-04-26T09:51:10.279Z</time></trkpt><trkpt lat="45.8069162" lon="11.8455927"><ele>186.0</ele><time>2026-04-26T09:51:11.287Z</time></trkpt><trkpt lat="45.8068968" lon="11.8454862"><ele>186.14285714285717</ele><time>2026-04-26T09:51:12.281Z</time></trkpt><trkpt lat="45.8068739" lon="11.8453778"><ele>186.28571428571428</ele><time>2026-04-26T09:51:13.291Z</time></trkpt><trkpt lat="45.8068549" lon="11.8452733"><ele>186.42857142857144</ele><time>2026-04-26T09:51:14.28Z</time></trkpt><trkpt lat="45.8068399" lon="11.8451705"><ele>186.57142857142858</ele><time>2026-04-26T09:51:15.281Z</time></trkpt><trkpt lat="45.8068254" lon="11.845064"><ele>186.71428571428572</ele><time>2026-04-26T09:51:16.274Z</time></trkpt><trkpt lat="45.8068103" lon="11.8449664"><ele>186.85714285714286</ele><time>2026-04-26T09:51:17.286Z</time></trkpt><trkpt lat="45.8067942" lon="11.8448734"><ele>187.0</ele><time>2026-04-26T09:51:18.281Z</time></trkpt><trkpt lat="45.8067761" lon="11.8447802"><ele>187.0</ele><time>2026-04-26T09:51:19.286Z</time></trkpt><trkpt lat="45.8067589" lon="11.8446882"><ele>187.0</ele><time>2026-04-26T09:51:20.282Z</time></trkpt><trkpt lat="45.806741" lon="11.8445903"><ele>187.0</ele><time>2026-04-26T09:51:21.291Z</time></trkpt><trkpt lat="45.8067238" lon="11.8444886"><ele>187.0</ele><time>2026-04-26T09:51:22.284Z</time></trkpt><trkpt lat="45.8067099" lon="11.8443964"><ele>187.0</ele><time>2026-04-26T09:51:23.292Z</time></trkpt><trkpt lat="45.8066843" lon="11.8442225"><ele>187.0</ele><time>2026-04-26T09:51:25.289Z</time></trkpt><trkpt lat="45.8066692" lon="11.8440856"><ele>186.57142857142856</ele><time>2026-04-26T09:51:27.287Z</time></trkpt><trkpt lat="45.8066544" lon="11.843947"><ele>186.14285714285717</ele><time>2026-04-26T09:51:29.287Z</time></trkpt><trkpt lat="45.8066406" lon="11.84384"><ele>185.71428571428572</ele><time>2026-04-26T09:51:31.281Z</time></trkpt><trkpt lat="45.8066463" lon="11.8437366"><ele>185.28571428571428</ele><time>2026-04-26T09:51:33.282Z</time></trkpt><trkpt lat="45.8066475" lon="11.8436402"><ele>184.85714285714283</ele><time>2026-04-26T09:51:35.279Z</time></trkpt><trkpt lat="45.8066429" lon="11.8435493"><ele>184.42857142857144</ele><time>2026-04-26T09:51:38.286Z</time></trkpt><trkpt lat="45.8066857" lon="11.8434797"><ele>184.0</ele><time>2026-04-26T09:51:51.265Z</time></trkpt><trkpt lat="45.8066579" lon="11.8433843"><ele>184.0</ele><time>2026-04-26T09:51:54.269Z</time></trkpt><trkpt lat="45.806706" lon="11.8435368"><ele>184.0</ele><time>2026-04-26T09:51:57.27Z</time></trkpt><trkpt lat="45.8067714" lon="11.8436089"><ele>184.0</ele><time>2026-04-26T09:51:59.266Z</time></trkpt><trkpt lat="45.8068318" lon="11.8436592"><ele>184.0</ele><time>2026-04-26T09:52:01.276Z</time></trkpt><trkpt lat="45.8068891" lon="11.843703"><ele>184.0</ele><time>2026-04-26T09:52:04.282Z</time></trkpt><trkpt lat="45.8069684" lon="11.8437313"><ele>184.0</ele><time>2026-04-26T09:52:06.272Z</time></trkpt><trkpt lat="45.8070543" lon="11.8437704"><ele>184.5</ele><time>2026-04-26T09:52:08.268Z</time></trkpt><trkpt lat="45.8071471" lon="11.8437675"><ele>185.0</ele><time>2026-04-26T09:52:10.271Z</time></trkpt><trkpt lat="45.8072375" lon="11.8437492"><ele>185.5</ele><time>2026-04-26T09:52:12.271Z</time></trkpt><trkpt lat="45.80731" lon="11.8437631"><ele>186.0</ele><time>2026-04-26T09:52:14.274Z</time></trkpt><trkpt lat="45.8073589" lon="11.8438252"><ele>186.5</ele><time>2026-04-26T09:52:16.274Z</time></trkpt><trkpt lat="45.8074093" lon="11.8439057"><ele>187.0</ele><time>2026-04-26T09:52:18.275Z</time></trkpt><trkpt lat="45.8074599" lon="11.8439928"><ele>187.0</ele><time>2026-04-26T09:52:20.276Z</time></trkpt><trkpt lat="45.8075125" lon="11.8440583"><ele>187.0</ele><time>2026-04-26T09:52:22.284Z</time></trkpt><trkpt lat="45.807572" lon="11.8441061"><ele>187.0</ele><time>2026-04-26T09:52:24.283Z</time></trkpt><trkpt lat="45.807631" lon="11.8441516"><ele>187.0</ele><time>2026-04-26T09:52:26.278Z</time></trkpt><trkpt lat="45.8077067" lon="11.8442106"><ele>187.0</ele><time>2026-04-26T09:52:28.273Z</time></trkpt><trkpt lat="45.807776" lon="11.8442386"><ele>187.0</ele><time>2026-04-26T09:52:30.273Z</time></trkpt><trkpt lat="45.8078572" lon="11.8442483"><ele>187.0</ele><time>2026-04-26T09:52:33.278Z</time></trkpt><trkpt lat="45.8079446" lon="11.8442125"><ele>187.83333333333334</ele><time>2026-04-26T09:52:36.273Z</time></trkpt><trkpt lat="45.8080139" lon="11.8441719"><ele>188.66666666666669</ele><time>2026-04-26T09:52:38.271Z</time></trkpt><trkpt lat="45.8080839" lon="11.8441073"><ele>189.5</ele><time>2026-04-26T09:52:41.273Z</time></trkpt><trkpt lat="45.8081228" lon="11.8440071"><ele>190.33333333333334</ele><time>2026-04-26T09:52:45.276Z</time></trkpt><trkpt lat="45.808189" lon="11.8439512"><ele>191.16666666666666</ele><time>2026-04-26T09:52:47.268Z</time></trkpt><trkpt lat="45.8082677" lon="11.8439025"><ele>192.0</ele><time>2026-04-26T09:52:49.268Z</time></trkpt><trkpt lat="45.8083471" lon="11.843859"><ele>192.0</ele><time>2026-04-26T09:52:51.276Z</time></trkpt><trkpt lat="45.8084266" lon="11.8438343"><ele>192.0</ele><time>2026-04-26T09:52:53.279Z</time></trkpt><trkpt lat="45.8084863" lon="11.8437862"><ele>192.0</ele><time>2026-04-26T09:52:55.277Z</time></trkpt><trkpt lat="45.8085474" lon="11.8437486"><ele>196.0</ele><time>2026-04-26T09:52:57.27Z</time></trkpt></trkseg><trkseg><trkpt lat="45.8086343" lon="11.8437436"><ele>195.99999999999997</ele><time>2026-04-26T10:03:21.293Z</time></trkpt><trkpt lat="45.8087053" lon="11.8437503"><ele>196.0</ele><time>2026-04-26T10:03:51.286Z</time></trkpt><trkpt lat="45.8087793" lon="11.843749"><ele>196.0</ele><time>2026-04-26T10:04:01.272Z</time></trkpt><trkpt lat="45.8088435" lon="11.8437635"><ele>196.0</ele><time>2026-04-26T10:04:20.275Z</time></trkpt><trkpt lat="45.8089308" lon="11.8437795"><ele>195.99999999999997</ele><time>2026-04-26T10:04:22.276Z</time></trkpt><trkpt lat="45.809024" lon="11.843817"><ele>196.0</ele><time>2026-04-26T10:04:24.282Z</time></trkpt><trkpt lat="45.8090874" lon="11.8438686"><ele>195.99999999999997</ele><time>2026-04-26T10:04:26.274Z</time></trkpt><trkpt lat="45.8091457" lon="11.8438239"><ele>196.0</ele><time>2026-04-26T10:04:28.28Z</time></trkpt><trkpt lat="45.8092381" lon="11.8438002"><ele>196.0</ele><time>2026-04-26T10:04:30.282Z</time></trkpt><trkpt lat="45.8092731" lon="11.8439112"><ele>196.0</ele><time>2026-04-26T10:04:33.28Z</time></trkpt><trkpt lat="45.8093185" lon="11.8439843"><ele>195.99999999999997</ele><time>2026-04-26T10:04:36.286Z</time></trkpt><trkpt lat="45.8093634" lon="11.8440553"><ele>196.0</ele><time>2026-04-26T10:04:38.284Z</time></trkpt><trkpt lat="45.8094249" lon="11.8441121"><ele>196.49999999999997</ele><time>2026-04-26T10:04:40.283Z</time></trkpt><trkpt lat="45.8094811" lon="11.8441752"><ele>197.0</ele><time>2026-04-26T10:04:43.279Z</time></trkpt><trkpt lat="45.80957" lon="11.8441233"><ele>197.5</ele><time>2026-04-26T10:04:46.282Z</time></trkpt><trkpt lat="45.8096485" lon="11.8440884"><ele>198.0</ele><time>2026-04-26T10:04:49.281Z</time></trkpt><trkpt lat="45.809716" lon="11.8441025"><ele>198.49999999999997</ele><time>2026-04-26T10:04:53.288Z</time></trkpt><trkpt lat="45.809794" lon="11.8441083"><ele>199.0</ele><time>2026-04-26T10:04:56.276Z</time></trkpt><trkpt lat="45.8098644" lon="11.8441157"><ele>198.99999999999997</ele><time>2026-04-26T10:04:59.277Z</time></trkpt><trkpt lat="45.8099148" lon="11.8440575"><ele>199.0</ele><time>2026-04-26T10:05:11.275Z</time></trkpt><trkpt lat="45.8099829" lon="11.8440236"><ele>199.0</ele><time>2026-04-26T10:05:17.272Z</time></trkpt><trkpt lat="45.8100415" lon="11.8439843"><ele>199.0</ele><time>2026-04-26T10:05:21.27Z</time></trkpt><trkpt lat="45.810103" lon="11.8439269"><ele>199.0</ele><time>2026-04-26T10:05:45.264Z</time></trkpt><trkpt lat="45.8101635" lon="11.8438906"><ele>198.99999999999997</ele><time>2026-04-26T10:05:47.27Z</time></trkpt><trkpt lat="45.8102366" lon="11.8438702"><ele>199.0</ele><time>2026-04-26T10:05:51.276Z</time></trkpt><trkpt lat="45.8103155" lon="11.8438926"><ele>199.42857142857142</ele><time>2026-04-26T10:05:53.278Z</time></trkpt><trkpt lat="45.8103839" lon="11.8438935"><ele>199.85714285714286</ele><time>2026-04-26T10:05:55.282Z</time></trkpt><trkpt lat="45.8104531" lon="11.8438889"><ele>200.28571428571428</ele><time>2026-04-26T10:05:58.283Z</time></trkpt><trkpt lat="45.8105237" lon="11.8438874"><ele>200.71428571428572</ele><time>2026-04-26T10:06:02.286Z</time></trkpt><trkpt lat="45.8105965" lon="11.8439016"><ele>201.14285714285714</ele><time>2026-04-26T10:06:05.284Z</time></trkpt><trkpt lat="45.8106723" lon="11.8439552"><ele>201.57142857142856</ele><time>2026-04-26T10:06:09.284Z</time></trkpt><trkpt lat="45.8105987" lon="11.8439458"><ele>202.0</ele><time>2026-04-26T10:11:55.285Z</time></trkpt><trkpt lat="45.8105275" lon="11.8439382"><ele>201.99999999999997</ele><time>2026-04-26T10:11:58.275Z</time></trkpt><trkpt lat="45.8104428" lon="11.8439557"><ele>202.0</ele><time>2026-04-26T10:12:01.284Z</time></trkpt><trkpt lat="45.8103658" lon="11.8439647"><ele>202.0</ele><time>2026-04-26T10:12:04.28Z</time></trkpt><trkpt lat="45.8102844" lon="11.8439595"><ele>202.0</ele><time>2026-04-26T10:12:07.282Z</time></trkpt><trkpt lat="45.8102083" lon="11.8439619"><ele>201.99999999999997</ele><time>2026-04-26T10:12:10.276Z</time></trkpt><trkpt lat="45.810124" lon="11.8439555"><ele>202.0</ele><time>2026-04-26T10:12:14.268Z</time></trkpt><trkpt lat="45.8100536" lon="11.8439657"><ele>201.57142857142856</ele><time>2026-04-26T10:12:18.276Z</time></trkpt><trkpt lat="45.8100021" lon="11.8440314"><ele>201.14285714285714</ele><time>2026-04-26T10:12:22.278Z</time></trkpt><trkpt lat="45.8099382" lon="11.8440496"><ele>200.71428571428572</ele><time>2026-04-26T10:12:25.274Z</time></trkpt><trkpt lat="45.8098524" lon="11.8440911"><ele>200.28571428571428</ele><time>2026-04-26T10:12:28.267Z</time></trkpt><trkpt lat="45.80979" lon="11.8440567"><ele>199.85714285714286</ele><time>2026-04-26T10:12:31.274Z</time></trkpt><trkpt lat="45.8097061" lon="11.8440652"><ele>199.42857142857142</ele><time>2026-04-26T10:12:34.277Z</time></trkpt><trkpt lat="45.8096391" lon="11.8440682"><ele>199.0</ele><time>2026-04-26T10:12:37.271Z</time></trkpt><trkpt lat="45.8095553" lon="11.8440819"><ele>198.99999999999997</ele><time>2026-04-26T10:12:40.269Z</time></trkpt><trkpt lat="45.8094674" lon="11.8440875"><ele>199.0</ele><time>2026-04-26T10:12:43.273Z</time></trkpt><trkpt lat="45.8094111" lon="11.8440289"><ele>199.0</ele><time>2026-04-26T10:12:47.279Z</time></trkpt><trkpt lat="45.8093473" lon="11.8439324"><ele>199.0</ele><time>2026-04-26T10:12:50.272Z</time></trkpt><trkpt lat="45.8092802" lon="11.8438931"><ele>198.99999999999997</ele><time>2026-04-26T10:12:53.275Z</time></trkpt><trkpt lat="45.809206" lon="11.8439119"><ele>199.0</ele><time>2026-04-26T10:12:55.284Z</time></trkpt><trkpt lat="45.8091408" lon="11.8438931"><ele>198.49999999999997</ele><time>2026-04-26T10:12:58.28Z</time></trkpt><trkpt lat="45.8090687" lon="11.8438607"><ele>198.0</ele><time>2026-04-26T10:13:01.284Z</time></trkpt><trkpt lat="45.808989" lon="11.8438117"><ele>197.5</ele><time>2026-04-26T10:13:04.28Z</time></trkpt><trkpt lat="45.8089386" lon="11.8437543"><ele>197.0</ele><time>2026-04-26T10:13:07.28Z</time></trkpt><trkpt lat="45.8088664" lon="11.8437444"><ele>196.49999999999997</ele><time>2026-04-26T10:13:10.278Z</time></trkpt><trkpt lat="45.8087832" lon="11.8437659"><ele>196.0</ele><time>2026-04-26T10:13:20.272Z</time></trkpt><trkpt lat="45.8087074" lon="11.8437891"><ele>195.99999999999997</ele><time>2026-04-26T10:13:24.273Z</time></trkpt><trkpt lat="45.8086432" lon="11.8437574"><ele>196.0</ele><time>2026-04-26T10:13:30.277Z</time></trkpt><trkpt lat="45.8085849" lon="11.8438161"><ele>196.0</ele><time>2026-04-26T10:16:26.282Z</time></trkpt><trkpt lat="45.8084922" lon="11.8438545"><ele>196.0</ele><time>2026-04-26T10:16:29.275Z</time></trkpt><trkpt lat="45.8083953" lon="11.8438727"><ele>195.99999999999997</ele><time>2026-04-26T10:16:31.275Z</time></trkpt><trkpt lat="45.8083142" lon="11.8438806"><ele>196.0</ele><time>2026-04-26T10:16:33.276Z</time></trkpt><trkpt lat="45.8082433" lon="11.8439545"><ele>195.33333333333331</ele><time>2026-04-26T10:16:35.276Z</time></trkpt><trkpt lat="45.8081684" lon="11.8439967"><ele>194.66666666666666</ele><time>2026-04-26T10:16:37.275Z</time></trkpt><trkpt lat="45.8081027" lon="11.8440733"><ele>194.0</ele><time>2026-04-26T10:16:39.271Z</time></trkpt><trkpt lat="45.8080398" lon="11.8441391"><ele>193.33333333333331</ele><time>2026-04-26T10:16:41.273Z</time></trkpt><trkpt lat="45.8079522" lon="11.8441795"><ele>192.66666666666666</ele><time>2026-04-26T10:16:43.274Z</time></trkpt><trkpt lat="45.8078537" lon="11.8442163"><ele>192.0</ele><time>2026-04-26T10:16:45.276Z</time></trkpt><trkpt lat="45.8077451" lon="11.8442299"><ele>191.0</ele><time>2026-04-26T10:16:47.278Z</time></trkpt><trkpt lat="45.8076365" lon="11.8442172"><ele>190.0</ele><time>2026-04-26T10:16:49.273Z</time></trkpt><trkpt lat="45.8075322" lon="11.8441759"><ele>189.0</ele><time>2026-04-26T10:16:51.276Z</time></trkpt><trkpt lat="45.8074536" lon="11.8441405"><ele>188.0</ele><time>2026-04-26T10:16:53.278Z</time></trkpt><trkpt lat="45.8073397" lon="11.844108"><ele>187.0</ele><time>2026-04-26T10:16:55.278Z</time></trkpt><trkpt lat="45.8072717" lon="11.8440842"><ele>187.0</ele><time>2026-04-26T10:16:57.28Z</time></trkpt><trkpt lat="45.8072146" lon="11.8440166"><ele>187.0</ele><time>2026-04-26T10:16:59.278Z</time></trkpt><trkpt lat="45.8071307" lon="11.843918"><ele>187.0</ele><time>2026-04-26T10:17:01.281Z</time></trkpt><trkpt lat="45.8070882" lon="11.8438303"><ele>187.0</ele><time>2026-04-26T10:17:03.271Z</time></trkpt><trkpt lat="45.8070087" lon="11.8437604"><ele>187.0</ele><time>2026-04-26T10:17:06.278Z</time></trkpt><trkpt lat="45.8069442" lon="11.8437167"><ele>187.0</ele><time>2026-04-26T10:17:08.275Z</time></trkpt><trkpt lat="45.8068869" lon="11.8436772"><ele>186.5</ele><time>2026-04-26T10:17:10.278Z</time></trkpt><trkpt lat="45.8068205" lon="11.8436401"><ele>186.0</ele><time>2026-04-26T10:17:12.284Z</time></trkpt><trkpt lat="45.8067197" lon="11.8435916"><ele>185.5</ele><time>2026-04-26T10:17:14.288Z</time></trkpt><trkpt lat="45.8066598" lon="11.8435483"><ele>185.0</ele><time>2026-04-26T10:17:15.28Z</time></trkpt><trkpt lat="45.8065915" lon="11.8434599"><ele>184.5</ele><time>2026-04-26T10:17:17.279Z</time></trkpt><trkpt lat="45.8065363" lon="11.8435159"><ele>184.0</ele><time>2026-04-26T10:17:20.282Z</time></trkpt><trkpt lat="45.8065676" lon="11.8435944"><ele>184.0</ele><time>2026-04-26T10:17:22.281Z</time></trkpt><trkpt lat="45.806626" lon="11.8436402"><ele>184.0</ele><time>2026-04-26T10:18:18.301Z</time></trkpt><trkpt lat="45.806639" lon="11.843537"><ele>184.0</ele><time>2026-04-26T10:18:22.296Z</time></trkpt><trkpt lat="45.8066137" lon="11.8434062"><ele>184.0</ele><time>2026-04-26T10:18:24.291Z</time></trkpt><trkpt lat="45.8065852" lon="11.843324"><ele>184.0</ele><time>2026-04-26T10:18:25.29Z</time></trkpt><trkpt lat="45.8065097" lon="11.8431863"><ele>184.0</ele><time>2026-04-26T10:18:27.291Z</time></trkpt><trkpt lat="45.8064645" lon="11.8430621"><ele>184.0</ele><time>2026-04-26T10:18:29.289Z</time></trkpt><trkpt lat="45.8064589" lon="11.8429473"><ele>184.0</ele><time>2026-04-26T10:18:31.293Z</time></trkpt><trkpt lat="45.806444" lon="11.8428354"><ele>184.0</ele><time>2026-04-26T10:18:33.291Z</time></trkpt><trkpt lat="45.8064285" lon="11.8427017"><ele>184.0</ele><time>2026-04-26T10:18:35.296Z</time></trkpt><trkpt lat="45.8064094" lon="11.8425802"><ele>184.0</ele><time>2026-04-26T10:18:37.293Z</time></trkpt><trkpt lat="45.806397" lon="11.8424703"><ele>184.0</ele><time>2026-04-26T10:18:39.296Z</time></trkpt><trkpt lat="45.8063877" lon="11.8423757"><ele>184.0</ele><time>2026-04-26T10:18:41.295Z</time></trkpt><trkpt lat="45.8063779" lon="11.842263"><ele>184.0</ele><time>2026-04-26T10:18:43.299Z</time></trkpt><trkpt lat="45.8063731" lon="11.8421412"><ele>184.0</ele><time>2026-04-26T10:18:45.298Z</time></trkpt><trkpt lat="45.8063491" lon="11.8420247"><ele>184.0</ele><time>2026-04-26T10:18:47.3Z</time></trkpt><trkpt lat="45.8063194" lon="11.8419438"><ele>184.0</ele><time>2026-04-26T10:18:49.301Z</time></trkpt><trkpt lat="45.806282" lon="11.8418218"><ele>184.0</ele><time>2026-04-26T10:18:52.287Z</time></trkpt><trkpt lat="45.8062663" lon="11.8417166"><ele>184.0</ele><time>2026-04-26T10:18:54.283Z</time></trkpt><trkpt lat="45.8062693" lon="11.841615"><ele>184.0</ele><time>2026-04-26T10:18:56.285Z</time></trkpt><trkpt lat="45.8062548" lon="11.8414742"><ele>184.0</ele><time>2026-04-26T10:18:58.279Z</time></trkpt><trkpt lat="45.8062392" lon="11.8413083"><ele>184.0</ele><time>2026-04-26T10:19:00.283Z</time></trkpt><trkpt lat="45.8062198" lon="11.8412119"><ele>184.0</ele><time>2026-04-26T10:19:01.284Z</time></trkpt><trkpt lat="45.8061525" lon="11.841082"><ele>183.79999999999998</ele><time>2026-04-26T10:19:03.285Z</time></trkpt><trkpt lat="45.8060842" lon="11.8409283"><ele>183.6</ele><time>2026-04-26T10:19:05.28Z</time></trkpt><trkpt lat="45.8060602" lon="11.8408374"><ele>183.4</ele><time>2026-04-26T10:19:06.287Z</time></trkpt><trkpt lat="45.80604" lon="11.8407299"><ele>183.2</ele><time>2026-04-26T10:19:07.29Z</time></trkpt><trkpt lat="45.8060107" lon="11.8405996"><ele>183.0</ele><time>2026-04-26T10:19:08.293Z</time></trkpt><trkpt lat="45.8059887" lon="11.8404837"><ele>182.4</ele><time>2026-04-26T10:19:09.296Z</time></trkpt><trkpt lat="45.8059683" lon="11.8403638"><ele>181.8</ele><time>2026-04-26T10:19:10.295Z</time></trkpt><trkpt lat="45.8059483" lon="11.840239"><ele>181.2</ele><time>2026-04-26T10:19:11.293Z</time></trkpt><trkpt lat="45.8059337" lon="11.8400925"><ele>180.6</ele><time>2026-04-26T10:19:12.294Z</time></trkpt><trkpt lat="45.8059174" lon="11.839943"><ele>180.0</ele><time>2026-04-26T10:19:13.296Z</time></trkpt><trkpt lat="45.8058992" lon="11.8397974"><ele>180.0</ele><time>2026-04-26T10:19:14.293Z</time></trkpt><trkpt lat="45.8058809" lon="11.8396557"><ele>180.0</ele><time>2026-04-26T10:19:15.288Z</time></trkpt><trkpt lat="45.805862" lon="11.8395229"><ele>180.0</ele><time>2026-04-26T10:19:16.291Z</time></trkpt><trkpt lat="45.8058552" lon="11.8394309"><ele>180.0</ele><time>2026-04-26T10:19:17.298Z</time></trkpt><trkpt lat="45.80585" lon="11.8392962"><ele>180.0</ele><time>2026-04-26T10:19:19.287Z</time></trkpt><trkpt lat="45.8057952" lon="11.8391387"><ele>180.66666666666666</ele><time>2026-04-26T10:19:21.299Z</time></trkpt><trkpt lat="45.805761" lon="11.8389809"><ele>181.33333333333334</ele><time>2026-04-26T10:19:23.29Z</time></trkpt><trkpt lat="45.8057596" lon="11.8388082"><ele>182.0</ele><time>2026-04-26T10:19:25.29Z</time></trkpt><trkpt lat="45.805761" lon="11.8387166"><ele>182.66666666666669</ele><time>2026-04-26T10:19:26.283Z</time></trkpt><trkpt lat="45.8057589" lon="11.838611"><ele>183.33333333333334</ele><time>2026-04-26T10:19:27.286Z</time></trkpt><trkpt lat="45.8057458" lon="11.838506"><ele>184.0</ele><time>2026-04-26T10:19:28.294Z</time></trkpt><trkpt lat="45.8057357" lon="11.8384097"><ele>184.14285714285714</ele><time>2026-04-26T10:19:29.283Z</time></trkpt><trkpt lat="45.805721" lon="11.8383186"><ele>184.28571428571428</ele><time>2026-04-26T10:19:30.286Z</time></trkpt><trkpt lat="45.8057088" lon="11.8382295"><ele>184.42857142857142</ele><time>2026-04-26T10:19:31.278Z</time></trkpt><trkpt lat="45.8056991" lon="11.8381347"><ele>184.57142857142856</ele><time>2026-04-26T10:19:32.277Z</time></trkpt><trkpt lat="45.8056838" lon="11.8380242"><ele>184.71428571428572</ele><time>2026-04-26T10:19:33.273Z</time></trkpt><trkpt lat="45.8056916" lon="11.8379126"><ele>184.85714285714283</ele><time>2026-04-26T10:19:34.289Z</time></trkpt><trkpt lat="45.8057123" lon="11.8377935"><ele>185.0</ele><time>2026-04-26T10:19:35.271Z</time></trkpt><trkpt lat="45.8057279" lon="11.837673"><ele>185.2</ele><time>2026-04-26T10:19:36.281Z</time></trkpt><trkpt lat="45.8057308" lon="11.8375417"><ele>185.4</ele><time>2026-04-26T10:19:37.283Z</time></trkpt><trkpt lat="45.8057312" lon="11.8374109"><ele>185.60000000000002</ele><time>2026-04-26T10:19:38.291Z</time></trkpt><trkpt lat="45.8057286" lon="11.8372861"><ele>185.8</ele><time>2026-04-26T10:19:39.294Z</time></trkpt><trkpt lat="45.8057274" lon="11.8371483"><ele>186.0</ele><time>2026-04-26T10:19:40.289Z</time></trkpt><trkpt lat="45.8057241" lon="11.8370173"><ele>186.0</ele><time>2026-04-26T10:19:41.287Z</time></trkpt><trkpt lat="45.8057201" lon="11.8368841"><ele>186.0</ele><time>2026-04-26T10:19:42.288Z</time></trkpt><trkpt lat="45.8057168" lon="11.8367451"><ele>186.0</ele><time>2026-04-26T10:19:43.289Z</time></trkpt><trkpt lat="45.8057163" lon="11.8366141"><ele>186.0</ele><time>2026-04-26T10:19:44.285Z</time></trkpt><trkpt lat="45.8057179" lon="11.8364868"><ele>186.0</ele><time>2026-04-26T10:19:45.291Z</time></trkpt><trkpt lat="45.8057103" lon="11.8363561"><ele>186.0</ele><time>2026-04-26T10:19:46.288Z</time></trkpt><trkpt lat="45.8057023" lon="11.8362344"><ele>186.0</ele><time>2026-04-26T10:19:47.292Z</time></trkpt><trkpt lat="45.8056965" lon="11.8361265"><ele>186.0</ele><time>2026-04-26T10:19:48.287Z</time></trkpt><trkpt lat="45.8056894" lon="11.8360315"><ele>186.0</ele><time>2026-04-26T10:19:49.292Z</time></trkpt><trkpt lat="45.8056799" lon="11.8358799"><ele>186.0</ele><time>2026-04-26T10:19:51.295Z</time></trkpt><trkpt lat="45.8056772" lon="11.8357672"><ele>186.0</ele><time>2026-04-26T10:19:53.288Z</time></trkpt><trkpt lat="45.805698" lon="11.8356405"><ele>186.0</ele><time>2026-04-26T10:19:55.287Z</time></trkpt><trkpt lat="45.8057465" lon="11.8354993"><ele>186.0</ele><time>2026-04-26T10:19:57.288Z</time></trkpt><trkpt lat="45.8058067" lon="11.8353454"><ele>186.0</ele><time>2026-04-26T10:19:59.286Z</time></trkpt><trkpt lat="45.8058423" lon="11.8351879"><ele>186.0</ele><time>2026-04-26T10:20:01.284Z</time></trkpt><trkpt lat="45.8058586" lon="11.8350932"><ele>186.0</ele><time>2026-04-26T10:20:02.276Z</time></trkpt><trkpt lat="45.8058732" lon="11.8349877"><ele>186.33333333333334</ele><time>2026-04-26T10:20:03.281Z</time></trkpt><trkpt lat="45.8058853" lon="11.8348753"><ele>186.66666666666666</ele><time>2026-04-26T10:20:04.282Z</time></trkpt><trkpt lat="45.8058915" lon="11.8347504"><ele>187.0</ele><time>2026-04-26T10:20:05.278Z</time></trkpt><trkpt lat="45.805888" lon="11.8346261"><ele>187.33333333333331</ele><time>2026-04-26T10:20:06.287Z</time></trkpt><trkpt lat="45.8058742" lon="11.8345036"><ele>187.66666666666666</ele><time>2026-04-26T10:20:07.276Z</time></trkpt><trkpt lat="45.8058652" lon="11.8343868"><ele>188.0</ele><time>2026-04-26T10:20:08.278Z</time></trkpt><trkpt lat="45.8058615" lon="11.8342803"><ele>188.16666666666666</ele><time>2026-04-26T10:20:09.276Z</time></trkpt><trkpt lat="45.8058537" lon="11.8341538"><ele>188.33333333333331</ele><time>2026-04-26T10:20:10.282Z</time></trkpt><trkpt lat="45.8058439" lon="11.834034"><ele>188.5</ele><time>2026-04-26T10:20:11.276Z</time></trkpt><trkpt lat="45.805836" lon="11.8339105"><ele>188.66666666666666</ele><time>2026-04-26T10:20:12.285Z</time></trkpt><trkpt lat="45.8058301" lon="11.8337754"><ele>188.83333333333334</ele><time>2026-04-26T10:20:13.276Z</time></trkpt><trkpt lat="45.8058233" lon="11.8336429"><ele>189.0</ele><time>2026-04-26T10:20:14.284Z</time></trkpt><trkpt lat="45.8058079" lon="11.8335138"><ele>189.16666666666666</ele><time>2026-04-26T10:20:15.278Z</time></trkpt><trkpt lat="45.8057991" lon="11.8333824"><ele>189.33333333333334</ele><time>2026-04-26T10:20:16.283Z</time></trkpt><trkpt lat="45.8057937" lon="11.8332571"><ele>189.5</ele><time>2026-04-26T10:20:17.292Z</time></trkpt><trkpt lat="45.8057841" lon="11.8331387"><ele>189.66666666666669</ele><time>2026-04-26T10:20:18.266Z</time></trkpt><trkpt lat="45.8057822" lon="11.8330429"><ele>189.83333333333334</ele><time>2026-04-26T10:20:19.287Z</time></trkpt><trkpt lat="45.8057652" lon="11.8328759"><ele>190.0</ele><time>2026-04-26T10:20:21.276Z</time></trkpt><trkpt lat="45.8057769" lon="11.8327166"><ele>190.33333333333334</ele><time>2026-04-26T10:20:23.282Z</time></trkpt><trkpt lat="45.8057935" lon="11.8325825"><ele>190.66666666666669</ele><time>2026-04-26T10:20:25.286Z</time></trkpt><trkpt lat="45.8057943" lon="11.8324736"><ele>191.0</ele><time>2026-04-26T10:20:27.28Z</time></trkpt><trkpt lat="45.8057883" lon="11.8323664"><ele>191.33333333333334</ele><time>2026-04-26T10:20:29.274Z</time></trkpt><trkpt lat="45.8057713" lon="11.832261"><ele>191.66666666666666</ele><time>2026-04-26T10:20:32.277Z</time></trkpt><trkpt lat="45.8057343" lon="11.8321848"><ele>192.0</ele><time>2026-04-26T10:20:35.278Z</time></trkpt><trkpt lat="45.8056039" lon="11.8321221"><ele>192.0</ele><time>2026-04-26T10:20:37.274Z</time></trkpt><trkpt lat="45.8055066" lon="11.8320836"><ele>192.0</ele><time>2026-04-26T10:20:38.282Z</time></trkpt><trkpt lat="45.8053916" lon="11.8320293"><ele>192.0</ele><time>2026-04-26T10:20:39.28Z</time></trkpt><trkpt lat="45.8052476" lon="11.8319695"><ele>192.0</ele><time>2026-04-26T10:20:40.291Z</time></trkpt><trkpt lat="45.8050879" lon="11.8319422"><ele>190.66666666666666</ele><time>2026-04-26T10:20:41.281Z</time></trkpt><trkpt lat="45.8049046" lon="11.831973"><ele>189.33333333333331</ele><time>2026-04-26T10:20:42.283Z</time></trkpt><trkpt lat="45.8046913" lon="11.832015"><ele>188.0</ele><time>2026-04-26T10:20:43.277Z</time></trkpt><trkpt lat="45.8044783" lon="11.8320246"><ele>186.66666666666666</ele><time>2026-04-26T10:20:44.284Z</time></trkpt><trkpt lat="45.804266" lon="11.8320522"><ele>185.33333333333334</ele><time>2026-04-26T10:20:45.278Z</time></trkpt><trkpt lat="45.8040633" lon="11.8320966"><ele>184.0</ele><time>2026-04-26T10:20:46.28Z</time></trkpt><trkpt lat="45.8038807" lon="11.8321354"><ele>184.0</ele><time>2026-04-26T10:20:47.281Z</time></trkpt><trkpt lat="45.8037262" lon="11.8321608"><ele>184.0</ele><time>2026-04-26T10:20:48.279Z</time></trkpt><trkpt lat="45.8035838" lon="11.8321895"><ele>184.0</ele><time>2026-04-26T10:20:49.28Z</time></trkpt><trkpt lat="45.8034453" lon="11.8322345"><ele>184.0</ele><time>2026-04-26T10:20:50.275Z</time></trkpt><trkpt lat="45.8033146" lon="11.8322603"><ele>183.5</ele><time>2026-04-26T10:20:51.28Z</time></trkpt><trkpt lat="45.8031817" lon="11.8323128"><ele>183.0</ele><time>2026-04-26T10:20:52.275Z</time></trkpt><trkpt lat="45.8030441" lon="11.8323656"><ele>182.5</ele><time>2026-04-26T10:20:53.284Z</time></trkpt><trkpt lat="45.802932" lon="11.8323994"><ele>182.0</ele><time>2026-04-26T10:20:54.281Z</time></trkpt><trkpt lat="45.8028357" lon="11.8323844"><ele>182.0</ele><time>2026-04-26T10:20:55.288Z</time></trkpt><trkpt lat="45.80272" lon="11.8323879"><ele>182.0</ele><time>2026-04-26T10:20:56.278Z</time></trkpt><trkpt lat="45.8025823" lon="11.8324009"><ele>182.0</ele><time>2026-04-26T10:20:57.279Z</time></trkpt><trkpt lat="45.8024418" lon="11.8324216"><ele>182.0</ele><time>2026-04-26T10:20:58.277Z</time></trkpt><trkpt lat="45.802296" lon="11.8324459"><ele>181.0</ele><time>2026-04-26T10:20:59.287Z</time></trkpt><trkpt lat="45.8021484" lon="11.8324775"><ele>180.0</ele><time>2026-04-26T10:21:00.28Z</time></trkpt><trkpt lat="45.8020122" lon="11.8324849"><ele>179.0</ele><time>2026-04-26T10:21:01.283Z</time></trkpt><trkpt lat="45.8018815" lon="11.832489"><ele>178.0</ele><time>2026-04-26T10:21:02.279Z</time></trkpt><trkpt lat="45.801742" lon="11.8325132"><ele>176.75</ele><time>2026-04-26T10:21:03.283Z</time></trkpt><trkpt lat="45.8016023" lon="11.8325317"><ele>175.5</ele><time>2026-04-26T10:21:04.28Z</time></trkpt><trkpt lat="45.8014864" lon="11.8325483"><ele>174.25</ele><time>2026-04-26T10:21:05.28Z</time></trkpt><trkpt lat="45.8013707" lon="11.8325508"><ele>173.0</ele><time>2026-04-26T10:21:06.281Z</time></trkpt><trkpt lat="45.8012535" lon="11.8325623"><ele>173.0</ele><time>2026-04-26T10:21:07.28Z</time></trkpt><trkpt lat="45.8011412" lon="11.8325748"><ele>173.0</ele><time>2026-04-26T10:21:08.281Z</time></trkpt><trkpt lat="45.8010308" lon="11.8326158"><ele>173.0</ele><time>2026-04-26T10:21:09.276Z</time></trkpt><trkpt lat="45.8009254" lon="11.8326832"><ele>173.0</ele><time>2026-04-26T10:21:10.282Z</time></trkpt><trkpt lat="45.8008252" lon="11.8327569"><ele>172.25</ele><time>2026-04-26T10:21:11.274Z</time></trkpt><trkpt lat="45.8007294" lon="11.8328394"><ele>171.5</ele><time>2026-04-26T10:21:12.284Z</time></trkpt><trkpt lat="45.8006337" lon="11.8329519"><ele>170.75</ele><time>2026-04-26T10:21:13.272Z</time></trkpt><trkpt lat="45.8005276" lon="11.8330756"><ele>170.0</ele><time>2026-04-26T10:21:14.275Z</time></trkpt><trkpt lat="45.8004405" lon="11.8332148"><ele>170.0</ele><time>2026-04-26T10:21:15.272Z</time></trkpt><trkpt lat="45.8003693" lon="11.8333577"><ele>170.0</ele><time>2026-04-26T10:21:16.28Z</time></trkpt><trkpt lat="45.8003073" lon="11.8335099"><ele>170.0</ele><time>2026-04-26T10:21:17.277Z</time></trkpt><trkpt lat="45.8002376" lon="11.8336918"><ele>170.0</ele><time>2026-04-26T10:21:18.284Z</time></trkpt><trkpt lat="45.8001693" lon="11.8338892"><ele>169.6</ele><time>2026-04-26T10:21:19.277Z</time></trkpt><trkpt lat="45.800107" lon="11.8340875"><ele>169.2</ele><time>2026-04-26T10:21:20.281Z</time></trkpt><trkpt lat="45.8000474" lon="11.8342568"><ele>168.8</ele><time>2026-04-26T10:21:21.276Z</time></trkpt><trkpt lat="45.800004" lon="11.8343603"><ele>168.4</ele><time>2026-04-26T10:21:22.278Z</time></trkpt><trkpt lat="45.7999775" lon="11.8344456"><ele>168.0</ele><time>2026-04-26T10:21:23.28Z</time></trkpt><trkpt lat="45.7999345" lon="11.8345769"><ele>168.0</ele><time>2026-04-26T10:21:25.283Z</time></trkpt><trkpt lat="45.799875" lon="11.8346536"><ele>168.0</ele><time>2026-04-26T10:21:27.28Z</time></trkpt><trkpt lat="45.7997583" lon="11.834679"><ele>168.0</ele><time>2026-04-26T10:21:29.289Z</time></trkpt><trkpt lat="45.799655" lon="11.8345893"><ele>168.0</ele><time>2026-04-26T10:21:31.287Z</time></trkpt><trkpt lat="45.7996137" lon="11.8344442"><ele>168.0</ele><time>2026-04-26T10:21:32.276Z</time></trkpt><trkpt lat="45.7995871" lon="11.8342197"><ele>168.0</ele><time>2026-04-26T10:21:33.278Z</time></trkpt><trkpt lat="45.7995633" lon="11.8339597"><ele>168.0</ele><time>2026-04-26T10:21:34.274Z</time></trkpt><trkpt lat="45.7995439" lon="11.83368"><ele>168.0</ele><time>2026-04-26T10:21:35.274Z</time></trkpt><trkpt lat="45.7995278" lon="11.8333969"><ele>168.33333333333334</ele><time>2026-04-26T10:21:36.269Z</time></trkpt><trkpt lat="45.7995125" lon="11.8331026"><ele>168.66666666666669</ele><time>2026-04-26T10:21:37.271Z</time></trkpt><trkpt lat="45.7995029" lon="11.8328154"><ele>169.0</ele><time>2026-04-26T10:21:38.273Z</time></trkpt><trkpt lat="45.7994845" lon="11.8325527"><ele>168.33333333333334</ele><time>2026-04-26T10:21:39.277Z</time></trkpt><trkpt lat="45.7994628" lon="11.8323165"><ele>167.66666666666666</ele><time>2026-04-26T10:21:40.273Z</time></trkpt><trkpt lat="45.7994375" lon="11.8321018"><ele>167.0</ele><time>2026-04-26T10:21:41.28Z</time></trkpt><trkpt lat="45.799409" lon="11.8318866"><ele>167.0</ele><time>2026-04-26T10:21:42.28Z</time></trkpt><trkpt lat="45.7993826" lon="11.8316764"><ele>167.0</ele><time>2026-04-26T10:21:43.279Z</time></trkpt><trkpt lat="45.7993562" lon="11.8314735"><ele>167.0</ele><time>2026-04-26T10:21:44.289Z</time></trkpt><trkpt lat="45.7993261" lon="11.831265"><ele>167.0</ele><time>2026-04-26T10:21:45.281Z</time></trkpt><trkpt lat="45.7993005" lon="11.8310605"><ele>167.0</ele><time>2026-04-26T10:21:46.283Z</time></trkpt><trkpt lat="45.7992809" lon="11.8308517"><ele>167.0</ele><time>2026-04-26T10:21:47.285Z</time></trkpt><trkpt lat="45.7992643" lon="11.830632"><ele>167.0</ele><time>2026-04-26T10:21:48.284Z</time></trkpt><trkpt lat="45.7992442" lon="11.8304163"><ele>167.0</ele><time>2026-04-26T10:21:49.288Z</time></trkpt><trkpt lat="45.7992185" lon="11.8301946"><ele>167.0</ele><time>2026-04-26T10:21:50.286Z</time></trkpt><trkpt lat="45.7991936" lon="11.8299817"><ele>167.0</ele><time>2026-04-26T10:21:51.287Z</time></trkpt><trkpt lat="45.7991688" lon="11.8297665"><ele>167.0</ele><time>2026-04-26T10:21:52.279Z</time></trkpt><trkpt lat="45.7991417" lon="11.8295452"><ele>167.0</ele><time>2026-04-26T10:21:53.28Z</time></trkpt><trkpt lat="45.7991052" lon="11.8293476"><ele>167.0</ele><time>2026-04-26T10:21:54.275Z</time></trkpt><trkpt lat="45.7990763" lon="11.8291381"><ele>167.0</ele><time>2026-04-26T10:21:55.283Z</time></trkpt><trkpt lat="45.7990438" lon="11.828933"><ele>167.0</ele><time>2026-04-26T10:21:56.28Z</time></trkpt><trkpt lat="45.7989876" lon="11.8287424"><ele>167.0</ele><time>2026-04-26T10:21:57.284Z</time></trkpt><trkpt lat="45.7989482" lon="11.828536"><ele>167.0</ele><time>2026-04-26T10:21:58.283Z</time></trkpt><trkpt lat="45.7989119" lon="11.8283168"><ele>167.66666666666666</ele><time>2026-04-26T10:21:59.287Z</time></trkpt><trkpt lat="45.7988777" lon="11.8281028"><ele>168.33333333333334</ele><time>2026-04-26T10:22:00.279Z</time></trkpt><trkpt lat="45.7988411" lon="11.8279081"><ele>169.0</ele><time>2026-04-26T10:22:01.284Z</time></trkpt><trkpt lat="45.7988042" lon="11.8276668"><ele>169.0</ele><time>2026-04-26T10:22:02.278Z</time></trkpt><trkpt lat="45.7987668" lon="11.8274172"><ele>169.0</ele><time>2026-04-26T10:22:03.279Z</time></trkpt><trkpt lat="45.7987114" lon="11.8271582"><ele>169.0</ele><time>2026-04-26T10:22:04.277Z</time></trkpt><trkpt lat="45.7986544" lon="11.8269082"><ele>168.0</ele><time>2026-04-26T10:22:05.284Z</time></trkpt><trkpt lat="45.7986115" lon="11.8266443"><ele>167.0</ele><time>2026-04-26T10:22:06.277Z</time></trkpt><trkpt lat="45.7985702" lon="11.8263818"><ele>166.0</ele><time>2026-04-26T10:22:07.283Z</time></trkpt><trkpt lat="45.7985394" lon="11.8261165"><ele>165.66666666666669</ele><time>2026-04-26T10:22:08.281Z</time></trkpt><trkpt lat="45.7985205" lon="11.8258509"><ele>165.33333333333334</ele><time>2026-04-26T10:22:09.285Z</time></trkpt><trkpt lat="45.79851" lon="11.825572"><ele>165.0</ele><time>2026-04-26T10:22:10.282Z</time></trkpt><trkpt lat="45.7985019" lon="11.825301"><ele>164.66666666666666</ele><time>2026-04-26T10:22:11.282Z</time></trkpt><trkpt lat="45.7984877" lon="11.8250262"><ele>164.33333333333331</ele><time>2026-04-26T10:22:12.275Z</time></trkpt><trkpt lat="45.7984695" lon="11.8247756"><ele>164.0</ele><time>2026-04-26T10:22:13.289Z</time></trkpt><trkpt lat="45.7984658" lon="11.8245066"><ele>163.66666666666666</ele><time>2026-04-26T10:22:14.285Z</time></trkpt><trkpt lat="45.7984538" lon="11.8242448"><ele>163.33333333333334</ele><time>2026-04-26T10:22:15.285Z</time></trkpt><trkpt lat="45.7984546" lon="11.8240036"><ele>163.0</ele><time>2026-04-26T10:22:16.278Z</time></trkpt><trkpt lat="45.7984565" lon="11.8237595"><ele>163.0</ele><time>2026-04-26T10:22:17.299Z</time></trkpt><trkpt lat="45.7984516" lon="11.8235234"><ele>163.0</ele><time>2026-04-26T10:22:18.292Z</time></trkpt><trkpt lat="45.798443" lon="11.8233033"><ele>163.0</ele><time>2026-04-26T10:22:19.294Z</time></trkpt><trkpt lat="45.7984341" lon="11.823092"><ele>163.0</ele><time>2026-04-26T10:22:20.284Z</time></trkpt><trkpt lat="45.7984285" lon="11.8228923"><ele>163.0</ele><time>2026-04-26T10:22:21.293Z</time></trkpt><trkpt lat="45.7984271" lon="11.822658"><ele>163.0</ele><time>2026-04-26T10:22:22.286Z</time></trkpt><trkpt lat="45.7984292" lon="11.8224278"><ele>163.0</ele><time>2026-04-26T10:22:23.297Z</time></trkpt><trkpt lat="45.7984288" lon="11.8222048"><ele>163.0</ele><time>2026-04-26T10:22:24.286Z</time></trkpt><trkpt lat="45.798421" lon="11.821973"><ele>163.0</ele><time>2026-04-26T10:22:25.288Z</time></trkpt><trkpt lat="45.7984057" lon="11.8217259"><ele>163.25</ele><time>2026-04-26T10:22:26.285Z</time></trkpt><trkpt lat="45.7984037" lon="11.8215234"><ele>163.5</ele><time>2026-04-26T10:22:27.286Z</time></trkpt><trkpt lat="45.7983912" lon="11.8213153"><ele>163.75</ele><time>2026-04-26T10:22:28.281Z</time></trkpt><trkpt lat="45.7983724" lon="11.8211023"><ele>164.0</ele><time>2026-04-26T10:22:29.287Z</time></trkpt><trkpt lat="45.7983659" lon="11.8209162"><ele>164.16666666666666</ele><time>2026-04-26T10:22:30.281Z</time></trkpt><trkpt lat="45.7983449" lon="11.8208"><ele>164.33333333333331</ele><time>2026-04-26T10:22:31.284Z</time></trkpt><trkpt lat="45.7983294" lon="11.820677"><ele>164.5</ele><time>2026-04-26T10:22:32.281Z</time></trkpt><trkpt lat="45.7983151" lon="11.8205523"><ele>164.66666666666666</ele><time>2026-04-26T10:22:33.285Z</time></trkpt><trkpt lat="45.7983126" lon="11.8204371"><ele>164.83333333333334</ele><time>2026-04-26T10:22:34.28Z</time></trkpt><trkpt lat="45.7983073" lon="11.8203316"><ele>165.0</ele><time>2026-04-26T10:22:35.282Z</time></trkpt><trkpt lat="45.7982839" lon="11.8202441"><ele>165.0</ele><time>2026-04-26T10:22:36.272Z</time></trkpt><trkpt lat="45.7981817" lon="11.8201571"><ele>165.0</ele><time>2026-04-26T10:22:38.282Z</time></trkpt><trkpt lat="45.798093" lon="11.8201565"><ele>165.0</ele><time>2026-04-26T10:22:39.283Z</time></trkpt><trkpt lat="45.7979855" lon="11.8201869"><ele>165.0</ele><time>2026-04-26T10:22:40.284Z</time></trkpt><trkpt lat="45.7978592" lon="11.8202339"><ele>165.0</ele><time>2026-04-26T10:22:41.28Z</time></trkpt><trkpt lat="45.7977126" lon="11.820295"><ele>163.33333333333334</ele><time>2026-04-26T10:22:42.285Z</time></trkpt><trkpt lat="45.79755" lon="11.820359"><ele>161.66666666666669</ele><time>2026-04-26T10:22:43.284Z</time></trkpt><trkpt lat="45.7973607" lon="11.8204305"><ele>160.0</ele><time>2026-04-26T10:22:44.293Z</time></trkpt><trkpt lat="45.7971554" lon="11.8205078"><ele>160.0</ele><time>2026-04-26T10:22:45.279Z</time></trkpt><trkpt lat="45.7969413" lon="11.8205691"><ele>160.0</ele><time>2026-04-26T10:22:46.286Z</time></trkpt><trkpt lat="45.796735" lon="11.8206392"><ele>160.0</ele><time>2026-04-26T10:22:47.28Z</time></trkpt><trkpt lat="45.7965357" lon="11.820704"><ele>160.0</ele><time>2026-04-26T10:22:48.286Z</time></trkpt><trkpt lat="45.7963494" lon="11.8207625"><ele>160.0</ele><time>2026-04-26T10:22:49.282Z</time></trkpt><trkpt lat="45.7961706" lon="11.8208075"><ele>160.0</ele><time>2026-04-26T10:22:50.288Z</time></trkpt><trkpt lat="45.7959988" lon="11.8208499"><ele>159.33333333333334</ele><time>2026-04-26T10:22:51.284Z</time></trkpt><trkpt lat="45.7958288" lon="11.8208922"><ele>158.66666666666666</ele><time>2026-04-26T10:22:52.281Z</time></trkpt><trkpt lat="45.7956666" lon="11.8209396"><ele>158.0</ele><time>2026-04-26T10:22:53.29Z</time></trkpt><trkpt lat="45.7954968" lon="11.820978"><ele>157.66666666666666</ele><time>2026-04-26T10:22:54.283Z</time></trkpt><trkpt lat="45.7953431" lon="11.8210058"><ele>157.33333333333334</ele><time>2026-04-26T10:22:55.288Z</time></trkpt><trkpt lat="45.7951931" lon="11.8210312"><ele>157.0</ele><time>2026-04-26T10:22:56.292Z</time></trkpt><trkpt lat="45.7950365" lon="11.8210542"><ele>155.66666666666669</ele><time>2026-04-26T10:22:57.285Z</time></trkpt><trkpt lat="45.7948776" lon="11.8210795"><ele>154.33333333333334</ele><time>2026-04-26T10:22:58.29Z</time></trkpt><trkpt lat="45.7947237" lon="11.8211183"><ele>153.0</ele><time>2026-04-26T10:22:59.287Z</time></trkpt><trkpt lat="45.7945705" lon="11.8211428"><ele>153.0</ele><time>2026-04-26T10:23:00.286Z</time></trkpt><trkpt lat="45.7944275" lon="11.8211763"><ele>153.0</ele><time>2026-04-26T10:23:01.296Z</time></trkpt><trkpt lat="45.7942965" lon="11.8211908"><ele>153.0</ele><time>2026-04-26T10:23:02.29Z</time></trkpt><trkpt lat="45.7941749" lon="11.8211993"><ele>153.0</ele><time>2026-04-26T10:23:03.281Z</time></trkpt><trkpt lat="45.7940596" lon="11.8211994"><ele>152.4</ele><time>2026-04-26T10:23:04.288Z</time></trkpt><trkpt lat="45.7939405" lon="11.821214"><ele>151.8</ele><time>2026-04-26T10:23:05.291Z</time></trkpt><trkpt lat="45.7938312" lon="11.8212452"><ele>151.2</ele><time>2026-04-26T10:23:06.288Z</time></trkpt><trkpt lat="45.7937196" lon="11.8212685"><ele>150.6</ele><time>2026-04-26T10:23:07.29Z</time></trkpt><trkpt lat="45.7936155" lon="11.8212675"><ele>150.0</ele><time>2026-04-26T10:23:08.281Z</time></trkpt><trkpt lat="45.7935039" lon="11.8212546"><ele>149.75</ele><time>2026-04-26T10:23:09.284Z</time></trkpt><trkpt lat="45.7933934" lon="11.8211989"><ele>149.5</ele><time>2026-04-26T10:23:10.283Z</time></trkpt><trkpt lat="45.7932759" lon="11.8211047"><ele>149.25</ele><time>2026-04-26T10:23:11.282Z</time></trkpt><trkpt lat="45.7931659" lon="11.8209797"><ele>149.0</ele><time>2026-04-26T10:23:12.272Z</time></trkpt><trkpt lat="45.7930587" lon="11.8208406"><ele>148.75</ele><time>2026-04-26T10:23:13.277Z</time></trkpt><trkpt lat="45.7929551" lon="11.820701"><ele>148.5</ele><time>2026-04-26T10:23:14.268Z</time></trkpt><trkpt lat="45.7928536" lon="11.8205516"><ele>148.25</ele><time>2026-04-26T10:23:15.276Z</time></trkpt><trkpt lat="45.7927584" lon="11.8203896"><ele>148.0</ele><time>2026-04-26T10:23:16.276Z</time></trkpt><trkpt lat="45.7926551" lon="11.8202414"><ele>148.66666666666669</ele><time>2026-04-26T10:23:17.28Z</time></trkpt><trkpt lat="45.7925449" lon="11.8200938"><ele>149.33333333333334</ele><time>2026-04-26T10:23:18.273Z</time></trkpt><trkpt lat="45.7924301" lon="11.8199534"><ele>150.0</ele><time>2026-04-26T10:23:19.283Z</time></trkpt><trkpt lat="45.7923115" lon="11.8198101"><ele>150.0</ele><time>2026-04-26T10:23:20.275Z</time></trkpt><trkpt lat="45.7921915" lon="11.8196811"><ele>150.0</ele><time>2026-04-26T10:23:21.28Z</time></trkpt><trkpt lat="45.7920801" lon="11.8195658"><ele>150.0</ele><time>2026-04-26T10:23:22.275Z</time></trkpt><trkpt lat="45.7919765" lon="11.8194499"><ele>150.0</ele><time>2026-04-26T10:23:23.287Z</time></trkpt><trkpt lat="45.7918674" lon="11.8193586"><ele>150.25</ele><time>2026-04-26T10:23:24.275Z</time></trkpt><trkpt lat="45.7917524" lon="11.8193009"><ele>150.5</ele><time>2026-04-26T10:23:25.275Z</time></trkpt><trkpt lat="45.7916346" lon="11.8192658"><ele>150.75</ele><time>2026-04-26T10:23:26.275Z</time></trkpt><trkpt lat="45.7915121" lon="11.8192474"><ele>151.0</ele><time>2026-04-26T10:23:27.272Z</time></trkpt><trkpt lat="45.7913929" lon="11.8192312"><ele>151.0</ele><time>2026-04-26T10:23:28.279Z</time></trkpt><trkpt lat="45.7912778" lon="11.8192208"><ele>151.0</ele><time>2026-04-26T10:23:29.277Z</time></trkpt><trkpt lat="45.7911671" lon="11.8192157"><ele>151.0</ele><time>2026-04-26T10:23:30.278Z</time></trkpt><trkpt lat="45.7910529" lon="11.8192009"><ele>151.0</ele><time>2026-04-26T10:23:31.284Z</time></trkpt><trkpt lat="45.7909525" lon="11.8191929"><ele>151.0</ele><time>2026-04-26T10:23:32.281Z</time></trkpt><trkpt lat="45.7908836" lon="11.8191879"><ele>150.2</ele><time>2026-04-26T10:23:33.27Z</time></trkpt><trkpt lat="45.7907816" lon="11.81919"><ele>149.39999999999998</ele><time>2026-04-26T10:23:35.272Z</time></trkpt><trkpt lat="45.7906662" lon="11.8191885"><ele>148.6</ele><time>2026-04-26T10:23:37.275Z</time></trkpt><trkpt lat="45.7905956" lon="11.8191911"><ele>147.79999999999998</ele><time>2026-04-26T10:23:38.284Z</time></trkpt><trkpt lat="45.7905322" lon="11.8191971"><ele>147.0</ele><time>2026-04-26T10:23:39.277Z</time></trkpt><trkpt lat="45.7904225" lon="11.8192066"><ele>147.0</ele><time>2026-04-26T10:23:41.282Z</time></trkpt><trkpt lat="45.7903448" lon="11.8191422"><ele>147.0</ele><time>2026-04-26T10:23:43.286Z</time></trkpt><trkpt lat="45.7903149" lon="11.8189798"><ele>147.0</ele><time>2026-04-26T10:23:45.277Z</time></trkpt><trkpt lat="45.7903034" lon="11.8188797"><ele>147.0</ele><time>2026-04-26T10:23:46.279Z</time></trkpt><trkpt lat="45.7903027" lon="11.8187312"><ele>147.0</ele><time>2026-04-26T10:23:47.272Z</time></trkpt><trkpt lat="45.7903144" lon="11.8185564"><ele>147.25</ele><time>2026-04-26T10:23:48.278Z</time></trkpt><trkpt lat="45.7902912" lon="11.8183942"><ele>147.5</ele><time>2026-04-26T10:23:49.277Z</time></trkpt><trkpt lat="45.7902504" lon="11.8182365"><ele>147.75</ele><time>2026-04-26T10:23:50.278Z</time></trkpt><trkpt lat="45.7901868" lon="11.8180866"><ele>148.0</ele><time>2026-04-26T10:23:51.277Z</time></trkpt><trkpt lat="45.7901327" lon="11.8179292"><ele>148.0</ele><time>2026-04-26T10:23:52.283Z</time></trkpt><trkpt lat="45.7900886" lon="11.8177771"><ele>148.0</ele><time>2026-04-26T10:23:53.269Z</time></trkpt><trkpt lat="45.7900455" lon="11.8175989"><ele>148.0</ele><time>2026-04-26T10:23:54.278Z</time></trkpt><trkpt lat="45.7900257" lon="11.8174192"><ele>148.0</ele><time>2026-04-26T10:23:55.276Z</time></trkpt><trkpt lat="45.7900082" lon="11.8172423"><ele>149.4</ele><time>2026-04-26T10:23:56.286Z</time></trkpt><trkpt lat="45.7899941" lon="11.8170888"><ele>150.8</ele><time>2026-04-26T10:23:57.283Z</time></trkpt><trkpt lat="45.7899814" lon="11.81694"><ele>152.2</ele><time>2026-04-26T10:23:58.285Z</time></trkpt><trkpt lat="45.7899756" lon="11.8167823"><ele>153.6</ele><time>2026-04-26T10:23:59.285Z</time></trkpt><trkpt lat="45.7899746" lon="11.8166219"><ele>155.0</ele><time>2026-04-26T10:24:00.282Z</time></trkpt><trkpt lat="45.7899759" lon="11.8164506"><ele>157.75</ele><time>2026-04-26T10:24:01.289Z</time></trkpt><trkpt lat="45.7899772" lon="11.8162854"><ele>160.5</ele><time>2026-04-26T10:24:02.278Z</time></trkpt><trkpt lat="45.7899792" lon="11.8161196"><ele>163.25</ele><time>2026-04-26T10:24:03.28Z</time></trkpt><trkpt lat="45.7899846" lon="11.8159648"><ele>166.0</ele><time>2026-04-26T10:24:04.272Z</time></trkpt><trkpt lat="45.7899928" lon="11.815805"><ele>167.60000000000002</ele><time>2026-04-26T10:24:05.273Z</time></trkpt><trkpt lat="45.7900063" lon="11.8156571"><ele>169.2</ele><time>2026-04-26T10:24:06.274Z</time></trkpt><trkpt lat="45.790015" lon="11.8155145"><ele>170.8</ele><time>2026-04-26T10:24:07.278Z</time></trkpt><trkpt lat="45.7900245" lon="11.8153832"><ele>172.39999999999998</ele><time>2026-04-26T10:24:08.271Z</time></trkpt><trkpt lat="45.7900298" lon="11.8152607"><ele>174.0</ele><time>2026-04-26T10:24:09.275Z</time></trkpt><trkpt lat="45.7900415" lon="11.815147"><ele>174.5</ele><time>2026-04-26T10:24:10.27Z</time></trkpt><trkpt lat="45.7900522" lon="11.8150543"><ele>175.0</ele><time>2026-04-26T10:24:11.277Z</time></trkpt><trkpt lat="45.7901033" lon="11.8149196"><ele>175.5</ele><time>2026-04-26T10:24:13.275Z</time></trkpt><trkpt lat="45.7901536" lon="11.8148466"><ele>176.0</ele><time>2026-04-26T10:24:14.274Z</time></trkpt><trkpt lat="45.7902275" lon="11.8147591"><ele>176.5</ele><time>2026-04-26T10:24:15.266Z</time></trkpt><trkpt lat="45.7903044" lon="11.8146652"><ele>177.0</ele><time>2026-04-26T10:24:16.274Z</time></trkpt><trkpt lat="45.790393" lon="11.8145599"><ele>178.5</ele><time>2026-04-26T10:24:17.272Z</time></trkpt><trkpt lat="45.7904958" lon="11.8144575"><ele>180.0</ele><time>2026-04-26T10:24:18.266Z</time></trkpt><trkpt lat="45.7905942" lon="11.8143586"><ele>181.5</ele><time>2026-04-26T10:24:19.26Z</time></trkpt><trkpt lat="45.7906913" lon="11.8142737"><ele>183.0</ele><time>2026-04-26T10:24:20.269Z</time></trkpt><trkpt lat="45.7907621" lon="11.8141763"><ele>183.0</ele><time>2026-04-26T10:24:21.262Z</time></trkpt><trkpt lat="45.7907998" lon="11.8140455"><ele>183.0</ele><time>2026-04-26T10:24:22.27Z</time></trkpt><trkpt lat="45.7908134" lon="11.8139269"><ele>183.0</ele><time>2026-04-26T10:24:23.267Z</time></trkpt><trkpt lat="45.7908048" lon="11.813801"><ele>183.0</ele><time>2026-04-26T10:24:24.263Z</time></trkpt><trkpt lat="45.7907876" lon="11.8136744"><ele>183.0</ele><time>2026-04-26T10:24:25.268Z</time></trkpt><trkpt lat="45.7907388" lon="11.8135192"><ele>183.75</ele><time>2026-04-26T10:24:26.263Z</time></trkpt><trkpt lat="45.790678" lon="11.8133635"><ele>184.5</ele><time>2026-04-26T10:24:27.268Z</time></trkpt><trkpt lat="45.790606" lon="11.813206"><ele>185.25</ele><time>2026-04-26T10:24:28.268Z</time></trkpt><trkpt lat="45.7905635" lon="11.8130411"><ele>186.0</ele><time>2026-04-26T10:24:29.267Z</time></trkpt><trkpt lat="45.7905363" lon="11.8128734"><ele>186.0</ele><time>2026-04-26T10:24:30.276Z</time></trkpt><trkpt lat="45.7905368" lon="11.8126958"><ele>186.0</ele><time>2026-04-26T10:24:31.27Z</time></trkpt><trkpt lat="45.790518" lon="11.8125302"><ele>186.0</ele><time>2026-04-26T10:24:32.268Z</time></trkpt><trkpt lat="45.7904843" lon="11.8123704"><ele>186.0</ele><time>2026-04-26T10:24:33.267Z</time></trkpt><trkpt lat="45.7904361" lon="11.8122089"><ele>186.20000000000002</ele><time>2026-04-26T10:24:34.27Z</time></trkpt><trkpt lat="45.7903794" lon="11.8120871"><ele>186.4</ele><time>2026-04-26T10:24:35.265Z</time></trkpt><trkpt lat="45.790336" lon="11.8119539"><ele>186.6</ele><time>2026-04-26T10:24:36.268Z</time></trkpt><trkpt lat="45.7902834" lon="11.8118464"><ele>186.8</ele><time>2026-04-26T10:24:37.266Z</time></trkpt><trkpt lat="45.7902433" lon="11.8117745"><ele>187.0</ele><time>2026-04-26T10:24:38.272Z</time></trkpt><trkpt lat="45.790142" lon="11.8117103"><ele>185.0</ele><time>2026-04-26T10:24:40.281Z</time></trkpt><trkpt lat="45.7900718" lon="11.811708"><ele>183.0</ele><time>2026-04-26T10:24:41.28Z</time></trkpt><trkpt lat="45.7899665" lon="11.811689"><ele>181.0</ele><time>2026-04-26T10:24:43.277Z</time></trkpt><trkpt lat="45.7899296" lon="11.8115641"><ele>179.0</ele><time>2026-04-26T10:24:46.285Z</time></trkpt><trkpt lat="45.7898869" lon="11.8114601"><ele>177.0</ele><time>2026-04-26T10:24:48.283Z</time></trkpt><trkpt lat="45.7898174" lon="11.8113613"><ele>177.0</ele><time>2026-04-26T10:24:50.279Z</time></trkpt><trkpt lat="45.7897272" lon="11.8112879"><ele>177.0</ele><time>2026-04-26T10:24:52.282Z</time></trkpt><trkpt lat="45.7896371" lon="11.8112081"><ele>177.0</ele><time>2026-04-26T10:24:54.276Z</time></trkpt><trkpt lat="45.7895539" lon="11.8111315"><ele>177.0</ele><time>2026-04-26T10:24:56.276Z</time></trkpt><trkpt lat="45.7894792" lon="11.8110723"><ele>177.0</ele><time>2026-04-26T10:24:58.275Z</time></trkpt><trkpt lat="45.7894039" lon="11.8110293"><ele>177.0</ele><time>2026-04-26T10:25:00.277Z</time></trkpt><trkpt lat="45.7893381" lon="11.81099"><ele>177.0</ele><time>2026-04-26T10:25:02.276Z</time></trkpt><trkpt lat="45.7892789" lon="11.8109543"><ele>177.0</ele><time>2026-04-26T10:25:04.276Z</time></trkpt><trkpt lat="45.7893033" lon="11.8108642"><ele>177.0</ele><time>2026-04-26T10:25:14.284Z</time></trkpt><trkpt lat="45.7893776" lon="11.8108629"><ele>177.0</ele><time>2026-04-26T10:25:18.276Z</time></trkpt><trkpt lat="45.7894626" lon="11.8109111"><ele>177.0</ele><time>2026-04-26T10:25:21.281Z</time></trkpt><trkpt lat="45.7895295" lon="11.8109545"><ele>177.0</ele><time>2026-04-26T10:25:23.281Z</time></trkpt><trkpt lat="45.7896165" lon="11.8110382"><ele>177.0</ele><time>2026-04-26T10:25:25.283Z</time></trkpt><trkpt lat="45.7897093" lon="11.811118"><ele>177.0</ele><time>2026-04-26T10:25:27.28Z</time></trkpt><trkpt lat="45.7898111" lon="11.8111462"><ele>177.0</ele><time>2026-04-26T10:25:29.275Z</time></trkpt><trkpt lat="45.7899312" lon="11.8111145"><ele>177.0</ele><time>2026-04-26T10:25:31.277Z</time></trkpt><trkpt lat="45.7900194" lon="11.8110846"><ele>177.0</ele><time>2026-04-26T10:25:33.278Z</time></trkpt><trkpt lat="45.7900878" lon="11.8110494"><ele>176.0</ele><time>2026-04-26T10:25:35.268Z</time></trkpt><trkpt lat="45.7901514" lon="11.8109516"><ele>175.0</ele><time>2026-04-26T10:25:37.27Z</time></trkpt><trkpt lat="45.7902072" lon="11.8107965"><ele>174.0</ele><time>2026-04-26T10:25:39.284Z</time></trkpt><trkpt lat="45.7902014" lon="11.8106124"><ele>173.0</ele><time>2026-04-26T10:25:41.278Z</time></trkpt><trkpt lat="45.7901688" lon="11.8105191"><ele>172.0</ele><time>2026-04-26T10:25:42.274Z</time></trkpt><trkpt lat="45.7900757" lon="11.8104203"><ele>171.0</ele><time>2026-04-26T10:25:44.264Z</time></trkpt><trkpt lat="45.7899872" lon="11.8103973"><ele>170.0</ele><time>2026-04-26T10:25:46.277Z</time></trkpt><trkpt lat="45.7899043" lon="11.8103864"><ele>169.0</ele><time>2026-04-26T10:25:48.282Z</time></trkpt><trkpt lat="45.7897969" lon="11.8103458"><ele>168.0</ele><time>2026-04-26T10:25:50.274Z</time></trkpt><trkpt lat="45.7897151" lon="11.8102097"><ele>167.0</ele><time>2026-04-26T10:25:52.278Z</time></trkpt><trkpt lat="45.7896892" lon="11.8100953"><ele>165.2</ele><time>2026-04-26T10:25:53.274Z</time></trkpt><trkpt lat="45.7896899" lon="11.8099652"><ele>163.39999999999998</ele><time>2026-04-26T10:25:54.277Z</time></trkpt><trkpt lat="45.7897131" lon="11.8098232"><ele>161.60000000000002</ele><time>2026-04-26T10:25:55.27Z</time></trkpt><trkpt lat="45.7897494" lon="11.8097021"><ele>159.8</ele><time>2026-04-26T10:25:56.273Z</time></trkpt><trkpt lat="45.7897994" lon="11.8095953"><ele>158.0</ele><time>2026-04-26T10:25:57.267Z</time></trkpt><trkpt lat="45.7898656" lon="11.8095072"><ele>158.0</ele><time>2026-04-26T10:25:58.273Z</time></trkpt><trkpt lat="45.7899497" lon="11.8094323"><ele>158.0</ele><time>2026-04-26T10:25:59.27Z</time></trkpt><trkpt lat="45.7900291" lon="11.8093518"><ele>158.0</ele><time>2026-04-26T10:26:00.279Z</time></trkpt><trkpt lat="45.7901054" lon="11.8092829"><ele>158.0</ele><time>2026-04-26T10:26:01.268Z</time></trkpt><trkpt lat="45.7901739" lon="11.8092183"><ele>158.0</ele><time>2026-04-26T10:26:02.277Z</time></trkpt><trkpt lat="45.7902064" lon="11.8091408"><ele>158.0</ele><time>2026-04-26T10:26:03.272Z</time></trkpt><trkpt lat="45.7901911" lon="11.8089808"><ele>156.6</ele><time>2026-04-26T10:26:05.27Z</time></trkpt><trkpt lat="45.7901277" lon="11.8089366"><ele>155.20000000000002</ele><time>2026-04-26T10:26:06.272Z</time></trkpt><trkpt lat="45.7900408" lon="11.8088969"><ele>153.8</ele><time>2026-04-26T10:26:07.273Z</time></trkpt><trkpt lat="45.7899418" lon="11.8088584"><ele>152.4</ele><time>2026-04-26T10:26:08.273Z</time></trkpt><trkpt lat="45.7898404" lon="11.8087827"><ele>151.0</ele><time>2026-04-26T10:26:09.268Z</time></trkpt><trkpt lat="45.7897486" lon="11.8086647"><ele>151.0</ele><time>2026-04-26T10:26:10.271Z</time></trkpt><trkpt lat="45.789648" lon="11.8085324"><ele>151.0</ele><time>2026-04-26T10:26:11.264Z</time></trkpt><trkpt lat="45.7895635" lon="11.808399"><ele>151.0</ele><time>2026-04-26T10:26:12.27Z</time></trkpt><trkpt lat="45.789513" lon="11.8082889"><ele>151.0</ele><time>2026-04-26T10:26:13.27Z</time></trkpt><trkpt lat="45.7894819" lon="11.8081808"><ele>151.0</ele><time>2026-04-26T10:26:14.271Z</time></trkpt><trkpt lat="45.7894746" lon="11.8080847"><ele>151.8</ele><time>2026-04-26T10:26:15.272Z</time></trkpt><trkpt lat="45.7894507" lon="11.8079117"><ele>152.6</ele><time>2026-04-26T10:26:17.274Z</time></trkpt><trkpt lat="45.7894337" lon="11.8078032"><ele>153.4</ele><time>2026-04-26T10:26:18.27Z</time></trkpt><trkpt lat="45.7894233" lon="11.8076857"><ele>154.2</ele><time>2026-04-26T10:26:19.268Z</time></trkpt><trkpt lat="45.7894132" lon="11.8075411"><ele>155.0</ele><time>2026-04-26T10:26:20.268Z</time></trkpt><trkpt lat="45.7894125" lon="11.8073887"><ele>155.5</ele><time>2026-04-26T10:26:21.275Z</time></trkpt><trkpt lat="45.7894149" lon="11.8072276"><ele>156.0</ele><time>2026-04-26T10:26:22.269Z</time></trkpt><trkpt lat="45.7894156" lon="11.8070537"><ele>156.5</ele><time>2026-04-26T10:26:23.281Z</time></trkpt><trkpt lat="45.7894165" lon="11.8068698"><ele>157.0</ele><time>2026-04-26T10:26:24.274Z</time></trkpt><trkpt lat="45.7894032" lon="11.806677"><ele>157.0</ele><time>2026-04-26T10:26:25.284Z</time></trkpt><trkpt lat="45.7893794" lon="11.8064958"><ele>157.0</ele><time>2026-04-26T10:26:26.277Z</time></trkpt><trkpt lat="45.7893436" lon="11.8063195"><ele>157.0</ele><time>2026-04-26T10:26:27.278Z</time></trkpt><trkpt lat="45.789311" lon="11.8061602"><ele>157.0</ele><time>2026-04-26T10:26:28.277Z</time></trkpt><trkpt lat="45.7892773" lon="11.8060294"><ele>153.83333333333334</ele><time>2026-04-26T10:26:29.279Z</time></trkpt><trkpt lat="45.7892484" lon="11.8059298"><ele>150.66666666666669</ele><time>2026-04-26T10:26:30.275Z</time></trkpt><trkpt lat="45.789217" lon="11.8058233"><ele>147.5</ele><time>2026-04-26T10:26:31.28Z</time></trkpt><trkpt lat="45.7891871" lon="11.8057139"><ele>144.33333333333334</ele><time>2026-04-26T10:26:32.275Z</time></trkpt><trkpt lat="45.7891497" lon="11.8056004"><ele>141.16666666666666</ele><time>2026-04-26T10:26:33.284Z</time></trkpt><trkpt lat="45.7891028" lon="11.8054875"><ele>138.0</ele><time>2026-04-26T10:26:34.273Z</time></trkpt><trkpt lat="45.789044" lon="11.8053783"><ele>138.0</ele><time>2026-04-26T10:26:35.28Z</time></trkpt><trkpt lat="45.7889806" lon="11.8052595"><ele>138.0</ele><time>2026-04-26T10:26:36.271Z</time></trkpt><trkpt lat="45.7889111" lon="11.8051327"><ele>138.0</ele><time>2026-04-26T10:26:37.285Z</time></trkpt><trkpt lat="45.7888533" lon="11.804971"><ele>138.0</ele><time>2026-04-26T10:26:38.27Z</time></trkpt><trkpt lat="45.7887838" lon="11.8047946"><ele>137.0</ele><time>2026-04-26T10:26:39.278Z</time></trkpt><trkpt lat="45.7887404" lon="11.8046457"><ele>136.0</ele><time>2026-04-26T10:26:40.271Z</time></trkpt><trkpt lat="45.788691" lon="11.8045159"><ele>135.0</ele><time>2026-04-26T10:26:41.274Z</time></trkpt><trkpt lat="45.7886362" lon="11.8044087"><ele>134.0</ele><time>2026-04-26T10:26:42.283Z</time></trkpt><trkpt lat="45.7885685" lon="11.8043298"><ele>133.0</ele><time>2026-04-26T10:26:43.277Z</time></trkpt><trkpt lat="45.7884802" lon="11.8042825"><ele>132.25</ele><time>2026-04-26T10:26:44.283Z</time></trkpt><trkpt lat="45.7883718" lon="11.8042848"><ele>131.5</ele><time>2026-04-26T10:26:45.28Z</time></trkpt><trkpt lat="45.7882322" lon="11.8043144"><ele>130.75</ele><time>2026-04-26T10:26:46.275Z</time></trkpt><trkpt lat="45.7880978" lon="11.8043277"><ele>130.0</ele><time>2026-04-26T10:26:47.28Z</time></trkpt><trkpt lat="45.7879725" lon="11.8043531"><ele>130.0</ele><time>2026-04-26T10:26:48.281Z</time></trkpt><trkpt lat="45.7878602" lon="11.8043836"><ele>130.0</ele><time>2026-04-26T10:26:49.276Z</time></trkpt><trkpt lat="45.7877445" lon="11.8044286"><ele>130.0</ele><time>2026-04-26T10:26:50.275Z</time></trkpt><trkpt lat="45.7876455" lon="11.8044619"><ele>130.0</ele><time>2026-04-26T10:26:51.277Z</time></trkpt><trkpt lat="45.7875582" lon="11.8044942"><ele>130.0</ele><time>2026-04-26T10:26:52.278Z</time></trkpt><trkpt lat="45.7874881" lon="11.8045158"><ele>129.4</ele><time>2026-04-26T10:26:53.28Z</time></trkpt><trkpt lat="45.7874248" lon="11.8045679"><ele>128.8</ele><time>2026-04-26T10:26:55.285Z</time></trkpt><trkpt lat="45.7873583" lon="11.8044657"><ele>128.2</ele><time>2026-04-26T10:26:58.279Z</time></trkpt><trkpt lat="45.7873669" lon="11.8043485"><ele>127.6</ele><time>2026-04-26T10:26:59.281Z</time></trkpt><trkpt lat="45.7873982" lon="11.8041892"><ele>127.0</ele><time>2026-04-26T10:27:00.272Z</time></trkpt><trkpt lat="45.7874308" lon="11.8040067"><ele>126.25</ele><time>2026-04-26T10:27:01.279Z</time></trkpt><trkpt lat="45.7874683" lon="11.8038038"><ele>125.5</ele><time>2026-04-26T10:27:02.273Z</time></trkpt><trkpt lat="45.7875043" lon="11.8035949"><ele>124.75</ele><time>2026-04-26T10:27:03.286Z</time></trkpt><trkpt lat="45.7875342" lon="11.80338"><ele>124.0</ele><time>2026-04-26T10:27:04.277Z</time></trkpt><trkpt lat="45.7875596" lon="11.8031679"><ele>123.66666666666667</ele><time>2026-04-26T10:27:05.282Z</time></trkpt><trkpt lat="45.7875834" lon="11.8029472"><ele>123.33333333333334</ele><time>2026-04-26T10:27:06.278Z</time></trkpt><trkpt lat="45.7875813" lon="11.802724"><ele>123.0</ele><time>2026-04-26T10:27:07.28Z</time></trkpt><trkpt lat="45.7875651" lon="11.8025109"><ele>123.0</ele><time>2026-04-26T10:27:08.278Z</time></trkpt><trkpt lat="45.7875371" lon="11.8023162"><ele>123.0</ele><time>2026-04-26T10:27:09.286Z</time></trkpt><trkpt lat="45.7875007" lon="11.8021232"><ele>123.0</ele><time>2026-04-26T10:27:10.276Z</time></trkpt><trkpt lat="45.7874747" lon="11.8019308"><ele>123.0</ele><time>2026-04-26T10:27:11.286Z</time></trkpt><trkpt lat="45.7874505" lon="11.8017324"><ele>123.0</ele><time>2026-04-26T10:27:12.278Z</time></trkpt><trkpt lat="45.7874242" lon="11.8015375"><ele>123.0</ele><time>2026-04-26T10:27:13.283Z</time></trkpt><trkpt lat="45.7874" lon="11.8013419"><ele>123.0</ele><time>2026-04-26T10:27:14.279Z</time></trkpt><trkpt lat="45.787378" lon="11.8011622"><ele>123.0</ele><time>2026-04-26T10:27:15.28Z</time></trkpt><trkpt lat="45.7873597" lon="11.8009905"><ele>123.0</ele><time>2026-04-26T10:27:16.28Z</time></trkpt><trkpt lat="45.787343" lon="11.8008383"><ele>123.0</ele><time>2026-04-26T10:27:17.279Z</time></trkpt><trkpt lat="45.7873326" lon="11.8007009"><ele>123.0</ele><time>2026-04-26T10:27:18.286Z</time></trkpt><trkpt lat="45.7873372" lon="11.8005936"><ele>123.0</ele><time>2026-04-26T10:27:19.275Z</time></trkpt><trkpt lat="45.7873475" lon="11.80048"><ele>123.0</ele><time>2026-04-26T10:27:20.278Z</time></trkpt><trkpt lat="45.787325" lon="11.8003868"><ele>123.0</ele><time>2026-04-26T10:27:21.275Z</time></trkpt><trkpt lat="45.7873118" lon="11.8002777"><ele>123.0</ele><time>2026-04-26T10:27:23.271Z</time></trkpt><trkpt lat="45.787219" lon="11.8002131"><ele>123.00000000000001</ele><time>2026-04-26T10:27:28.282Z</time></trkpt><trkpt lat="45.7871559" lon="11.8002029"><ele>123.00000000000001</ele><time>2026-04-26T10:27:29.279Z</time></trkpt><trkpt lat="45.7870383" lon="11.8001996"><ele>123.0</ele><time>2026-04-26T10:27:30.277Z</time></trkpt><trkpt lat="45.7869059" lon="11.8001662"><ele>123.0</ele><time>2026-04-26T10:27:31.269Z</time></trkpt><trkpt lat="45.7867458" lon="11.8001543"><ele>123.33333333333334</ele><time>2026-04-26T10:27:32.28Z</time></trkpt><trkpt lat="45.7865597" lon="11.8001817"><ele>123.66666666666667</ele><time>2026-04-26T10:27:33.28Z</time></trkpt><trkpt lat="45.786375" lon="11.8002296"><ele>124.0</ele><time>2026-04-26T10:27:34.277Z</time></trkpt><trkpt lat="45.7862036" lon="11.8003057"><ele>124.0</ele><time>2026-04-26T10:27:35.27Z</time></trkpt><trkpt lat="45.7860217" lon="11.8004123"><ele>124.0</ele><time>2026-04-26T10:27:36.273Z</time></trkpt><trkpt lat="45.7858301" lon="11.8005294"><ele>124.0</ele><time>2026-04-26T10:27:37.274Z</time></trkpt><trkpt lat="45.7856518" lon="11.8006395"><ele>123.66666666666667</ele><time>2026-04-26T10:27:38.274Z</time></trkpt><trkpt lat="45.7854805" lon="11.8007436"><ele>123.33333333333334</ele><time>2026-04-26T10:27:39.277Z</time></trkpt><trkpt lat="45.7853194" lon="11.8008154"><ele>123.0</ele><time>2026-04-26T10:27:40.271Z</time></trkpt><trkpt lat="45.7851712" lon="11.8008857"><ele>122.75</ele><time>2026-04-26T10:27:41.276Z</time></trkpt><trkpt lat="45.7850407" lon="11.8009413"><ele>122.5</ele><time>2026-04-26T10:27:42.275Z</time></trkpt><trkpt lat="45.7849151" lon="11.8009831"><ele>122.25</ele><time>2026-04-26T10:27:43.277Z</time></trkpt><trkpt lat="45.7847835" lon="11.8010203"><ele>122.0</ele><time>2026-04-26T10:27:44.273Z</time></trkpt><trkpt lat="45.784644" lon="11.8010465"><ele>121.66666666666666</ele><time>2026-04-26T10:27:45.279Z</time></trkpt><trkpt lat="45.7844898" lon="11.8010693"><ele>121.33333333333334</ele><time>2026-04-26T10:27:46.271Z</time></trkpt><trkpt lat="45.7843302" lon="11.801094"><ele>121.0</ele><time>2026-04-26T10:27:47.277Z</time></trkpt><trkpt lat="45.7841652" lon="11.8011186"><ele>120.66666666666667</ele><time>2026-04-26T10:27:48.273Z</time></trkpt><trkpt lat="45.7839979" lon="11.8011559"><ele>120.33333333333334</ele><time>2026-04-26T10:27:49.285Z</time></trkpt><trkpt lat="45.783838" lon="11.8011858"><ele>120.0</ele><time>2026-04-26T10:27:50.278Z</time></trkpt><trkpt lat="45.7836715" lon="11.8012122"><ele>120.33333333333334</ele><time>2026-04-26T10:27:51.284Z</time></trkpt><trkpt lat="45.7835136" lon="11.8012327"><ele>120.66666666666667</ele><time>2026-04-26T10:27:52.274Z</time></trkpt><trkpt lat="45.7833558" lon="11.801256"><ele>121.0</ele><time>2026-04-26T10:27:53.281Z</time></trkpt><trkpt lat="45.783205" lon="11.8012759"><ele>121.0</ele><time>2026-04-26T10:27:54.274Z</time></trkpt><trkpt lat="45.7830486" lon="11.8012968"><ele>121.0</ele><time>2026-04-26T10:27:55.281Z</time></trkpt><trkpt lat="45.782901" lon="11.8013199"><ele>121.0</ele><time>2026-04-26T10:27:56.28Z</time></trkpt><trkpt lat="45.7827596" lon="11.8013402"><ele>121.0</ele><time>2026-04-26T10:27:57.276Z</time></trkpt><trkpt lat="45.7826137" lon="11.8013472"><ele>121.0</ele><time>2026-04-26T10:27:58.279Z</time></trkpt><trkpt lat="45.7824758" lon="11.8013581"><ele>121.0</ele><time>2026-04-26T10:27:59.282Z</time></trkpt><trkpt lat="45.7823391" lon="11.8013733"><ele>121.0</ele><time>2026-04-26T10:28:00.284Z</time></trkpt><trkpt lat="45.782207" lon="11.8013846"><ele>121.0</ele><time>2026-04-26T10:28:01.288Z</time></trkpt><trkpt lat="45.7820663" lon="11.8013903"><ele>121.0</ele><time>2026-04-26T10:28:02.283Z</time></trkpt><trkpt lat="45.7819187" lon="11.8013916"><ele>121.0</ele><time>2026-04-26T10:28:03.285Z</time></trkpt><trkpt lat="45.7817786" lon="11.8013732"><ele>121.0</ele><time>2026-04-26T10:28:04.272Z</time></trkpt><trkpt lat="45.7816351" lon="11.8013494"><ele>121.0</ele><time>2026-04-26T10:28:05.279Z</time></trkpt><trkpt lat="45.7814939" lon="11.8013283"><ele>120.5</ele><time>2026-04-26T10:28:06.28Z</time></trkpt><trkpt lat="45.7813426" lon="11.8013214"><ele>120.0</ele><time>2026-04-26T10:28:07.282Z</time></trkpt><trkpt lat="45.7811981" lon="11.8013099"><ele>119.5</ele><time>2026-04-26T10:28:08.279Z</time></trkpt><trkpt lat="45.7810586" lon="11.8013018"><ele>119.0</ele><time>2026-04-26T10:28:09.281Z</time></trkpt><trkpt lat="45.7809253" lon="11.8013079"><ele>119.0</ele><time>2026-04-26T10:28:10.274Z</time></trkpt><trkpt lat="45.7807933" lon="11.8013156"><ele>119.0</ele><time>2026-04-26T10:28:11.281Z</time></trkpt><trkpt lat="45.7806703" lon="11.8013421"><ele>119.0</ele><time>2026-04-26T10:28:12.278Z</time></trkpt><trkpt lat="45.7805509" lon="11.8013833"><ele>119.0</ele><time>2026-04-26T10:28:13.273Z</time></trkpt><trkpt lat="45.7804334" lon="11.8014264"><ele>119.0</ele><time>2026-04-26T10:28:14.274Z</time></trkpt><trkpt lat="45.7803224" lon="11.8014579"><ele>119.0</ele><time>2026-04-26T10:28:15.277Z</time></trkpt><trkpt lat="45.7802052" lon="11.8014834"><ele>119.0</ele><time>2026-04-26T10:28:16.269Z</time></trkpt><trkpt lat="45.7800803" lon="11.8014842"><ele>119.0</ele><time>2026-04-26T10:28:17.285Z</time></trkpt><trkpt lat="45.7799619" lon="11.8014724"><ele>119.0</ele><time>2026-04-26T10:28:18.278Z</time></trkpt><trkpt lat="45.7798449" lon="11.8014638"><ele>119.0</ele><time>2026-04-26T10:28:19.278Z</time></trkpt><trkpt lat="45.7797315" lon="11.8014402"><ele>119.0</ele><time>2026-04-26T10:28:20.273Z</time></trkpt><trkpt lat="45.7796218" lon="11.8014245"><ele>119.0</ele><time>2026-04-26T10:28:21.28Z</time></trkpt><trkpt lat="45.7795185" lon="11.8014018"><ele>119.0</ele><time>2026-04-26T10:28:22.273Z</time></trkpt></trkseg></trk></gpx>